<?xml version="1.0" encoding="UTF-8" standalone="no" ?>
<gpx xmlns="http://www.topografix.com/GPX/1/1" xmlns:xsi="http://www.w3.org/2001/XMLSchema-instance" xsi:schemaLocation="http://www.topografix.com/GPX/1/1 http://www.topografix.com/GPX/1/1/gpx.xsd" version="1.1" creator="VisuGPX - https://www.visugpx.com">
  <metadata>
    <name>2015-12-14 Pas de Montbrand et pas de la Pierre Taillée</name>
    <desc><![CDATA[Boucle dans les Ecouges]]></desc>
  </metadata>
  <trk>
    <name><![CDATA[2015-12-14 Ecouges Montbrand]]></name>
    <trkseg>
      <trkpt lat="45.18037" lon="5.49993">
        <ele>911</ele>
        <time>2015-12-14T08:19:19Z</time>
      </trkpt>
      <trkpt lat="45.18039" lon="5.50001">
        <ele>911</ele>
        <time>2015-12-14T08:19:25Z</time>
      </trkpt>
      <trkpt lat="45.18053" lon="5.50009">
        <ele>917.06943074</ele>
        <time>2015-12-14T08:19:35Z</time>
      </trkpt>
      <trkpt lat="45.18055" lon="5.50013">
        <ele>917.06943074</ele>
        <time>2015-12-14T08:19:39Z</time>
      </trkpt>
      <trkpt lat="45.18059" lon="5.50016">
        <ele>917.06943074</ele>
        <time>2015-12-14T08:19:44Z</time>
      </trkpt>
      <trkpt lat="45.18066" lon="5.50021">
        <ele>922.689917439</ele>
        <time>2015-12-14T08:19:54Z</time>
      </trkpt>
      <trkpt lat="45.18074" lon="5.50018">
        <ele>922.689917439</ele>
        <time>2015-12-14T08:20:00Z</time>
      </trkpt>
      <trkpt lat="45.18079" lon="5.50023">
        <ele>930.330082764</ele>
        <time>2015-12-14T08:20:10Z</time>
      </trkpt>
      <trkpt lat="45.18081" lon="5.50025">
        <ele>930.330082764</ele>
        <time>2015-12-14T08:20:15Z</time>
      </trkpt>
      <trkpt lat="45.18088" lon="5.50035">
        <ele>937.464799992</ele>
        <time>2015-12-14T08:20:25Z</time>
      </trkpt>
      <trkpt lat="45.18093" lon="5.50038">
        <ele>937.464799992</ele>
        <time>2015-12-14T08:20:30Z</time>
      </trkpt>
      <trkpt lat="45.18105" lon="5.50044">
        <ele>942.368079272</ele>
        <time>2015-12-14T08:20:40Z</time>
      </trkpt>
      <trkpt lat="45.18106" lon="5.50044">
        <ele>942.368079272</ele>
        <time>2015-12-14T08:20:44Z</time>
      </trkpt>
      <trkpt lat="45.18113" lon="5.50046">
        <ele>942.368079272</ele>
        <time>2015-12-14T08:20:55Z</time>
      </trkpt>
      <trkpt lat="45.18115" lon="5.50052">
        <ele>948.108994225</ele>
        <time>2015-12-14T08:21:00Z</time>
      </trkpt>
      <trkpt lat="45.18125" lon="5.50061">
        <ele>952.997727023</ele>
        <time>2015-12-14T08:21:10Z</time>
      </trkpt>
      <trkpt lat="45.18128" lon="5.50067">
        <ele>952.997727023</ele>
        <time>2015-12-14T08:21:15Z</time>
      </trkpt>
      <trkpt lat="45.18136" lon="5.5009">
        <ele>957.2329006</ele>
        <time>2015-12-14T08:21:30Z</time>
      </trkpt>
      <trkpt lat="45.18135" lon="5.50093">
        <ele>957.2329006</ele>
        <time>2015-12-14T08:21:35Z</time>
      </trkpt>
      <trkpt lat="45.18124" lon="5.50093">
        <ele>960.116013039</ele>
        <time>2015-12-14T08:21:44Z</time>
      </trkpt>
      <trkpt lat="45.18119" lon="5.50095">
        <ele>960.116013039</ele>
        <time>2015-12-14T08:21:49Z</time>
      </trkpt>
      <trkpt lat="45.18106" lon="5.50103">
        <ele>962.385475336</ele>
        <time>2015-12-14T08:22:00Z</time>
      </trkpt>
      <trkpt lat="45.18103" lon="5.50104">
        <ele>962.385475336</ele>
        <time>2015-12-14T08:22:05Z</time>
      </trkpt>
      <trkpt lat="45.18096" lon="5.50106">
        <ele>964.233002095</ele>
        <time>2015-12-14T08:22:15Z</time>
      </trkpt>
      <trkpt lat="45.18096" lon="5.50109">
        <ele>964.233002095</ele>
        <time>2015-12-14T08:22:19Z</time>
      </trkpt>
      <trkpt lat="45.1809" lon="5.50112">
        <ele>964.233002095</ele>
        <time>2015-12-14T08:22:30Z</time>
      </trkpt>
      <trkpt lat="45.18085" lon="5.50117">
        <ele>966.206864661</ele>
        <time>2015-12-14T08:22:35Z</time>
      </trkpt>
      <trkpt lat="45.18081" lon="5.5012">
        <ele>966.206864661</ele>
        <time>2015-12-14T08:22:45Z</time>
      </trkpt>
      <trkpt lat="45.18081" lon="5.50121">
        <ele>966.206864661</ele>
        <time>2015-12-14T08:22:49Z</time>
      </trkpt>
      <trkpt lat="45.18078" lon="5.50129">
        <ele>968.333601899</ele>
        <time>2015-12-14T08:23:05Z</time>
      </trkpt>
      <trkpt lat="45.18086" lon="5.5013">
        <ele>968.333601899</ele>
        <time>2015-12-14T08:23:09Z</time>
      </trkpt>
      <trkpt lat="45.18087" lon="5.50134">
        <ele>969.477076028</ele>
        <time>2015-12-14T08:23:20Z</time>
      </trkpt>
      <trkpt lat="45.18087" lon="5.50131">
        <ele>969.477076028</ele>
        <time>2015-12-14T08:23:25Z</time>
      </trkpt>
      <trkpt lat="45.18088" lon="5.50134">
        <ele>969.477076028</ele>
        <time>2015-12-14T08:23:35Z</time>
      </trkpt>
      <trkpt lat="45.18091" lon="5.50137">
        <ele>969.477076028</ele>
        <time>2015-12-14T08:23:39Z</time>
      </trkpt>
      <trkpt lat="45.18099" lon="5.50142">
        <ele>969.27974014</ele>
        <time>2015-12-14T08:23:50Z</time>
      </trkpt>
      <trkpt lat="45.18101" lon="5.50141">
        <ele>969.27974014</ele>
        <time>2015-12-14T08:23:54Z</time>
      </trkpt>
      <trkpt lat="45.18102" lon="5.5014">
        <ele>969.27974014</ele>
        <time>2015-12-14T08:24:05Z</time>
      </trkpt>
      <trkpt lat="45.18109" lon="5.5014">
        <ele>968.920104631</ele>
        <time>2015-12-14T08:24:10Z</time>
      </trkpt>
      <trkpt lat="45.18122" lon="5.50131">
        <ele>969.447922271</ele>
        <time>2015-12-14T08:24:20Z</time>
      </trkpt>
      <trkpt lat="45.18126" lon="5.50126">
        <ele>969.447922271</ele>
        <time>2015-12-14T08:24:25Z</time>
      </trkpt>
      <trkpt lat="45.18131" lon="5.50126">
        <ele>970.159041188</ele>
        <time>2015-12-14T08:24:35Z</time>
      </trkpt>
      <trkpt lat="45.18133" lon="5.50125">
        <ele>970.159041188</ele>
        <time>2015-12-14T08:24:40Z</time>
      </trkpt>
      <trkpt lat="45.18156" lon="5.50139">
        <ele>968.672191327</ele>
        <time>2015-12-14T08:24:49Z</time>
      </trkpt>
      <trkpt lat="45.18166" lon="5.50148">
        <ele>966.368148388</ele>
        <time>2015-12-14T08:24:54Z</time>
      </trkpt>
      <trkpt lat="45.18173" lon="5.50154">
        <ele>966.368148388</ele>
        <time>2015-12-14T08:25:05Z</time>
      </trkpt>
      <trkpt lat="45.18176" lon="5.50156">
        <ele>963.678700139</ele>
        <time>2015-12-14T08:25:10Z</time>
      </trkpt>
      <trkpt lat="45.1818" lon="5.50159">
        <ele>963.678700139</ele>
        <time>2015-12-14T08:25:25Z</time>
      </trkpt>
      <trkpt lat="45.1818" lon="5.50159">
        <ele>963.678700139</ele>
        <time>2015-12-14T08:25:30Z</time>
      </trkpt>
      <trkpt lat="45.18197" lon="5.50168">
        <ele>962.496324552</ele>
        <time>2015-12-14T08:25:40Z</time>
      </trkpt>
      <trkpt lat="45.18204" lon="5.50172">
        <ele>962.496324552</ele>
        <time>2015-12-14T08:25:45Z</time>
      </trkpt>
      <trkpt lat="45.18226" lon="5.50181">
        <ele>962.06207578</ele>
        <time>2015-12-14T08:25:54Z</time>
      </trkpt>
      <trkpt lat="45.1823" lon="5.50185">
        <ele>962.06207578</ele>
        <time>2015-12-14T08:26:00Z</time>
      </trkpt>
      <trkpt lat="45.18231" lon="5.50191">
        <ele>962.593807834</ele>
        <time>2015-12-14T08:26:10Z</time>
      </trkpt>
      <trkpt lat="45.18232" lon="5.50193">
        <ele>962.593807834</ele>
        <time>2015-12-14T08:26:15Z</time>
      </trkpt>
      <trkpt lat="45.18239" lon="5.50201">
        <ele>962.385495208</ele>
        <time>2015-12-14T08:26:25Z</time>
      </trkpt>
      <trkpt lat="45.18241" lon="5.50206">
        <ele>962.385495208</ele>
        <time>2015-12-14T08:26:30Z</time>
      </trkpt>
      <trkpt lat="45.18243" lon="5.50219">
        <ele>962.667809369</ele>
        <time>2015-12-14T08:26:40Z</time>
      </trkpt>
      <trkpt lat="45.18245" lon="5.50226">
        <ele>962.667809369</ele>
        <time>2015-12-14T08:26:45Z</time>
      </trkpt>
      <trkpt lat="45.18257" lon="5.50246">
        <ele>963.960442966</ele>
        <time>2015-12-14T08:27:00Z</time>
      </trkpt>
      <trkpt lat="45.18257" lon="5.50249">
        <ele>963.960442966</ele>
        <time>2015-12-14T08:27:04Z</time>
      </trkpt>
      <trkpt lat="45.18259" lon="5.50252">
        <ele>963.960442966</ele>
        <time>2015-12-14T08:27:15Z</time>
      </trkpt>
      <trkpt lat="45.18261" lon="5.50254">
        <ele>963.960442966</ele>
        <time>2015-12-14T08:27:20Z</time>
      </trkpt>
      <trkpt lat="45.18263" lon="5.50271">
        <ele>966.729094591</ele>
        <time>2015-12-14T08:27:31Z</time>
      </trkpt>
      <trkpt lat="45.18266" lon="5.50279">
        <ele>966.729094591</ele>
        <time>2015-12-14T08:27:34Z</time>
      </trkpt>
      <trkpt lat="45.18271" lon="5.50287">
        <ele>969.014528301</ele>
        <time>2015-12-14T08:27:50Z</time>
      </trkpt>
      <trkpt lat="45.18272" lon="5.50297">
        <ele>969.014528301</ele>
        <time>2015-12-14T08:27:55Z</time>
      </trkpt>
      <trkpt lat="45.18283" lon="5.50308">
        <ele>972.391046655</ele>
        <time>2015-12-14T08:28:05Z</time>
      </trkpt>
      <trkpt lat="45.18282" lon="5.50309">
        <ele>972.391046655</ele>
        <time>2015-12-14T08:28:10Z</time>
      </trkpt>
      <trkpt lat="45.18283" lon="5.50308">
        <ele>972.391046655</ele>
        <time>2015-12-14T08:28:20Z</time>
      </trkpt>
      <trkpt lat="45.18283" lon="5.50308">
        <ele>972.391046655</ele>
        <time>2015-12-14T08:28:25Z</time>
      </trkpt>
      <trkpt lat="45.18283" lon="5.50308">
        <ele>972.391046655</ele>
        <time>2015-12-14T08:28:35Z</time>
      </trkpt>
      <trkpt lat="45.18283" lon="5.50308">
        <ele>972.391046655</ele>
        <time>2015-12-14T08:28:39Z</time>
      </trkpt>
      <trkpt lat="45.18281" lon="5.50308">
        <ele>972.391046655</ele>
        <time>2015-12-14T08:28:49Z</time>
      </trkpt>
      <trkpt lat="45.1828" lon="5.50314">
        <ele>975.655731082</ele>
        <time>2015-12-14T08:28:54Z</time>
      </trkpt>
      <trkpt lat="45.18281" lon="5.50312">
        <ele>975.655731082</ele>
        <time>2015-12-14T08:29:05Z</time>
      </trkpt>
      <trkpt lat="45.18281" lon="5.50312">
        <ele>975.655731082</ele>
        <time>2015-12-14T08:29:10Z</time>
      </trkpt>
      <trkpt lat="45.18284" lon="5.503">
        <ele>979.509239632</ele>
        <time>2015-12-14T08:29:20Z</time>
      </trkpt>
      <trkpt lat="45.18284" lon="5.50292">
        <ele>979.509239632</ele>
        <time>2015-12-14T08:29:25Z</time>
      </trkpt>
      <trkpt lat="45.18288" lon="5.50279">
        <ele>982.240657265</ele>
        <time>2015-12-14T08:29:35Z</time>
      </trkpt>
      <trkpt lat="45.18292" lon="5.50273">
        <ele>982.240657265</ele>
        <time>2015-12-14T08:29:40Z</time>
      </trkpt>
      <trkpt lat="45.18297" lon="5.50266">
        <ele>984.481024594</ele>
        <time>2015-12-14T08:29:50Z</time>
      </trkpt>
      <trkpt lat="45.18303" lon="5.5026">
        <ele>984.481024594</ele>
        <time>2015-12-14T08:29:55Z</time>
      </trkpt>
      <trkpt lat="45.18308" lon="5.50249">
        <ele>985.283582392</ele>
        <time>2015-12-14T08:30:04Z</time>
      </trkpt>
      <trkpt lat="45.18308" lon="5.50244">
        <ele>985.283582392</ele>
        <time>2015-12-14T08:30:10Z</time>
      </trkpt>
      <trkpt lat="45.18315" lon="5.5023">
        <ele>985.578646286</ele>
        <time>2015-12-14T08:30:20Z</time>
      </trkpt>
      <trkpt lat="45.18318" lon="5.50225">
        <ele>985.578646286</ele>
        <time>2015-12-14T08:30:25Z</time>
      </trkpt>
      <trkpt lat="45.1832" lon="5.50216">
        <ele>985.398653594</ele>
        <time>2015-12-14T08:30:30Z</time>
      </trkpt>
      <trkpt lat="45.18324" lon="5.50208">
        <ele>985.398653594</ele>
        <time>2015-12-14T08:30:40Z</time>
      </trkpt>
      <trkpt lat="45.18323" lon="5.50202">
        <ele>984.775707331</ele>
        <time>2015-12-14T08:30:45Z</time>
      </trkpt>
      <trkpt lat="45.18325" lon="5.5019">
        <ele>984.775707331</ele>
        <time>2015-12-14T08:30:55Z</time>
      </trkpt>
      <trkpt lat="45.18324" lon="5.50182">
        <ele>984.170457937</ele>
        <time>2015-12-14T08:30:59Z</time>
      </trkpt>
      <trkpt lat="45.18324" lon="5.50169">
        <ele>983.590533234</ele>
        <time>2015-12-14T08:31:10Z</time>
      </trkpt>
      <trkpt lat="45.18323" lon="5.50168">
        <ele>983.590533234</ele>
        <time>2015-12-14T08:31:14Z</time>
      </trkpt>
      <trkpt lat="45.18325" lon="5.50161">
        <ele>983.590533234</ele>
        <time>2015-12-14T08:31:25Z</time>
      </trkpt>
      <trkpt lat="45.18326" lon="5.50159">
        <ele>983.590533234</ele>
        <time>2015-12-14T08:31:30Z</time>
      </trkpt>
      <trkpt lat="45.18327" lon="5.50151">
        <ele>982.754609186</ele>
        <time>2015-12-14T08:31:40Z</time>
      </trkpt>
      <trkpt lat="45.18328" lon="5.50142">
        <ele>982.754609186</ele>
        <time>2015-12-14T08:31:45Z</time>
      </trkpt>
      <trkpt lat="45.18332" lon="5.5012">
        <ele>983.291252374</ele>
        <time>2015-12-14T08:31:55Z</time>
      </trkpt>
      <trkpt lat="45.18337" lon="5.50111">
        <ele>983.291252374</ele>
        <time>2015-12-14T08:31:59Z</time>
      </trkpt>
      <trkpt lat="45.18351" lon="5.501">
        <ele>983.513788767</ele>
        <time>2015-12-14T08:32:10Z</time>
      </trkpt>
      <trkpt lat="45.18358" lon="5.50102">
        <ele>983.513788767</ele>
        <time>2015-12-14T08:32:15Z</time>
      </trkpt>
      <trkpt lat="45.18372" lon="5.50104">
        <ele>983.15305984</ele>
        <time>2015-12-14T08:32:25Z</time>
      </trkpt>
      <trkpt lat="45.18376" lon="5.50105">
        <ele>983.15305984</ele>
        <time>2015-12-14T08:32:29Z</time>
      </trkpt>
      <trkpt lat="45.18386" lon="5.50112">
        <ele>983.58909519</ele>
        <time>2015-12-14T08:32:40Z</time>
      </trkpt>
      <trkpt lat="45.18388" lon="5.50115">
        <ele>983.58909519</ele>
        <time>2015-12-14T08:32:45Z</time>
      </trkpt>
      <trkpt lat="45.18399" lon="5.50119">
        <ele>984.777581</ele>
        <time>2015-12-14T08:32:55Z</time>
      </trkpt>
      <trkpt lat="45.18404" lon="5.50122">
        <ele>984.777581</ele>
        <time>2015-12-14T08:32:59Z</time>
      </trkpt>
      <trkpt lat="45.18419" lon="5.50142">
        <ele>985.325487126</ele>
        <time>2015-12-14T08:33:15Z</time>
      </trkpt>
      <trkpt lat="45.18424" lon="5.50146">
        <ele>985.325487126</ele>
        <time>2015-12-14T08:33:20Z</time>
      </trkpt>
      <trkpt lat="45.18434" lon="5.50147">
        <ele>984.980426063</ele>
        <time>2015-12-14T08:33:29Z</time>
      </trkpt>
      <trkpt lat="45.18435" lon="5.50155">
        <ele>984.980426063</ele>
        <time>2015-12-14T08:33:35Z</time>
      </trkpt>
      <trkpt lat="45.18442" lon="5.50155">
        <ele>984.414425168</ele>
        <time>2015-12-14T08:33:45Z</time>
      </trkpt>
      <trkpt lat="45.1845" lon="5.50157">
        <ele>984.414425168</ele>
        <time>2015-12-14T08:33:50Z</time>
      </trkpt>
      <trkpt lat="45.18452" lon="5.5016">
        <ele>983.803019821</ele>
        <time>2015-12-14T08:34:00Z</time>
      </trkpt>
      <trkpt lat="45.18453" lon="5.50159">
        <ele>983.803019821</ele>
        <time>2015-12-14T08:34:05Z</time>
      </trkpt>
      <trkpt lat="45.18464" lon="5.5017">
        <ele>983.007411328</ele>
        <time>2015-12-14T08:34:15Z</time>
      </trkpt>
      <trkpt lat="45.18471" lon="5.50173">
        <ele>983.007411328</ele>
        <time>2015-12-14T08:34:19Z</time>
      </trkpt>
      <trkpt lat="45.1848" lon="5.50175">
        <ele>981.144509349</ele>
        <time>2015-12-14T08:34:30Z</time>
      </trkpt>
      <trkpt lat="45.18481" lon="5.50176">
        <ele>981.144509349</ele>
        <time>2015-12-14T08:34:34Z</time>
      </trkpt>
      <trkpt lat="45.18482" lon="5.50172">
        <ele>981.144509349</ele>
        <time>2015-12-14T08:34:39Z</time>
      </trkpt>
      <trkpt lat="45.18483" lon="5.5017">
        <ele>981.144509349</ele>
        <time>2015-12-14T08:34:44Z</time>
      </trkpt>
      <trkpt lat="45.18483" lon="5.5017">
        <ele>981.144509349</ele>
        <time>2015-12-14T08:34:49Z</time>
      </trkpt>
      <trkpt lat="45.18484" lon="5.50171">
        <ele>981.144509349</ele>
        <time>2015-12-14T08:34:54Z</time>
      </trkpt>
      <trkpt lat="45.18487" lon="5.50185">
        <ele>980.874630763</ele>
        <time>2015-12-14T08:35:00Z</time>
      </trkpt>
      <trkpt lat="45.185" lon="5.50191">
        <ele>980.87316244</ele>
        <time>2015-12-14T08:35:10Z</time>
      </trkpt>
      <trkpt lat="45.18503" lon="5.50197">
        <ele>980.87316244</ele>
        <time>2015-12-14T08:35:14Z</time>
      </trkpt>
      <trkpt lat="45.18513" lon="5.50204">
        <ele>981.876996121</ele>
        <time>2015-12-14T08:35:24Z</time>
      </trkpt>
      <trkpt lat="45.18517" lon="5.50206">
        <ele>981.876996121</ele>
        <time>2015-12-14T08:35:29Z</time>
      </trkpt>
      <trkpt lat="45.18527" lon="5.50218">
        <ele>982.150787423</ele>
        <time>2015-12-14T08:35:41Z</time>
      </trkpt>
      <trkpt lat="45.18529" lon="5.50222">
        <ele>982.150787423</ele>
        <time>2015-12-14T08:35:45Z</time>
      </trkpt>
      <trkpt lat="45.18533" lon="5.5023">
        <ele>982.056571711</ele>
        <time>2015-12-14T08:35:55Z</time>
      </trkpt>
      <trkpt lat="45.18536" lon="5.50234">
        <ele>982.056571711</ele>
        <time>2015-12-14T08:36:00Z</time>
      </trkpt>
      <trkpt lat="45.18552" lon="5.50245">
        <ele>981.778022703</ele>
        <time>2015-12-14T08:36:16Z</time>
      </trkpt>
      <trkpt lat="45.18555" lon="5.50253">
        <ele>981.778022703</ele>
        <time>2015-12-14T08:36:20Z</time>
      </trkpt>
      <trkpt lat="45.18565" lon="5.50261">
        <ele>981.184775022</ele>
        <time>2015-12-14T08:36:30Z</time>
      </trkpt>
      <trkpt lat="45.18571" lon="5.50267">
        <ele>981.184775022</ele>
        <time>2015-12-14T08:36:35Z</time>
      </trkpt>
      <trkpt lat="45.18581" lon="5.50274">
        <ele>980.307555766</ele>
        <time>2015-12-14T08:36:45Z</time>
      </trkpt>
      <trkpt lat="45.18584" lon="5.50283">
        <ele>980.307555766</ele>
        <time>2015-12-14T08:36:50Z</time>
      </trkpt>
      <trkpt lat="45.18593" lon="5.50298">
        <ele>979.47309562</ele>
        <time>2015-12-14T08:37:00Z</time>
      </trkpt>
      <trkpt lat="45.18597" lon="5.50305">
        <ele>979.47309562</ele>
        <time>2015-12-14T08:37:04Z</time>
      </trkpt>
      <trkpt lat="45.18609" lon="5.50311">
        <ele>979.128819321</ele>
        <time>2015-12-14T08:37:15Z</time>
      </trkpt>
      <trkpt lat="45.18613" lon="5.50321">
        <ele>979.128819321</ele>
        <time>2015-12-14T08:37:20Z</time>
      </trkpt>
      <trkpt lat="45.1862" lon="5.50333">
        <ele>979.238245274</ele>
        <time>2015-12-14T08:37:30Z</time>
      </trkpt>
      <trkpt lat="45.18623" lon="5.50339">
        <ele>979.238245274</ele>
        <time>2015-12-14T08:37:35Z</time>
      </trkpt>
      <trkpt lat="45.18632" lon="5.50347">
        <ele>979.766558626</ele>
        <time>2015-12-14T08:37:45Z</time>
      </trkpt>
      <trkpt lat="45.18633" lon="5.5035">
        <ele>979.766558626</ele>
        <time>2015-12-14T08:37:50Z</time>
      </trkpt>
      <trkpt lat="45.1865" lon="5.50365">
        <ele>980.23826791</ele>
        <time>2015-12-14T08:38:05Z</time>
      </trkpt>
      <trkpt lat="45.18653" lon="5.50371">
        <ele>980.23826791</ele>
        <time>2015-12-14T08:38:09Z</time>
      </trkpt>
      <trkpt lat="45.1866" lon="5.50384">
        <ele>981.688852349</ele>
        <time>2015-12-14T08:38:20Z</time>
      </trkpt>
      <trkpt lat="45.18667" lon="5.50386">
        <ele>981.688852349</ele>
        <time>2015-12-14T08:38:25Z</time>
      </trkpt>
      <trkpt lat="45.18677" lon="5.50397">
        <ele>983.450657703</ele>
        <time>2015-12-14T08:38:35Z</time>
      </trkpt>
      <trkpt lat="45.18683" lon="5.50399">
        <ele>983.450657703</ele>
        <time>2015-12-14T08:38:39Z</time>
      </trkpt>
      <trkpt lat="45.18691" lon="5.50408">
        <ele>985.203395904</ele>
        <time>2015-12-14T08:38:50Z</time>
      </trkpt>
      <trkpt lat="45.18695" lon="5.50416">
        <ele>985.203395904</ele>
        <time>2015-12-14T08:38:55Z</time>
      </trkpt>
      <trkpt lat="45.18706" lon="5.50426">
        <ele>986.945392683</ele>
        <time>2015-12-14T08:39:05Z</time>
      </trkpt>
      <trkpt lat="45.18711" lon="5.5043">
        <ele>986.945392683</ele>
        <time>2015-12-14T08:39:09Z</time>
      </trkpt>
      <trkpt lat="45.18722" lon="5.50442">
        <ele>987.507839852</ele>
        <time>2015-12-14T08:39:20Z</time>
      </trkpt>
      <trkpt lat="45.18727" lon="5.50445">
        <ele>987.507839852</ele>
        <time>2015-12-14T08:39:24Z</time>
      </trkpt>
      <trkpt lat="45.18735" lon="5.50457">
        <ele>988.87762762</ele>
        <time>2015-12-14T08:39:35Z</time>
      </trkpt>
      <trkpt lat="45.18742" lon="5.5046">
        <ele>988.87762762</ele>
        <time>2015-12-14T08:39:40Z</time>
      </trkpt>
      <trkpt lat="45.18751" lon="5.50471">
        <ele>989.681041921</ele>
        <time>2015-12-14T08:39:50Z</time>
      </trkpt>
      <trkpt lat="45.18755" lon="5.50479">
        <ele>989.681041921</ele>
        <time>2015-12-14T08:39:55Z</time>
      </trkpt>
      <trkpt lat="45.18763" lon="5.50497">
        <ele>991.559274175</ele>
        <time>2015-12-14T08:40:09Z</time>
      </trkpt>
      <trkpt lat="45.18775" lon="5.50515">
        <ele>993.555907052</ele>
        <time>2015-12-14T08:40:25Z</time>
      </trkpt>
      <trkpt lat="45.18781" lon="5.50517">
        <ele>993.555907052</ele>
        <time>2015-12-14T08:40:30Z</time>
      </trkpt>
      <trkpt lat="45.1879" lon="5.50528">
        <ele>995.078926115</ele>
        <time>2015-12-14T08:40:40Z</time>
      </trkpt>
      <trkpt lat="45.18793" lon="5.50532">
        <ele>995.078926115</ele>
        <time>2015-12-14T08:40:45Z</time>
      </trkpt>
      <trkpt lat="45.18804" lon="5.50539">
        <ele>996.306990557</ele>
        <time>2015-12-14T08:40:56Z</time>
      </trkpt>
      <trkpt lat="45.18806" lon="5.50543">
        <ele>996.306990557</ele>
        <time>2015-12-14T08:40:59Z</time>
      </trkpt>
      <trkpt lat="45.18813" lon="5.50553">
        <ele>996.971704514</ele>
        <time>2015-12-14T08:41:10Z</time>
      </trkpt>
      <trkpt lat="45.18818" lon="5.50556">
        <ele>996.971704514</ele>
        <time>2015-12-14T08:41:15Z</time>
      </trkpt>
      <trkpt lat="45.18826" lon="5.5056">
        <ele>997.260007117</ele>
        <time>2015-12-14T08:41:25Z</time>
      </trkpt>
      <trkpt lat="45.18832" lon="5.50567">
        <ele>997.260007117</ele>
        <time>2015-12-14T08:41:30Z</time>
      </trkpt>
      <trkpt lat="45.18843" lon="5.50569">
        <ele>997.634279549</ele>
        <time>2015-12-14T08:41:40Z</time>
      </trkpt>
      <trkpt lat="45.18845" lon="5.50573">
        <ele>997.634279549</ele>
        <time>2015-12-14T08:41:44Z</time>
      </trkpt>
      <trkpt lat="45.1886" lon="5.50585">
        <ele>998.377316007</ele>
        <time>2015-12-14T08:42:00Z</time>
      </trkpt>
      <trkpt lat="45.18863" lon="5.50588">
        <ele>998.377316007</ele>
        <time>2015-12-14T08:42:04Z</time>
      </trkpt>
      <trkpt lat="45.18869" lon="5.50593">
        <ele>998.739618193</ele>
        <time>2015-12-14T08:42:14Z</time>
      </trkpt>
      <trkpt lat="45.18875" lon="5.50599">
        <ele>998.739618193</ele>
        <time>2015-12-14T08:42:20Z</time>
      </trkpt>
      <trkpt lat="45.18882" lon="5.50609">
        <ele>999.182849832</ele>
        <time>2015-12-14T08:42:30Z</time>
      </trkpt>
      <trkpt lat="45.18883" lon="5.5061">
        <ele>999.182849832</ele>
        <time>2015-12-14T08:42:34Z</time>
      </trkpt>
      <trkpt lat="45.18886" lon="5.50612">
        <ele>999.182849832</ele>
        <time>2015-12-14T08:42:45Z</time>
      </trkpt>
      <trkpt lat="45.18892" lon="5.50617">
        <ele>999.989780945</ele>
        <time>2015-12-14T08:42:50Z</time>
      </trkpt>
      <trkpt lat="45.18896" lon="5.50629">
        <ele>1000.84442402</ele>
        <time>2015-12-14T08:43:00Z</time>
      </trkpt>
      <trkpt lat="45.189" lon="5.50636">
        <ele>1000.84442402</ele>
        <time>2015-12-14T08:43:05Z</time>
      </trkpt>
      <trkpt lat="45.18912" lon="5.50643">
        <ele>1000.877326196</ele>
        <time>2015-12-14T08:43:15Z</time>
      </trkpt>
      <trkpt lat="45.18914" lon="5.50645">
        <ele>1000.877326196</ele>
        <time>2015-12-14T08:43:20Z</time>
      </trkpt>
      <trkpt lat="45.18915" lon="5.50644">
        <ele>1000.877326196</ele>
        <time>2015-12-14T08:43:30Z</time>
      </trkpt>
      <trkpt lat="45.18915" lon="5.50644">
        <ele>1000.877326196</ele>
        <time>2015-12-14T08:43:36Z</time>
      </trkpt>
      <trkpt lat="45.18925" lon="5.50655">
        <ele>1001.159746078</ele>
        <time>2015-12-14T08:43:44Z</time>
      </trkpt>
      <trkpt lat="45.18932" lon="5.50661">
        <ele>1001.159746078</ele>
        <time>2015-12-14T08:43:50Z</time>
      </trkpt>
      <trkpt lat="45.18942" lon="5.50669">
        <ele>1002.394934268</ele>
        <time>2015-12-14T08:44:00Z</time>
      </trkpt>
      <trkpt lat="45.18948" lon="5.50671">
        <ele>1002.394934268</ele>
        <time>2015-12-14T08:44:05Z</time>
      </trkpt>
      <trkpt lat="45.18963" lon="5.50681">
        <ele>1004.366766716</ele>
        <time>2015-12-14T08:44:20Z</time>
      </trkpt>
      <trkpt lat="45.18967" lon="5.50685">
        <ele>1004.366766716</ele>
        <time>2015-12-14T08:44:24Z</time>
      </trkpt>
      <trkpt lat="45.18977" lon="5.50689">
        <ele>1006.728818295</ele>
        <time>2015-12-14T08:44:35Z</time>
      </trkpt>
      <trkpt lat="45.18981" lon="5.50693">
        <ele>1006.728818295</ele>
        <time>2015-12-14T08:44:40Z</time>
      </trkpt>
      <trkpt lat="45.1899" lon="5.50698">
        <ele>1008.870648771</ele>
        <time>2015-12-14T08:44:50Z</time>
      </trkpt>
      <trkpt lat="45.18995" lon="5.50702">
        <ele>1008.870648771</ele>
        <time>2015-12-14T08:44:55Z</time>
      </trkpt>
      <trkpt lat="45.19003" lon="5.50706">
        <ele>1010.948187954</ele>
        <time>2015-12-14T08:45:05Z</time>
      </trkpt>
      <trkpt lat="45.19011" lon="5.50709">
        <ele>1010.948187954</ele>
        <time>2015-12-14T08:45:09Z</time>
      </trkpt>
      <trkpt lat="45.1902" lon="5.50711">
        <ele>1012.673523901</ele>
        <time>2015-12-14T08:45:20Z</time>
      </trkpt>
      <trkpt lat="45.19022" lon="5.50712">
        <ele>1012.673523901</ele>
        <time>2015-12-14T08:45:26Z</time>
      </trkpt>
      <trkpt lat="45.19031" lon="5.50726">
        <ele>1014.35772015</ele>
        <time>2015-12-14T08:45:35Z</time>
      </trkpt>
      <trkpt lat="45.19036" lon="5.5073">
        <ele>1014.35772015</ele>
        <time>2015-12-14T08:45:40Z</time>
      </trkpt>
      <trkpt lat="45.19045" lon="5.5074">
        <ele>1016.000760685</ele>
        <time>2015-12-14T08:45:50Z</time>
      </trkpt>
      <trkpt lat="45.19047" lon="5.50746">
        <ele>1016.000760685</ele>
        <time>2015-12-14T08:45:55Z</time>
      </trkpt>
      <trkpt lat="45.19047" lon="5.50751">
        <ele>1016.000760685</ele>
        <time>2015-12-14T08:45:59Z</time>
      </trkpt>
      <trkpt lat="45.1906" lon="5.50755">
        <ele>1017.31434972</ele>
        <time>2015-12-14T08:46:10Z</time>
      </trkpt>
      <trkpt lat="45.19065" lon="5.5076">
        <ele>1017.31434972</ele>
        <time>2015-12-14T08:46:14Z</time>
      </trkpt>
      <trkpt lat="45.19074" lon="5.50766">
        <ele>1019.474655065</ele>
        <time>2015-12-14T08:46:25Z</time>
      </trkpt>
      <trkpt lat="45.19079" lon="5.50768">
        <ele>1019.474655065</ele>
        <time>2015-12-14T08:46:30Z</time>
      </trkpt>
      <trkpt lat="45.19081" lon="5.50769">
        <ele>1019.474655065</ele>
        <time>2015-12-14T08:46:39Z</time>
      </trkpt>
      <trkpt lat="45.19086" lon="5.50772">
        <ele>1021.549885186</ele>
        <time>2015-12-14T08:46:45Z</time>
      </trkpt>
      <trkpt lat="45.19094" lon="5.50777">
        <ele>1021.549885186</ele>
        <time>2015-12-14T08:46:55Z</time>
      </trkpt>
      <trkpt lat="45.191" lon="5.50782">
        <ele>1023.68664104</ele>
        <time>2015-12-14T08:47:00Z</time>
      </trkpt>
      <trkpt lat="45.1911" lon="5.50785">
        <ele>1026.164905418</ele>
        <time>2015-12-14T08:47:10Z</time>
      </trkpt>
      <trkpt lat="45.19114" lon="5.50791">
        <ele>1026.164905418</ele>
        <time>2015-12-14T08:47:15Z</time>
      </trkpt>
      <trkpt lat="45.19136" lon="5.50804">
        <ele>1027.512275533</ele>
        <time>2015-12-14T08:47:30Z</time>
      </trkpt>
      <trkpt lat="45.19141" lon="5.50809">
        <ele>1027.512275533</ele>
        <time>2015-12-14T08:47:35Z</time>
      </trkpt>
      <trkpt lat="45.1915" lon="5.50818">
        <ele>1028.098802978</ele>
        <time>2015-12-14T08:47:45Z</time>
      </trkpt>
      <trkpt lat="45.19156" lon="5.50819">
        <ele>1028.098802978</ele>
        <time>2015-12-14T08:47:50Z</time>
      </trkpt>
      <trkpt lat="45.19161" lon="5.50828">
        <ele>1028.702305881</ele>
        <time>2015-12-14T08:48:00Z</time>
      </trkpt>
      <trkpt lat="45.19164" lon="5.50832">
        <ele>1028.702305881</ele>
        <time>2015-12-14T08:48:05Z</time>
      </trkpt>
      <trkpt lat="45.19167" lon="5.50842">
        <ele>1029.177982604</ele>
        <time>2015-12-14T08:48:15Z</time>
      </trkpt>
      <trkpt lat="45.19173" lon="5.50846">
        <ele>1029.177982604</ele>
        <time>2015-12-14T08:48:20Z</time>
      </trkpt>
      <trkpt lat="45.19183" lon="5.50854">
        <ele>1029.247884766</ele>
        <time>2015-12-14T08:48:30Z</time>
      </trkpt>
      <trkpt lat="45.19188" lon="5.50854">
        <ele>1029.247884766</ele>
        <time>2015-12-14T08:48:35Z</time>
      </trkpt>
      <trkpt lat="45.19199" lon="5.50858">
        <ele>1029.809569442</ele>
        <time>2015-12-14T08:48:45Z</time>
      </trkpt>
      <trkpt lat="45.19202" lon="5.50863">
        <ele>1029.809569442</ele>
        <time>2015-12-14T08:48:50Z</time>
      </trkpt>
      <trkpt lat="45.19206" lon="5.50878">
        <ele>1030.250925307</ele>
        <time>2015-12-14T08:49:00Z</time>
      </trkpt>
      <trkpt lat="45.1921" lon="5.50883">
        <ele>1030.250925307</ele>
        <time>2015-12-14T08:49:05Z</time>
      </trkpt>
      <trkpt lat="45.19223" lon="5.50886">
        <ele>1030.582173667</ele>
        <time>2015-12-14T08:49:15Z</time>
      </trkpt>
      <trkpt lat="45.19227" lon="5.50888">
        <ele>1030.582173667</ele>
        <time>2015-12-14T08:49:20Z</time>
      </trkpt>
      <trkpt lat="45.19235" lon="5.50896">
        <ele>1030.813127571</ele>
        <time>2015-12-14T08:49:30Z</time>
      </trkpt>
      <trkpt lat="45.19241" lon="5.50899">
        <ele>1030.813127571</ele>
        <time>2015-12-14T08:49:35Z</time>
      </trkpt>
      <trkpt lat="45.19247" lon="5.509">
        <ele>1030.953185761</ele>
        <time>2015-12-14T08:49:39Z</time>
      </trkpt>
      <trkpt lat="45.19252" lon="5.50909">
        <ele>1030.953185761</ele>
        <time>2015-12-14T08:49:50Z</time>
      </trkpt>
      <trkpt lat="45.19256" lon="5.50911">
        <ele>1030.867132403</ele>
        <time>2015-12-14T08:49:55Z</time>
      </trkpt>
      <trkpt lat="45.19267" lon="5.50917">
        <ele>1031.439675831</ele>
        <time>2015-12-14T08:50:05Z</time>
      </trkpt>
      <trkpt lat="45.19271" lon="5.50919">
        <ele>1031.439675831</ele>
        <time>2015-12-14T08:50:10Z</time>
      </trkpt>
      <trkpt lat="45.19281" lon="5.5093">
        <ele>1032.046693422</ele>
        <time>2015-12-14T08:50:20Z</time>
      </trkpt>
      <trkpt lat="45.19284" lon="5.50929">
        <ele>1032.046693422</ele>
        <time>2015-12-14T08:50:25Z</time>
      </trkpt>
      <trkpt lat="45.19294" lon="5.50932">
        <ele>1032.830813002</ele>
        <time>2015-12-14T08:50:35Z</time>
      </trkpt>
      <trkpt lat="45.19302" lon="5.50929">
        <ele>1032.830813002</ele>
        <time>2015-12-14T08:50:40Z</time>
      </trkpt>
      <trkpt lat="45.1931" lon="5.50937">
        <ele>1033.635324094</ele>
        <time>2015-12-14T08:50:50Z</time>
      </trkpt>
      <trkpt lat="45.19314" lon="5.50938">
        <ele>1033.635324094</ele>
        <time>2015-12-14T08:50:55Z</time>
      </trkpt>
      <trkpt lat="45.19322" lon="5.50942">
        <ele>1034.891637121</ele>
        <time>2015-12-14T08:51:05Z</time>
      </trkpt>
      <trkpt lat="45.19326" lon="5.50946">
        <ele>1034.891637121</ele>
        <time>2015-12-14T08:51:10Z</time>
      </trkpt>
      <trkpt lat="45.19334" lon="5.50945">
        <ele>1036.133203948</ele>
        <time>2015-12-14T08:51:20Z</time>
      </trkpt>
      <trkpt lat="45.19335" lon="5.50947">
        <ele>1036.133203948</ele>
        <time>2015-12-14T08:51:25Z</time>
      </trkpt>
      <trkpt lat="45.19349" lon="5.50959">
        <ele>1037.360311427</ele>
        <time>2015-12-14T08:51:40Z</time>
      </trkpt>
      <trkpt lat="45.1935" lon="5.50964">
        <ele>1037.360311427</ele>
        <time>2015-12-14T08:51:44Z</time>
      </trkpt>
      <trkpt lat="45.19359" lon="5.50972">
        <ele>1038.429122173</ele>
        <time>2015-12-14T08:51:55Z</time>
      </trkpt>
      <trkpt lat="45.19368" lon="5.50972">
        <ele>1038.429122173</ele>
        <time>2015-12-14T08:52:00Z</time>
      </trkpt>
      <trkpt lat="45.19381" lon="5.50984">
        <ele>1039.783379525</ele>
        <time>2015-12-14T08:52:10Z</time>
      </trkpt>
      <trkpt lat="45.19386" lon="5.50986">
        <ele>1039.783379525</ele>
        <time>2015-12-14T08:52:14Z</time>
      </trkpt>
      <trkpt lat="45.19395" lon="5.50993">
        <ele>1041.400979049</ele>
        <time>2015-12-14T08:52:25Z</time>
      </trkpt>
      <trkpt lat="45.19398" lon="5.50998">
        <ele>1041.400979049</ele>
        <time>2015-12-14T08:52:30Z</time>
      </trkpt>
      <trkpt lat="45.19408" lon="5.51002">
        <ele>1042.395937915</ele>
        <time>2015-12-14T08:52:39Z</time>
      </trkpt>
      <trkpt lat="45.19409" lon="5.51007">
        <ele>1042.395937915</ele>
        <time>2015-12-14T08:52:44Z</time>
      </trkpt>
      <trkpt lat="45.19419" lon="5.51014">
        <ele>1043.678706999</ele>
        <time>2015-12-14T08:52:55Z</time>
      </trkpt>
      <trkpt lat="45.19425" lon="5.51017">
        <ele>1043.678706999</ele>
        <time>2015-12-14T08:53:00Z</time>
      </trkpt>
      <trkpt lat="45.19433" lon="5.51035">
        <ele>1045.947858887</ele>
        <time>2015-12-14T08:53:15Z</time>
      </trkpt>
      <trkpt lat="45.19447" lon="5.51045">
        <ele>1047.974290466</ele>
        <time>2015-12-14T08:53:30Z</time>
      </trkpt>
      <trkpt lat="45.19451" lon="5.51049">
        <ele>1047.974290466</ele>
        <time>2015-12-14T08:53:35Z</time>
      </trkpt>
      <trkpt lat="45.19461" lon="5.51053">
        <ele>1049.484679022</ele>
        <time>2015-12-14T08:53:45Z</time>
      </trkpt>
      <trkpt lat="45.19464" lon="5.51057">
        <ele>1049.484679022</ele>
        <time>2015-12-14T08:53:50Z</time>
      </trkpt>
      <trkpt lat="45.19475" lon="5.51065">
        <ele>1050.80372892</ele>
        <time>2015-12-14T08:54:00Z</time>
      </trkpt>
      <trkpt lat="45.19479" lon="5.51066">
        <ele>1050.80372892</ele>
        <time>2015-12-14T08:54:05Z</time>
      </trkpt>
      <trkpt lat="45.19485" lon="5.51075">
        <ele>1052.376957023</ele>
        <time>2015-12-14T08:54:15Z</time>
      </trkpt>
      <trkpt lat="45.19486" lon="5.51075">
        <ele>1052.376957023</ele>
        <time>2015-12-14T08:54:20Z</time>
      </trkpt>
      <trkpt lat="45.19497" lon="5.51078">
        <ele>1053.60765738</ele>
        <time>2015-12-14T08:54:30Z</time>
      </trkpt>
      <trkpt lat="45.19503" lon="5.51079">
        <ele>1053.60765738</ele>
        <time>2015-12-14T08:54:34Z</time>
      </trkpt>
      <trkpt lat="45.19512" lon="5.51085">
        <ele>1055.529216007</ele>
        <time>2015-12-14T08:54:45Z</time>
      </trkpt>
      <trkpt lat="45.19517" lon="5.51087">
        <ele>1055.529216007</ele>
        <time>2015-12-14T08:54:49Z</time>
      </trkpt>
      <trkpt lat="45.1953" lon="5.51096">
        <ele>1057.07960458</ele>
        <time>2015-12-14T08:55:05Z</time>
      </trkpt>
      <trkpt lat="45.19532" lon="5.511">
        <ele>1057.07960458</ele>
        <time>2015-12-14T08:55:10Z</time>
      </trkpt>
      <trkpt lat="45.19541" lon="5.51103">
        <ele>1058.428804264</ele>
        <time>2015-12-14T08:55:20Z</time>
      </trkpt>
      <trkpt lat="45.19545" lon="5.51105">
        <ele>1058.428804264</ele>
        <time>2015-12-14T08:55:25Z</time>
      </trkpt>
      <trkpt lat="45.19555" lon="5.51108">
        <ele>1059.302570552</ele>
        <time>2015-12-14T08:55:35Z</time>
      </trkpt>
      <trkpt lat="45.19562" lon="5.51114">
        <ele>1059.302570552</ele>
        <time>2015-12-14T08:55:40Z</time>
      </trkpt>
      <trkpt lat="45.19569" lon="5.51128">
        <ele>1060.168737199</ele>
        <time>2015-12-14T08:55:49Z</time>
      </trkpt>
      <trkpt lat="45.19575" lon="5.51132">
        <ele>1060.168737199</ele>
        <time>2015-12-14T08:55:56Z</time>
      </trkpt>
      <trkpt lat="45.19583" lon="5.5114">
        <ele>1061.604938972</ele>
        <time>2015-12-14T08:56:05Z</time>
      </trkpt>
      <trkpt lat="45.19587" lon="5.51144">
        <ele>1061.604938972</ele>
        <time>2015-12-14T08:56:10Z</time>
      </trkpt>
      <trkpt lat="45.19592" lon="5.51151">
        <ele>1063.424250198</ele>
        <time>2015-12-14T08:56:20Z</time>
      </trkpt>
      <trkpt lat="45.19596" lon="5.51154">
        <ele>1063.424250198</ele>
        <time>2015-12-14T08:56:25Z</time>
      </trkpt>
      <trkpt lat="45.196" lon="5.51158">
        <ele>1065.020095805</ele>
        <time>2015-12-14T08:56:35Z</time>
      </trkpt>
      <trkpt lat="45.19605" lon="5.51165">
        <ele>1065.020095805</ele>
        <time>2015-12-14T08:56:39Z</time>
      </trkpt>
      <trkpt lat="45.1962" lon="5.51174">
        <ele>1066.407569471</ele>
        <time>2015-12-14T08:56:54Z</time>
      </trkpt>
      <trkpt lat="45.19623" lon="5.5118">
        <ele>1066.407569471</ele>
        <time>2015-12-14T08:56:59Z</time>
      </trkpt>
      <trkpt lat="45.19633" lon="5.51186">
        <ele>1067.457160595</ele>
        <time>2015-12-14T08:57:10Z</time>
      </trkpt>
      <trkpt lat="45.19637" lon="5.51189">
        <ele>1067.457160595</ele>
        <time>2015-12-14T08:57:15Z</time>
      </trkpt>
      <trkpt lat="45.19645" lon="5.51197">
        <ele>1068.193965807</ele>
        <time>2015-12-14T08:57:25Z</time>
      </trkpt>
      <trkpt lat="45.19649" lon="5.51203">
        <ele>1068.193965807</ele>
        <time>2015-12-14T08:57:30Z</time>
      </trkpt>
      <trkpt lat="45.19658" lon="5.51208">
        <ele>1069.650944635</ele>
        <time>2015-12-14T08:57:40Z</time>
      </trkpt>
      <trkpt lat="45.19662" lon="5.51211">
        <ele>1069.650944635</ele>
        <time>2015-12-14T08:57:45Z</time>
      </trkpt>
      <trkpt lat="45.19667" lon="5.51219">
        <ele>1072.206733626</ele>
        <time>2015-12-14T08:57:55Z</time>
      </trkpt>
      <trkpt lat="45.1967" lon="5.51224">
        <ele>1072.206733626</ele>
        <time>2015-12-14T08:58:00Z</time>
      </trkpt>
      <trkpt lat="45.19677" lon="5.51231">
        <ele>1074.623846101</ele>
        <time>2015-12-14T08:58:10Z</time>
      </trkpt>
      <trkpt lat="45.19682" lon="5.51233">
        <ele>1074.623846101</ele>
        <time>2015-12-14T08:58:15Z</time>
      </trkpt>
      <trkpt lat="45.19692" lon="5.51239">
        <ele>1077.053152702</ele>
        <time>2015-12-14T08:58:25Z</time>
      </trkpt>
      <trkpt lat="45.19695" lon="5.51242">
        <ele>1077.053152702</ele>
        <time>2015-12-14T08:58:30Z</time>
      </trkpt>
      <trkpt lat="45.19697" lon="5.51243">
        <ele>1077.053152702</ele>
        <time>2015-12-14T08:58:40Z</time>
      </trkpt>
      <trkpt lat="45.19706" lon="5.51251">
        <ele>1079.490335322</ele>
        <time>2015-12-14T08:58:45Z</time>
      </trkpt>
      <trkpt lat="45.19719" lon="5.51273">
        <ele>1082.219651007</ele>
        <time>2015-12-14T08:58:59Z</time>
      </trkpt>
      <trkpt lat="45.19724" lon="5.51275">
        <ele>1082.219651007</ele>
        <time>2015-12-14T08:59:04Z</time>
      </trkpt>
      <trkpt lat="45.19734" lon="5.51283">
        <ele>1084.062563562</ele>
        <time>2015-12-14T08:59:15Z</time>
      </trkpt>
      <trkpt lat="45.19736" lon="5.51288">
        <ele>1084.062563562</ele>
        <time>2015-12-14T08:59:20Z</time>
      </trkpt>
      <trkpt lat="45.19747" lon="5.51303">
        <ele>1084.938462852</ele>
        <time>2015-12-14T08:59:30Z</time>
      </trkpt>
      <trkpt lat="45.1975" lon="5.51305">
        <ele>1084.938462852</ele>
        <time>2015-12-14T08:59:35Z</time>
      </trkpt>
      <trkpt lat="45.19761" lon="5.5131">
        <ele>1085.496006974</ele>
        <time>2015-12-14T08:59:45Z</time>
      </trkpt>
      <trkpt lat="45.19766" lon="5.51313">
        <ele>1085.496006974</ele>
        <time>2015-12-14T08:59:50Z</time>
      </trkpt>
      <trkpt lat="45.19771" lon="5.5132">
        <ele>1085.472460353</ele>
        <time>2015-12-14T09:00:00Z</time>
      </trkpt>
      <trkpt lat="45.19775" lon="5.51323">
        <ele>1085.472460353</ele>
        <time>2015-12-14T09:00:05Z</time>
      </trkpt>
      <trkpt lat="45.19785" lon="5.51333">
        <ele>1085.202520572</ele>
        <time>2015-12-14T09:00:15Z</time>
      </trkpt>
      <trkpt lat="45.19787" lon="5.51336">
        <ele>1085.202520572</ele>
        <time>2015-12-14T09:00:20Z</time>
      </trkpt>
      <trkpt lat="45.19794" lon="5.51343">
        <ele>1085.28524777</ele>
        <time>2015-12-14T09:00:30Z</time>
      </trkpt>
      <trkpt lat="45.19798" lon="5.51349">
        <ele>1085.28524777</ele>
        <time>2015-12-14T09:00:34Z</time>
      </trkpt>
      <trkpt lat="45.198" lon="5.51349">
        <ele>1085.28524777</ele>
        <time>2015-12-14T09:00:45Z</time>
      </trkpt>
      <trkpt lat="45.19804" lon="5.51355">
        <ele>1085.842377721</ele>
        <time>2015-12-14T09:00:50Z</time>
      </trkpt>
      <trkpt lat="45.19815" lon="5.51366">
        <ele>1086.264806875</ele>
        <time>2015-12-14T09:01:05Z</time>
      </trkpt>
      <trkpt lat="45.1982" lon="5.51377">
        <ele>1086.709123915</ele>
        <time>2015-12-14T09:01:15Z</time>
      </trkpt>
      <trkpt lat="45.19823" lon="5.51381">
        <ele>1086.709123915</ele>
        <time>2015-12-14T09:01:20Z</time>
      </trkpt>
      <trkpt lat="45.19829" lon="5.51392">
        <ele>1087.320341452</ele>
        <time>2015-12-14T09:01:30Z</time>
      </trkpt>
      <trkpt lat="45.19831" lon="5.51397">
        <ele>1087.320341452</ele>
        <time>2015-12-14T09:01:35Z</time>
      </trkpt>
      <trkpt lat="45.19834" lon="5.51403">
        <ele>1087.944106262</ele>
        <time>2015-12-14T09:01:40Z</time>
      </trkpt>
      <trkpt lat="45.19835" lon="5.51413">
        <ele>1087.944106262</ele>
        <time>2015-12-14T09:01:50Z</time>
      </trkpt>
      <trkpt lat="45.19836" lon="5.51416">
        <ele>1088.725574327</ele>
        <time>2015-12-14T09:01:55Z</time>
      </trkpt>
      <trkpt lat="45.19834" lon="5.51428">
        <ele>1088.725574327</ele>
        <time>2015-12-14T09:02:04Z</time>
      </trkpt>
      <trkpt lat="45.19836" lon="5.51435">
        <ele>1089.078202423</ele>
        <time>2015-12-14T09:02:10Z</time>
      </trkpt>
      <trkpt lat="45.19834" lon="5.51441">
        <ele>1089.078202423</ele>
        <time>2015-12-14T09:02:20Z</time>
      </trkpt>
      <trkpt lat="45.19833" lon="5.51443">
        <ele>1089.078202423</ele>
        <time>2015-12-14T09:02:25Z</time>
      </trkpt>
      <trkpt lat="45.19829" lon="5.5145">
        <ele>1089.612614089</ele>
        <time>2015-12-14T09:02:35Z</time>
      </trkpt>
      <trkpt lat="45.19829" lon="5.51452">
        <ele>1089.612614089</ele>
        <time>2015-12-14T09:02:40Z</time>
      </trkpt>
      <trkpt lat="45.1983" lon="5.51465">
        <ele>1090.605803766</ele>
        <time>2015-12-14T09:02:50Z</time>
      </trkpt>
      <trkpt lat="45.19835" lon="5.51471">
        <ele>1090.605803766</ele>
        <time>2015-12-14T09:02:55Z</time>
      </trkpt>
      <trkpt lat="45.19829" lon="5.51471">
        <ele>1091.736642952</ele>
        <time>2015-12-14T09:03:05Z</time>
      </trkpt>
      <trkpt lat="45.19829" lon="5.51472">
        <ele>1091.736642952</ele>
        <time>2015-12-14T09:03:09Z</time>
      </trkpt>
      <trkpt lat="45.19827" lon="5.51473">
        <ele>1091.736642952</ele>
        <time>2015-12-14T09:03:14Z</time>
      </trkpt>
      <trkpt lat="45.19826" lon="5.51474">
        <ele>1091.736642952</ele>
        <time>2015-12-14T09:03:19Z</time>
      </trkpt>
      <trkpt lat="45.19827" lon="5.51475">
        <ele>1091.736642952</ele>
        <time>2015-12-14T09:03:24Z</time>
      </trkpt>
      <trkpt lat="45.19827" lon="5.51475">
        <ele>1091.736642952</ele>
        <time>2015-12-14T09:03:29Z</time>
      </trkpt>
      <trkpt lat="45.19827" lon="5.51476">
        <ele>1091.736642952</ele>
        <time>2015-12-14T09:03:34Z</time>
      </trkpt>
      <trkpt lat="45.19827" lon="5.51474">
        <ele>1091.736642952</ele>
        <time>2015-12-14T09:03:39Z</time>
      </trkpt>
      <trkpt lat="45.19826" lon="5.51474">
        <ele>1091.736642952</ele>
        <time>2015-12-14T09:03:44Z</time>
      </trkpt>
      <trkpt lat="45.19826" lon="5.51474">
        <ele>1091.736642952</ele>
        <time>2015-12-14T09:03:49Z</time>
      </trkpt>
      <trkpt lat="45.19826" lon="5.51474">
        <ele>1091.736642952</ele>
        <time>2015-12-14T09:03:54Z</time>
      </trkpt>
      <trkpt lat="45.19826" lon="5.51474">
        <ele>1091.736642952</ele>
        <time>2015-12-14T09:03:59Z</time>
      </trkpt>
      <trkpt lat="45.19826" lon="5.51474">
        <ele>1091.736642952</ele>
        <time>2015-12-14T09:04:04Z</time>
      </trkpt>
      <trkpt lat="45.19826" lon="5.51474">
        <ele>1091.736642952</ele>
        <time>2015-12-14T09:04:09Z</time>
      </trkpt>
      <trkpt lat="45.19826" lon="5.51474">
        <ele>1091.736642952</ele>
        <time>2015-12-14T09:04:14Z</time>
      </trkpt>
      <trkpt lat="45.19826" lon="5.51474">
        <ele>1091.736642952</ele>
        <time>2015-12-14T09:04:19Z</time>
      </trkpt>
      <trkpt lat="45.19826" lon="5.51474">
        <ele>1091.736642952</ele>
        <time>2015-12-14T09:04:24Z</time>
      </trkpt>
      <trkpt lat="45.19826" lon="5.51475">
        <ele>1091.736642952</ele>
        <time>2015-12-14T09:04:29Z</time>
      </trkpt>
      <trkpt lat="45.19826" lon="5.51475">
        <ele>1091.736642952</ele>
        <time>2015-12-14T09:04:34Z</time>
      </trkpt>
      <trkpt lat="45.19826" lon="5.51475">
        <ele>1091.736642952</ele>
        <time>2015-12-14T09:04:39Z</time>
      </trkpt>
      <trkpt lat="45.19826" lon="5.51475">
        <ele>1091.736642952</ele>
        <time>2015-12-14T09:04:44Z</time>
      </trkpt>
      <trkpt lat="45.19826" lon="5.51475">
        <ele>1091.736642952</ele>
        <time>2015-12-14T09:04:49Z</time>
      </trkpt>
      <trkpt lat="45.19824" lon="5.51476">
        <ele>1090.977818863</ele>
        <time>2015-12-14T09:04:54Z</time>
      </trkpt>
      <trkpt lat="45.1982" lon="5.5148">
        <ele>1090.977818863</ele>
        <time>2015-12-14T09:04:59Z</time>
      </trkpt>
      <trkpt lat="45.19809" lon="5.51493">
        <ele>1091.067803181</ele>
        <time>2015-12-14T09:05:11Z</time>
      </trkpt>
      <trkpt lat="45.19807" lon="5.51497">
        <ele>1091.067803181</ele>
        <time>2015-12-14T09:05:15Z</time>
      </trkpt>
      <trkpt lat="45.19799" lon="5.51506">
        <ele>1090.506318231</ele>
        <time>2015-12-14T09:05:25Z</time>
      </trkpt>
      <trkpt lat="45.19795" lon="5.51511">
        <ele>1090.506318231</ele>
        <time>2015-12-14T09:05:30Z</time>
      </trkpt>
      <trkpt lat="45.19792" lon="5.51524">
        <ele>1089.922639015</ele>
        <time>2015-12-14T09:05:40Z</time>
      </trkpt>
      <trkpt lat="45.19791" lon="5.51531">
        <ele>1089.922639015</ele>
        <time>2015-12-14T09:05:45Z</time>
      </trkpt>
      <trkpt lat="45.19796" lon="5.51548">
        <ele>1090.188031526</ele>
        <time>2015-12-14T09:05:55Z</time>
      </trkpt>
      <trkpt lat="45.19799" lon="5.51553">
        <ele>1090.188031526</ele>
        <time>2015-12-14T09:06:00Z</time>
      </trkpt>
      <trkpt lat="45.19799" lon="5.51555">
        <ele>1090.188031526</ele>
        <time>2015-12-14T09:06:11Z</time>
      </trkpt>
      <trkpt lat="45.19797" lon="5.51555">
        <ele>1090.188031526</ele>
        <time>2015-12-14T09:06:15Z</time>
      </trkpt>
      <trkpt lat="45.19794" lon="5.5155">
        <ele>1090.522072793</ele>
        <time>2015-12-14T09:06:29Z</time>
      </trkpt>
      <trkpt lat="45.19789" lon="5.51549">
        <ele>1090.522072793</ele>
        <time>2015-12-14T09:06:40Z</time>
      </trkpt>
      <trkpt lat="45.19789" lon="5.51549">
        <ele>1090.522072793</ele>
        <time>2015-12-14T09:06:45Z</time>
      </trkpt>
      <trkpt lat="45.19789" lon="5.51548">
        <ele>1090.522072793</ele>
        <time>2015-12-14T09:07:00Z</time>
      </trkpt>
      <trkpt lat="45.19789" lon="5.51548">
        <ele>1090.522072793</ele>
        <time>2015-12-14T09:07:05Z</time>
      </trkpt>
      <trkpt lat="45.1979" lon="5.51558">
        <ele>1090.633736367</ele>
        <time>2015-12-14T09:07:15Z</time>
      </trkpt>
      <trkpt lat="45.19791" lon="5.51559">
        <ele>1090.633736367</ele>
        <time>2015-12-14T09:07:20Z</time>
      </trkpt>
      <trkpt lat="45.19791" lon="5.51559">
        <ele>1090.633736367</ele>
        <time>2015-12-14T09:07:30Z</time>
      </trkpt>
      <trkpt lat="45.19791" lon="5.51559">
        <ele>1090.633736367</ele>
        <time>2015-12-14T09:07:35Z</time>
      </trkpt>
      <trkpt lat="45.19791" lon="5.51559">
        <ele>1090.633736367</ele>
        <time>2015-12-14T09:07:45Z</time>
      </trkpt>
      <trkpt lat="45.19791" lon="5.51559">
        <ele>1090.633736367</ele>
        <time>2015-12-14T09:07:50Z</time>
      </trkpt>
      <trkpt lat="45.19791" lon="5.51559">
        <ele>1090.633736367</ele>
        <time>2015-12-14T09:08:00Z</time>
      </trkpt>
      <trkpt lat="45.19791" lon="5.51559">
        <ele>1090.633736367</ele>
        <time>2015-12-14T09:08:05Z</time>
      </trkpt>
      <trkpt lat="45.19791" lon="5.51559">
        <ele>1090.633736367</ele>
        <time>2015-12-14T09:08:14Z</time>
      </trkpt>
      <trkpt lat="45.19791" lon="5.51559">
        <ele>1090.633736367</ele>
        <time>2015-12-14T09:08:20Z</time>
      </trkpt>
      <trkpt lat="45.19791" lon="5.51559">
        <ele>1090.633736367</ele>
        <time>2015-12-14T09:08:24Z</time>
      </trkpt>
      <trkpt lat="45.19791" lon="5.51559">
        <ele>1090.633736367</ele>
        <time>2015-12-14T09:08:34Z</time>
      </trkpt>
      <trkpt lat="45.19791" lon="5.51559">
        <ele>1090.633736367</ele>
        <time>2015-12-14T09:08:39Z</time>
      </trkpt>
      <trkpt lat="45.19791" lon="5.51559">
        <ele>1090.633736367</ele>
        <time>2015-12-14T09:08:49Z</time>
      </trkpt>
      <trkpt lat="45.19791" lon="5.51559">
        <ele>1090.633736367</ele>
        <time>2015-12-14T09:08:54Z</time>
      </trkpt>
      <trkpt lat="45.19791" lon="5.51559">
        <ele>1090.633736367</ele>
        <time>2015-12-14T09:09:04Z</time>
      </trkpt>
      <trkpt lat="45.19791" lon="5.51559">
        <ele>1090.633736367</ele>
        <time>2015-12-14T09:09:09Z</time>
      </trkpt>
      <trkpt lat="45.19791" lon="5.51559">
        <ele>1090.633736367</ele>
        <time>2015-12-14T09:09:19Z</time>
      </trkpt>
      <trkpt lat="45.19791" lon="5.51559">
        <ele>1090.633736367</ele>
        <time>2015-12-14T09:09:24Z</time>
      </trkpt>
      <trkpt lat="45.19791" lon="5.51559">
        <ele>1090.633736367</ele>
        <time>2015-12-14T09:09:34Z</time>
      </trkpt>
      <trkpt lat="45.19792" lon="5.51563">
        <ele>1090.633736367</ele>
        <time>2015-12-14T09:09:39Z</time>
      </trkpt>
      <trkpt lat="45.19799" lon="5.51574">
        <ele>1091.983259071</ele>
        <time>2015-12-14T09:09:55Z</time>
      </trkpt>
      <trkpt lat="45.19797" lon="5.51585">
        <ele>1091.983259071</ele>
        <time>2015-12-14T09:10:05Z</time>
      </trkpt>
      <trkpt lat="45.19794" lon="5.51592">
        <ele>1093.470162871</ele>
        <time>2015-12-14T09:10:10Z</time>
      </trkpt>
      <trkpt lat="45.1979" lon="5.51609">
        <ele>1094.939024</ele>
        <time>2015-12-14T09:10:25Z</time>
      </trkpt>
      <trkpt lat="45.19779" lon="5.51621">
        <ele>1096.389933624</ele>
        <time>2015-12-14T09:10:35Z</time>
      </trkpt>
      <trkpt lat="45.19776" lon="5.51625">
        <ele>1096.389933624</ele>
        <time>2015-12-14T09:10:40Z</time>
      </trkpt>
      <trkpt lat="45.19766" lon="5.5164">
        <ele>1097.678858828</ele>
        <time>2015-12-14T09:10:55Z</time>
      </trkpt>
      <trkpt lat="45.19764" lon="5.51644">
        <ele>1097.678858828</ele>
        <time>2015-12-14T09:11:00Z</time>
      </trkpt>
      <trkpt lat="45.19755" lon="5.51651">
        <ele>1098.960975548</ele>
        <time>2015-12-14T09:11:10Z</time>
      </trkpt>
      <trkpt lat="45.19754" lon="5.51653">
        <ele>1098.960975548</ele>
        <time>2015-12-14T09:11:14Z</time>
      </trkpt>
      <trkpt lat="45.19748" lon="5.51658">
        <ele>1098.960975548</ele>
        <time>2015-12-14T09:11:25Z</time>
      </trkpt>
      <trkpt lat="45.19742" lon="5.51664">
        <ele>1100.235926278</ele>
        <time>2015-12-14T09:11:30Z</time>
      </trkpt>
      <trkpt lat="45.19735" lon="5.51666">
        <ele>1100.235926278</ele>
        <time>2015-12-14T09:11:39Z</time>
      </trkpt>
      <trkpt lat="45.19732" lon="5.51667">
        <ele>1100.926917941</ele>
        <time>2015-12-14T09:11:45Z</time>
      </trkpt>
      <trkpt lat="45.19724" lon="5.51671">
        <ele>1100.926917941</ele>
        <time>2015-12-14T09:11:55Z</time>
      </trkpt>
      <trkpt lat="45.19723" lon="5.51675">
        <ele>1102.806914935</ele>
        <time>2015-12-14T09:12:00Z</time>
      </trkpt>
      <trkpt lat="45.19717" lon="5.51683">
        <ele>1102.806914935</ele>
        <time>2015-12-14T09:12:10Z</time>
      </trkpt>
      <trkpt lat="45.19712" lon="5.51684">
        <ele>1105.35361234</ele>
        <time>2015-12-14T09:12:15Z</time>
      </trkpt>
      <trkpt lat="45.19704" lon="5.51685">
        <ele>1105.35361234</ele>
        <time>2015-12-14T09:12:25Z</time>
      </trkpt>
      <trkpt lat="45.197" lon="5.51684">
        <ele>1107.360630784</ele>
        <time>2015-12-14T09:12:30Z</time>
      </trkpt>
      <trkpt lat="45.197" lon="5.51683">
        <ele>1107.360630784</ele>
        <time>2015-12-14T09:12:45Z</time>
      </trkpt>
      <trkpt lat="45.197" lon="5.51683">
        <ele>1107.360630784</ele>
        <time>2015-12-14T09:12:49Z</time>
      </trkpt>
      <trkpt lat="45.197" lon="5.51683">
        <ele>1107.360630784</ele>
        <time>2015-12-14T09:13:00Z</time>
      </trkpt>
      <trkpt lat="45.197" lon="5.51683">
        <ele>1107.360630784</ele>
        <time>2015-12-14T09:13:04Z</time>
      </trkpt>
      <trkpt lat="45.197" lon="5.51683">
        <ele>1107.360630784</ele>
        <time>2015-12-14T09:13:14Z</time>
      </trkpt>
      <trkpt lat="45.197" lon="5.51683">
        <ele>1107.360630784</ele>
        <time>2015-12-14T09:13:19Z</time>
      </trkpt>
      <trkpt lat="45.19698" lon="5.51688">
        <ele>1107.360630784</ele>
        <time>2015-12-14T09:13:29Z</time>
      </trkpt>
      <trkpt lat="45.19696" lon="5.51695">
        <ele>1108.864606474</ele>
        <time>2015-12-14T09:13:34Z</time>
      </trkpt>
      <trkpt lat="45.19694" lon="5.51704">
        <ele>1108.864606474</ele>
        <time>2015-12-14T09:13:45Z</time>
      </trkpt>
      <trkpt lat="45.19691" lon="5.51708">
        <ele>1110.477341539</ele>
        <time>2015-12-14T09:13:50Z</time>
      </trkpt>
      <trkpt lat="45.19684" lon="5.51717">
        <ele>1111.324285681</ele>
        <time>2015-12-14T09:14:00Z</time>
      </trkpt>
      <trkpt lat="45.19683" lon="5.51721">
        <ele>1111.324285681</ele>
        <time>2015-12-14T09:14:05Z</time>
      </trkpt>
      <trkpt lat="45.19684" lon="5.51723">
        <ele>1111.324285681</ele>
        <time>2015-12-14T09:14:15Z</time>
      </trkpt>
      <trkpt lat="45.19684" lon="5.51723">
        <ele>1111.324285681</ele>
        <time>2015-12-14T09:14:19Z</time>
      </trkpt>
      <trkpt lat="45.19687" lon="5.51735">
        <ele>1113.623629335</ele>
        <time>2015-12-14T09:14:30Z</time>
      </trkpt>
      <trkpt lat="45.19689" lon="5.51739">
        <ele>1113.623629335</ele>
        <time>2015-12-14T09:14:35Z</time>
      </trkpt>
      <trkpt lat="45.1969" lon="5.51748">
        <ele>1116.40022509</ele>
        <time>2015-12-14T09:14:50Z</time>
      </trkpt>
      <trkpt lat="45.19692" lon="5.51751">
        <ele>1116.40022509</ele>
        <time>2015-12-14T09:14:55Z</time>
      </trkpt>
      <trkpt lat="45.19691" lon="5.51752">
        <ele>1116.40022509</ele>
        <time>2015-12-14T09:15:05Z</time>
      </trkpt>
      <trkpt lat="45.1969" lon="5.51753">
        <ele>1116.40022509</ele>
        <time>2015-12-14T09:15:10Z</time>
      </trkpt>
      <trkpt lat="45.1969" lon="5.51753">
        <ele>1116.40022509</ele>
        <time>2015-12-14T09:15:22Z</time>
      </trkpt>
      <trkpt lat="45.1969" lon="5.51753">
        <ele>1116.40022509</ele>
        <time>2015-12-14T09:15:24Z</time>
      </trkpt>
      <trkpt lat="45.19693" lon="5.51761">
        <ele>1118.893357703</ele>
        <time>2015-12-14T09:15:29Z</time>
      </trkpt>
      <trkpt lat="45.19693" lon="5.51763">
        <ele>1118.893357703</ele>
        <time>2015-12-14T09:15:34Z</time>
      </trkpt>
      <trkpt lat="45.19694" lon="5.51767">
        <ele>1118.893357703</ele>
        <time>2015-12-14T09:15:45Z</time>
      </trkpt>
      <trkpt lat="45.1969" lon="5.51775">
        <ele>1121.696025522</ele>
        <time>2015-12-14T09:15:51Z</time>
      </trkpt>
      <trkpt lat="45.19687" lon="5.51779">
        <ele>1121.696025522</ele>
        <time>2015-12-14T09:15:59Z</time>
      </trkpt>
      <trkpt lat="45.19687" lon="5.51779">
        <ele>1121.696025522</ele>
        <time>2015-12-14T09:16:06Z</time>
      </trkpt>
      <trkpt lat="45.19688" lon="5.51783">
        <ele>1121.696025522</ele>
        <time>2015-12-14T09:16:20Z</time>
      </trkpt>
      <trkpt lat="45.19688" lon="5.51783">
        <ele>1121.696025522</ele>
        <time>2015-12-14T09:16:24Z</time>
      </trkpt>
      <trkpt lat="45.19691" lon="5.51788">
        <ele>1124.492176968</ele>
        <time>2015-12-14T09:16:34Z</time>
      </trkpt>
      <trkpt lat="45.19692" lon="5.51791">
        <ele>1124.492176968</ele>
        <time>2015-12-14T09:16:39Z</time>
      </trkpt>
      <trkpt lat="45.19694" lon="5.51797">
        <ele>1124.492176968</ele>
        <time>2015-12-14T09:16:49Z</time>
      </trkpt>
      <trkpt lat="45.19689" lon="5.51804">
        <ele>1127.133164898</ele>
        <time>2015-12-14T09:16:55Z</time>
      </trkpt>
      <trkpt lat="45.19688" lon="5.51807">
        <ele>1127.133164898</ele>
        <time>2015-12-14T09:17:06Z</time>
      </trkpt>
      <trkpt lat="45.19689" lon="5.51808">
        <ele>1127.133164898</ele>
        <time>2015-12-14T09:17:10Z</time>
      </trkpt>
      <trkpt lat="45.19689" lon="5.51808">
        <ele>1127.133164898</ele>
        <time>2015-12-14T09:17:20Z</time>
      </trkpt>
      <trkpt lat="45.19689" lon="5.51808">
        <ele>1127.133164898</ele>
        <time>2015-12-14T09:17:25Z</time>
      </trkpt>
      <trkpt lat="45.19689" lon="5.51808">
        <ele>1127.133164898</ele>
        <time>2015-12-14T09:17:34Z</time>
      </trkpt>
      <trkpt lat="45.19688" lon="5.51813">
        <ele>1127.133164898</ele>
        <time>2015-12-14T09:17:39Z</time>
      </trkpt>
      <trkpt lat="45.19685" lon="5.51823">
        <ele>1130.490544858</ele>
        <time>2015-12-14T09:17:50Z</time>
      </trkpt>
      <trkpt lat="45.19685" lon="5.51828">
        <ele>1130.490544858</ele>
        <time>2015-12-14T09:17:55Z</time>
      </trkpt>
      <trkpt lat="45.19685" lon="5.51833">
        <ele>1130.490544858</ele>
        <time>2015-12-14T09:18:05Z</time>
      </trkpt>
      <trkpt lat="45.19685" lon="5.51835">
        <ele>1130.490544858</ele>
        <time>2015-12-14T09:18:10Z</time>
      </trkpt>
      <trkpt lat="45.1968" lon="5.51843">
        <ele>1133.928806568</ele>
        <time>2015-12-14T09:18:20Z</time>
      </trkpt>
      <trkpt lat="45.19679" lon="5.51848">
        <ele>1133.928806568</ele>
        <time>2015-12-14T09:18:24Z</time>
      </trkpt>
      <trkpt lat="45.1967" lon="5.51856">
        <ele>1136.570764902</ele>
        <time>2015-12-14T09:18:36Z</time>
      </trkpt>
      <trkpt lat="45.19669" lon="5.51858">
        <ele>1136.570764902</ele>
        <time>2015-12-14T09:18:40Z</time>
      </trkpt>
      <trkpt lat="45.19669" lon="5.5186">
        <ele>1136.570764902</ele>
        <time>2015-12-14T09:18:50Z</time>
      </trkpt>
      <trkpt lat="45.19669" lon="5.51861">
        <ele>1136.570764902</ele>
        <time>2015-12-14T09:18:55Z</time>
      </trkpt>
      <trkpt lat="45.19667" lon="5.51872">
        <ele>1138.903006645</ele>
        <time>2015-12-14T09:19:05Z</time>
      </trkpt>
      <trkpt lat="45.19666" lon="5.51876">
        <ele>1138.903006645</ele>
        <time>2015-12-14T09:19:10Z</time>
      </trkpt>
      <trkpt lat="45.19666" lon="5.5188">
        <ele>1138.903006645</ele>
        <time>2015-12-14T09:19:15Z</time>
      </trkpt>
      <trkpt lat="45.19666" lon="5.51883">
        <ele>1138.903006645</ele>
        <time>2015-12-14T09:19:20Z</time>
      </trkpt>
      <trkpt lat="45.19666" lon="5.51887">
        <ele>1140.945014817</ele>
        <time>2015-12-14T09:19:25Z</time>
      </trkpt>
      <trkpt lat="45.19665" lon="5.5189">
        <ele>1140.945014817</ele>
        <time>2015-12-14T09:19:29Z</time>
      </trkpt>
      <trkpt lat="45.19662" lon="5.51889">
        <ele>1140.945014817</ele>
        <time>2015-12-14T09:19:40Z</time>
      </trkpt>
      <trkpt lat="45.19662" lon="5.51889">
        <ele>1140.945014817</ele>
        <time>2015-12-14T09:19:45Z</time>
      </trkpt>
      <trkpt lat="45.19662" lon="5.51889">
        <ele>1140.945014817</ele>
        <time>2015-12-14T09:19:55Z</time>
      </trkpt>
      <trkpt lat="45.19662" lon="5.51889">
        <ele>1140.945014817</ele>
        <time>2015-12-14T09:20:00Z</time>
      </trkpt>
      <trkpt lat="45.19662" lon="5.51889">
        <ele>1140.945014817</ele>
        <time>2015-12-14T09:20:10Z</time>
      </trkpt>
      <trkpt lat="45.19663" lon="5.51894">
        <ele>1140.945014817</ele>
        <time>2015-12-14T09:20:15Z</time>
      </trkpt>
      <trkpt lat="45.19663" lon="5.51897">
        <ele>1143.724544175</ele>
        <time>2015-12-14T09:20:25Z</time>
      </trkpt>
      <trkpt lat="45.19664" lon="5.51904">
        <ele>1143.724544175</ele>
        <time>2015-12-14T09:20:29Z</time>
      </trkpt>
      <trkpt lat="45.19663" lon="5.51908">
        <ele>1143.724544175</ele>
        <time>2015-12-14T09:20:40Z</time>
      </trkpt>
      <trkpt lat="45.19661" lon="5.51911">
        <ele>1146.318447717</ele>
        <time>2015-12-14T09:20:45Z</time>
      </trkpt>
      <trkpt lat="45.19656" lon="5.5192">
        <ele>1146.318447717</ele>
        <time>2015-12-14T09:20:55Z</time>
      </trkpt>
      <trkpt lat="45.19656" lon="5.51926">
        <ele>1149.745474706</ele>
        <time>2015-12-14T09:21:00Z</time>
      </trkpt>
      <trkpt lat="45.19654" lon="5.51932">
        <ele>1149.745474706</ele>
        <time>2015-12-14T09:21:09Z</time>
      </trkpt>
      <trkpt lat="45.19652" lon="5.51936">
        <ele>1149.745474706</ele>
        <time>2015-12-14T09:21:14Z</time>
      </trkpt>
      <trkpt lat="45.1965" lon="5.51938">
        <ele>1151.920981556</ele>
        <time>2015-12-14T09:21:25Z</time>
      </trkpt>
      <trkpt lat="45.19649" lon="5.5194">
        <ele>1151.920981556</ele>
        <time>2015-12-14T09:21:30Z</time>
      </trkpt>
      <trkpt lat="45.19646" lon="5.51941">
        <ele>1151.920981556</ele>
        <time>2015-12-14T09:21:40Z</time>
      </trkpt>
      <trkpt lat="45.19646" lon="5.51942">
        <ele>1151.920981556</ele>
        <time>2015-12-14T09:21:45Z</time>
      </trkpt>
      <trkpt lat="45.19646" lon="5.51942">
        <ele>1151.920981556</ele>
        <time>2015-12-14T09:21:55Z</time>
      </trkpt>
      <trkpt lat="45.19646" lon="5.51943">
        <ele>1151.920981556</ele>
        <time>2015-12-14T09:22:00Z</time>
      </trkpt>
      <trkpt lat="45.19646" lon="5.51944">
        <ele>1151.920981556</ele>
        <time>2015-12-14T09:22:10Z</time>
      </trkpt>
      <trkpt lat="45.19645" lon="5.51944">
        <ele>1151.920981556</ele>
        <time>2015-12-14T09:22:15Z</time>
      </trkpt>
      <trkpt lat="45.19645" lon="5.51944">
        <ele>1151.920981556</ele>
        <time>2015-12-14T09:22:25Z</time>
      </trkpt>
      <trkpt lat="45.19645" lon="5.51944">
        <ele>1151.920981556</ele>
        <time>2015-12-14T09:22:29Z</time>
      </trkpt>
      <trkpt lat="45.19645" lon="5.51944">
        <ele>1151.920981556</ele>
        <time>2015-12-14T09:22:40Z</time>
      </trkpt>
      <trkpt lat="45.19645" lon="5.51944">
        <ele>1151.920981556</ele>
        <time>2015-12-14T09:22:45Z</time>
      </trkpt>
      <trkpt lat="45.19645" lon="5.51944">
        <ele>1151.920981556</ele>
        <time>2015-12-14T09:22:54Z</time>
      </trkpt>
      <trkpt lat="45.19645" lon="5.51944">
        <ele>1151.920981556</ele>
        <time>2015-12-14T09:22:59Z</time>
      </trkpt>
      <trkpt lat="45.19646" lon="5.51944">
        <ele>1151.920981556</ele>
        <time>2015-12-14T09:23:11Z</time>
      </trkpt>
      <trkpt lat="45.19646" lon="5.51947">
        <ele>1154.952209111</ele>
        <time>2015-12-14T09:23:15Z</time>
      </trkpt>
      <trkpt lat="45.19646" lon="5.51951">
        <ele>1154.952209111</ele>
        <time>2015-12-14T09:23:20Z</time>
      </trkpt>
      <trkpt lat="45.19645" lon="5.51953">
        <ele>1154.952209111</ele>
        <time>2015-12-14T09:23:25Z</time>
      </trkpt>
      <trkpt lat="45.19644" lon="5.51954">
        <ele>1154.952209111</ele>
        <time>2015-12-14T09:23:29Z</time>
      </trkpt>
      <trkpt lat="45.19643" lon="5.51962">
        <ele>1158.195323331</ele>
        <time>2015-12-14T09:23:45Z</time>
      </trkpt>
      <trkpt lat="45.19644" lon="5.51963">
        <ele>1158.195323331</ele>
        <time>2015-12-14T09:23:50Z</time>
      </trkpt>
      <trkpt lat="45.19643" lon="5.51964">
        <ele>1158.195323331</ele>
        <time>2015-12-14T09:24:00Z</time>
      </trkpt>
      <trkpt lat="45.19642" lon="5.51964">
        <ele>1158.195323331</ele>
        <time>2015-12-14T09:24:05Z</time>
      </trkpt>
      <trkpt lat="45.19644" lon="5.5197">
        <ele>1158.195323331</ele>
        <time>2015-12-14T09:24:16Z</time>
      </trkpt>
      <trkpt lat="45.19642" lon="5.51972">
        <ele>1161.197431108</ele>
        <time>2015-12-14T09:24:20Z</time>
      </trkpt>
      <trkpt lat="45.19641" lon="5.51976">
        <ele>1161.197431108</ele>
        <time>2015-12-14T09:24:29Z</time>
      </trkpt>
      <trkpt lat="45.19642" lon="5.51983">
        <ele>1161.197431108</ele>
        <time>2015-12-14T09:24:35Z</time>
      </trkpt>
      <trkpt lat="45.19641" lon="5.5199">
        <ele>1163.539714664</ele>
        <time>2015-12-14T09:24:45Z</time>
      </trkpt>
      <trkpt lat="45.19643" lon="5.51996">
        <ele>1163.539714664</ele>
        <time>2015-12-14T09:24:50Z</time>
      </trkpt>
      <trkpt lat="45.19643" lon="5.52004">
        <ele>1166.421329084</ele>
        <time>2015-12-14T09:25:00Z</time>
      </trkpt>
      <trkpt lat="45.19642" lon="5.52009">
        <ele>1166.421329084</ele>
        <time>2015-12-14T09:25:05Z</time>
      </trkpt>
      <trkpt lat="45.19642" lon="5.52015">
        <ele>1166.421329084</ele>
        <time>2015-12-14T09:25:15Z</time>
      </trkpt>
      <trkpt lat="45.19643" lon="5.52016">
        <ele>1166.421329084</ele>
        <time>2015-12-14T09:25:20Z</time>
      </trkpt>
      <trkpt lat="45.19642" lon="5.52027">
        <ele>1170.087293931</ele>
        <time>2015-12-14T09:25:34Z</time>
      </trkpt>
      <trkpt lat="45.19643" lon="5.52029">
        <ele>1170.087293931</ele>
        <time>2015-12-14T09:25:39Z</time>
      </trkpt>
      <trkpt lat="45.19643" lon="5.52035">
        <ele>1170.087293931</ele>
        <time>2015-12-14T09:25:49Z</time>
      </trkpt>
      <trkpt lat="45.19643" lon="5.52036">
        <ele>1170.087293931</ele>
        <time>2015-12-14T09:25:54Z</time>
      </trkpt>
      <trkpt lat="45.19643" lon="5.52039">
        <ele>1170.087293931</ele>
        <time>2015-12-14T09:26:06Z</time>
      </trkpt>
      <trkpt lat="45.19644" lon="5.52041">
        <ele>1172.456783941</ele>
        <time>2015-12-14T09:26:15Z</time>
      </trkpt>
      <trkpt lat="45.19644" lon="5.52045">
        <ele>1172.456783941</ele>
        <time>2015-12-14T09:26:20Z</time>
      </trkpt>
      <trkpt lat="45.19644" lon="5.52045">
        <ele>1172.456783941</ele>
        <time>2015-12-14T09:26:25Z</time>
      </trkpt>
      <trkpt lat="45.19643" lon="5.52045">
        <ele>1172.456783941</ele>
        <time>2015-12-14T09:26:34Z</time>
      </trkpt>
      <trkpt lat="45.19642" lon="5.52056">
        <ele>1174.776047728</ele>
        <time>2015-12-14T09:26:50Z</time>
      </trkpt>
      <trkpt lat="45.19639" lon="5.52058">
        <ele>1174.776047728</ele>
        <time>2015-12-14T09:26:54Z</time>
      </trkpt>
      <trkpt lat="45.1964" lon="5.52058">
        <ele>1174.776047728</ele>
        <time>2015-12-14T09:26:59Z</time>
      </trkpt>
      <trkpt lat="45.1964" lon="5.52058">
        <ele>1174.776047728</ele>
        <time>2015-12-14T09:27:04Z</time>
      </trkpt>
      <trkpt lat="45.1964" lon="5.52058">
        <ele>1174.776047728</ele>
        <time>2015-12-14T09:27:09Z</time>
      </trkpt>
      <trkpt lat="45.1964" lon="5.52058">
        <ele>1174.776047728</ele>
        <time>2015-12-14T09:27:14Z</time>
      </trkpt>
      <trkpt lat="45.1964" lon="5.52058">
        <ele>1174.776047728</ele>
        <time>2015-12-14T09:27:19Z</time>
      </trkpt>
      <trkpt lat="45.1964" lon="5.52058">
        <ele>1174.776047728</ele>
        <time>2015-12-14T09:27:24Z</time>
      </trkpt>
      <trkpt lat="45.1964" lon="5.52058">
        <ele>1174.776047728</ele>
        <time>2015-12-14T09:27:29Z</time>
      </trkpt>
      <trkpt lat="45.1964" lon="5.52058">
        <ele>1174.776047728</ele>
        <time>2015-12-14T09:27:34Z</time>
      </trkpt>
      <trkpt lat="45.19635" lon="5.52065">
        <ele>1176.903056844</ele>
        <time>2015-12-14T09:27:45Z</time>
      </trkpt>
      <trkpt lat="45.19637" lon="5.52066">
        <ele>1176.903056844</ele>
        <time>2015-12-14T09:27:50Z</time>
      </trkpt>
      <trkpt lat="45.19635" lon="5.5207">
        <ele>1176.903056844</ele>
        <time>2015-12-14T09:28:00Z</time>
      </trkpt>
      <trkpt lat="45.19634" lon="5.52072">
        <ele>1176.903056844</ele>
        <time>2015-12-14T09:28:05Z</time>
      </trkpt>
      <trkpt lat="45.19633" lon="5.52071">
        <ele>1176.903056844</ele>
        <time>2015-12-14T09:28:20Z</time>
      </trkpt>
      <trkpt lat="45.19634" lon="5.52072">
        <ele>1176.903056844</ele>
        <time>2015-12-14T09:28:25Z</time>
      </trkpt>
      <trkpt lat="45.19633" lon="5.52072">
        <ele>1178.995105866</ele>
        <time>2015-12-14T09:28:34Z</time>
      </trkpt>
      <trkpt lat="45.19633" lon="5.52072">
        <ele>1178.995105866</ele>
        <time>2015-12-14T09:28:40Z</time>
      </trkpt>
      <trkpt lat="45.19636" lon="5.52085">
        <ele>1181.630488827</ele>
        <time>2015-12-14T09:28:50Z</time>
      </trkpt>
      <trkpt lat="45.19638" lon="5.52088">
        <ele>1181.630488827</ele>
        <time>2015-12-14T09:28:55Z</time>
      </trkpt>
      <trkpt lat="45.19644" lon="5.52097">
        <ele>1184.76716786</ele>
        <time>2015-12-14T09:29:06Z</time>
      </trkpt>
      <trkpt lat="45.19643" lon="5.52101">
        <ele>1184.76716786</ele>
        <time>2015-12-14T09:29:10Z</time>
      </trkpt>
      <trkpt lat="45.1964" lon="5.52108">
        <ele>1184.76716786</ele>
        <time>2015-12-14T09:29:20Z</time>
      </trkpt>
      <trkpt lat="45.1964" lon="5.5211">
        <ele>1187.932568869</ele>
        <time>2015-12-14T09:29:25Z</time>
      </trkpt>
      <trkpt lat="45.1964" lon="5.5211">
        <ele>1187.932568869</ele>
        <time>2015-12-14T09:29:34Z</time>
      </trkpt>
      <trkpt lat="45.19639" lon="5.52114">
        <ele>1187.932568869</ele>
        <time>2015-12-14T09:29:40Z</time>
      </trkpt>
      <trkpt lat="45.19638" lon="5.52121">
        <ele>1187.932568869</ele>
        <time>2015-12-14T09:29:50Z</time>
      </trkpt>
      <trkpt lat="45.19638" lon="5.52121">
        <ele>1187.932568869</ele>
        <time>2015-12-14T09:29:55Z</time>
      </trkpt>
      <trkpt lat="45.19638" lon="5.52122">
        <ele>1191.121200607</ele>
        <time>2015-12-14T09:30:05Z</time>
      </trkpt>
      <trkpt lat="45.19639" lon="5.52122">
        <ele>1191.121200607</ele>
        <time>2015-12-14T09:30:09Z</time>
      </trkpt>
      <trkpt lat="45.19639" lon="5.52125">
        <ele>1191.121200607</ele>
        <time>2015-12-14T09:30:15Z</time>
      </trkpt>
      <trkpt lat="45.19641" lon="5.52135">
        <ele>1194.328025634</ele>
        <time>2015-12-14T09:30:25Z</time>
      </trkpt>
      <trkpt lat="45.1964" lon="5.52144">
        <ele>1194.328025634</ele>
        <time>2015-12-14T09:30:29Z</time>
      </trkpt>
      <trkpt lat="45.19641" lon="5.52149">
        <ele>1196.827885168</ele>
        <time>2015-12-14T09:30:39Z</time>
      </trkpt>
      <trkpt lat="45.19642" lon="5.5215">
        <ele>1196.827885168</ele>
        <time>2015-12-14T09:30:45Z</time>
      </trkpt>
      <trkpt lat="45.19642" lon="5.5215">
        <ele>1196.827885168</ele>
        <time>2015-12-14T09:30:55Z</time>
      </trkpt>
      <trkpt lat="45.19641" lon="5.52151">
        <ele>1196.827885168</ele>
        <time>2015-12-14T09:30:59Z</time>
      </trkpt>
      <trkpt lat="45.1964" lon="5.52158">
        <ele>1196.827885168</ele>
        <time>2015-12-14T09:31:09Z</time>
      </trkpt>
      <trkpt lat="45.19639" lon="5.52161">
        <ele>1199.824434044</ele>
        <time>2015-12-14T09:31:14Z</time>
      </trkpt>
      <trkpt lat="45.19638" lon="5.52168">
        <ele>1199.824434044</ele>
        <time>2015-12-14T09:31:29Z</time>
      </trkpt>
      <trkpt lat="45.19639" lon="5.52168">
        <ele>1199.824434044</ele>
        <time>2015-12-14T09:31:34Z</time>
      </trkpt>
      <trkpt lat="45.1964" lon="5.52171">
        <ele>1199.824434044</ele>
        <time>2015-12-14T09:31:44Z</time>
      </trkpt>
      <trkpt lat="45.19641" lon="5.52175">
        <ele>1203.711073385</ele>
        <time>2015-12-14T09:31:50Z</time>
      </trkpt>
      <trkpt lat="45.1964" lon="5.52185">
        <ele>1203.711073385</ele>
        <time>2015-12-14T09:32:00Z</time>
      </trkpt>
      <trkpt lat="45.19641" lon="5.52187">
        <ele>1203.711073385</ele>
        <time>2015-12-14T09:32:05Z</time>
      </trkpt>
      <trkpt lat="45.1964" lon="5.52192">
        <ele>1207.69703512</ele>
        <time>2015-12-14T09:32:15Z</time>
      </trkpt>
      <trkpt lat="45.1964" lon="5.52194">
        <ele>1207.69703512</ele>
        <time>2015-12-14T09:32:20Z</time>
      </trkpt>
      <trkpt lat="45.19637" lon="5.52198">
        <ele>1207.69703512</ele>
        <time>2015-12-14T09:32:24Z</time>
      </trkpt>
      <trkpt lat="45.19637" lon="5.52202">
        <ele>1207.69703512</ele>
        <time>2015-12-14T09:32:29Z</time>
      </trkpt>
      <trkpt lat="45.19638" lon="5.52203">
        <ele>1207.69703512</ele>
        <time>2015-12-14T09:32:35Z</time>
      </trkpt>
      <trkpt lat="45.19635" lon="5.52207">
        <ele>1211.770036582</ele>
        <time>2015-12-14T09:32:46Z</time>
      </trkpt>
      <trkpt lat="45.19635" lon="5.52207">
        <ele>1211.770036582</ele>
        <time>2015-12-14T09:32:50Z</time>
      </trkpt>
      <trkpt lat="45.19638" lon="5.52209">
        <ele>1211.770036582</ele>
        <time>2015-12-14T09:33:06Z</time>
      </trkpt>
      <trkpt lat="45.19638" lon="5.52211">
        <ele>1211.770036582</ele>
        <time>2015-12-14T09:33:10Z</time>
      </trkpt>
      <trkpt lat="45.19637" lon="5.52215">
        <ele>1211.770036582</ele>
        <time>2015-12-14T09:33:20Z</time>
      </trkpt>
      <trkpt lat="45.19637" lon="5.52217">
        <ele>1216.495022547</ele>
        <time>2015-12-14T09:33:25Z</time>
      </trkpt>
      <trkpt lat="45.19636" lon="5.52221">
        <ele>1216.495022547</ele>
        <time>2015-12-14T09:33:34Z</time>
      </trkpt>
      <trkpt lat="45.19635" lon="5.52226">
        <ele>1216.495022547</ele>
        <time>2015-12-14T09:33:40Z</time>
      </trkpt>
      <trkpt lat="45.19634" lon="5.52228">
        <ele>1216.495022547</ele>
        <time>2015-12-14T09:33:50Z</time>
      </trkpt>
      <trkpt lat="45.19634" lon="5.52229">
        <ele>1216.495022547</ele>
        <time>2015-12-14T09:33:55Z</time>
      </trkpt>
      <trkpt lat="45.19632" lon="5.52232">
        <ele>1221.529073948</ele>
        <time>2015-12-14T09:34:05Z</time>
      </trkpt>
      <trkpt lat="45.19631" lon="5.52232">
        <ele>1221.529073948</ele>
        <time>2015-12-14T09:34:10Z</time>
      </trkpt>
      <trkpt lat="45.19631" lon="5.52232">
        <ele>1221.529073948</ele>
        <time>2015-12-14T09:34:15Z</time>
      </trkpt>
      <trkpt lat="45.19631" lon="5.52232">
        <ele>1221.529073948</ele>
        <time>2015-12-14T09:34:24Z</time>
      </trkpt>
      <trkpt lat="45.19631" lon="5.52236">
        <ele>1221.529073948</ele>
        <time>2015-12-14T09:34:29Z</time>
      </trkpt>
      <trkpt lat="45.19624" lon="5.52244">
        <ele>1225.544957211</ele>
        <time>2015-12-14T09:34:39Z</time>
      </trkpt>
      <trkpt lat="45.19622" lon="5.52254">
        <ele>1225.544957211</ele>
        <time>2015-12-14T09:34:44Z</time>
      </trkpt>
      <trkpt lat="45.19619" lon="5.52254">
        <ele>1229.045273093</ele>
        <time>2015-12-14T09:34:55Z</time>
      </trkpt>
      <trkpt lat="45.19619" lon="5.52254">
        <ele>1229.045273093</ele>
        <time>2015-12-14T09:35:00Z</time>
      </trkpt>
      <trkpt lat="45.19617" lon="5.52257">
        <ele>1229.045273093</ele>
        <time>2015-12-14T09:35:10Z</time>
      </trkpt>
      <trkpt lat="45.19616" lon="5.5226">
        <ele>1229.045273093</ele>
        <time>2015-12-14T09:35:15Z</time>
      </trkpt>
      <trkpt lat="45.19614" lon="5.52259">
        <ele>1229.045273093</ele>
        <time>2015-12-14T09:35:25Z</time>
      </trkpt>
      <trkpt lat="45.19613" lon="5.52259">
        <ele>1229.045273093</ele>
        <time>2015-12-14T09:35:30Z</time>
      </trkpt>
      <trkpt lat="45.1961" lon="5.52258">
        <ele>1231.632629465</ele>
        <time>2015-12-14T09:35:45Z</time>
      </trkpt>
      <trkpt lat="45.19605" lon="5.52255">
        <ele>1231.632629465</ele>
        <time>2015-12-14T09:35:55Z</time>
      </trkpt>
      <trkpt lat="45.19605" lon="5.52255">
        <ele>1231.632629465</ele>
        <time>2015-12-14T09:36:00Z</time>
      </trkpt>
      <trkpt lat="45.19605" lon="5.52255">
        <ele>1231.632629465</ele>
        <time>2015-12-14T09:36:10Z</time>
      </trkpt>
      <trkpt lat="45.19605" lon="5.52255">
        <ele>1231.632629465</ele>
        <time>2015-12-14T09:36:15Z</time>
      </trkpt>
      <trkpt lat="45.19605" lon="5.52255">
        <ele>1231.632629465</ele>
        <time>2015-12-14T09:36:19Z</time>
      </trkpt>
      <trkpt lat="45.19605" lon="5.52255">
        <ele>1231.632629465</ele>
        <time>2015-12-14T09:36:24Z</time>
      </trkpt>
      <trkpt lat="45.19605" lon="5.52255">
        <ele>1231.632629465</ele>
        <time>2015-12-14T09:36:29Z</time>
      </trkpt>
      <trkpt lat="45.19605" lon="5.52255">
        <ele>1231.632629465</ele>
        <time>2015-12-14T09:36:34Z</time>
      </trkpt>
      <trkpt lat="45.19605" lon="5.52255">
        <ele>1231.632629465</ele>
        <time>2015-12-14T09:36:39Z</time>
      </trkpt>
      <trkpt lat="45.19605" lon="5.52258">
        <ele>1231.632629465</ele>
        <time>2015-12-14T09:36:44Z</time>
      </trkpt>
      <trkpt lat="45.19606" lon="5.5226">
        <ele>1231.632629465</ele>
        <time>2015-12-14T09:36:49Z</time>
      </trkpt>
      <trkpt lat="45.19606" lon="5.52262">
        <ele>1233.373865965</ele>
        <time>2015-12-14T09:36:54Z</time>
      </trkpt>
      <trkpt lat="45.19606" lon="5.52262">
        <ele>1233.373865965</ele>
        <time>2015-12-14T09:36:59Z</time>
      </trkpt>
      <trkpt lat="45.19606" lon="5.52262">
        <ele>1233.373865965</ele>
        <time>2015-12-14T09:37:04Z</time>
      </trkpt>
      <trkpt lat="45.19606" lon="5.52262">
        <ele>1233.373865965</ele>
        <time>2015-12-14T09:37:09Z</time>
      </trkpt>
      <trkpt lat="45.19606" lon="5.52261">
        <ele>1233.373865965</ele>
        <time>2015-12-14T09:37:14Z</time>
      </trkpt>
      <trkpt lat="45.19606" lon="5.52262">
        <ele>1233.373865965</ele>
        <time>2015-12-14T09:37:19Z</time>
      </trkpt>
      <trkpt lat="45.19606" lon="5.52262">
        <ele>1233.373865965</ele>
        <time>2015-12-14T09:37:24Z</time>
      </trkpt>
      <trkpt lat="45.19606" lon="5.52262">
        <ele>1233.373865965</ele>
        <time>2015-12-14T09:37:29Z</time>
      </trkpt>
      <trkpt lat="45.19606" lon="5.52262">
        <ele>1233.373865965</ele>
        <time>2015-12-14T09:37:34Z</time>
      </trkpt>
      <trkpt lat="45.19606" lon="5.52262">
        <ele>1233.373865965</ele>
        <time>2015-12-14T09:37:39Z</time>
      </trkpt>
      <trkpt lat="45.19606" lon="5.52262">
        <ele>1233.373865965</ele>
        <time>2015-12-14T09:37:44Z</time>
      </trkpt>
      <trkpt lat="45.19606" lon="5.52262">
        <ele>1233.373865965</ele>
        <time>2015-12-14T09:37:49Z</time>
      </trkpt>
      <trkpt lat="45.19605" lon="5.52262">
        <ele>1233.373865965</ele>
        <time>2015-12-14T09:37:54Z</time>
      </trkpt>
      <trkpt lat="45.19605" lon="5.52262">
        <ele>1233.373865965</ele>
        <time>2015-12-14T09:37:59Z</time>
      </trkpt>
      <trkpt lat="45.19605" lon="5.52262">
        <ele>1233.373865965</ele>
        <time>2015-12-14T09:38:04Z</time>
      </trkpt>
      <trkpt lat="45.19605" lon="5.52262">
        <ele>1233.373865965</ele>
        <time>2015-12-14T09:38:09Z</time>
      </trkpt>
      <trkpt lat="45.19605" lon="5.52262">
        <ele>1233.373865965</ele>
        <time>2015-12-14T09:38:14Z</time>
      </trkpt>
      <trkpt lat="45.19605" lon="5.52262">
        <ele>1233.373865965</ele>
        <time>2015-12-14T09:38:19Z</time>
      </trkpt>
      <trkpt lat="45.19605" lon="5.52262">
        <ele>1233.373865965</ele>
        <time>2015-12-14T09:38:30Z</time>
      </trkpt>
      <trkpt lat="45.19605" lon="5.52262">
        <ele>1233.373865965</ele>
        <time>2015-12-14T09:38:35Z</time>
      </trkpt>
      <trkpt lat="45.19605" lon="5.52262">
        <ele>1233.373865965</ele>
        <time>2015-12-14T09:38:44Z</time>
      </trkpt>
      <trkpt lat="45.196" lon="5.52269">
        <ele>1233.373865965</ele>
        <time>2015-12-14T09:38:50Z</time>
      </trkpt>
      <trkpt lat="45.1959" lon="5.5227">
        <ele>1235.342200144</ele>
        <time>2015-12-14T09:39:00Z</time>
      </trkpt>
      <trkpt lat="45.19587" lon="5.52272">
        <ele>1235.342200144</ele>
        <time>2015-12-14T09:39:05Z</time>
      </trkpt>
      <trkpt lat="45.19585" lon="5.52275">
        <ele>1235.342200144</ele>
        <time>2015-12-14T09:39:14Z</time>
      </trkpt>
      <trkpt lat="45.19585" lon="5.52275">
        <ele>1235.342200144</ele>
        <time>2015-12-14T09:39:20Z</time>
      </trkpt>
      <trkpt lat="45.19586" lon="5.52283">
        <ele>1237.810943182</ele>
        <time>2015-12-14T09:39:29Z</time>
      </trkpt>
      <trkpt lat="45.19585" lon="5.52282">
        <ele>1237.810943182</ele>
        <time>2015-12-14T09:39:36Z</time>
      </trkpt>
      <trkpt lat="45.19585" lon="5.52283">
        <ele>1237.810943182</ele>
        <time>2015-12-14T09:39:45Z</time>
      </trkpt>
      <trkpt lat="45.19585" lon="5.52285">
        <ele>1237.810943182</ele>
        <time>2015-12-14T09:39:50Z</time>
      </trkpt>
      <trkpt lat="45.19585" lon="5.52296">
        <ele>1241.752595146</ele>
        <time>2015-12-14T09:40:05Z</time>
      </trkpt>
      <trkpt lat="45.19584" lon="5.52298">
        <ele>1241.752595146</ele>
        <time>2015-12-14T09:40:10Z</time>
      </trkpt>
      <trkpt lat="45.19577" lon="5.52307">
        <ele>1245.181967147</ele>
        <time>2015-12-14T09:40:20Z</time>
      </trkpt>
      <trkpt lat="45.19577" lon="5.52311">
        <ele>1245.181967147</ele>
        <time>2015-12-14T09:40:25Z</time>
      </trkpt>
      <trkpt lat="45.19576" lon="5.5231">
        <ele>1245.181967147</ele>
        <time>2015-12-14T09:40:35Z</time>
      </trkpt>
      <trkpt lat="45.19575" lon="5.52311">
        <ele>1245.181967147</ele>
        <time>2015-12-14T09:40:40Z</time>
      </trkpt>
      <trkpt lat="45.19571" lon="5.52309">
        <ele>1247.41412656</ele>
        <time>2015-12-14T09:40:50Z</time>
      </trkpt>
      <trkpt lat="45.19571" lon="5.5231">
        <ele>1247.41412656</ele>
        <time>2015-12-14T09:40:54Z</time>
      </trkpt>
      <trkpt lat="45.19573" lon="5.5232">
        <ele>1247.41412656</ele>
        <time>2015-12-14T09:41:04Z</time>
      </trkpt>
      <trkpt lat="45.19574" lon="5.52325">
        <ele>1249.114907197</ele>
        <time>2015-12-14T09:41:09Z</time>
      </trkpt>
      <trkpt lat="45.19577" lon="5.52328">
        <ele>1249.114907197</ele>
        <time>2015-12-14T09:41:19Z</time>
      </trkpt>
      <trkpt lat="45.19578" lon="5.52327">
        <ele>1249.114907197</ele>
        <time>2015-12-14T09:41:24Z</time>
      </trkpt>
      <trkpt lat="45.19579" lon="5.52333">
        <ele>1249.114907197</ele>
        <time>2015-12-14T09:41:34Z</time>
      </trkpt>
      <trkpt lat="45.19581" lon="5.52333">
        <ele>1251.623363326</ele>
        <time>2015-12-14T09:41:39Z</time>
      </trkpt>
      <trkpt lat="45.19582" lon="5.52337">
        <ele>1251.623363326</ele>
        <time>2015-12-14T09:41:49Z</time>
      </trkpt>
      <trkpt lat="45.19583" lon="5.52338">
        <ele>1251.623363326</ele>
        <time>2015-12-14T09:41:54Z</time>
      </trkpt>
      <trkpt lat="45.19584" lon="5.5234">
        <ele>1251.623363326</ele>
        <time>2015-12-14T09:41:59Z</time>
      </trkpt>
      <trkpt lat="45.19585" lon="5.52342">
        <ele>1251.623363326</ele>
        <time>2015-12-14T09:42:09Z</time>
      </trkpt>
      <trkpt lat="45.19588" lon="5.52345">
        <ele>1254.304548342</ele>
        <time>2015-12-14T09:42:14Z</time>
      </trkpt>
      <trkpt lat="45.19592" lon="5.52351">
        <ele>1254.304548342</ele>
        <time>2015-12-14T09:42:24Z</time>
      </trkpt>
      <trkpt lat="45.19593" lon="5.52351">
        <ele>1254.304548342</ele>
        <time>2015-12-14T09:42:29Z</time>
      </trkpt>
      <trkpt lat="45.19591" lon="5.52352">
        <ele>1256.85796245</ele>
        <time>2015-12-14T09:42:39Z</time>
      </trkpt>
      <trkpt lat="45.19592" lon="5.5235">
        <ele>1256.85796245</ele>
        <time>2015-12-14T09:42:44Z</time>
      </trkpt>
      <trkpt lat="45.19592" lon="5.5235">
        <ele>1256.85796245</ele>
        <time>2015-12-14T09:42:54Z</time>
      </trkpt>
      <trkpt lat="45.19592" lon="5.5235">
        <ele>1256.85796245</ele>
        <time>2015-12-14T09:42:59Z</time>
      </trkpt>
      <trkpt lat="45.19593" lon="5.52351">
        <ele>1256.85796245</ele>
        <time>2015-12-14T09:43:09Z</time>
      </trkpt>
      <trkpt lat="45.19594" lon="5.52352">
        <ele>1256.85796245</ele>
        <time>2015-12-14T09:43:14Z</time>
      </trkpt>
      <trkpt lat="45.19597" lon="5.52359">
        <ele>1259.005595981</ele>
        <time>2015-12-14T09:43:25Z</time>
      </trkpt>
      <trkpt lat="45.19598" lon="5.5236">
        <ele>1259.005595981</ele>
        <time>2015-12-14T09:43:30Z</time>
      </trkpt>
      <trkpt lat="45.19603" lon="5.52361">
        <ele>1259.005595981</ele>
        <time>2015-12-14T09:43:40Z</time>
      </trkpt>
      <trkpt lat="45.19604" lon="5.52363">
        <ele>1259.005595981</ele>
        <time>2015-12-14T09:43:44Z</time>
      </trkpt>
      <trkpt lat="45.19609" lon="5.52371">
        <ele>1262.076273722</ele>
        <time>2015-12-14T09:44:00Z</time>
      </trkpt>
      <trkpt lat="45.19609" lon="5.52371">
        <ele>1262.076273722</ele>
        <time>2015-12-14T09:44:04Z</time>
      </trkpt>
      <trkpt lat="45.19609" lon="5.52372">
        <ele>1262.076273722</ele>
        <time>2015-12-14T09:44:10Z</time>
      </trkpt>
      <trkpt lat="45.1961" lon="5.52375">
        <ele>1262.076273722</ele>
        <time>2015-12-14T09:44:15Z</time>
      </trkpt>
      <trkpt lat="45.19611" lon="5.52387">
        <ele>1264.560548384</ele>
        <time>2015-12-14T09:44:25Z</time>
      </trkpt>
      <trkpt lat="45.19612" lon="5.52395">
        <ele>1264.560548384</ele>
        <time>2015-12-14T09:44:30Z</time>
      </trkpt>
      <trkpt lat="45.19617" lon="5.52412">
        <ele>1266.502649666</ele>
        <time>2015-12-14T09:44:45Z</time>
      </trkpt>
      <trkpt lat="45.19618" lon="5.52413">
        <ele>1266.502649666</ele>
        <time>2015-12-14T09:44:50Z</time>
      </trkpt>
      <trkpt lat="45.19613" lon="5.5242">
        <ele>1266.502649666</ele>
        <time>2015-12-14T09:45:00Z</time>
      </trkpt>
      <trkpt lat="45.19613" lon="5.5242">
        <ele>1266.502649666</ele>
        <time>2015-12-14T09:45:05Z</time>
      </trkpt>
      <trkpt lat="45.19614" lon="5.52421">
        <ele>1268.089219568</ele>
        <time>2015-12-14T09:45:15Z</time>
      </trkpt>
      <trkpt lat="45.19614" lon="5.52421">
        <ele>1268.089219568</ele>
        <time>2015-12-14T09:45:20Z</time>
      </trkpt>
      <trkpt lat="45.19614" lon="5.52421">
        <ele>1268.089219568</ele>
        <time>2015-12-14T09:45:30Z</time>
      </trkpt>
      <trkpt lat="45.19614" lon="5.52421">
        <ele>1268.089219568</ele>
        <time>2015-12-14T09:45:35Z</time>
      </trkpt>
      <trkpt lat="45.19614" lon="5.52421">
        <ele>1268.089219568</ele>
        <time>2015-12-14T09:45:44Z</time>
      </trkpt>
      <trkpt lat="45.19614" lon="5.52421">
        <ele>1268.089219568</ele>
        <time>2015-12-14T09:45:49Z</time>
      </trkpt>
      <trkpt lat="45.19614" lon="5.52421">
        <ele>1268.089219568</ele>
        <time>2015-12-14T09:45:59Z</time>
      </trkpt>
      <trkpt lat="45.19614" lon="5.52421">
        <ele>1268.089219568</ele>
        <time>2015-12-14T09:46:04Z</time>
      </trkpt>
      <trkpt lat="45.19614" lon="5.52421">
        <ele>1268.089219568</ele>
        <time>2015-12-14T09:46:19Z</time>
      </trkpt>
      <trkpt lat="45.19614" lon="5.52421">
        <ele>1268.089219568</ele>
        <time>2015-12-14T09:46:24Z</time>
      </trkpt>
      <trkpt lat="45.19615" lon="5.52421">
        <ele>1268.089219568</ele>
        <time>2015-12-14T09:46:34Z</time>
      </trkpt>
      <trkpt lat="45.19615" lon="5.52421">
        <ele>1268.089219568</ele>
        <time>2015-12-14T09:46:39Z</time>
      </trkpt>
      <trkpt lat="45.19612" lon="5.52426">
        <ele>1268.089219568</ele>
        <time>2015-12-14T09:46:49Z</time>
      </trkpt>
      <trkpt lat="45.19612" lon="5.52427">
        <ele>1268.089219568</ele>
        <time>2015-12-14T09:46:54Z</time>
      </trkpt>
      <trkpt lat="45.19612" lon="5.52427">
        <ele>1268.089219568</ele>
        <time>2015-12-14T09:47:04Z</time>
      </trkpt>
      <trkpt lat="45.19613" lon="5.5243">
        <ele>1268.089219568</ele>
        <time>2015-12-14T09:47:09Z</time>
      </trkpt>
      <trkpt lat="45.19608" lon="5.52432">
        <ele>1270.647098258</ele>
        <time>2015-12-14T09:47:19Z</time>
      </trkpt>
      <trkpt lat="45.19603" lon="5.52437">
        <ele>1270.647098258</ele>
        <time>2015-12-14T09:47:24Z</time>
      </trkpt>
      <trkpt lat="45.19605" lon="5.52437">
        <ele>1270.647098258</ele>
        <time>2015-12-14T09:47:34Z</time>
      </trkpt>
      <trkpt lat="45.19605" lon="5.52437">
        <ele>1270.647098258</ele>
        <time>2015-12-14T09:47:39Z</time>
      </trkpt>
      <trkpt lat="45.19603" lon="5.52443">
        <ele>1273.241278758</ele>
        <time>2015-12-14T09:47:50Z</time>
      </trkpt>
      <trkpt lat="45.19602" lon="5.52443">
        <ele>1273.241278758</ele>
        <time>2015-12-14T09:47:55Z</time>
      </trkpt>
      <trkpt lat="45.19602" lon="5.52444">
        <ele>1273.241278758</ele>
        <time>2015-12-14T09:48:05Z</time>
      </trkpt>
      <trkpt lat="45.19603" lon="5.52449">
        <ele>1273.241278758</ele>
        <time>2015-12-14T09:48:10Z</time>
      </trkpt>
      <trkpt lat="45.19605" lon="5.52455">
        <ele>1276.302345943</ele>
        <time>2015-12-14T09:48:20Z</time>
      </trkpt>
      <trkpt lat="45.19605" lon="5.52455">
        <ele>1276.302345943</ele>
        <time>2015-12-14T09:48:24Z</time>
      </trkpt>
      <trkpt lat="45.19605" lon="5.52455">
        <ele>1276.302345943</ele>
        <time>2015-12-14T09:48:35Z</time>
      </trkpt>
      <trkpt lat="45.19605" lon="5.52455">
        <ele>1276.302345943</ele>
        <time>2015-12-14T09:48:39Z</time>
      </trkpt>
      <trkpt lat="45.19605" lon="5.52455">
        <ele>1276.302345943</ele>
        <time>2015-12-14T09:48:55Z</time>
      </trkpt>
      <trkpt lat="45.19605" lon="5.52455">
        <ele>1276.302345943</ele>
        <time>2015-12-14T09:49:00Z</time>
      </trkpt>
      <trkpt lat="45.19603" lon="5.52463">
        <ele>1276.302345943</ele>
        <time>2015-12-14T09:49:10Z</time>
      </trkpt>
      <trkpt lat="45.19604" lon="5.52469">
        <ele>1279.363282115</ele>
        <time>2015-12-14T09:49:15Z</time>
      </trkpt>
      <trkpt lat="45.19602" lon="5.52473">
        <ele>1279.363282115</ele>
        <time>2015-12-14T09:49:25Z</time>
      </trkpt>
      <trkpt lat="45.19601" lon="5.52473">
        <ele>1279.363282115</ele>
        <time>2015-12-14T09:49:30Z</time>
      </trkpt>
      <trkpt lat="45.19603" lon="5.52481">
        <ele>1281.703157107</ele>
        <time>2015-12-14T09:49:40Z</time>
      </trkpt>
      <trkpt lat="45.19602" lon="5.5248">
        <ele>1281.703157107</ele>
        <time>2015-12-14T09:49:44Z</time>
      </trkpt>
      <trkpt lat="45.19602" lon="5.52482">
        <ele>1281.703157107</ele>
        <time>2015-12-14T09:49:56Z</time>
      </trkpt>
      <trkpt lat="45.19602" lon="5.52482">
        <ele>1281.703157107</ele>
        <time>2015-12-14T09:50:00Z</time>
      </trkpt>
      <trkpt lat="45.19603" lon="5.52494">
        <ele>1284.385358025</ele>
        <time>2015-12-14T09:50:10Z</time>
      </trkpt>
      <trkpt lat="45.19601" lon="5.52498">
        <ele>1284.385358025</ele>
        <time>2015-12-14T09:50:15Z</time>
      </trkpt>
      <trkpt lat="45.19602" lon="5.52507">
        <ele>1286.953083728</ele>
        <time>2015-12-14T09:50:25Z</time>
      </trkpt>
      <trkpt lat="45.19603" lon="5.52516">
        <ele>1286.953083728</ele>
        <time>2015-12-14T09:50:30Z</time>
      </trkpt>
      <trkpt lat="45.19604" lon="5.52521">
        <ele>1289.271629474</ele>
        <time>2015-12-14T09:50:40Z</time>
      </trkpt>
      <trkpt lat="45.19605" lon="5.52521">
        <ele>1289.271629474</ele>
        <time>2015-12-14T09:50:44Z</time>
      </trkpt>
      <trkpt lat="45.19606" lon="5.52529">
        <ele>1289.271629474</ele>
        <time>2015-12-14T09:50:55Z</time>
      </trkpt>
      <trkpt lat="45.19606" lon="5.52528">
        <ele>1289.271629474</ele>
        <time>2015-12-14T09:51:00Z</time>
      </trkpt>
      <trkpt lat="45.19606" lon="5.52528">
        <ele>1289.271629474</ele>
        <time>2015-12-14T09:51:10Z</time>
      </trkpt>
      <trkpt lat="45.19605" lon="5.5253">
        <ele>1289.271629474</ele>
        <time>2015-12-14T09:51:15Z</time>
      </trkpt>
      <trkpt lat="45.19604" lon="5.52536">
        <ele>1290.928654365</ele>
        <time>2015-12-14T09:51:30Z</time>
      </trkpt>
      <trkpt lat="45.19604" lon="5.52536">
        <ele>1290.928654365</ele>
        <time>2015-12-14T09:51:34Z</time>
      </trkpt>
      <trkpt lat="45.19605" lon="5.52545">
        <ele>1290.928654365</ele>
        <time>2015-12-14T09:51:45Z</time>
      </trkpt>
      <trkpt lat="45.19605" lon="5.52545">
        <ele>1290.928654365</ele>
        <time>2015-12-14T09:51:49Z</time>
      </trkpt>
      <trkpt lat="45.19606" lon="5.52548">
        <ele>1292.552728003</ele>
        <time>2015-12-14T09:52:00Z</time>
      </trkpt>
      <trkpt lat="45.19607" lon="5.52551">
        <ele>1292.552728003</ele>
        <time>2015-12-14T09:52:05Z</time>
      </trkpt>
      <trkpt lat="45.1961" lon="5.52567">
        <ele>1293.717538151</ele>
        <time>2015-12-14T09:52:15Z</time>
      </trkpt>
      <trkpt lat="45.19607" lon="5.52567">
        <ele>1293.717538151</ele>
        <time>2015-12-14T09:52:20Z</time>
      </trkpt>
      <trkpt lat="45.19607" lon="5.52568">
        <ele>1293.717538151</ele>
        <time>2015-12-14T09:52:30Z</time>
      </trkpt>
      <trkpt lat="45.19607" lon="5.52568">
        <ele>1293.717538151</ele>
        <time>2015-12-14T09:52:35Z</time>
      </trkpt>
      <trkpt lat="45.19607" lon="5.52568">
        <ele>1293.717538151</ele>
        <time>2015-12-14T09:52:45Z</time>
      </trkpt>
      <trkpt lat="45.19607" lon="5.52568">
        <ele>1293.717538151</ele>
        <time>2015-12-14T09:52:49Z</time>
      </trkpt>
      <trkpt lat="45.19607" lon="5.52568">
        <ele>1293.717538151</ele>
        <time>2015-12-14T09:52:59Z</time>
      </trkpt>
      <trkpt lat="45.19607" lon="5.52568">
        <ele>1293.717538151</ele>
        <time>2015-12-14T09:53:04Z</time>
      </trkpt>
      <trkpt lat="45.19607" lon="5.52568">
        <ele>1293.717538151</ele>
        <time>2015-12-14T09:53:19Z</time>
      </trkpt>
      <trkpt lat="45.19603" lon="5.52571">
        <ele>1293.717538151</ele>
        <time>2015-12-14T09:53:30Z</time>
      </trkpt>
      <trkpt lat="45.19595" lon="5.52575">
        <ele>1294.894013238</ele>
        <time>2015-12-14T09:53:35Z</time>
      </trkpt>
      <trkpt lat="45.19589" lon="5.5258">
        <ele>1294.894013238</ele>
        <time>2015-12-14T09:53:45Z</time>
      </trkpt>
      <trkpt lat="45.19589" lon="5.5258">
        <ele>1294.894013238</ele>
        <time>2015-12-14T09:53:50Z</time>
      </trkpt>
      <trkpt lat="45.19589" lon="5.52579">
        <ele>1294.894013238</ele>
        <time>2015-12-14T09:54:05Z</time>
      </trkpt>
      <trkpt lat="45.19589" lon="5.52579">
        <ele>1294.894013238</ele>
        <time>2015-12-14T09:54:10Z</time>
      </trkpt>
      <trkpt lat="45.19589" lon="5.52579">
        <ele>1294.894013238</ele>
        <time>2015-12-14T09:54:20Z</time>
      </trkpt>
      <trkpt lat="45.19589" lon="5.52579">
        <ele>1294.894013238</ele>
        <time>2015-12-14T09:54:25Z</time>
      </trkpt>
      <trkpt lat="45.19589" lon="5.52579">
        <ele>1294.894013238</ele>
        <time>2015-12-14T09:54:35Z</time>
      </trkpt>
      <trkpt lat="45.1959" lon="5.5258">
        <ele>1297.527193497</ele>
        <time>2015-12-14T09:54:40Z</time>
      </trkpt>
      <trkpt lat="45.1959" lon="5.52582">
        <ele>1297.527193497</ele>
        <time>2015-12-14T09:54:50Z</time>
      </trkpt>
      <trkpt lat="45.1959" lon="5.52584">
        <ele>1297.527193497</ele>
        <time>2015-12-14T09:54:54Z</time>
      </trkpt>
      <trkpt lat="45.1959" lon="5.52584">
        <ele>1297.527193497</ele>
        <time>2015-12-14T09:55:04Z</time>
      </trkpt>
      <trkpt lat="45.1959" lon="5.52584">
        <ele>1297.527193497</ele>
        <time>2015-12-14T09:55:09Z</time>
      </trkpt>
      <trkpt lat="45.19591" lon="5.52596">
        <ele>1300.213722844</ele>
        <time>2015-12-14T09:55:20Z</time>
      </trkpt>
      <trkpt lat="45.19589" lon="5.526">
        <ele>1300.213722844</ele>
        <time>2015-12-14T09:55:25Z</time>
      </trkpt>
      <trkpt lat="45.19589" lon="5.52605">
        <ele>1300.213722844</ele>
        <time>2015-12-14T09:55:35Z</time>
      </trkpt>
      <trkpt lat="45.1959" lon="5.52605">
        <ele>1300.213722844</ele>
        <time>2015-12-14T09:55:40Z</time>
      </trkpt>
      <trkpt lat="45.1959" lon="5.52607">
        <ele>1300.213722844</ele>
        <time>2015-12-14T09:55:50Z</time>
      </trkpt>
      <trkpt lat="45.1959" lon="5.52608">
        <ele>1303.23835965</ele>
        <time>2015-12-14T09:55:55Z</time>
      </trkpt>
      <trkpt lat="45.1959" lon="5.52607">
        <ele>1303.23835965</ele>
        <time>2015-12-14T09:56:05Z</time>
      </trkpt>
      <trkpt lat="45.19592" lon="5.52612">
        <ele>1303.23835965</ele>
        <time>2015-12-14T09:56:09Z</time>
      </trkpt>
      <trkpt lat="45.19594" lon="5.5262">
        <ele>1306.287503733</ele>
        <time>2015-12-14T09:56:20Z</time>
      </trkpt>
      <trkpt lat="45.19595" lon="5.52626">
        <ele>1306.287503733</ele>
        <time>2015-12-14T09:56:25Z</time>
      </trkpt>
      <trkpt lat="45.19594" lon="5.52635">
        <ele>1309.214590899</ele>
        <time>2015-12-14T09:56:35Z</time>
      </trkpt>
      <trkpt lat="45.19594" lon="5.52636">
        <ele>1309.214590899</ele>
        <time>2015-12-14T09:56:41Z</time>
      </trkpt>
      <trkpt lat="45.19594" lon="5.52636">
        <ele>1309.214590899</ele>
        <time>2015-12-14T09:56:50Z</time>
      </trkpt>
      <trkpt lat="45.19594" lon="5.52636">
        <ele>1309.214590899</ele>
        <time>2015-12-14T09:56:55Z</time>
      </trkpt>
      <trkpt lat="45.19594" lon="5.52636">
        <ele>1309.214590899</ele>
        <time>2015-12-14T09:57:09Z</time>
      </trkpt>
      <trkpt lat="45.19594" lon="5.52636">
        <ele>1309.214590899</ele>
        <time>2015-12-14T09:57:14Z</time>
      </trkpt>
      <trkpt lat="45.19594" lon="5.52636">
        <ele>1309.214590899</ele>
        <time>2015-12-14T09:57:24Z</time>
      </trkpt>
      <trkpt lat="45.19594" lon="5.52636">
        <ele>1309.214590899</ele>
        <time>2015-12-14T09:57:29Z</time>
      </trkpt>
      <trkpt lat="45.19594" lon="5.52636">
        <ele>1309.214590899</ele>
        <time>2015-12-14T09:57:39Z</time>
      </trkpt>
      <trkpt lat="45.19593" lon="5.52636">
        <ele>1309.214590899</ele>
        <time>2015-12-14T09:57:44Z</time>
      </trkpt>
      <trkpt lat="45.19593" lon="5.52636">
        <ele>1309.214590899</ele>
        <time>2015-12-14T09:57:54Z</time>
      </trkpt>
      <trkpt lat="45.19593" lon="5.52636">
        <ele>1309.214590899</ele>
        <time>2015-12-14T09:57:59Z</time>
      </trkpt>
      <trkpt lat="45.1959" lon="5.52649">
        <ele>1311.740015061</ele>
        <time>2015-12-14T09:58:09Z</time>
      </trkpt>
      <trkpt lat="45.19586" lon="5.52651">
        <ele>1311.740015061</ele>
        <time>2015-12-14T09:58:15Z</time>
      </trkpt>
      <trkpt lat="45.19587" lon="5.52654">
        <ele>1311.740015061</ele>
        <time>2015-12-14T09:58:25Z</time>
      </trkpt>
      <trkpt lat="45.19587" lon="5.52655">
        <ele>1311.740015061</ele>
        <time>2015-12-14T09:58:30Z</time>
      </trkpt>
      <trkpt lat="45.19586" lon="5.52654">
        <ele>1311.740015061</ele>
        <time>2015-12-14T09:58:40Z</time>
      </trkpt>
      <trkpt lat="45.19586" lon="5.52654">
        <ele>1311.740015061</ele>
        <time>2015-12-14T09:58:45Z</time>
      </trkpt>
      <trkpt lat="45.19586" lon="5.52654">
        <ele>1311.740015061</ele>
        <time>2015-12-14T09:59:00Z</time>
      </trkpt>
      <trkpt lat="45.19584" lon="5.52654">
        <ele>1315.623358885</ele>
        <time>2015-12-14T09:59:15Z</time>
      </trkpt>
      <trkpt lat="45.19584" lon="5.52654">
        <ele>1315.623358885</ele>
        <time>2015-12-14T09:59:20Z</time>
      </trkpt>
      <trkpt lat="45.19584" lon="5.52654">
        <ele>1315.623358885</ele>
        <time>2015-12-14T09:59:30Z</time>
      </trkpt>
      <trkpt lat="45.19584" lon="5.52653">
        <ele>1315.623358885</ele>
        <time>2015-12-14T09:59:35Z</time>
      </trkpt>
      <trkpt lat="45.19584" lon="5.52653">
        <ele>1315.623358885</ele>
        <time>2015-12-14T09:59:45Z</time>
      </trkpt>
      <trkpt lat="45.19584" lon="5.52653">
        <ele>1315.623358885</ele>
        <time>2015-12-14T09:59:50Z</time>
      </trkpt>
      <trkpt lat="45.19588" lon="5.5266">
        <ele>1315.623358885</ele>
        <time>2015-12-14T10:00:00Z</time>
      </trkpt>
      <trkpt lat="45.19591" lon="5.52661">
        <ele>1319.608886571</ele>
        <time>2015-12-14T10:00:05Z</time>
      </trkpt>
      <trkpt lat="45.19595" lon="5.52669">
        <ele>1319.608886571</ele>
        <time>2015-12-14T10:00:16Z</time>
      </trkpt>
      <trkpt lat="45.19594" lon="5.52669">
        <ele>1319.608886571</ele>
        <time>2015-12-14T10:00:20Z</time>
      </trkpt>
      <trkpt lat="45.19594" lon="5.52669">
        <ele>1319.608886571</ele>
        <time>2015-12-14T10:00:30Z</time>
      </trkpt>
      <trkpt lat="45.19594" lon="5.52669">
        <ele>1319.608886571</ele>
        <time>2015-12-14T10:00:35Z</time>
      </trkpt>
      <trkpt lat="45.19593" lon="5.52674">
        <ele>1323.253356471</ele>
        <time>2015-12-14T10:00:50Z</time>
      </trkpt>
      <trkpt lat="45.19591" lon="5.52674">
        <ele>1323.253356471</ele>
        <time>2015-12-14T10:00:55Z</time>
      </trkpt>
      <trkpt lat="45.19592" lon="5.5268">
        <ele>1323.253356471</ele>
        <time>2015-12-14T10:01:05Z</time>
      </trkpt>
      <trkpt lat="45.19588" lon="5.52684">
        <ele>1327.588144835</ele>
        <time>2015-12-14T10:01:09Z</time>
      </trkpt>
      <trkpt lat="45.19587" lon="5.52686">
        <ele>1327.588144835</ele>
        <time>2015-12-14T10:01:20Z</time>
      </trkpt>
      <trkpt lat="45.19587" lon="5.52686">
        <ele>1327.588144835</ele>
        <time>2015-12-14T10:01:25Z</time>
      </trkpt>
      <trkpt lat="45.19585" lon="5.52688">
        <ele>1327.588144835</ele>
        <time>2015-12-14T10:01:35Z</time>
      </trkpt>
      <trkpt lat="45.19584" lon="5.5269">
        <ele>1327.588144835</ele>
        <time>2015-12-14T10:01:39Z</time>
      </trkpt>
      <trkpt lat="45.19583" lon="5.5269">
        <ele>1327.588144835</ele>
        <time>2015-12-14T10:01:49Z</time>
      </trkpt>
      <trkpt lat="45.19583" lon="5.52691">
        <ele>1327.588144835</ele>
        <time>2015-12-14T10:01:55Z</time>
      </trkpt>
      <trkpt lat="45.1958" lon="5.52691">
        <ele>1332.125816329</ele>
        <time>2015-12-14T10:02:05Z</time>
      </trkpt>
      <trkpt lat="45.1958" lon="5.5269">
        <ele>1332.125816329</ele>
        <time>2015-12-14T10:02:10Z</time>
      </trkpt>
      <trkpt lat="45.19575" lon="5.52693">
        <ele>1332.125816329</ele>
        <time>2015-12-14T10:02:20Z</time>
      </trkpt>
      <trkpt lat="45.19575" lon="5.52693">
        <ele>1332.125816329</ele>
        <time>2015-12-14T10:02:25Z</time>
      </trkpt>
      <trkpt lat="45.19575" lon="5.52693">
        <ele>1332.125816329</ele>
        <time>2015-12-14T10:02:34Z</time>
      </trkpt>
      <trkpt lat="45.19575" lon="5.52693">
        <ele>1332.125816329</ele>
        <time>2015-12-14T10:02:40Z</time>
      </trkpt>
      <trkpt lat="45.1957" lon="5.52696">
        <ele>1336.702408508</ele>
        <time>2015-12-14T10:02:50Z</time>
      </trkpt>
      <trkpt lat="45.19569" lon="5.52697">
        <ele>1336.702408508</ele>
        <time>2015-12-14T10:02:55Z</time>
      </trkpt>
      <trkpt lat="45.19568" lon="5.52697">
        <ele>1336.702408508</ele>
        <time>2015-12-14T10:03:05Z</time>
      </trkpt>
      <trkpt lat="45.19568" lon="5.52697">
        <ele>1336.702408508</ele>
        <time>2015-12-14T10:03:10Z</time>
      </trkpt>
      <trkpt lat="45.19561" lon="5.527">
        <ele>1341.310031024</ele>
        <time>2015-12-14T10:03:20Z</time>
      </trkpt>
      <trkpt lat="45.1956" lon="5.52698">
        <ele>1341.310031024</ele>
        <time>2015-12-14T10:03:25Z</time>
      </trkpt>
      <trkpt lat="45.1956" lon="5.527">
        <ele>1341.310031024</ele>
        <time>2015-12-14T10:03:35Z</time>
      </trkpt>
      <trkpt lat="45.1956" lon="5.527">
        <ele>1341.310031024</ele>
        <time>2015-12-14T10:03:40Z</time>
      </trkpt>
      <trkpt lat="45.1956" lon="5.527">
        <ele>1341.310031024</ele>
        <time>2015-12-14T10:03:50Z</time>
      </trkpt>
      <trkpt lat="45.19558" lon="5.52697">
        <ele>1341.310031024</ele>
        <time>2015-12-14T10:03:54Z</time>
      </trkpt>
      <trkpt lat="45.19557" lon="5.52702">
        <ele>1346.805993136</ele>
        <time>2015-12-14T10:04:00Z</time>
      </trkpt>
      <trkpt lat="45.19557" lon="5.52708">
        <ele>1346.805993136</ele>
        <time>2015-12-14T10:04:10Z</time>
      </trkpt>
      <trkpt lat="45.19557" lon="5.52711">
        <ele>1346.805993136</ele>
        <time>2015-12-14T10:04:15Z</time>
      </trkpt>
      <trkpt lat="45.1956" lon="5.52713">
        <ele>1352.252855465</ele>
        <time>2015-12-14T10:04:25Z</time>
      </trkpt>
      <trkpt lat="45.19559" lon="5.52712">
        <ele>1352.252855465</ele>
        <time>2015-12-14T10:04:29Z</time>
      </trkpt>
      <trkpt lat="45.19559" lon="5.52712">
        <ele>1352.252855465</ele>
        <time>2015-12-14T10:04:40Z</time>
      </trkpt>
      <trkpt lat="45.19559" lon="5.52712">
        <ele>1352.252855465</ele>
        <time>2015-12-14T10:04:45Z</time>
      </trkpt>
      <trkpt lat="45.19565" lon="5.52718">
        <ele>1358.22336293</ele>
        <time>2015-12-14T10:04:55Z</time>
      </trkpt>
      <trkpt lat="45.19564" lon="5.52718">
        <ele>1358.22336293</ele>
        <time>2015-12-14T10:05:00Z</time>
      </trkpt>
      <trkpt lat="45.19567" lon="5.52719">
        <ele>1358.22336293</ele>
        <time>2015-12-14T10:05:10Z</time>
      </trkpt>
      <trkpt lat="45.19568" lon="5.5272">
        <ele>1358.22336293</ele>
        <time>2015-12-14T10:05:15Z</time>
      </trkpt>
      <trkpt lat="45.19569" lon="5.52727">
        <ele>1363.661582616</ele>
        <time>2015-12-14T10:05:25Z</time>
      </trkpt>
      <trkpt lat="45.1957" lon="5.52728">
        <ele>1363.661582616</ele>
        <time>2015-12-14T10:05:30Z</time>
      </trkpt>
      <trkpt lat="45.19572" lon="5.52736">
        <ele>1363.661582616</ele>
        <time>2015-12-14T10:05:46Z</time>
      </trkpt>
      <trkpt lat="45.19574" lon="5.52736">
        <ele>1363.661582616</ele>
        <time>2015-12-14T10:05:50Z</time>
      </trkpt>
      <trkpt lat="45.19574" lon="5.52736">
        <ele>1363.661582616</ele>
        <time>2015-12-14T10:06:00Z</time>
      </trkpt>
      <trkpt lat="45.19574" lon="5.52736">
        <ele>1363.661582616</ele>
        <time>2015-12-14T10:06:04Z</time>
      </trkpt>
      <trkpt lat="45.19574" lon="5.52736">
        <ele>1363.661582616</ele>
        <time>2015-12-14T10:06:14Z</time>
      </trkpt>
      <trkpt lat="45.19574" lon="5.52736">
        <ele>1363.661582616</ele>
        <time>2015-12-14T10:06:19Z</time>
      </trkpt>
      <trkpt lat="45.19575" lon="5.52739">
        <ele>1368.743635528</ele>
        <time>2015-12-14T10:06:29Z</time>
      </trkpt>
      <trkpt lat="45.19576" lon="5.52741">
        <ele>1368.743635528</ele>
        <time>2015-12-14T10:06:34Z</time>
      </trkpt>
      <trkpt lat="45.19576" lon="5.5274">
        <ele>1368.743635528</ele>
        <time>2015-12-14T10:06:39Z</time>
      </trkpt>
      <trkpt lat="45.19576" lon="5.5274">
        <ele>1368.743635528</ele>
        <time>2015-12-14T10:06:44Z</time>
      </trkpt>
      <trkpt lat="45.19576" lon="5.5274">
        <ele>1368.743635528</ele>
        <time>2015-12-14T10:06:49Z</time>
      </trkpt>
      <trkpt lat="45.19576" lon="5.5274">
        <ele>1368.743635528</ele>
        <time>2015-12-14T10:06:54Z</time>
      </trkpt>
      <trkpt lat="45.19576" lon="5.5274">
        <ele>1368.743635528</ele>
        <time>2015-12-14T10:06:59Z</time>
      </trkpt>
      <trkpt lat="45.19576" lon="5.5274">
        <ele>1368.743635528</ele>
        <time>2015-12-14T10:07:04Z</time>
      </trkpt>
      <trkpt lat="45.19577" lon="5.52737">
        <ele>1368.743635528</ele>
        <time>2015-12-14T10:07:09Z</time>
      </trkpt>
      <trkpt lat="45.19578" lon="5.52747">
        <ele>1374.354377554</ele>
        <time>2015-12-14T10:07:24Z</time>
      </trkpt>
      <trkpt lat="45.19584" lon="5.52762">
        <ele>1378.574196177</ele>
        <time>2015-12-14T10:07:40Z</time>
      </trkpt>
      <trkpt lat="45.19586" lon="5.52763">
        <ele>1378.574196177</ele>
        <time>2015-12-14T10:07:45Z</time>
      </trkpt>
      <trkpt lat="45.19587" lon="5.52766">
        <ele>1378.574196177</ele>
        <time>2015-12-14T10:07:54Z</time>
      </trkpt>
      <trkpt lat="45.19588" lon="5.52767">
        <ele>1378.574196177</ele>
        <time>2015-12-14T10:08:00Z</time>
      </trkpt>
      <trkpt lat="45.1959" lon="5.52768">
        <ele>1378.574196177</ele>
        <time>2015-12-14T10:08:10Z</time>
      </trkpt>
      <trkpt lat="45.1959" lon="5.52768">
        <ele>1378.574196177</ele>
        <time>2015-12-14T10:08:15Z</time>
      </trkpt>
      <trkpt lat="45.19593" lon="5.52774">
        <ele>1383.519531937</ele>
        <time>2015-12-14T10:08:25Z</time>
      </trkpt>
      <trkpt lat="45.19594" lon="5.52777">
        <ele>1383.519531937</ele>
        <time>2015-12-14T10:08:29Z</time>
      </trkpt>
      <trkpt lat="45.19594" lon="5.52777">
        <ele>1383.519531937</ele>
        <time>2015-12-14T10:08:40Z</time>
      </trkpt>
      <trkpt lat="45.19594" lon="5.52777">
        <ele>1383.519531937</ele>
        <time>2015-12-14T10:08:45Z</time>
      </trkpt>
      <trkpt lat="45.19597" lon="5.5278">
        <ele>1383.519531937</ele>
        <time>2015-12-14T10:08:55Z</time>
      </trkpt>
      <trkpt lat="45.19598" lon="5.52782">
        <ele>1383.519531937</ele>
        <time>2015-12-14T10:09:00Z</time>
      </trkpt>
      <trkpt lat="45.19599" lon="5.52788">
        <ele>1388.267235699</ele>
        <time>2015-12-14T10:09:10Z</time>
      </trkpt>
      <trkpt lat="45.19601" lon="5.52789">
        <ele>1388.267235699</ele>
        <time>2015-12-14T10:09:15Z</time>
      </trkpt>
      <trkpt lat="45.19606" lon="5.528">
        <ele>1393.547895685</ele>
        <time>2015-12-14T10:09:30Z</time>
      </trkpt>
      <trkpt lat="45.19607" lon="5.52802">
        <ele>1393.547895685</ele>
        <time>2015-12-14T10:09:34Z</time>
      </trkpt>
      <trkpt lat="45.19607" lon="5.52804">
        <ele>1393.547895685</ele>
        <time>2015-12-14T10:09:45Z</time>
      </trkpt>
      <trkpt lat="45.19607" lon="5.52804">
        <ele>1393.547895685</ele>
        <time>2015-12-14T10:09:50Z</time>
      </trkpt>
      <trkpt lat="45.19607" lon="5.52804">
        <ele>1393.547895685</ele>
        <time>2015-12-14T10:09:59Z</time>
      </trkpt>
      <trkpt lat="45.19607" lon="5.52804">
        <ele>1393.547895685</ele>
        <time>2015-12-14T10:10:04Z</time>
      </trkpt>
      <trkpt lat="45.19607" lon="5.52804">
        <ele>1393.547895685</ele>
        <time>2015-12-14T10:10:14Z</time>
      </trkpt>
      <trkpt lat="45.19607" lon="5.52804">
        <ele>1393.547895685</ele>
        <time>2015-12-14T10:10:20Z</time>
      </trkpt>
      <trkpt lat="45.19607" lon="5.52804">
        <ele>1393.547895685</ele>
        <time>2015-12-14T10:10:30Z</time>
      </trkpt>
      <trkpt lat="45.19607" lon="5.52804">
        <ele>1393.547895685</ele>
        <time>2015-12-14T10:10:34Z</time>
      </trkpt>
      <trkpt lat="45.19607" lon="5.52804">
        <ele>1393.547895685</ele>
        <time>2015-12-14T10:10:45Z</time>
      </trkpt>
      <trkpt lat="45.19607" lon="5.52804">
        <ele>1393.547895685</ele>
        <time>2015-12-14T10:10:50Z</time>
      </trkpt>
      <trkpt lat="45.19604" lon="5.5281">
        <ele>1393.547895685</ele>
        <time>2015-12-14T10:11:01Z</time>
      </trkpt>
      <trkpt lat="45.19601" lon="5.52814">
        <ele>1398.019528563</ele>
        <time>2015-12-14T10:11:05Z</time>
      </trkpt>
      <trkpt lat="45.19602" lon="5.52818">
        <ele>1398.019528563</ele>
        <time>2015-12-14T10:11:15Z</time>
      </trkpt>
      <trkpt lat="45.19602" lon="5.52819">
        <ele>1398.019528563</ele>
        <time>2015-12-14T10:11:21Z</time>
      </trkpt>
      <trkpt lat="45.19603" lon="5.52818">
        <ele>1398.019528563</ele>
        <time>2015-12-14T10:11:30Z</time>
      </trkpt>
      <trkpt lat="45.19603" lon="5.52816">
        <ele>1398.019528563</ele>
        <time>2015-12-14T10:11:34Z</time>
      </trkpt>
      <trkpt lat="45.19604" lon="5.52816">
        <ele>1398.019528563</ele>
        <time>2015-12-14T10:11:46Z</time>
      </trkpt>
      <trkpt lat="45.19604" lon="5.52816">
        <ele>1398.019528563</ele>
        <time>2015-12-14T10:11:50Z</time>
      </trkpt>
      <trkpt lat="45.19604" lon="5.52816">
        <ele>1398.019528563</ele>
        <time>2015-12-14T10:12:00Z</time>
      </trkpt>
      <trkpt lat="45.19604" lon="5.52816">
        <ele>1398.019528563</ele>
        <time>2015-12-14T10:12:05Z</time>
      </trkpt>
      <trkpt lat="45.19604" lon="5.52816">
        <ele>1398.019528563</ele>
        <time>2015-12-14T10:12:15Z</time>
      </trkpt>
      <trkpt lat="45.19604" lon="5.52816">
        <ele>1398.019528563</ele>
        <time>2015-12-14T10:12:20Z</time>
      </trkpt>
      <trkpt lat="45.19604" lon="5.52816">
        <ele>1398.019528563</ele>
        <time>2015-12-14T10:12:35Z</time>
      </trkpt>
      <trkpt lat="45.19604" lon="5.52816">
        <ele>1398.019528563</ele>
        <time>2015-12-14T10:12:39Z</time>
      </trkpt>
      <trkpt lat="45.19604" lon="5.52816">
        <ele>1398.019528563</ele>
        <time>2015-12-14T10:12:49Z</time>
      </trkpt>
      <trkpt lat="45.19602" lon="5.52815">
        <ele>1402.602820333</ele>
        <time>2015-12-14T10:12:55Z</time>
      </trkpt>
      <trkpt lat="45.19604" lon="5.52821">
        <ele>1402.602820333</ele>
        <time>2015-12-14T10:13:05Z</time>
      </trkpt>
      <trkpt lat="45.19604" lon="5.52819">
        <ele>1402.602820333</ele>
        <time>2015-12-14T10:13:10Z</time>
      </trkpt>
      <trkpt lat="45.19604" lon="5.52819">
        <ele>1402.602820333</ele>
        <time>2015-12-14T10:13:20Z</time>
      </trkpt>
      <trkpt lat="45.19604" lon="5.52819">
        <ele>1402.602820333</ele>
        <time>2015-12-14T10:13:25Z</time>
      </trkpt>
      <trkpt lat="45.19603" lon="5.52818">
        <ele>1402.602820333</ele>
        <time>2015-12-14T10:13:35Z</time>
      </trkpt>
      <trkpt lat="45.19603" lon="5.52818">
        <ele>1402.602820333</ele>
        <time>2015-12-14T10:13:40Z</time>
      </trkpt>
      <trkpt lat="45.19603" lon="5.52818">
        <ele>1402.602820333</ele>
        <time>2015-12-14T10:13:50Z</time>
      </trkpt>
      <trkpt lat="45.19603" lon="5.52818">
        <ele>1402.602820333</ele>
        <time>2015-12-14T10:13:55Z</time>
      </trkpt>
      <trkpt lat="45.19605" lon="5.52817">
        <ele>1409.303555838</ele>
        <time>2015-12-14T10:14:05Z</time>
      </trkpt>
      <trkpt lat="45.19603" lon="5.52819">
        <ele>1409.303555838</ele>
        <time>2015-12-14T10:14:10Z</time>
      </trkpt>
      <trkpt lat="45.19602" lon="5.5282">
        <ele>1409.303555838</ele>
        <time>2015-12-14T10:14:20Z</time>
      </trkpt>
      <trkpt lat="45.19601" lon="5.52821">
        <ele>1409.303555838</ele>
        <time>2015-12-14T10:14:25Z</time>
      </trkpt>
      <trkpt lat="45.19601" lon="5.52821">
        <ele>1409.303555838</ele>
        <time>2015-12-14T10:14:35Z</time>
      </trkpt>
      <trkpt lat="45.19601" lon="5.52822">
        <ele>1409.303555838</ele>
        <time>2015-12-14T10:14:39Z</time>
      </trkpt>
      <trkpt lat="45.19601" lon="5.5282">
        <ele>1409.303555838</ele>
        <time>2015-12-14T10:14:49Z</time>
      </trkpt>
      <trkpt lat="45.19602" lon="5.5282">
        <ele>1409.303555838</ele>
        <time>2015-12-14T10:14:54Z</time>
      </trkpt>
      <trkpt lat="45.19602" lon="5.52823">
        <ele>1415.651062442</ele>
        <time>2015-12-14T10:15:04Z</time>
      </trkpt>
      <trkpt lat="45.19602" lon="5.52823">
        <ele>1415.651062442</ele>
        <time>2015-12-14T10:15:09Z</time>
      </trkpt>
      <trkpt lat="45.19602" lon="5.52823">
        <ele>1415.651062442</ele>
        <time>2015-12-14T10:15:20Z</time>
      </trkpt>
      <trkpt lat="45.19602" lon="5.52823">
        <ele>1415.651062442</ele>
        <time>2015-12-14T10:15:25Z</time>
      </trkpt>
      <trkpt lat="45.19604" lon="5.5282">
        <ele>1415.651062442</ele>
        <time>2015-12-14T10:15:39Z</time>
      </trkpt>
      <trkpt lat="45.19606" lon="5.52821">
        <ele>1415.651062442</ele>
        <time>2015-12-14T10:15:45Z</time>
      </trkpt>
      <trkpt lat="45.1961" lon="5.52827">
        <ele>1421.66309966</ele>
        <time>2015-12-14T10:15:55Z</time>
      </trkpt>
      <trkpt lat="45.19611" lon="5.5283">
        <ele>1421.66309966</ele>
        <time>2015-12-14T10:16:00Z</time>
      </trkpt>
      <trkpt lat="45.19615" lon="5.52825">
        <ele>1421.66309966</ele>
        <time>2015-12-14T10:16:10Z</time>
      </trkpt>
      <trkpt lat="45.19618" lon="5.52824">
        <ele>1427.357240567</ele>
        <time>2015-12-14T10:16:15Z</time>
      </trkpt>
      <trkpt lat="45.19623" lon="5.52822">
        <ele>1427.357240567</ele>
        <time>2015-12-14T10:16:25Z</time>
      </trkpt>
      <trkpt lat="45.19623" lon="5.52822">
        <ele>1427.357240567</ele>
        <time>2015-12-14T10:16:30Z</time>
      </trkpt>
      <trkpt lat="45.19623" lon="5.52825">
        <ele>1427.357240567</ele>
        <time>2015-12-14T10:16:40Z</time>
      </trkpt>
      <trkpt lat="45.19623" lon="5.52825">
        <ele>1427.357240567</ele>
        <time>2015-12-14T10:16:45Z</time>
      </trkpt>
      <trkpt lat="45.19623" lon="5.52825">
        <ele>1427.357240567</ele>
        <time>2015-12-14T10:16:54Z</time>
      </trkpt>
      <trkpt lat="45.19623" lon="5.52823">
        <ele>1427.357240567</ele>
        <time>2015-12-14T10:17:00Z</time>
      </trkpt>
      <trkpt lat="45.19625" lon="5.52832">
        <ele>1432.318509941</ele>
        <time>2015-12-14T10:17:15Z</time>
      </trkpt>
      <trkpt lat="45.19624" lon="5.52832">
        <ele>1432.318509941</ele>
        <time>2015-12-14T10:17:29Z</time>
      </trkpt>
      <trkpt lat="45.19624" lon="5.52832">
        <ele>1432.318509941</ele>
        <time>2015-12-14T10:17:45Z</time>
      </trkpt>
      <trkpt lat="45.19624" lon="5.52832">
        <ele>1432.318509941</ele>
        <time>2015-12-14T10:17:50Z</time>
      </trkpt>
      <trkpt lat="45.19624" lon="5.52832">
        <ele>1432.318509941</ele>
        <time>2015-12-14T10:18:00Z</time>
      </trkpt>
      <trkpt lat="45.19624" lon="5.52831">
        <ele>1432.318509941</ele>
        <time>2015-12-14T10:18:05Z</time>
      </trkpt>
      <trkpt lat="45.19624" lon="5.52831">
        <ele>1432.318509941</ele>
        <time>2015-12-14T10:18:15Z</time>
      </trkpt>
      <trkpt lat="45.19624" lon="5.52831">
        <ele>1432.318509941</ele>
        <time>2015-12-14T10:18:20Z</time>
      </trkpt>
      <trkpt lat="45.19625" lon="5.5283">
        <ele>1432.318509941</ele>
        <time>2015-12-14T10:18:30Z</time>
      </trkpt>
      <trkpt lat="45.19627" lon="5.52834">
        <ele>1432.318509941</ele>
        <time>2015-12-14T10:18:35Z</time>
      </trkpt>
      <trkpt lat="45.19631" lon="5.52837">
        <ele>1436.885215129</ele>
        <time>2015-12-14T10:18:45Z</time>
      </trkpt>
      <trkpt lat="45.19633" lon="5.52834">
        <ele>1436.885215129</ele>
        <time>2015-12-14T10:18:50Z</time>
      </trkpt>
      <trkpt lat="45.19641" lon="5.52831">
        <ele>1440.79565843</ele>
        <time>2015-12-14T10:19:05Z</time>
      </trkpt>
      <trkpt lat="45.19641" lon="5.52831">
        <ele>1440.79565843</ele>
        <time>2015-12-14T10:19:20Z</time>
      </trkpt>
      <trkpt lat="45.19641" lon="5.52832">
        <ele>1440.79565843</ele>
        <time>2015-12-14T10:19:34Z</time>
      </trkpt>
      <trkpt lat="45.19642" lon="5.52831">
        <ele>1440.79565843</ele>
        <time>2015-12-14T10:19:39Z</time>
      </trkpt>
      <trkpt lat="45.19642" lon="5.52833">
        <ele>1440.79565843</ele>
        <time>2015-12-14T10:19:49Z</time>
      </trkpt>
      <trkpt lat="45.19642" lon="5.52832">
        <ele>1440.79565843</ele>
        <time>2015-12-14T10:19:55Z</time>
      </trkpt>
      <trkpt lat="45.19642" lon="5.52833">
        <ele>1440.79565843</ele>
        <time>2015-12-14T10:20:04Z</time>
      </trkpt>
      <trkpt lat="45.19642" lon="5.52833">
        <ele>1440.79565843</ele>
        <time>2015-12-14T10:20:09Z</time>
      </trkpt>
      <trkpt lat="45.19639" lon="5.52833">
        <ele>1440.79565843</ele>
        <time>2015-12-14T10:20:19Z</time>
      </trkpt>
      <trkpt lat="45.19641" lon="5.52831">
        <ele>1440.79565843</ele>
        <time>2015-12-14T10:20:24Z</time>
      </trkpt>
      <trkpt lat="45.1964" lon="5.5283">
        <ele>1443.232938349</ele>
        <time>2015-12-14T10:20:34Z</time>
      </trkpt>
      <trkpt lat="45.1964" lon="5.5283">
        <ele>1443.232938349</ele>
        <time>2015-12-14T10:20:39Z</time>
      </trkpt>
      <trkpt lat="45.1964" lon="5.5283">
        <ele>1443.232938349</ele>
        <time>2015-12-14T10:20:54Z</time>
      </trkpt>
      <trkpt lat="45.1964" lon="5.5283">
        <ele>1443.232938349</ele>
        <time>2015-12-14T10:20:59Z</time>
      </trkpt>
      <trkpt lat="45.1964" lon="5.5283">
        <ele>1443.232938349</ele>
        <time>2015-12-14T10:21:09Z</time>
      </trkpt>
      <trkpt lat="45.1964" lon="5.5283">
        <ele>1443.232938349</ele>
        <time>2015-12-14T10:21:14Z</time>
      </trkpt>
      <trkpt lat="45.1964" lon="5.5283">
        <ele>1443.232938349</ele>
        <time>2015-12-14T10:21:24Z</time>
      </trkpt>
      <trkpt lat="45.1964" lon="5.5283">
        <ele>1443.232938349</ele>
        <time>2015-12-14T10:21:29Z</time>
      </trkpt>
      <trkpt lat="45.1964" lon="5.52831">
        <ele>1443.232938349</ele>
        <time>2015-12-14T10:21:39Z</time>
      </trkpt>
      <trkpt lat="45.1964" lon="5.52832">
        <ele>1443.232938349</ele>
        <time>2015-12-14T10:21:44Z</time>
      </trkpt>
      <trkpt lat="45.19639" lon="5.52832">
        <ele>1443.232938349</ele>
        <time>2015-12-14T10:21:54Z</time>
      </trkpt>
      <trkpt lat="45.19639" lon="5.52832">
        <ele>1443.232938349</ele>
        <time>2015-12-14T10:21:59Z</time>
      </trkpt>
      <trkpt lat="45.19639" lon="5.52832">
        <ele>1443.232938349</ele>
        <time>2015-12-14T10:22:09Z</time>
      </trkpt>
      <trkpt lat="45.19639" lon="5.52832">
        <ele>1443.232938349</ele>
        <time>2015-12-14T10:22:14Z</time>
      </trkpt>
      <trkpt lat="45.19636" lon="5.52837">
        <ele>1443.232938349</ele>
        <time>2015-12-14T10:22:24Z</time>
      </trkpt>
      <trkpt lat="45.19634" lon="5.52842">
        <ele>1444.885567306</ele>
        <time>2015-12-14T10:22:30Z</time>
      </trkpt>
      <trkpt lat="45.19635" lon="5.52845">
        <ele>1444.885567306</ele>
        <time>2015-12-14T10:22:40Z</time>
      </trkpt>
      <trkpt lat="45.19637" lon="5.52853">
        <ele>1444.885567306</ele>
        <time>2015-12-14T10:22:45Z</time>
      </trkpt>
      <trkpt lat="45.1964" lon="5.52861">
        <ele>1446.826155187</ele>
        <time>2015-12-14T10:22:55Z</time>
      </trkpt>
      <trkpt lat="45.1964" lon="5.52865">
        <ele>1446.826155187</ele>
        <time>2015-12-14T10:23:00Z</time>
      </trkpt>
      <trkpt lat="45.19642" lon="5.52866">
        <ele>1446.826155187</ele>
        <time>2015-12-14T10:23:10Z</time>
      </trkpt>
      <trkpt lat="45.19642" lon="5.52866">
        <ele>1446.826155187</ele>
        <time>2015-12-14T10:23:15Z</time>
      </trkpt>
      <trkpt lat="45.19642" lon="5.52866">
        <ele>1446.826155187</ele>
        <time>2015-12-14T10:23:20Z</time>
      </trkpt>
      <trkpt lat="45.19642" lon="5.52866">
        <ele>1446.826155187</ele>
        <time>2015-12-14T10:23:25Z</time>
      </trkpt>
      <trkpt lat="45.19642" lon="5.52866">
        <ele>1446.826155187</ele>
        <time>2015-12-14T10:23:30Z</time>
      </trkpt>
      <trkpt lat="45.19642" lon="5.52873">
        <ele>1449.615495329</ele>
        <time>2015-12-14T10:23:45Z</time>
      </trkpt>
      <trkpt lat="45.19641" lon="5.52874">
        <ele>1449.615495329</ele>
        <time>2015-12-14T10:23:50Z</time>
      </trkpt>
      <trkpt lat="45.19644" lon="5.52884">
        <ele>1449.615495329</ele>
        <time>2015-12-14T10:23:59Z</time>
      </trkpt>
      <trkpt lat="45.19644" lon="5.52884">
        <ele>1451.321007916</ele>
        <time>2015-12-14T10:24:05Z</time>
      </trkpt>
      <trkpt lat="45.19642" lon="5.52885">
        <ele>1451.321007916</ele>
        <time>2015-12-14T10:24:15Z</time>
      </trkpt>
      <trkpt lat="45.19644" lon="5.52885">
        <ele>1451.321007916</ele>
        <time>2015-12-14T10:24:20Z</time>
      </trkpt>
      <trkpt lat="45.19643" lon="5.52885">
        <ele>1451.321007916</ele>
        <time>2015-12-14T10:24:30Z</time>
      </trkpt>
      <trkpt lat="45.19643" lon="5.52885">
        <ele>1451.321007916</ele>
        <time>2015-12-14T10:24:34Z</time>
      </trkpt>
      <trkpt lat="45.19643" lon="5.52885">
        <ele>1451.321007916</ele>
        <time>2015-12-14T10:24:44Z</time>
      </trkpt>
      <trkpt lat="45.19643" lon="5.52885">
        <ele>1451.321007916</ele>
        <time>2015-12-14T10:24:49Z</time>
      </trkpt>
      <trkpt lat="45.19643" lon="5.52885">
        <ele>1451.321007916</ele>
        <time>2015-12-14T10:24:54Z</time>
      </trkpt>
      <trkpt lat="45.19643" lon="5.52884">
        <ele>1451.321007916</ele>
        <time>2015-12-14T10:25:05Z</time>
      </trkpt>
      <trkpt lat="45.19643" lon="5.52885">
        <ele>1451.321007916</ele>
        <time>2015-12-14T10:25:10Z</time>
      </trkpt>
      <trkpt lat="45.19643" lon="5.52886">
        <ele>1452.749190104</ele>
        <time>2015-12-14T10:25:20Z</time>
      </trkpt>
      <trkpt lat="45.19643" lon="5.52886">
        <ele>1452.749190104</ele>
        <time>2015-12-14T10:25:25Z</time>
      </trkpt>
      <trkpt lat="45.19643" lon="5.52886">
        <ele>1452.749190104</ele>
        <time>2015-12-14T10:25:35Z</time>
      </trkpt>
      <trkpt lat="45.19643" lon="5.52886">
        <ele>1452.749190104</ele>
        <time>2015-12-14T10:25:40Z</time>
      </trkpt>
      <trkpt lat="45.19643" lon="5.52886">
        <ele>1452.749190104</ele>
        <time>2015-12-14T10:25:50Z</time>
      </trkpt>
      <trkpt lat="45.19643" lon="5.52886">
        <ele>1452.749190104</ele>
        <time>2015-12-14T10:25:55Z</time>
      </trkpt>
      <trkpt lat="45.19643" lon="5.52886">
        <ele>1452.749190104</ele>
        <time>2015-12-14T10:26:05Z</time>
      </trkpt>
      <trkpt lat="45.19643" lon="5.52886">
        <ele>1452.749190104</ele>
        <time>2015-12-14T10:26:10Z</time>
      </trkpt>
      <trkpt lat="45.19643" lon="5.52886">
        <ele>1452.749190104</ele>
        <time>2015-12-14T10:26:25Z</time>
      </trkpt>
      <trkpt lat="45.19643" lon="5.52886">
        <ele>1452.749190104</ele>
        <time>2015-12-14T10:26:30Z</time>
      </trkpt>
      <trkpt lat="45.19643" lon="5.52886">
        <ele>1452.749190104</ele>
        <time>2015-12-14T10:26:40Z</time>
      </trkpt>
      <trkpt lat="45.19643" lon="5.52886">
        <ele>1452.749190104</ele>
        <time>2015-12-14T10:26:45Z</time>
      </trkpt>
      <trkpt lat="45.19643" lon="5.52886">
        <ele>1452.749190104</ele>
        <time>2015-12-14T10:26:55Z</time>
      </trkpt>
      <trkpt lat="45.19642" lon="5.52886">
        <ele>1452.749190104</ele>
        <time>2015-12-14T10:26:59Z</time>
      </trkpt>
      <trkpt lat="45.19642" lon="5.52886">
        <ele>1452.749190104</ele>
        <time>2015-12-14T10:27:09Z</time>
      </trkpt>
      <trkpt lat="45.19642" lon="5.52886">
        <ele>1452.749190104</ele>
        <time>2015-12-14T10:27:14Z</time>
      </trkpt>
      <trkpt lat="45.19642" lon="5.52886">
        <ele>1452.749190104</ele>
        <time>2015-12-14T10:27:25Z</time>
      </trkpt>
      <trkpt lat="45.19642" lon="5.52886">
        <ele>1452.749190104</ele>
        <time>2015-12-14T10:27:29Z</time>
      </trkpt>
      <trkpt lat="45.19642" lon="5.52886">
        <ele>1452.749190104</ele>
        <time>2015-12-14T10:27:39Z</time>
      </trkpt>
      <trkpt lat="45.19642" lon="5.52886">
        <ele>1452.749190104</ele>
        <time>2015-12-14T10:27:45Z</time>
      </trkpt>
      <trkpt lat="45.19642" lon="5.52889">
        <ele>1452.749190104</ele>
        <time>2015-12-14T10:27:55Z</time>
      </trkpt>
      <trkpt lat="45.19642" lon="5.52891">
        <ele>1452.749190104</ele>
        <time>2015-12-14T10:27:59Z</time>
      </trkpt>
      <trkpt lat="45.19642" lon="5.52891">
        <ele>1452.749190104</ele>
        <time>2015-12-14T10:28:10Z</time>
      </trkpt>
      <trkpt lat="45.19642" lon="5.52891">
        <ele>1452.749190104</ele>
        <time>2015-12-14T10:28:15Z</time>
      </trkpt>
      <trkpt lat="45.19642" lon="5.52891">
        <ele>1452.749190104</ele>
        <time>2015-12-14T10:28:25Z</time>
      </trkpt>
      <trkpt lat="45.19642" lon="5.52891">
        <ele>1452.749190104</ele>
        <time>2015-12-14T10:28:30Z</time>
      </trkpt>
      <trkpt lat="45.19642" lon="5.52891">
        <ele>1452.749190104</ele>
        <time>2015-12-14T10:28:40Z</time>
      </trkpt>
      <trkpt lat="45.19643" lon="5.5289">
        <ele>1452.749190104</ele>
        <time>2015-12-14T10:28:45Z</time>
      </trkpt>
      <trkpt lat="45.19643" lon="5.5289">
        <ele>1452.749190104</ele>
        <time>2015-12-14T10:28:50Z</time>
      </trkpt>
      <trkpt lat="45.19643" lon="5.5289">
        <ele>1452.749190104</ele>
        <time>2015-12-14T10:29:00Z</time>
      </trkpt>
      <trkpt lat="45.19643" lon="5.5289">
        <ele>1452.749190104</ele>
        <time>2015-12-14T10:29:05Z</time>
      </trkpt>
      <trkpt lat="45.19643" lon="5.5289">
        <ele>1452.749190104</ele>
        <time>2015-12-14T10:29:15Z</time>
      </trkpt>
      <trkpt lat="45.19643" lon="5.5289">
        <ele>1452.749190104</ele>
        <time>2015-12-14T10:29:20Z</time>
      </trkpt>
      <trkpt lat="45.19643" lon="5.52891">
        <ele>1452.749190104</ele>
        <time>2015-12-14T10:29:30Z</time>
      </trkpt>
      <trkpt lat="45.19643" lon="5.52891">
        <ele>1452.749190104</ele>
        <time>2015-12-14T10:29:34Z</time>
      </trkpt>
      <trkpt lat="45.19643" lon="5.52891">
        <ele>1452.749190104</ele>
        <time>2015-12-14T10:29:44Z</time>
      </trkpt>
      <trkpt lat="45.19643" lon="5.52891">
        <ele>1452.749190104</ele>
        <time>2015-12-14T10:29:49Z</time>
      </trkpt>
      <trkpt lat="45.19643" lon="5.52891">
        <ele>1452.749190104</ele>
        <time>2015-12-14T10:29:59Z</time>
      </trkpt>
      <trkpt lat="45.1964" lon="5.52891">
        <ele>1452.749190104</ele>
        <time>2015-12-14T10:30:07Z</time>
      </trkpt>
      <trkpt lat="45.1964" lon="5.52891">
        <ele>1452.749190104</ele>
        <time>2015-12-14T10:30:09Z</time>
      </trkpt>
      <trkpt lat="45.19639" lon="5.52892">
        <ele>1455.512788092</ele>
        <time>2015-12-14T10:30:16Z</time>
      </trkpt>
      <trkpt lat="45.19639" lon="5.52893">
        <ele>1455.512788092</ele>
        <time>2015-12-14T10:30:50Z</time>
      </trkpt>
      <trkpt lat="45.19639" lon="5.52893">
        <ele>1455.512788092</ele>
        <time>2015-12-14T10:30:52Z</time>
      </trkpt>
      <trkpt lat="45.1964" lon="5.52893">
        <ele>1455.512788092</ele>
        <time>2015-12-14T10:31:22Z</time>
      </trkpt>
      <trkpt lat="45.1964" lon="5.52894">
        <ele>1455.512788092</ele>
        <time>2015-12-14T10:31:22Z</time>
      </trkpt>
      <trkpt lat="45.19643" lon="5.52891">
        <ele>1455.512788092</ele>
        <time>2015-12-14T10:31:39Z</time>
      </trkpt>
      <trkpt lat="45.19643" lon="5.52893">
        <ele>1455.512788092</ele>
        <time>2015-12-14T10:31:39Z</time>
      </trkpt>
      <trkpt lat="45.1964" lon="5.52897">
        <ele>1457.355468534</ele>
        <time>2015-12-14T10:31:45Z</time>
      </trkpt>
      <trkpt lat="45.19638" lon="5.52902">
        <ele>1457.355468534</ele>
        <time>2015-12-14T10:31:55Z</time>
      </trkpt>
      <trkpt lat="45.19641" lon="5.52904">
        <ele>1457.355468534</ele>
        <time>2015-12-14T10:32:00Z</time>
      </trkpt>
      <trkpt lat="45.19637" lon="5.52906">
        <ele>1456.765679808</ele>
        <time>2015-12-14T10:32:09Z</time>
      </trkpt>
      <trkpt lat="45.19633" lon="5.52909">
        <ele>1456.765679808</ele>
        <time>2015-12-14T10:32:14Z</time>
      </trkpt>
      <trkpt lat="45.19632" lon="5.52911">
        <ele>1456.765679808</ele>
        <time>2015-12-14T10:32:24Z</time>
      </trkpt>
      <trkpt lat="45.19632" lon="5.5291">
        <ele>1456.765679808</ele>
        <time>2015-12-14T10:32:29Z</time>
      </trkpt>
      <trkpt lat="45.19632" lon="5.5291">
        <ele>1456.765679808</ele>
        <time>2015-12-14T10:32:34Z</time>
      </trkpt>
      <trkpt lat="45.19632" lon="5.5291">
        <ele>1456.765679808</ele>
        <time>2015-12-14T10:32:39Z</time>
      </trkpt>
      <trkpt lat="45.19632" lon="5.5291">
        <ele>1456.765679808</ele>
        <time>2015-12-14T10:32:44Z</time>
      </trkpt>
      <trkpt lat="45.19632" lon="5.52909">
        <ele>1456.765679808</ele>
        <time>2015-12-14T10:32:49Z</time>
      </trkpt>
      <trkpt lat="45.19634" lon="5.5291">
        <ele>1455.808379022</ele>
        <time>2015-12-14T10:32:55Z</time>
      </trkpt>
      <trkpt lat="45.19636" lon="5.52909">
        <ele>1455.808379022</ele>
        <time>2015-12-14T10:33:05Z</time>
      </trkpt>
      <trkpt lat="45.19636" lon="5.52909">
        <ele>1455.808379022</ele>
        <time>2015-12-14T10:33:09Z</time>
      </trkpt>
      <trkpt lat="45.1964" lon="5.52911">
        <ele>1455.808379022</ele>
        <time>2015-12-14T10:33:19Z</time>
      </trkpt>
      <trkpt lat="45.19643" lon="5.52914">
        <ele>1455.100813966</ele>
        <time>2015-12-14T10:33:25Z</time>
      </trkpt>
      <trkpt lat="45.19648" lon="5.52917">
        <ele>1455.100813966</ele>
        <time>2015-12-14T10:33:35Z</time>
      </trkpt>
      <trkpt lat="45.1965" lon="5.5292">
        <ele>1455.100813966</ele>
        <time>2015-12-14T10:33:40Z</time>
      </trkpt>
      <trkpt lat="45.19657" lon="5.5292">
        <ele>1454.637662955</ele>
        <time>2015-12-14T10:33:50Z</time>
      </trkpt>
      <trkpt lat="45.19659" lon="5.52918">
        <ele>1454.637662955</ele>
        <time>2015-12-14T10:33:55Z</time>
      </trkpt>
      <trkpt lat="45.1966" lon="5.52917">
        <ele>1454.637662955</ele>
        <time>2015-12-14T10:33:59Z</time>
      </trkpt>
      <trkpt lat="45.19669" lon="5.52923">
        <ele>1453.980861405</ele>
        <time>2015-12-14T10:34:05Z</time>
      </trkpt>
      <trkpt lat="45.19673" lon="5.52924">
        <ele>1453.980861405</ele>
        <time>2015-12-14T10:34:10Z</time>
      </trkpt>
      <trkpt lat="45.19681" lon="5.52922">
        <ele>1453.013145062</ele>
        <time>2015-12-14T10:34:25Z</time>
      </trkpt>
      <trkpt lat="45.19686" lon="5.52925">
        <ele>1453.013145062</ele>
        <time>2015-12-14T10:34:30Z</time>
      </trkpt>
      <trkpt lat="45.19695" lon="5.52927">
        <ele>1452.058896584</ele>
        <time>2015-12-14T10:34:40Z</time>
      </trkpt>
      <trkpt lat="45.19697" lon="5.52928">
        <ele>1452.058896584</ele>
        <time>2015-12-14T10:34:45Z</time>
      </trkpt>
      <trkpt lat="45.19701" lon="5.5293">
        <ele>1452.058896584</ele>
        <time>2015-12-14T10:34:55Z</time>
      </trkpt>
      <trkpt lat="45.19707" lon="5.52933">
        <ele>1450.697876618</ele>
        <time>2015-12-14T10:34:59Z</time>
      </trkpt>
      <trkpt lat="45.19717" lon="5.52935">
        <ele>1449.118077047</ele>
        <time>2015-12-14T10:35:10Z</time>
      </trkpt>
      <trkpt lat="45.19723" lon="5.52937">
        <ele>1449.118077047</ele>
        <time>2015-12-14T10:35:15Z</time>
      </trkpt>
      <trkpt lat="45.1973" lon="5.5294">
        <ele>1447.061709782</ele>
        <time>2015-12-14T10:35:25Z</time>
      </trkpt>
      <trkpt lat="45.19733" lon="5.5294">
        <ele>1447.061709782</ele>
        <time>2015-12-14T10:35:30Z</time>
      </trkpt>
      <trkpt lat="45.19735" lon="5.5294">
        <ele>1447.061709782</ele>
        <time>2015-12-14T10:35:40Z</time>
      </trkpt>
      <trkpt lat="45.19741" lon="5.52941">
        <ele>1445.299764297</ele>
        <time>2015-12-14T10:35:45Z</time>
      </trkpt>
      <trkpt lat="45.19743" lon="5.52941">
        <ele>1445.299764297</ele>
        <time>2015-12-14T10:35:55Z</time>
      </trkpt>
      <trkpt lat="45.19746" lon="5.52942">
        <ele>1445.299764297</ele>
        <time>2015-12-14T10:36:00Z</time>
      </trkpt>
      <trkpt lat="45.1976" lon="5.52948">
        <ele>1443.248469264</ele>
        <time>2015-12-14T10:36:10Z</time>
      </trkpt>
      <trkpt lat="45.19762" lon="5.52951">
        <ele>1443.248469264</ele>
        <time>2015-12-14T10:36:15Z</time>
      </trkpt>
      <trkpt lat="45.1977" lon="5.52953">
        <ele>1441.376207323</ele>
        <time>2015-12-14T10:36:25Z</time>
      </trkpt>
      <trkpt lat="45.19775" lon="5.52955">
        <ele>1441.376207323</ele>
        <time>2015-12-14T10:36:30Z</time>
      </trkpt>
      <trkpt lat="45.19783" lon="5.52959">
        <ele>1439.683779871</ele>
        <time>2015-12-14T10:36:40Z</time>
      </trkpt>
      <trkpt lat="45.19787" lon="5.52963">
        <ele>1439.683779871</ele>
        <time>2015-12-14T10:36:45Z</time>
      </trkpt>
      <trkpt lat="45.19792" lon="5.52967">
        <ele>1438.60340505</ele>
        <time>2015-12-14T10:36:55Z</time>
      </trkpt>
      <trkpt lat="45.19796" lon="5.52968">
        <ele>1438.60340505</ele>
        <time>2015-12-14T10:37:00Z</time>
      </trkpt>
      <trkpt lat="45.19798" lon="5.52969">
        <ele>1438.60340505</ele>
        <time>2015-12-14T10:37:10Z</time>
      </trkpt>
      <trkpt lat="45.19798" lon="5.52969">
        <ele>1438.60340505</ele>
        <time>2015-12-14T10:37:15Z</time>
      </trkpt>
      <trkpt lat="45.19804" lon="5.52972">
        <ele>1437.812913155</ele>
        <time>2015-12-14T10:37:29Z</time>
      </trkpt>
      <trkpt lat="45.19809" lon="5.52976">
        <ele>1437.812913155</ele>
        <time>2015-12-14T10:37:34Z</time>
      </trkpt>
      <trkpt lat="45.19814" lon="5.52978">
        <ele>1436.292059099</ele>
        <time>2015-12-14T10:37:45Z</time>
      </trkpt>
      <trkpt lat="45.19815" lon="5.52979">
        <ele>1436.292059099</ele>
        <time>2015-12-14T10:37:50Z</time>
      </trkpt>
      <trkpt lat="45.19825" lon="5.5298">
        <ele>1435.258883518</ele>
        <time>2015-12-14T10:38:00Z</time>
      </trkpt>
      <trkpt lat="45.19829" lon="5.52982">
        <ele>1435.258883518</ele>
        <time>2015-12-14T10:38:05Z</time>
      </trkpt>
      <trkpt lat="45.19839" lon="5.52991">
        <ele>1434.110868479</ele>
        <time>2015-12-14T10:38:15Z</time>
      </trkpt>
      <trkpt lat="45.19844" lon="5.5299">
        <ele>1434.110868479</ele>
        <time>2015-12-14T10:38:20Z</time>
      </trkpt>
      <trkpt lat="45.19851" lon="5.52995">
        <ele>1433.44258752</ele>
        <time>2015-12-14T10:38:30Z</time>
      </trkpt>
      <trkpt lat="45.19852" lon="5.52995">
        <ele>1433.44258752</ele>
        <time>2015-12-14T10:38:35Z</time>
      </trkpt>
      <trkpt lat="45.19854" lon="5.52997">
        <ele>1433.44258752</ele>
        <time>2015-12-14T10:38:46Z</time>
      </trkpt>
      <trkpt lat="45.19859" lon="5.52996">
        <ele>1433.44258752</ele>
        <time>2015-12-14T10:38:50Z</time>
      </trkpt>
      <trkpt lat="45.19871" lon="5.53002">
        <ele>1432.217987813</ele>
        <time>2015-12-14T10:39:00Z</time>
      </trkpt>
      <trkpt lat="45.19878" lon="5.53006">
        <ele>1432.217987813</ele>
        <time>2015-12-14T10:39:05Z</time>
      </trkpt>
      <trkpt lat="45.19882" lon="5.53006">
        <ele>1430.919417589</ele>
        <time>2015-12-14T10:39:15Z</time>
      </trkpt>
      <trkpt lat="45.19883" lon="5.53007">
        <ele>1430.919417589</ele>
        <time>2015-12-14T10:39:20Z</time>
      </trkpt>
      <trkpt lat="45.19893" lon="5.53003">
        <ele>1430.714180425</ele>
        <time>2015-12-14T10:39:30Z</time>
      </trkpt>
      <trkpt lat="45.19899" lon="5.53008">
        <ele>1430.714180425</ele>
        <time>2015-12-14T10:39:35Z</time>
      </trkpt>
      <trkpt lat="45.19908" lon="5.53013">
        <ele>1430.51872668</ele>
        <time>2015-12-14T10:39:50Z</time>
      </trkpt>
      <trkpt lat="45.19919" lon="5.53016">
        <ele>1430.337493047</ele>
        <time>2015-12-14T10:40:05Z</time>
      </trkpt>
      <trkpt lat="45.19923" lon="5.5302">
        <ele>1430.337493047</ele>
        <time>2015-12-14T10:40:09Z</time>
      </trkpt>
      <trkpt lat="45.1993" lon="5.53017">
        <ele>1430.606533864</ele>
        <time>2015-12-14T10:40:20Z</time>
      </trkpt>
      <trkpt lat="45.19931" lon="5.53016">
        <ele>1430.606533864</ele>
        <time>2015-12-14T10:40:25Z</time>
      </trkpt>
      <trkpt lat="45.19937" lon="5.53018">
        <ele>1430.606533864</ele>
        <time>2015-12-14T10:40:35Z</time>
      </trkpt>
      <trkpt lat="45.19942" lon="5.53011">
        <ele>1430.57538172</ele>
        <time>2015-12-14T10:40:40Z</time>
      </trkpt>
      <trkpt lat="45.19951" lon="5.53022">
        <ele>1431.134440777</ele>
        <time>2015-12-14T10:40:51Z</time>
      </trkpt>
      <trkpt lat="45.19954" lon="5.53021">
        <ele>1431.134440777</ele>
        <time>2015-12-14T10:40:55Z</time>
      </trkpt>
      <trkpt lat="45.19965" lon="5.53023">
        <ele>1431.809743974</ele>
        <time>2015-12-14T10:41:05Z</time>
      </trkpt>
      <trkpt lat="45.19966" lon="5.53021">
        <ele>1431.809743974</ele>
        <time>2015-12-14T10:41:10Z</time>
      </trkpt>
      <trkpt lat="45.1997" lon="5.5302">
        <ele>1431.809743974</ele>
        <time>2015-12-14T10:41:20Z</time>
      </trkpt>
      <trkpt lat="45.19972" lon="5.5302">
        <ele>1431.809743974</ele>
        <time>2015-12-14T10:41:25Z</time>
      </trkpt>
      <trkpt lat="45.19974" lon="5.53021">
        <ele>1433.026193931</ele>
        <time>2015-12-14T10:41:35Z</time>
      </trkpt>
      <trkpt lat="45.19979" lon="5.53022">
        <ele>1433.026193931</ele>
        <time>2015-12-14T10:41:39Z</time>
      </trkpt>
      <trkpt lat="45.19991" lon="5.53029">
        <ele>1434.02280294</ele>
        <time>2015-12-14T10:41:51Z</time>
      </trkpt>
      <trkpt lat="45.19995" lon="5.53029">
        <ele>1434.02280294</ele>
        <time>2015-12-14T10:41:55Z</time>
      </trkpt>
      <trkpt lat="45.20009" lon="5.5303">
        <ele>1435.24774162</ele>
        <time>2015-12-14T10:42:10Z</time>
      </trkpt>
      <trkpt lat="45.20014" lon="5.53035">
        <ele>1435.24774162</ele>
        <time>2015-12-14T10:42:25Z</time>
      </trkpt>
      <trkpt lat="45.20018" lon="5.53037">
        <ele>1436.538944384</ele>
        <time>2015-12-14T10:42:30Z</time>
      </trkpt>
      <trkpt lat="45.20024" lon="5.53037">
        <ele>1436.538944384</ele>
        <time>2015-12-14T10:42:40Z</time>
      </trkpt>
      <trkpt lat="45.20034" lon="5.53043">
        <ele>1437.601745532</ele>
        <time>2015-12-14T10:42:55Z</time>
      </trkpt>
      <trkpt lat="45.20038" lon="5.5304">
        <ele>1437.601745532</ele>
        <time>2015-12-14T10:42:59Z</time>
      </trkpt>
      <trkpt lat="45.20049" lon="5.53052">
        <ele>1438.740021975</ele>
        <time>2015-12-14T10:43:10Z</time>
      </trkpt>
      <trkpt lat="45.2005" lon="5.53053">
        <ele>1438.740021975</ele>
        <time>2015-12-14T10:43:15Z</time>
      </trkpt>
      <trkpt lat="45.2005" lon="5.53058">
        <ele>1438.740021975</ele>
        <time>2015-12-14T10:43:25Z</time>
      </trkpt>
      <trkpt lat="45.2005" lon="5.53058">
        <ele>1438.740021975</ele>
        <time>2015-12-14T10:43:30Z</time>
      </trkpt>
      <trkpt lat="45.20053" lon="5.53055">
        <ele>1438.740021975</ele>
        <time>2015-12-14T10:43:40Z</time>
      </trkpt>
      <trkpt lat="45.20055" lon="5.53056">
        <ele>1439.946724011</ele>
        <time>2015-12-14T10:43:45Z</time>
      </trkpt>
      <trkpt lat="45.20057" lon="5.53055">
        <ele>1439.946724011</ele>
        <time>2015-12-14T10:43:55Z</time>
      </trkpt>
      <trkpt lat="45.20062" lon="5.53057">
        <ele>1439.946724011</ele>
        <time>2015-12-14T10:44:00Z</time>
      </trkpt>
      <trkpt lat="45.20073" lon="5.53057">
        <ele>1441.93553289</ele>
        <time>2015-12-14T10:44:10Z</time>
      </trkpt>
      <trkpt lat="45.20076" lon="5.53059">
        <ele>1441.93553289</ele>
        <time>2015-12-14T10:44:15Z</time>
      </trkpt>
      <trkpt lat="45.20074" lon="5.53059">
        <ele>1441.93553289</ele>
        <time>2015-12-14T10:44:25Z</time>
      </trkpt>
      <trkpt lat="45.20075" lon="5.5306">
        <ele>1441.93553289</ele>
        <time>2015-12-14T10:44:29Z</time>
      </trkpt>
      <trkpt lat="45.20075" lon="5.53061">
        <ele>1441.93553289</ele>
        <time>2015-12-14T10:44:40Z</time>
      </trkpt>
      <trkpt lat="45.20077" lon="5.53061">
        <ele>1441.93553289</ele>
        <time>2015-12-14T10:44:45Z</time>
      </trkpt>
      <trkpt lat="45.20082" lon="5.53064">
        <ele>1444.356600176</ele>
        <time>2015-12-14T10:45:00Z</time>
      </trkpt>
      <trkpt lat="45.20083" lon="5.53064">
        <ele>1444.356600176</ele>
        <time>2015-12-14T10:45:05Z</time>
      </trkpt>
      <trkpt lat="45.20089" lon="5.53067">
        <ele>1444.356600176</ele>
        <time>2015-12-14T10:45:15Z</time>
      </trkpt>
      <trkpt lat="45.20091" lon="5.53067">
        <ele>1444.356600176</ele>
        <time>2015-12-14T10:45:20Z</time>
      </trkpt>
      <trkpt lat="45.20093" lon="5.53068">
        <ele>1446.452120771</ele>
        <time>2015-12-14T10:45:30Z</time>
      </trkpt>
      <trkpt lat="45.20093" lon="5.53068">
        <ele>1446.452120771</ele>
        <time>2015-12-14T10:45:35Z</time>
      </trkpt>
      <trkpt lat="45.20093" lon="5.53068">
        <ele>1446.452120771</ele>
        <time>2015-12-14T10:45:44Z</time>
      </trkpt>
      <trkpt lat="45.20093" lon="5.53068">
        <ele>1446.452120771</ele>
        <time>2015-12-14T10:45:49Z</time>
      </trkpt>
      <trkpt lat="45.20093" lon="5.53068">
        <ele>1446.452120771</ele>
        <time>2015-12-14T10:45:59Z</time>
      </trkpt>
      <trkpt lat="45.20093" lon="5.53068">
        <ele>1446.452120771</ele>
        <time>2015-12-14T10:46:04Z</time>
      </trkpt>
      <trkpt lat="45.20093" lon="5.53068">
        <ele>1446.452120771</ele>
        <time>2015-12-14T10:46:14Z</time>
      </trkpt>
      <trkpt lat="45.20093" lon="5.53068">
        <ele>1446.452120771</ele>
        <time>2015-12-14T10:46:19Z</time>
      </trkpt>
      <trkpt lat="45.20097" lon="5.53068">
        <ele>1446.452120771</ele>
        <time>2015-12-14T10:46:34Z</time>
      </trkpt>
      <trkpt lat="45.20099" lon="5.53067">
        <ele>1446.452120771</ele>
        <time>2015-12-14T10:46:39Z</time>
      </trkpt>
      <trkpt lat="45.20099" lon="5.53068">
        <ele>1446.452120771</ele>
        <time>2015-12-14T10:46:50Z</time>
      </trkpt>
      <trkpt lat="45.20099" lon="5.53068">
        <ele>1446.452120771</ele>
        <time>2015-12-14T10:46:54Z</time>
      </trkpt>
      <trkpt lat="45.20101" lon="5.53069">
        <ele>1446.452120771</ele>
        <time>2015-12-14T10:47:04Z</time>
      </trkpt>
      <trkpt lat="45.20101" lon="5.53069">
        <ele>1448.529560188</ele>
        <time>2015-12-14T10:47:09Z</time>
      </trkpt>
      <trkpt lat="45.20107" lon="5.53075">
        <ele>1448.529560188</ele>
        <time>2015-12-14T10:47:19Z</time>
      </trkpt>
      <trkpt lat="45.20109" lon="5.53076">
        <ele>1450.29733585</ele>
        <time>2015-12-14T10:47:25Z</time>
      </trkpt>
      <trkpt lat="45.20116" lon="5.53082">
        <ele>1450.29733585</ele>
        <time>2015-12-14T10:47:35Z</time>
      </trkpt>
      <trkpt lat="45.20122" lon="5.53087">
        <ele>1452.350771863</ele>
        <time>2015-12-14T10:47:40Z</time>
      </trkpt>
      <trkpt lat="45.20124" lon="5.53088">
        <ele>1452.350771863</ele>
        <time>2015-12-14T10:47:50Z</time>
      </trkpt>
      <trkpt lat="45.20124" lon="5.53088">
        <ele>1452.350771863</ele>
        <time>2015-12-14T10:47:55Z</time>
      </trkpt>
      <trkpt lat="45.2013" lon="5.5309">
        <ele>1452.350771863</ele>
        <time>2015-12-14T10:48:05Z</time>
      </trkpt>
      <trkpt lat="45.20137" lon="5.53091">
        <ele>1454.087737776</ele>
        <time>2015-12-14T10:48:10Z</time>
      </trkpt>
      <trkpt lat="45.20141" lon="5.53095">
        <ele>1454.087737776</ele>
        <time>2015-12-14T10:48:20Z</time>
      </trkpt>
      <trkpt lat="45.20146" lon="5.53097">
        <ele>1456.248207745</ele>
        <time>2015-12-14T10:48:25Z</time>
      </trkpt>
      <trkpt lat="45.20158" lon="5.53102">
        <ele>1458.363719333</ele>
        <time>2015-12-14T10:48:35Z</time>
      </trkpt>
      <trkpt lat="45.20162" lon="5.53104">
        <ele>1458.363719333</ele>
        <time>2015-12-14T10:48:40Z</time>
      </trkpt>
      <trkpt lat="45.20164" lon="5.53104">
        <ele>1458.363719333</ele>
        <time>2015-12-14T10:48:50Z</time>
      </trkpt>
      <trkpt lat="45.20164" lon="5.53104">
        <ele>1458.363719333</ele>
        <time>2015-12-14T10:48:55Z</time>
      </trkpt>
      <trkpt lat="45.20165" lon="5.53104">
        <ele>1458.363719333</ele>
        <time>2015-12-14T10:49:09Z</time>
      </trkpt>
      <trkpt lat="45.20169" lon="5.53106">
        <ele>1460.144472793</ele>
        <time>2015-12-14T10:49:14Z</time>
      </trkpt>
      <trkpt lat="45.20172" lon="5.53105">
        <ele>1460.144472793</ele>
        <time>2015-12-14T10:49:25Z</time>
      </trkpt>
      <trkpt lat="45.20177" lon="5.5311">
        <ele>1461.611142568</ele>
        <time>2015-12-14T10:49:29Z</time>
      </trkpt>
      <trkpt lat="45.20182" lon="5.53116">
        <ele>1461.611142568</ele>
        <time>2015-12-14T10:49:39Z</time>
      </trkpt>
      <trkpt lat="45.20183" lon="5.53117">
        <ele>1461.611142568</ele>
        <time>2015-12-14T10:49:45Z</time>
      </trkpt>
      <trkpt lat="45.20184" lon="5.53117">
        <ele>1461.611142568</ele>
        <time>2015-12-14T10:49:56Z</time>
      </trkpt>
      <trkpt lat="45.20186" lon="5.53119">
        <ele>1463.504356502</ele>
        <time>2015-12-14T10:49:59Z</time>
      </trkpt>
      <trkpt lat="45.20193" lon="5.53121">
        <ele>1463.504356502</ele>
        <time>2015-12-14T10:50:10Z</time>
      </trkpt>
      <trkpt lat="45.20197" lon="5.53121">
        <ele>1465.788629042</ele>
        <time>2015-12-14T10:50:15Z</time>
      </trkpt>
      <trkpt lat="45.202" lon="5.53124">
        <ele>1465.788629042</ele>
        <time>2015-12-14T10:50:25Z</time>
      </trkpt>
      <trkpt lat="45.20201" lon="5.53124">
        <ele>1465.788629042</ele>
        <time>2015-12-14T10:50:30Z</time>
      </trkpt>
      <trkpt lat="45.20209" lon="5.53127">
        <ele>1467.277148058</ele>
        <time>2015-12-14T10:50:40Z</time>
      </trkpt>
      <trkpt lat="45.20216" lon="5.53132">
        <ele>1467.277148058</ele>
        <time>2015-12-14T10:50:55Z</time>
      </trkpt>
      <trkpt lat="45.20218" lon="5.53135">
        <ele>1467.73724186</ele>
        <time>2015-12-14T10:51:00Z</time>
      </trkpt>
      <trkpt lat="45.20223" lon="5.53133">
        <ele>1467.73724186</ele>
        <time>2015-12-14T10:51:10Z</time>
      </trkpt>
      <trkpt lat="45.20227" lon="5.53135">
        <ele>1468.397389615</ele>
        <time>2015-12-14T10:51:15Z</time>
      </trkpt>
      <trkpt lat="45.20232" lon="5.53139">
        <ele>1468.397389615</ele>
        <time>2015-12-14T10:51:25Z</time>
      </trkpt>
      <trkpt lat="45.20236" lon="5.53143">
        <ele>1469.098328</ele>
        <time>2015-12-14T10:51:30Z</time>
      </trkpt>
      <trkpt lat="45.20244" lon="5.53149">
        <ele>1470.124772752</ele>
        <time>2015-12-14T10:51:40Z</time>
      </trkpt>
      <trkpt lat="45.20247" lon="5.53149">
        <ele>1470.124772752</ele>
        <time>2015-12-14T10:51:45Z</time>
      </trkpt>
      <trkpt lat="45.20247" lon="5.53148">
        <ele>1470.124772752</ele>
        <time>2015-12-14T10:51:55Z</time>
      </trkpt>
      <trkpt lat="45.20247" lon="5.53148">
        <ele>1470.124772752</ele>
        <time>2015-12-14T10:51:59Z</time>
      </trkpt>
      <trkpt lat="45.20247" lon="5.53148">
        <ele>1470.124772752</ele>
        <time>2015-12-14T10:52:04Z</time>
      </trkpt>
      <trkpt lat="45.20247" lon="5.53148">
        <ele>1470.124772752</ele>
        <time>2015-12-14T10:52:14Z</time>
      </trkpt>
      <trkpt lat="45.20247" lon="5.53148">
        <ele>1470.124772752</ele>
        <time>2015-12-14T10:52:19Z</time>
      </trkpt>
      <trkpt lat="45.20247" lon="5.53148">
        <ele>1470.124772752</ele>
        <time>2015-12-14T10:52:29Z</time>
      </trkpt>
      <trkpt lat="45.20247" lon="5.53148">
        <ele>1470.124772752</ele>
        <time>2015-12-14T10:52:34Z</time>
      </trkpt>
      <trkpt lat="45.2025" lon="5.5315">
        <ele>1470.124772752</ele>
        <time>2015-12-14T10:52:45Z</time>
      </trkpt>
      <trkpt lat="45.20252" lon="5.53153">
        <ele>1471.595559141</ele>
        <time>2015-12-14T10:52:50Z</time>
      </trkpt>
      <trkpt lat="45.20259" lon="5.53159">
        <ele>1471.595559141</ele>
        <time>2015-12-14T10:52:59Z</time>
      </trkpt>
      <trkpt lat="45.20262" lon="5.5316">
        <ele>1472.610826154</ele>
        <time>2015-12-14T10:53:05Z</time>
      </trkpt>
      <trkpt lat="45.20264" lon="5.53162">
        <ele>1472.610826154</ele>
        <time>2015-12-14T10:53:15Z</time>
      </trkpt>
      <trkpt lat="45.20265" lon="5.53162">
        <ele>1472.610826154</ele>
        <time>2015-12-14T10:53:20Z</time>
      </trkpt>
      <trkpt lat="45.20279" lon="5.53163">
        <ele>1474.067486599</ele>
        <time>2015-12-14T10:53:30Z</time>
      </trkpt>
      <trkpt lat="45.2028" lon="5.53168">
        <ele>1474.067486599</ele>
        <time>2015-12-14T10:53:35Z</time>
      </trkpt>
      <trkpt lat="45.20286" lon="5.53175">
        <ele>1475.64249942</ele>
        <time>2015-12-14T10:53:45Z</time>
      </trkpt>
      <trkpt lat="45.20289" lon="5.53178">
        <ele>1475.64249942</ele>
        <time>2015-12-14T10:53:49Z</time>
      </trkpt>
      <trkpt lat="45.20295" lon="5.53181">
        <ele>1477.612729842</ele>
        <time>2015-12-14T10:53:59Z</time>
      </trkpt>
      <trkpt lat="45.20297" lon="5.5318">
        <ele>1477.612729842</ele>
        <time>2015-12-14T10:54:04Z</time>
      </trkpt>
      <trkpt lat="45.20304" lon="5.53182">
        <ele>1479.224883927</ele>
        <time>2015-12-14T10:54:15Z</time>
      </trkpt>
      <trkpt lat="45.20306" lon="5.53182">
        <ele>1479.224883927</ele>
        <time>2015-12-14T10:54:20Z</time>
      </trkpt>
      <trkpt lat="45.20306" lon="5.53183">
        <ele>1479.224883927</ele>
        <time>2015-12-14T10:54:29Z</time>
      </trkpt>
      <trkpt lat="45.20306" lon="5.53183">
        <ele>1479.224883927</ele>
        <time>2015-12-14T10:54:34Z</time>
      </trkpt>
      <trkpt lat="45.20306" lon="5.53183">
        <ele>1479.224883927</ele>
        <time>2015-12-14T10:54:39Z</time>
      </trkpt>
      <trkpt lat="45.20306" lon="5.53183">
        <ele>1479.224883927</ele>
        <time>2015-12-14T10:54:44Z</time>
      </trkpt>
      <trkpt lat="45.20306" lon="5.53183">
        <ele>1479.224883927</ele>
        <time>2015-12-14T10:54:49Z</time>
      </trkpt>
      <trkpt lat="45.20306" lon="5.53183">
        <ele>1479.224883927</ele>
        <time>2015-12-14T10:54:54Z</time>
      </trkpt>
      <trkpt lat="45.20306" lon="5.53182">
        <ele>1479.224883927</ele>
        <time>2015-12-14T10:55:04Z</time>
      </trkpt>
      <trkpt lat="45.20312" lon="5.53185">
        <ele>1480.214410838</ele>
        <time>2015-12-14T10:55:09Z</time>
      </trkpt>
      <trkpt lat="45.20319" lon="5.53187">
        <ele>1480.214410838</ele>
        <time>2015-12-14T10:55:19Z</time>
      </trkpt>
      <trkpt lat="45.20321" lon="5.53188">
        <ele>1480.214410838</ele>
        <time>2015-12-14T10:55:24Z</time>
      </trkpt>
      <trkpt lat="45.20324" lon="5.53192">
        <ele>1481.779122858</ele>
        <time>2015-12-14T10:55:34Z</time>
      </trkpt>
      <trkpt lat="45.20325" lon="5.53193">
        <ele>1481.779122858</ele>
        <time>2015-12-14T10:55:39Z</time>
      </trkpt>
      <trkpt lat="45.20325" lon="5.53193">
        <ele>1481.779122858</ele>
        <time>2015-12-14T10:55:49Z</time>
      </trkpt>
      <trkpt lat="45.20327" lon="5.53195">
        <ele>1481.779122858</ele>
        <time>2015-12-14T10:55:54Z</time>
      </trkpt>
      <trkpt lat="45.2034" lon="5.53204">
        <ele>1474.218947207</ele>
        <time>2015-12-14T10:56:05Z</time>
      </trkpt>
      <trkpt lat="45.20343" lon="5.53203">
        <ele>1474.218947207</ele>
        <time>2015-12-14T10:56:09Z</time>
      </trkpt>
      <trkpt lat="45.2035" lon="5.53206">
        <ele>1475.809027382</ele>
        <time>2015-12-14T10:56:19Z</time>
      </trkpt>
      <trkpt lat="45.20352" lon="5.53209">
        <ele>1475.809027382</ele>
        <time>2015-12-14T10:56:25Z</time>
      </trkpt>
      <trkpt lat="45.20352" lon="5.53211">
        <ele>1475.809027382</ele>
        <time>2015-12-14T10:56:35Z</time>
      </trkpt>
      <trkpt lat="45.20355" lon="5.53212">
        <ele>1475.809027382</ele>
        <time>2015-12-14T10:56:40Z</time>
      </trkpt>
      <trkpt lat="45.20366" lon="5.53213">
        <ele>1477.9487111</ele>
        <time>2015-12-14T10:56:51Z</time>
      </trkpt>
      <trkpt lat="45.20368" lon="5.53214">
        <ele>1477.9487111</ele>
        <time>2015-12-14T10:56:55Z</time>
      </trkpt>
      <trkpt lat="45.20379" lon="5.53222">
        <ele>1480.449626122</ele>
        <time>2015-12-14T10:57:10Z</time>
      </trkpt>
      <trkpt lat="45.20381" lon="5.53223">
        <ele>1480.449626122</ele>
        <time>2015-12-14T10:57:15Z</time>
      </trkpt>
      <trkpt lat="45.20383" lon="5.53224">
        <ele>1480.449626122</ele>
        <time>2015-12-14T10:57:24Z</time>
      </trkpt>
      <trkpt lat="45.20382" lon="5.53223">
        <ele>1480.449626122</ele>
        <time>2015-12-14T10:57:30Z</time>
      </trkpt>
      <trkpt lat="45.20382" lon="5.53223">
        <ele>1480.449626122</ele>
        <time>2015-12-14T10:57:40Z</time>
      </trkpt>
      <trkpt lat="45.20384" lon="5.53225">
        <ele>1480.449626122</ele>
        <time>2015-12-14T10:57:44Z</time>
      </trkpt>
      <trkpt lat="45.20395" lon="5.53231">
        <ele>1483.568576203</ele>
        <time>2015-12-14T10:57:54Z</time>
      </trkpt>
      <trkpt lat="45.20399" lon="5.53231">
        <ele>1483.568576203</ele>
        <time>2015-12-14T10:58:00Z</time>
      </trkpt>
      <trkpt lat="45.20404" lon="5.53231">
        <ele>1483.568576203</ele>
        <time>2015-12-14T10:58:10Z</time>
      </trkpt>
      <trkpt lat="45.20405" lon="5.53232">
        <ele>1486.388908308</ele>
        <time>2015-12-14T10:58:14Z</time>
      </trkpt>
      <trkpt lat="45.20415" lon="5.53237">
        <ele>1488.638632629</ele>
        <time>2015-12-14T10:58:25Z</time>
      </trkpt>
      <trkpt lat="45.20418" lon="5.53239">
        <ele>1488.638632629</ele>
        <time>2015-12-14T10:58:29Z</time>
      </trkpt>
      <trkpt lat="45.2042" lon="5.53242">
        <ele>1488.638632629</ele>
        <time>2015-12-14T10:58:40Z</time>
      </trkpt>
      <trkpt lat="45.20424" lon="5.53244">
        <ele>1490.787952315</ele>
        <time>2015-12-14T10:58:44Z</time>
      </trkpt>
      <trkpt lat="45.20432" lon="5.53247">
        <ele>1490.787952315</ele>
        <time>2015-12-14T10:58:55Z</time>
      </trkpt>
      <trkpt lat="45.20434" lon="5.53245">
        <ele>1493.416989489</ele>
        <time>2015-12-14T10:58:59Z</time>
      </trkpt>
      <trkpt lat="45.20444" lon="5.53251">
        <ele>1496.053202609</ele>
        <time>2015-12-14T10:59:09Z</time>
      </trkpt>
      <trkpt lat="45.20447" lon="5.53252">
        <ele>1496.053202609</ele>
        <time>2015-12-14T10:59:15Z</time>
      </trkpt>
      <trkpt lat="45.20455" lon="5.53256">
        <ele>1498.114713952</ele>
        <time>2015-12-14T10:59:25Z</time>
      </trkpt>
      <trkpt lat="45.20458" lon="5.53256">
        <ele>1498.114713952</ele>
        <time>2015-12-14T10:59:30Z</time>
      </trkpt>
      <trkpt lat="45.20459" lon="5.53256">
        <ele>1498.114713952</ele>
        <time>2015-12-14T10:59:40Z</time>
      </trkpt>
      <trkpt lat="45.20462" lon="5.53257">
        <ele>1498.114713952</ele>
        <time>2015-12-14T10:59:44Z</time>
      </trkpt>
      <trkpt lat="45.2047" lon="5.53258">
        <ele>1499.928757573</ele>
        <time>2015-12-14T10:59:59Z</time>
      </trkpt>
      <trkpt lat="45.20475" lon="5.5326">
        <ele>1499.928757573</ele>
        <time>2015-12-14T11:00:04Z</time>
      </trkpt>
      <trkpt lat="45.20483" lon="5.53263">
        <ele>1501.943427141</ele>
        <time>2015-12-14T11:00:15Z</time>
      </trkpt>
      <trkpt lat="45.20486" lon="5.53268">
        <ele>1501.943427141</ele>
        <time>2015-12-14T11:00:20Z</time>
      </trkpt>
      <trkpt lat="45.20491" lon="5.53269">
        <ele>1503.276430267</ele>
        <time>2015-12-14T11:00:29Z</time>
      </trkpt>
      <trkpt lat="45.20496" lon="5.53272">
        <ele>1503.276430267</ele>
        <time>2015-12-14T11:00:34Z</time>
      </trkpt>
      <trkpt lat="45.20508" lon="5.53279">
        <ele>1504.409292755</ele>
        <time>2015-12-14T11:00:50Z</time>
      </trkpt>
      <trkpt lat="45.20508" lon="5.53281">
        <ele>1504.409292755</ele>
        <time>2015-12-14T11:01:04Z</time>
      </trkpt>
      <trkpt lat="45.20508" lon="5.53281">
        <ele>1504.409292755</ele>
        <time>2015-12-14T11:01:09Z</time>
      </trkpt>
      <trkpt lat="45.20508" lon="5.53281">
        <ele>1504.409292755</ele>
        <time>2015-12-14T11:01:14Z</time>
      </trkpt>
      <trkpt lat="45.20508" lon="5.53281">
        <ele>1504.409292755</ele>
        <time>2015-12-14T11:01:19Z</time>
      </trkpt>
      <trkpt lat="45.20508" lon="5.53281">
        <ele>1504.409292755</ele>
        <time>2015-12-14T11:01:24Z</time>
      </trkpt>
      <trkpt lat="45.20508" lon="5.53281">
        <ele>1504.409292755</ele>
        <time>2015-12-14T11:01:29Z</time>
      </trkpt>
      <trkpt lat="45.20508" lon="5.53281">
        <ele>1504.409292755</ele>
        <time>2015-12-14T11:01:34Z</time>
      </trkpt>
      <trkpt lat="45.20509" lon="5.53281">
        <ele>1504.409292755</ele>
        <time>2015-12-14T11:01:39Z</time>
      </trkpt>
      <trkpt lat="45.20509" lon="5.53281">
        <ele>1504.409292755</ele>
        <time>2015-12-14T11:01:44Z</time>
      </trkpt>
      <trkpt lat="45.20509" lon="5.53281">
        <ele>1504.409292755</ele>
        <time>2015-12-14T11:01:49Z</time>
      </trkpt>
      <trkpt lat="45.20509" lon="5.53281">
        <ele>1504.409292755</ele>
        <time>2015-12-14T11:01:59Z</time>
      </trkpt>
      <trkpt lat="45.20509" lon="5.53281">
        <ele>1504.409292755</ele>
        <time>2015-12-14T11:02:04Z</time>
      </trkpt>
      <trkpt lat="45.20509" lon="5.53281">
        <ele>1504.409292755</ele>
        <time>2015-12-14T11:02:14Z</time>
      </trkpt>
      <trkpt lat="45.20509" lon="5.53281">
        <ele>1504.409292755</ele>
        <time>2015-12-14T11:02:19Z</time>
      </trkpt>
      <trkpt lat="45.20509" lon="5.53281">
        <ele>1504.409292755</ele>
        <time>2015-12-14T11:02:34Z</time>
      </trkpt>
      <trkpt lat="45.2052" lon="5.53276">
        <ele>1505.50059659</ele>
        <time>2015-12-14T11:02:51Z</time>
      </trkpt>
      <trkpt lat="45.20517" lon="5.53276">
        <ele>1505.50059659</ele>
        <time>2015-12-14T11:03:05Z</time>
      </trkpt>
      <trkpt lat="45.20532" lon="5.53292">
        <ele>1505.832807678</ele>
        <time>2015-12-14T11:03:20Z</time>
      </trkpt>
      <trkpt lat="45.20533" lon="5.53293">
        <ele>1505.832807678</ele>
        <time>2015-12-14T11:03:25Z</time>
      </trkpt>
      <trkpt lat="45.20536" lon="5.53295">
        <ele>1505.832807678</ele>
        <time>2015-12-14T11:03:34Z</time>
      </trkpt>
      <trkpt lat="45.20539" lon="5.53301">
        <ele>1506.184418197</ele>
        <time>2015-12-14T11:03:39Z</time>
      </trkpt>
      <trkpt lat="45.20548" lon="5.53308">
        <ele>1506.556188347</ele>
        <time>2015-12-14T11:03:49Z</time>
      </trkpt>
      <trkpt lat="45.2055" lon="5.5331">
        <ele>1506.556188347</ele>
        <time>2015-12-14T11:03:54Z</time>
      </trkpt>
      <trkpt lat="45.20553" lon="5.53312">
        <ele>1506.556188347</ele>
        <time>2015-12-14T11:04:04Z</time>
      </trkpt>
      <trkpt lat="45.20556" lon="5.53313">
        <ele>1506.556188347</ele>
        <time>2015-12-14T11:04:09Z</time>
      </trkpt>
      <trkpt lat="45.20565" lon="5.53317">
        <ele>1506.948821218</ele>
        <time>2015-12-14T11:04:20Z</time>
      </trkpt>
      <trkpt lat="45.20568" lon="5.5332">
        <ele>1506.948821218</ele>
        <time>2015-12-14T11:04:24Z</time>
      </trkpt>
      <trkpt lat="45.20572" lon="5.53323">
        <ele>1506.948821218</ele>
        <time>2015-12-14T11:04:39Z</time>
      </trkpt>
      <trkpt lat="45.20573" lon="5.53324">
        <ele>1506.93061994</ele>
        <time>2015-12-14T11:04:45Z</time>
      </trkpt>
      <trkpt lat="45.20583" lon="5.53333">
        <ele>1506.391006238</ele>
        <time>2015-12-14T11:04:55Z</time>
      </trkpt>
      <trkpt lat="45.20588" lon="5.53338">
        <ele>1506.391006238</ele>
        <time>2015-12-14T11:05:00Z</time>
      </trkpt>
      <trkpt lat="45.20599" lon="5.53346">
        <ele>1506.093673721</ele>
        <time>2015-12-14T11:05:15Z</time>
      </trkpt>
      <trkpt lat="45.20602" lon="5.53346">
        <ele>1506.093673721</ele>
        <time>2015-12-14T11:05:19Z</time>
      </trkpt>
      <trkpt lat="45.20608" lon="5.53354">
        <ele>1505.736763698</ele>
        <time>2015-12-14T11:05:30Z</time>
      </trkpt>
      <trkpt lat="45.2061" lon="5.53358">
        <ele>1505.736763698</ele>
        <time>2015-12-14T11:05:35Z</time>
      </trkpt>
      <trkpt lat="45.20616" lon="5.53359">
        <ele>1505.761308141</ele>
        <time>2015-12-14T11:05:45Z</time>
      </trkpt>
      <trkpt lat="45.20617" lon="5.5336">
        <ele>1505.761308141</ele>
        <time>2015-12-14T11:05:50Z</time>
      </trkpt>
      <trkpt lat="45.20624" lon="5.53365">
        <ele>1505.566074248</ele>
        <time>2015-12-14T11:05:59Z</time>
      </trkpt>
      <trkpt lat="45.20626" lon="5.5337">
        <ele>1505.566074248</ele>
        <time>2015-12-14T11:06:04Z</time>
      </trkpt>
      <trkpt lat="45.20632" lon="5.53379">
        <ele>1506.035695977</ele>
        <time>2015-12-14T11:06:15Z</time>
      </trkpt>
      <trkpt lat="45.20636" lon="5.53377">
        <ele>1506.035695977</ele>
        <time>2015-12-14T11:06:19Z</time>
      </trkpt>
      <trkpt lat="45.20647" lon="5.53383">
        <ele>1505.826253953</ele>
        <time>2015-12-14T11:06:30Z</time>
      </trkpt>
      <trkpt lat="45.20651" lon="5.53383">
        <ele>1505.826253953</ele>
        <time>2015-12-14T11:06:35Z</time>
      </trkpt>
      <trkpt lat="45.20654" lon="5.53383">
        <ele>1505.826253953</ele>
        <time>2015-12-14T11:06:45Z</time>
      </trkpt>
      <trkpt lat="45.20654" lon="5.53383">
        <ele>1505.826253953</ele>
        <time>2015-12-14T11:06:49Z</time>
      </trkpt>
      <trkpt lat="45.20654" lon="5.53383">
        <ele>1505.826253953</ele>
        <time>2015-12-14T11:06:59Z</time>
      </trkpt>
      <trkpt lat="45.20654" lon="5.53384">
        <ele>1505.826253953</ele>
        <time>2015-12-14T11:07:04Z</time>
      </trkpt>
      <trkpt lat="45.20654" lon="5.53383">
        <ele>1505.826253953</ele>
        <time>2015-12-14T11:07:09Z</time>
      </trkpt>
      <trkpt lat="45.20655" lon="5.53383">
        <ele>1506.144304935</ele>
        <time>2015-12-14T11:07:14Z</time>
      </trkpt>
      <trkpt lat="45.20657" lon="5.53383">
        <ele>1506.144304935</ele>
        <time>2015-12-14T11:07:19Z</time>
      </trkpt>
      <trkpt lat="45.20658" lon="5.53382">
        <ele>1506.144304935</ele>
        <time>2015-12-14T11:07:30Z</time>
      </trkpt>
      <trkpt lat="45.20663" lon="5.53383">
        <ele>1506.144304935</ele>
        <time>2015-12-14T11:07:34Z</time>
      </trkpt>
      <trkpt lat="45.20672" lon="5.53386">
        <ele>1506.376911378</ele>
        <time>2015-12-14T11:07:44Z</time>
      </trkpt>
      <trkpt lat="45.20674" lon="5.53388">
        <ele>1506.376911378</ele>
        <time>2015-12-14T11:07:50Z</time>
      </trkpt>
      <trkpt lat="45.20682" lon="5.53396">
        <ele>1506.676905525</ele>
        <time>2015-12-14T11:08:00Z</time>
      </trkpt>
      <trkpt lat="45.20686" lon="5.53395">
        <ele>1506.676905525</ele>
        <time>2015-12-14T11:08:05Z</time>
      </trkpt>
      <trkpt lat="45.20695" lon="5.53397">
        <ele>1507.473871361</ele>
        <time>2015-12-14T11:08:15Z</time>
      </trkpt>
      <trkpt lat="45.20697" lon="5.53399">
        <ele>1507.473871361</ele>
        <time>2015-12-14T11:08:19Z</time>
      </trkpt>
      <trkpt lat="45.20704" lon="5.53403">
        <ele>1508.443830541</ele>
        <time>2015-12-14T11:08:35Z</time>
      </trkpt>
      <trkpt lat="45.20705" lon="5.53403">
        <ele>1508.443830541</ele>
        <time>2015-12-14T11:08:39Z</time>
      </trkpt>
      <trkpt lat="45.2071" lon="5.53405">
        <ele>1508.443830541</ele>
        <time>2015-12-14T11:08:50Z</time>
      </trkpt>
      <trkpt lat="45.20712" lon="5.53407">
        <ele>1508.443830541</ele>
        <time>2015-12-14T11:08:55Z</time>
      </trkpt>
      <trkpt lat="45.20726" lon="5.53414">
        <ele>1508.997840994</ele>
        <time>2015-12-14T11:09:04Z</time>
      </trkpt>
      <trkpt lat="45.20729" lon="5.53412">
        <ele>1508.997840994</ele>
        <time>2015-12-14T11:09:10Z</time>
      </trkpt>
      <trkpt lat="45.20739" lon="5.5341">
        <ele>1509.023669115</ele>
        <time>2015-12-14T11:09:19Z</time>
      </trkpt>
      <trkpt lat="45.20742" lon="5.53413">
        <ele>1509.023669115</ele>
        <time>2015-12-14T11:09:24Z</time>
      </trkpt>
      <trkpt lat="45.20749" lon="5.53416">
        <ele>1509.283419542</ele>
        <time>2015-12-14T11:09:36Z</time>
      </trkpt>
      <trkpt lat="45.20749" lon="5.53415">
        <ele>1509.283419542</ele>
        <time>2015-12-14T11:09:39Z</time>
      </trkpt>
      <trkpt lat="45.20757" lon="5.53414">
        <ele>1510.194279591</ele>
        <time>2015-12-14T11:09:50Z</time>
      </trkpt>
      <trkpt lat="45.20763" lon="5.53416">
        <ele>1510.194279591</ele>
        <time>2015-12-14T11:09:55Z</time>
      </trkpt>
      <trkpt lat="45.20772" lon="5.53423">
        <ele>1510.699796277</ele>
        <time>2015-12-14T11:10:10Z</time>
      </trkpt>
      <trkpt lat="45.20776" lon="5.53425">
        <ele>1510.699796277</ele>
        <time>2015-12-14T11:10:15Z</time>
      </trkpt>
      <trkpt lat="45.20786" lon="5.53431">
        <ele>1510.542759103</ele>
        <time>2015-12-14T11:10:25Z</time>
      </trkpt>
      <trkpt lat="45.20786" lon="5.5343">
        <ele>1510.542759103</ele>
        <time>2015-12-14T11:10:29Z</time>
      </trkpt>
      <trkpt lat="45.20791" lon="5.53432">
        <ele>1510.542759103</ele>
        <time>2015-12-14T11:10:41Z</time>
      </trkpt>
      <trkpt lat="45.20794" lon="5.53436">
        <ele>1510.639542702</ele>
        <time>2015-12-14T11:10:44Z</time>
      </trkpt>
      <trkpt lat="45.20807" lon="5.53445">
        <ele>1511.117879499</ele>
        <time>2015-12-14T11:10:59Z</time>
      </trkpt>
      <trkpt lat="45.20807" lon="5.53446">
        <ele>1511.117879499</ele>
        <time>2015-12-14T11:11:04Z</time>
      </trkpt>
      <trkpt lat="45.20812" lon="5.53448">
        <ele>1511.117879499</ele>
        <time>2015-12-14T11:11:15Z</time>
      </trkpt>
      <trkpt lat="45.20813" lon="5.5345">
        <ele>1511.117879499</ele>
        <time>2015-12-14T11:11:19Z</time>
      </trkpt>
      <trkpt lat="45.20815" lon="5.53454">
        <ele>1511.950878644</ele>
        <time>2015-12-14T11:11:24Z</time>
      </trkpt>
      <trkpt lat="45.20817" lon="5.53455">
        <ele>1511.950878644</ele>
        <time>2015-12-14T11:11:29Z</time>
      </trkpt>
      <trkpt lat="45.20823" lon="5.53459">
        <ele>1511.950878644</ele>
        <time>2015-12-14T11:11:34Z</time>
      </trkpt>
      <trkpt lat="45.20827" lon="5.53461">
        <ele>1512.68023797</ele>
        <time>2015-12-14T11:11:39Z</time>
      </trkpt>
      <trkpt lat="45.20834" lon="5.53469">
        <ele>1512.593332788</ele>
        <time>2015-12-14T11:11:49Z</time>
      </trkpt>
      <trkpt lat="45.20837" lon="5.5347">
        <ele>1512.593332788</ele>
        <time>2015-12-14T11:11:54Z</time>
      </trkpt>
      <trkpt lat="45.20845" lon="5.53471">
        <ele>1512.617343534</ele>
        <time>2015-12-14T11:12:09Z</time>
      </trkpt>
      <trkpt lat="45.20846" lon="5.53471">
        <ele>1512.617343534</ele>
        <time>2015-12-14T11:12:14Z</time>
      </trkpt>
      <trkpt lat="45.2085" lon="5.53471">
        <ele>1512.617343534</ele>
        <time>2015-12-14T11:12:21Z</time>
      </trkpt>
      <trkpt lat="45.20854" lon="5.53471">
        <ele>1512.617343534</ele>
        <time>2015-12-14T11:12:24Z</time>
      </trkpt>
      <trkpt lat="45.20863" lon="5.5348">
        <ele>1513.178640043</ele>
        <time>2015-12-14T11:12:39Z</time>
      </trkpt>
      <trkpt lat="45.2087" lon="5.5348">
        <ele>1513.178640043</ele>
        <time>2015-12-14T11:12:44Z</time>
      </trkpt>
      <trkpt lat="45.20878" lon="5.53484">
        <ele>1513.517818531</ele>
        <time>2015-12-14T11:12:55Z</time>
      </trkpt>
      <trkpt lat="45.20879" lon="5.53485">
        <ele>1513.517818531</ele>
        <time>2015-12-14T11:12:59Z</time>
      </trkpt>
      <trkpt lat="45.20888" lon="5.53489">
        <ele>1513.220048504</ele>
        <time>2015-12-14T11:13:10Z</time>
      </trkpt>
      <trkpt lat="45.20889" lon="5.5349">
        <ele>1513.220048504</ele>
        <time>2015-12-14T11:13:15Z</time>
      </trkpt>
      <trkpt lat="45.209" lon="5.53491">
        <ele>1512.623256157</ele>
        <time>2015-12-14T11:13:25Z</time>
      </trkpt>
      <trkpt lat="45.20902" lon="5.53492">
        <ele>1512.623256157</ele>
        <time>2015-12-14T11:13:30Z</time>
      </trkpt>
      <trkpt lat="45.20902" lon="5.53493">
        <ele>1512.623256157</ele>
        <time>2015-12-14T11:13:39Z</time>
      </trkpt>
      <trkpt lat="45.20903" lon="5.53495">
        <ele>1512.623256157</ele>
        <time>2015-12-14T11:13:44Z</time>
      </trkpt>
      <trkpt lat="45.20903" lon="5.53496">
        <ele>1512.623256157</ele>
        <time>2015-12-14T11:13:49Z</time>
      </trkpt>
      <trkpt lat="45.20903" lon="5.53496">
        <ele>1512.623256157</ele>
        <time>2015-12-14T11:13:54Z</time>
      </trkpt>
      <trkpt lat="45.20903" lon="5.53496">
        <ele>1512.623256157</ele>
        <time>2015-12-14T11:13:59Z</time>
      </trkpt>
      <trkpt lat="45.20903" lon="5.53496">
        <ele>1512.623256157</ele>
        <time>2015-12-14T11:14:04Z</time>
      </trkpt>
      <trkpt lat="45.20903" lon="5.53496">
        <ele>1512.623256157</ele>
        <time>2015-12-14T11:14:09Z</time>
      </trkpt>
      <trkpt lat="45.20903" lon="5.53496">
        <ele>1512.623256157</ele>
        <time>2015-12-14T11:14:19Z</time>
      </trkpt>
      <trkpt lat="45.20903" lon="5.53496">
        <ele>1512.623256157</ele>
        <time>2015-12-14T11:14:24Z</time>
      </trkpt>
      <trkpt lat="45.20903" lon="5.53496">
        <ele>1512.623256157</ele>
        <time>2015-12-14T11:14:34Z</time>
      </trkpt>
      <trkpt lat="45.20903" lon="5.53496">
        <ele>1512.623256157</ele>
        <time>2015-12-14T11:14:39Z</time>
      </trkpt>
      <trkpt lat="45.20907" lon="5.53503">
        <ele>1512.473654982</ele>
        <time>2015-12-14T11:14:49Z</time>
      </trkpt>
      <trkpt lat="45.20913" lon="5.53508">
        <ele>1512.473654982</ele>
        <time>2015-12-14T11:14:54Z</time>
      </trkpt>
      <trkpt lat="45.20922" lon="5.53516">
        <ele>1511.731988085</ele>
        <time>2015-12-14T11:15:05Z</time>
      </trkpt>
      <trkpt lat="45.20925" lon="5.53521">
        <ele>1511.731988085</ele>
        <time>2015-12-14T11:15:11Z</time>
      </trkpt>
      <trkpt lat="45.20932" lon="5.53532">
        <ele>1510.589820746</ele>
        <time>2015-12-14T11:15:20Z</time>
      </trkpt>
      <trkpt lat="45.20933" lon="5.53536">
        <ele>1510.589820746</ele>
        <time>2015-12-14T11:15:25Z</time>
      </trkpt>
      <trkpt lat="45.20934" lon="5.53542">
        <ele>1510.589820746</ele>
        <time>2015-12-14T11:15:34Z</time>
      </trkpt>
      <trkpt lat="45.20938" lon="5.53547">
        <ele>1509.369802842</ele>
        <time>2015-12-14T11:15:40Z</time>
      </trkpt>
      <trkpt lat="45.20942" lon="5.53559">
        <ele>1509.369802842</ele>
        <time>2015-12-14T11:15:49Z</time>
      </trkpt>
      <trkpt lat="45.20945" lon="5.53564">
        <ele>1508.371016223</ele>
        <time>2015-12-14T11:15:55Z</time>
      </trkpt>
      <trkpt lat="45.20944" lon="5.53567">
        <ele>1508.371016223</ele>
        <time>2015-12-14T11:16:05Z</time>
      </trkpt>
      <trkpt lat="45.20945" lon="5.5357">
        <ele>1508.371016223</ele>
        <time>2015-12-14T11:16:09Z</time>
      </trkpt>
      <trkpt lat="45.20947" lon="5.53577">
        <ele>1505.564077583</ele>
        <time>2015-12-14T11:16:20Z</time>
      </trkpt>
      <trkpt lat="45.20947" lon="5.53583">
        <ele>1505.564077583</ele>
        <time>2015-12-14T11:16:24Z</time>
      </trkpt>
      <trkpt lat="45.2095" lon="5.53603">
        <ele>1502.820535945</ele>
        <time>2015-12-14T11:16:40Z</time>
      </trkpt>
      <trkpt lat="45.20951" lon="5.53606">
        <ele>1502.820535945</ele>
        <time>2015-12-14T11:16:44Z</time>
      </trkpt>
      <trkpt lat="45.20952" lon="5.53611">
        <ele>1502.820535945</ele>
        <time>2015-12-14T11:16:49Z</time>
      </trkpt>
      <trkpt lat="45.20952" lon="5.53615">
        <ele>1502.820535945</ele>
        <time>2015-12-14T11:16:54Z</time>
      </trkpt>
      <trkpt lat="45.20952" lon="5.53619">
        <ele>1499.856600933</ele>
        <time>2015-12-14T11:16:59Z</time>
      </trkpt>
      <trkpt lat="45.20951" lon="5.5362">
        <ele>1499.856600933</ele>
        <time>2015-12-14T11:17:04Z</time>
      </trkpt>
      <trkpt lat="45.20952" lon="5.53621">
        <ele>1499.856600933</ele>
        <time>2015-12-14T11:17:09Z</time>
      </trkpt>
      <trkpt lat="45.20953" lon="5.53622">
        <ele>1499.856600933</ele>
        <time>2015-12-14T11:17:19Z</time>
      </trkpt>
      <trkpt lat="45.20953" lon="5.53622">
        <ele>1499.856600933</ele>
        <time>2015-12-14T11:17:24Z</time>
      </trkpt>
      <trkpt lat="45.20953" lon="5.53622">
        <ele>1499.856600933</ele>
        <time>2015-12-14T11:17:30Z</time>
      </trkpt>
      <trkpt lat="45.2096" lon="5.53625">
        <ele>1496.698030566</ele>
        <time>2015-12-14T11:17:40Z</time>
      </trkpt>
      <trkpt lat="45.20959" lon="5.53626">
        <ele>1496.698030566</ele>
        <time>2015-12-14T11:17:44Z</time>
      </trkpt>
      <trkpt lat="45.20962" lon="5.5364">
        <ele>1493.801413097</ele>
        <time>2015-12-14T11:17:54Z</time>
      </trkpt>
      <trkpt lat="45.20967" lon="5.53643">
        <ele>1493.801413097</ele>
        <time>2015-12-14T11:18:01Z</time>
      </trkpt>
      <trkpt lat="45.20968" lon="5.53643">
        <ele>1493.801413097</ele>
        <time>2015-12-14T11:18:15Z</time>
      </trkpt>
      <trkpt lat="45.20968" lon="5.53643">
        <ele>1493.801413097</ele>
        <time>2015-12-14T11:18:20Z</time>
      </trkpt>
      <trkpt lat="45.20968" lon="5.53643">
        <ele>1493.801413097</ele>
        <time>2015-12-14T11:18:29Z</time>
      </trkpt>
      <trkpt lat="45.2097" lon="5.53644">
        <ele>1493.801413097</ele>
        <time>2015-12-14T11:18:34Z</time>
      </trkpt>
      <trkpt lat="45.20988" lon="5.5365">
        <ele>1491.300666073</ele>
        <time>2015-12-14T11:18:44Z</time>
      </trkpt>
      <trkpt lat="45.2099" lon="5.53651">
        <ele>1491.300666073</ele>
        <time>2015-12-14T11:18:49Z</time>
      </trkpt>
      <trkpt lat="45.20989" lon="5.53655">
        <ele>1491.300666073</ele>
        <time>2015-12-14T11:19:00Z</time>
      </trkpt>
      <trkpt lat="45.2099" lon="5.53655">
        <ele>1491.300666073</ele>
        <time>2015-12-14T11:19:05Z</time>
      </trkpt>
      <trkpt lat="45.20989" lon="5.53656">
        <ele>1491.300666073</ele>
        <time>2015-12-14T11:19:09Z</time>
      </trkpt>
      <trkpt lat="45.20989" lon="5.53657">
        <ele>1491.300666073</ele>
        <time>2015-12-14T11:19:19Z</time>
      </trkpt>
      <trkpt lat="45.2099" lon="5.53656">
        <ele>1490.039130579</ele>
        <time>2015-12-14T11:19:24Z</time>
      </trkpt>
      <trkpt lat="45.20993" lon="5.53654">
        <ele>1490.039130579</ele>
        <time>2015-12-14T11:19:30Z</time>
      </trkpt>
      <trkpt lat="45.20994" lon="5.53654">
        <ele>1490.039130579</ele>
        <time>2015-12-14T11:19:35Z</time>
      </trkpt>
      <trkpt lat="45.20996" lon="5.53655">
        <ele>1490.039130579</ele>
        <time>2015-12-14T11:19:40Z</time>
      </trkpt>
      <trkpt lat="45.21002" lon="5.53655">
        <ele>1488.200526465</ele>
        <time>2015-12-14T11:19:50Z</time>
      </trkpt>
      <trkpt lat="45.21002" lon="5.53655">
        <ele>1488.200526465</ele>
        <time>2015-12-14T11:19:55Z</time>
      </trkpt>
      <trkpt lat="45.21002" lon="5.53656">
        <ele>1488.200526465</ele>
        <time>2015-12-14T11:20:04Z</time>
      </trkpt>
      <trkpt lat="45.21004" lon="5.53658">
        <ele>1488.200526465</ele>
        <time>2015-12-14T11:20:09Z</time>
      </trkpt>
      <trkpt lat="45.21005" lon="5.53658">
        <ele>1488.200526465</ele>
        <time>2015-12-14T11:20:14Z</time>
      </trkpt>
      <trkpt lat="45.21006" lon="5.53658">
        <ele>1488.200526465</ele>
        <time>2015-12-14T11:20:19Z</time>
      </trkpt>
      <trkpt lat="45.21008" lon="5.53657">
        <ele>1488.200526465</ele>
        <time>2015-12-14T11:20:34Z</time>
      </trkpt>
      <trkpt lat="45.21008" lon="5.53657">
        <ele>1488.200526465</ele>
        <time>2015-12-14T11:20:39Z</time>
      </trkpt>
      <trkpt lat="45.21008" lon="5.53657">
        <ele>1488.200526465</ele>
        <time>2015-12-14T11:20:49Z</time>
      </trkpt>
      <trkpt lat="45.21021" lon="5.53655">
        <ele>1486.265085936</ele>
        <time>2015-12-14T11:21:04Z</time>
      </trkpt>
      <trkpt lat="45.21027" lon="5.53659">
        <ele>1486.265085936</ele>
        <time>2015-12-14T11:21:09Z</time>
      </trkpt>
      <trkpt lat="45.21032" lon="5.53658">
        <ele>1484.245503065</ele>
        <time>2015-12-14T11:21:15Z</time>
      </trkpt>
      <trkpt lat="45.21035" lon="5.53658">
        <ele>1484.245503065</ele>
        <time>2015-12-14T11:21:20Z</time>
      </trkpt>
      <trkpt lat="45.21037" lon="5.53659">
        <ele>1484.245503065</ele>
        <time>2015-12-14T11:21:25Z</time>
      </trkpt>
      <trkpt lat="45.21049" lon="5.53662">
        <ele>1482.297687165</ele>
        <time>2015-12-14T11:21:35Z</time>
      </trkpt>
      <trkpt lat="45.21051" lon="5.53662">
        <ele>1482.297687165</ele>
        <time>2015-12-14T11:21:40Z</time>
      </trkpt>
      <trkpt lat="45.21056" lon="5.53663">
        <ele>1482.297687165</ele>
        <time>2015-12-14T11:21:50Z</time>
      </trkpt>
      <trkpt lat="45.21058" lon="5.53665">
        <ele>1481.574472883</ele>
        <time>2015-12-14T11:21:54Z</time>
      </trkpt>
      <trkpt lat="45.2107" lon="5.53667">
        <ele>1481.699267249</ele>
        <time>2015-12-14T11:22:05Z</time>
      </trkpt>
      <trkpt lat="45.21076" lon="5.5367">
        <ele>1481.699267249</ele>
        <time>2015-12-14T11:22:10Z</time>
      </trkpt>
      <trkpt lat="45.21085" lon="5.53676">
        <ele>1481.023575155</ele>
        <time>2015-12-14T11:22:21Z</time>
      </trkpt>
      <trkpt lat="45.21087" lon="5.53677">
        <ele>1481.023575155</ele>
        <time>2015-12-14T11:22:25Z</time>
      </trkpt>
      <trkpt lat="45.2109" lon="5.53679">
        <ele>1481.023575155</ele>
        <time>2015-12-14T11:22:40Z</time>
      </trkpt>
      <trkpt lat="45.2109" lon="5.53679">
        <ele>1481.023575155</ele>
        <time>2015-12-14T11:22:45Z</time>
      </trkpt>
      <trkpt lat="45.21096" lon="5.53677">
        <ele>1481.624849192</ele>
        <time>2015-12-14T11:22:55Z</time>
      </trkpt>
      <trkpt lat="45.21095" lon="5.53677">
        <ele>1481.624849192</ele>
        <time>2015-12-14T11:23:00Z</time>
      </trkpt>
      <trkpt lat="45.211" lon="5.53677">
        <ele>1481.624849192</ele>
        <time>2015-12-14T11:23:09Z</time>
      </trkpt>
      <trkpt lat="45.21101" lon="5.53678">
        <ele>1481.624849192</ele>
        <time>2015-12-14T11:23:15Z</time>
      </trkpt>
      <trkpt lat="45.21103" lon="5.53678">
        <ele>1481.624849192</ele>
        <time>2015-12-14T11:23:25Z</time>
      </trkpt>
      <trkpt lat="45.21109" lon="5.53682">
        <ele>1482.830192204</ele>
        <time>2015-12-14T11:23:30Z</time>
      </trkpt>
      <trkpt lat="45.21119" lon="5.53688">
        <ele>1483.7260809</ele>
        <time>2015-12-14T11:23:39Z</time>
      </trkpt>
      <trkpt lat="45.21124" lon="5.5369">
        <ele>1483.7260809</ele>
        <time>2015-12-14T11:23:44Z</time>
      </trkpt>
      <trkpt lat="45.21128" lon="5.53691">
        <ele>1483.7260809</ele>
        <time>2015-12-14T11:23:54Z</time>
      </trkpt>
      <trkpt lat="45.21131" lon="5.5369">
        <ele>1485.052070234</ele>
        <time>2015-12-14T11:24:00Z</time>
      </trkpt>
      <trkpt lat="45.21138" lon="5.53693">
        <ele>1485.052070234</ele>
        <time>2015-12-14T11:24:09Z</time>
      </trkpt>
      <trkpt lat="45.2114" lon="5.53693">
        <ele>1486.915639974</ele>
        <time>2015-12-14T11:24:15Z</time>
      </trkpt>
      <trkpt lat="45.21142" lon="5.53693">
        <ele>1486.915639974</ele>
        <time>2015-12-14T11:24:19Z</time>
      </trkpt>
      <trkpt lat="45.21153" lon="5.53696">
        <ele>1488.550125581</ele>
        <time>2015-12-14T11:24:29Z</time>
      </trkpt>
      <trkpt lat="45.21157" lon="5.53698">
        <ele>1488.550125581</ele>
        <time>2015-12-14T11:24:34Z</time>
      </trkpt>
      <trkpt lat="45.21161" lon="5.53699">
        <ele>1488.550125581</ele>
        <time>2015-12-14T11:24:40Z</time>
      </trkpt>
      <trkpt lat="45.21166" lon="5.537">
        <ele>1489.245770986</ele>
        <time>2015-12-14T11:24:54Z</time>
      </trkpt>
      <trkpt lat="45.21166" lon="5.53701">
        <ele>1489.245770986</ele>
        <time>2015-12-14T11:25:00Z</time>
      </trkpt>
      <trkpt lat="45.21166" lon="5.53701">
        <ele>1489.245770986</ele>
        <time>2015-12-14T11:25:10Z</time>
      </trkpt>
      <trkpt lat="45.21166" lon="5.53701">
        <ele>1489.245770986</ele>
        <time>2015-12-14T11:25:14Z</time>
      </trkpt>
      <trkpt lat="45.21167" lon="5.53702">
        <ele>1489.245770986</ele>
        <time>2015-12-14T11:25:25Z</time>
      </trkpt>
      <trkpt lat="45.21167" lon="5.53701">
        <ele>1489.245770986</ele>
        <time>2015-12-14T11:25:29Z</time>
      </trkpt>
      <trkpt lat="45.21167" lon="5.53702">
        <ele>1489.245770986</ele>
        <time>2015-12-14T11:25:39Z</time>
      </trkpt>
      <trkpt lat="45.21167" lon="5.53701">
        <ele>1489.245770986</ele>
        <time>2015-12-14T11:25:44Z</time>
      </trkpt>
      <trkpt lat="45.21167" lon="5.53702">
        <ele>1489.245770986</ele>
        <time>2015-12-14T11:25:54Z</time>
      </trkpt>
      <trkpt lat="45.21167" lon="5.53702">
        <ele>1489.245770986</ele>
        <time>2015-12-14T11:25:59Z</time>
      </trkpt>
      <trkpt lat="45.21167" lon="5.53702">
        <ele>1489.245770986</ele>
        <time>2015-12-14T11:26:09Z</time>
      </trkpt>
      <trkpt lat="45.21167" lon="5.53702">
        <ele>1489.245770986</ele>
        <time>2015-12-14T11:26:14Z</time>
      </trkpt>
      <trkpt lat="45.21167" lon="5.53702">
        <ele>1489.245770986</ele>
        <time>2015-12-14T11:26:24Z</time>
      </trkpt>
      <trkpt lat="45.21166" lon="5.53702">
        <ele>1489.245770986</ele>
        <time>2015-12-14T11:26:29Z</time>
      </trkpt>
      <trkpt lat="45.21166" lon="5.537">
        <ele>1489.245770986</ele>
        <time>2015-12-14T11:26:39Z</time>
      </trkpt>
      <trkpt lat="45.21166" lon="5.53701">
        <ele>1489.245770986</ele>
        <time>2015-12-14T11:26:44Z</time>
      </trkpt>
      <trkpt lat="45.21166" lon="5.53701">
        <ele>1489.245770986</ele>
        <time>2015-12-14T11:26:54Z</time>
      </trkpt>
      <trkpt lat="45.21166" lon="5.53701">
        <ele>1489.245770986</ele>
        <time>2015-12-14T11:26:59Z</time>
      </trkpt>
      <trkpt lat="45.21165" lon="5.53701">
        <ele>1489.245770986</ele>
        <time>2015-12-14T11:27:09Z</time>
      </trkpt>
      <trkpt lat="45.21165" lon="5.53701">
        <ele>1489.245770986</ele>
        <time>2015-12-14T11:27:14Z</time>
      </trkpt>
      <trkpt lat="45.2117" lon="5.53703">
        <ele>1489.212224358</ele>
        <time>2015-12-14T11:27:29Z</time>
      </trkpt>
      <trkpt lat="45.21171" lon="5.53703">
        <ele>1489.212224358</ele>
        <time>2015-12-14T11:27:34Z</time>
      </trkpt>
      <trkpt lat="45.21171" lon="5.53703">
        <ele>1489.212224358</ele>
        <time>2015-12-14T11:27:44Z</time>
      </trkpt>
      <trkpt lat="45.21171" lon="5.53703">
        <ele>1489.212224358</ele>
        <time>2015-12-14T11:27:49Z</time>
      </trkpt>
      <trkpt lat="45.21171" lon="5.53703">
        <ele>1489.212224358</ele>
        <time>2015-12-14T11:28:00Z</time>
      </trkpt>
      <trkpt lat="45.21172" lon="5.53703">
        <ele>1489.212224358</ele>
        <time>2015-12-14T11:28:05Z</time>
      </trkpt>
      <trkpt lat="45.21185" lon="5.53704">
        <ele>1489.366314488</ele>
        <time>2015-12-14T11:28:15Z</time>
      </trkpt>
      <trkpt lat="45.21192" lon="5.53708">
        <ele>1489.366314488</ele>
        <time>2015-12-14T11:28:20Z</time>
      </trkpt>
      <trkpt lat="45.21203" lon="5.5371">
        <ele>1489.11587162</ele>
        <time>2015-12-14T11:28:30Z</time>
      </trkpt>
      <trkpt lat="45.21204" lon="5.5371">
        <ele>1489.11587162</ele>
        <time>2015-12-14T11:28:35Z</time>
      </trkpt>
      <trkpt lat="45.2121" lon="5.53707">
        <ele>1489.11587162</ele>
        <time>2015-12-14T11:28:45Z</time>
      </trkpt>
      <trkpt lat="45.21211" lon="5.53709">
        <ele>1489.11587162</ele>
        <time>2015-12-14T11:28:50Z</time>
      </trkpt>
      <trkpt lat="45.21223" lon="5.53715">
        <ele>1490.21913731</ele>
        <time>2015-12-14T11:29:05Z</time>
      </trkpt>
      <trkpt lat="45.2123" lon="5.53719">
        <ele>1490.21913731</ele>
        <time>2015-12-14T11:29:09Z</time>
      </trkpt>
      <trkpt lat="45.21234" lon="5.53718">
        <ele>1491.130955461</ele>
        <time>2015-12-14T11:29:20Z</time>
      </trkpt>
      <trkpt lat="45.21235" lon="5.53718">
        <ele>1491.130955461</ele>
        <time>2015-12-14T11:29:25Z</time>
      </trkpt>
      <trkpt lat="45.21248" lon="5.53729">
        <ele>1492.437784251</ele>
        <time>2015-12-14T11:29:35Z</time>
      </trkpt>
      <trkpt lat="45.21249" lon="5.53728">
        <ele>1492.437784251</ele>
        <time>2015-12-14T11:29:40Z</time>
      </trkpt>
      <trkpt lat="45.21263" lon="5.53726">
        <ele>1493.384917509</ele>
        <time>2015-12-14T11:29:50Z</time>
      </trkpt>
      <trkpt lat="45.21267" lon="5.53727">
        <ele>1493.384917509</ele>
        <time>2015-12-14T11:29:55Z</time>
      </trkpt>
      <trkpt lat="45.21276" lon="5.53729">
        <ele>1494.715247319</ele>
        <time>2015-12-14T11:30:05Z</time>
      </trkpt>
      <trkpt lat="45.21279" lon="5.53731">
        <ele>1494.715247319</ele>
        <time>2015-12-14T11:30:09Z</time>
      </trkpt>
      <trkpt lat="45.21286" lon="5.53729">
        <ele>1496.107288941</ele>
        <time>2015-12-14T11:30:19Z</time>
      </trkpt>
      <trkpt lat="45.21289" lon="5.53731">
        <ele>1496.107288941</ele>
        <time>2015-12-14T11:30:25Z</time>
      </trkpt>
      <trkpt lat="45.21296" lon="5.53729">
        <ele>1497.263060084</ele>
        <time>2015-12-14T11:30:35Z</time>
      </trkpt>
      <trkpt lat="45.21297" lon="5.53728">
        <ele>1497.263060084</ele>
        <time>2015-12-14T11:30:40Z</time>
      </trkpt>
      <trkpt lat="45.21304" lon="5.53727">
        <ele>1497.263060084</ele>
        <time>2015-12-14T11:30:55Z</time>
      </trkpt>
      <trkpt lat="45.21306" lon="5.53725">
        <ele>1499.924759122</ele>
        <time>2015-12-14T11:31:00Z</time>
      </trkpt>
      <trkpt lat="45.21312" lon="5.53726">
        <ele>1499.924759122</ele>
        <time>2015-12-14T11:31:10Z</time>
      </trkpt>
      <trkpt lat="45.21314" lon="5.53727">
        <ele>1499.924759122</ele>
        <time>2015-12-14T11:31:14Z</time>
      </trkpt>
      <trkpt lat="45.21314" lon="5.53727">
        <ele>1499.924759122</ele>
        <time>2015-12-14T11:31:25Z</time>
      </trkpt>
      <trkpt lat="45.21314" lon="5.53728">
        <ele>1499.924759122</ele>
        <time>2015-12-14T11:31:30Z</time>
      </trkpt>
      <trkpt lat="45.21314" lon="5.53728">
        <ele>1499.924759122</ele>
        <time>2015-12-14T11:31:40Z</time>
      </trkpt>
      <trkpt lat="45.21314" lon="5.53728">
        <ele>1499.924759122</ele>
        <time>2015-12-14T11:31:45Z</time>
      </trkpt>
      <trkpt lat="45.21314" lon="5.53728">
        <ele>1499.924759122</ele>
        <time>2015-12-14T11:31:55Z</time>
      </trkpt>
      <trkpt lat="45.21316" lon="5.53726">
        <ele>1501.090904444</ele>
        <time>2015-12-14T11:31:59Z</time>
      </trkpt>
      <trkpt lat="45.21321" lon="5.53726">
        <ele>1501.090904444</ele>
        <time>2015-12-14T11:32:10Z</time>
      </trkpt>
      <trkpt lat="45.21322" lon="5.53727">
        <ele>1501.090904444</ele>
        <time>2015-12-14T11:32:15Z</time>
      </trkpt>
      <trkpt lat="45.21322" lon="5.53727">
        <ele>1501.090904444</ele>
        <time>2015-12-14T11:32:19Z</time>
      </trkpt>
      <trkpt lat="45.21327" lon="5.53726">
        <ele>1502.308125332</ele>
        <time>2015-12-14T11:32:30Z</time>
      </trkpt>
      <trkpt lat="45.21327" lon="5.53725">
        <ele>1502.308125332</ele>
        <time>2015-12-14T11:32:35Z</time>
      </trkpt>
      <trkpt lat="45.21331" lon="5.53722">
        <ele>1502.308125332</ele>
        <time>2015-12-14T11:32:45Z</time>
      </trkpt>
      <trkpt lat="45.21334" lon="5.5372">
        <ele>1502.308125332</ele>
        <time>2015-12-14T11:32:49Z</time>
      </trkpt>
      <trkpt lat="45.2134" lon="5.53718">
        <ele>1504.72117556</ele>
        <time>2015-12-14T11:33:00Z</time>
      </trkpt>
      <trkpt lat="45.21344" lon="5.53718">
        <ele>1504.72117556</ele>
        <time>2015-12-14T11:33:05Z</time>
      </trkpt>
      <trkpt lat="45.21349" lon="5.53721">
        <ele>1506.793475137</ele>
        <time>2015-12-14T11:33:15Z</time>
      </trkpt>
      <trkpt lat="45.21354" lon="5.53724">
        <ele>1506.793475137</ele>
        <time>2015-12-14T11:33:20Z</time>
      </trkpt>
      <trkpt lat="45.21363" lon="5.53724">
        <ele>1508.255288528</ele>
        <time>2015-12-14T11:33:31Z</time>
      </trkpt>
      <trkpt lat="45.21364" lon="5.53724">
        <ele>1508.255288528</ele>
        <time>2015-12-14T11:33:35Z</time>
      </trkpt>
      <trkpt lat="45.21367" lon="5.53724">
        <ele>1508.255288528</ele>
        <time>2015-12-14T11:33:45Z</time>
      </trkpt>
      <trkpt lat="45.21372" lon="5.53724">
        <ele>1508.255288528</ele>
        <time>2015-12-14T11:33:50Z</time>
      </trkpt>
      <trkpt lat="45.21372" lon="5.53724">
        <ele>1508.255288528</ele>
        <time>2015-12-14T11:33:54Z</time>
      </trkpt>
      <trkpt lat="45.21378" lon="5.53724">
        <ele>1510.299651103</ele>
        <time>2015-12-14T11:34:04Z</time>
      </trkpt>
      <trkpt lat="45.21378" lon="5.53723">
        <ele>1510.299651103</ele>
        <time>2015-12-14T11:34:09Z</time>
      </trkpt>
      <trkpt lat="45.21389" lon="5.53721">
        <ele>1512.30113075</ele>
        <time>2015-12-14T11:34:19Z</time>
      </trkpt>
      <trkpt lat="45.21395" lon="5.5372">
        <ele>1512.30113075</ele>
        <time>2015-12-14T11:34:24Z</time>
      </trkpt>
      <trkpt lat="45.21399" lon="5.53719">
        <ele>1514.256951315</ele>
        <time>2015-12-14T11:34:29Z</time>
      </trkpt>
      <trkpt lat="45.21401" lon="5.53719">
        <ele>1514.256951315</ele>
        <time>2015-12-14T11:34:34Z</time>
      </trkpt>
      <trkpt lat="45.21402" lon="5.53719">
        <ele>1514.256951315</ele>
        <time>2015-12-14T11:34:39Z</time>
      </trkpt>
      <trkpt lat="45.21408" lon="5.53719">
        <ele>1514.256951315</ele>
        <time>2015-12-14T11:34:49Z</time>
      </trkpt>
      <trkpt lat="45.21409" lon="5.53719">
        <ele>1516.308933046</ele>
        <time>2015-12-14T11:34:54Z</time>
      </trkpt>
      <trkpt lat="45.21412" lon="5.53723">
        <ele>1516.308933046</ele>
        <time>2015-12-14T11:34:59Z</time>
      </trkpt>
      <trkpt lat="45.21413" lon="5.53722">
        <ele>1516.308933046</ele>
        <time>2015-12-14T11:35:04Z</time>
      </trkpt>
      <trkpt lat="45.21413" lon="5.53723">
        <ele>1516.308933046</ele>
        <time>2015-12-14T11:35:09Z</time>
      </trkpt>
      <trkpt lat="45.21413" lon="5.53723">
        <ele>1516.308933046</ele>
        <time>2015-12-14T11:35:14Z</time>
      </trkpt>
      <trkpt lat="45.21413" lon="5.53723">
        <ele>1516.308933046</ele>
        <time>2015-12-14T11:35:19Z</time>
      </trkpt>
      <trkpt lat="45.21413" lon="5.53723">
        <ele>1516.308933046</ele>
        <time>2015-12-14T11:35:24Z</time>
      </trkpt>
      <trkpt lat="45.21414" lon="5.53725">
        <ele>1516.308933046</ele>
        <time>2015-12-14T11:35:29Z</time>
      </trkpt>
      <trkpt lat="45.21414" lon="5.53725">
        <ele>1516.308933046</ele>
        <time>2015-12-14T11:35:34Z</time>
      </trkpt>
      <trkpt lat="45.21414" lon="5.53726">
        <ele>1516.308933046</ele>
        <time>2015-12-14T11:35:39Z</time>
      </trkpt>
      <trkpt lat="45.21414" lon="5.53726">
        <ele>1516.308933046</ele>
        <time>2015-12-14T11:35:44Z</time>
      </trkpt>
      <trkpt lat="45.21415" lon="5.53726">
        <ele>1516.308933046</ele>
        <time>2015-12-14T11:35:49Z</time>
      </trkpt>
      <trkpt lat="45.21416" lon="5.53725">
        <ele>1518.444256495</ele>
        <time>2015-12-14T11:35:54Z</time>
      </trkpt>
      <trkpt lat="45.2142" lon="5.53722">
        <ele>1518.444256495</ele>
        <time>2015-12-14T11:36:04Z</time>
      </trkpt>
      <trkpt lat="45.21426" lon="5.53721">
        <ele>1520.506863365</ele>
        <time>2015-12-14T11:36:09Z</time>
      </trkpt>
      <trkpt lat="45.21431" lon="5.5372">
        <ele>1520.506863365</ele>
        <time>2015-12-14T11:36:19Z</time>
      </trkpt>
      <trkpt lat="45.21432" lon="5.53719">
        <ele>1520.506863365</ele>
        <time>2015-12-14T11:36:24Z</time>
      </trkpt>
      <trkpt lat="45.21434" lon="5.53719">
        <ele>1520.506863365</ele>
        <time>2015-12-14T11:36:35Z</time>
      </trkpt>
      <trkpt lat="45.21438" lon="5.53724">
        <ele>1522.208420374</ele>
        <time>2015-12-14T11:36:39Z</time>
      </trkpt>
      <trkpt lat="45.21447" lon="5.53724">
        <ele>1522.208420374</ele>
        <time>2015-12-14T11:36:51Z</time>
      </trkpt>
      <trkpt lat="45.21447" lon="5.53722">
        <ele>1523.859403387</ele>
        <time>2015-12-14T11:36:54Z</time>
      </trkpt>
      <trkpt lat="45.21451" lon="5.53721">
        <ele>1523.859403387</ele>
        <time>2015-12-14T11:37:05Z</time>
      </trkpt>
      <trkpt lat="45.21453" lon="5.53716">
        <ele>1523.859403387</ele>
        <time>2015-12-14T11:37:10Z</time>
      </trkpt>
      <trkpt lat="45.21461" lon="5.53714">
        <ele>1526.468352151</ele>
        <time>2015-12-14T11:37:24Z</time>
      </trkpt>
      <trkpt lat="45.21473" lon="5.53712">
        <ele>1528.084983135</ele>
        <time>2015-12-14T11:37:41Z</time>
      </trkpt>
      <trkpt lat="45.21479" lon="5.53713">
        <ele>1528.084983135</ele>
        <time>2015-12-14T11:37:54Z</time>
      </trkpt>
      <trkpt lat="45.21483" lon="5.53709">
        <ele>1530.796240888</ele>
        <time>2015-12-14T11:37:59Z</time>
      </trkpt>
      <trkpt lat="45.21489" lon="5.53705">
        <ele>1530.796240888</ele>
        <time>2015-12-14T11:38:09Z</time>
      </trkpt>
      <trkpt lat="45.21489" lon="5.53704">
        <ele>1530.796240888</ele>
        <time>2015-12-14T11:38:25Z</time>
      </trkpt>
      <trkpt lat="45.21491" lon="5.53705">
        <ele>1532.785980638</ele>
        <time>2015-12-14T11:38:30Z</time>
      </trkpt>
      <trkpt lat="45.21492" lon="5.53707">
        <ele>1532.785980638</ele>
        <time>2015-12-14T11:38:40Z</time>
      </trkpt>
      <trkpt lat="45.21492" lon="5.53707">
        <ele>1532.785980638</ele>
        <time>2015-12-14T11:38:45Z</time>
      </trkpt>
      <trkpt lat="45.21492" lon="5.53707">
        <ele>1532.785980638</ele>
        <time>2015-12-14T11:38:56Z</time>
      </trkpt>
      <trkpt lat="45.21492" lon="5.53707">
        <ele>1532.785980638</ele>
        <time>2015-12-14T11:38:59Z</time>
      </trkpt>
      <trkpt lat="45.21492" lon="5.53706">
        <ele>1532.785980638</ele>
        <time>2015-12-14T11:39:09Z</time>
      </trkpt>
      <trkpt lat="45.21492" lon="5.53705">
        <ele>1532.785980638</ele>
        <time>2015-12-14T11:39:15Z</time>
      </trkpt>
      <trkpt lat="45.21492" lon="5.53704">
        <ele>1532.785980638</ele>
        <time>2015-12-14T11:39:24Z</time>
      </trkpt>
      <trkpt lat="45.21492" lon="5.53704">
        <ele>1532.785980638</ele>
        <time>2015-12-14T11:39:30Z</time>
      </trkpt>
      <trkpt lat="45.21492" lon="5.53705">
        <ele>1532.785980638</ele>
        <time>2015-12-14T11:39:40Z</time>
      </trkpt>
      <trkpt lat="45.21492" lon="5.53705">
        <ele>1532.785980638</ele>
        <time>2015-12-14T11:39:45Z</time>
      </trkpt>
      <trkpt lat="45.21492" lon="5.53705">
        <ele>1532.785980638</ele>
        <time>2015-12-14T11:39:54Z</time>
      </trkpt>
      <trkpt lat="45.21492" lon="5.53705">
        <ele>1532.785980638</ele>
        <time>2015-12-14T11:39:59Z</time>
      </trkpt>
      <trkpt lat="45.21494" lon="5.53707">
        <ele>1532.785980638</ele>
        <time>2015-12-14T11:40:14Z</time>
      </trkpt>
      <trkpt lat="45.21494" lon="5.53702">
        <ele>1535.6882318</ele>
        <time>2015-12-14T11:40:29Z</time>
      </trkpt>
      <trkpt lat="45.21494" lon="5.537">
        <ele>1535.6882318</ele>
        <time>2015-12-14T11:40:35Z</time>
      </trkpt>
      <trkpt lat="45.2149" lon="5.53698">
        <ele>1535.6882318</ele>
        <time>2015-12-14T11:40:45Z</time>
      </trkpt>
      <trkpt lat="45.21489" lon="5.53701">
        <ele>1535.6882318</ele>
        <time>2015-12-14T11:40:50Z</time>
      </trkpt>
      <trkpt lat="45.21486" lon="5.53701">
        <ele>1538.564722252</ele>
        <time>2015-12-14T11:41:00Z</time>
      </trkpt>
      <trkpt lat="45.21486" lon="5.537">
        <ele>1538.564722252</ele>
        <time>2015-12-14T11:41:05Z</time>
      </trkpt>
      <trkpt lat="45.21482" lon="5.53691">
        <ele>1538.564722252</ele>
        <time>2015-12-14T11:41:15Z</time>
      </trkpt>
      <trkpt lat="45.21479" lon="5.53689">
        <ele>1540.834585113</ele>
        <time>2015-12-14T11:41:19Z</time>
      </trkpt>
      <trkpt lat="45.21478" lon="5.53687">
        <ele>1540.834585113</ele>
        <time>2015-12-14T11:41:29Z</time>
      </trkpt>
      <trkpt lat="45.21477" lon="5.53687">
        <ele>1540.834585113</ele>
        <time>2015-12-14T11:41:35Z</time>
      </trkpt>
      <trkpt lat="45.21471" lon="5.53686">
        <ele>1540.834585113</ele>
        <time>2015-12-14T11:41:44Z</time>
      </trkpt>
      <trkpt lat="45.2147" lon="5.53685">
        <ele>1543.546736658</ele>
        <time>2015-12-14T11:41:49Z</time>
      </trkpt>
      <trkpt lat="45.21464" lon="5.53683">
        <ele>1543.546736658</ele>
        <time>2015-12-14T11:42:00Z</time>
      </trkpt>
      <trkpt lat="45.21462" lon="5.53683">
        <ele>1543.546736658</ele>
        <time>2015-12-14T11:42:05Z</time>
      </trkpt>
      <trkpt lat="45.21458" lon="5.53679">
        <ele>1546.086767377</ele>
        <time>2015-12-14T11:42:15Z</time>
      </trkpt>
      <trkpt lat="45.21457" lon="5.53678">
        <ele>1546.086767377</ele>
        <time>2015-12-14T11:42:20Z</time>
      </trkpt>
      <trkpt lat="45.21454" lon="5.53671">
        <ele>1546.086767377</ele>
        <time>2015-12-14T11:42:31Z</time>
      </trkpt>
      <trkpt lat="45.21453" lon="5.53671">
        <ele>1546.086767377</ele>
        <time>2015-12-14T11:42:35Z</time>
      </trkpt>
      <trkpt lat="45.2145" lon="5.53666">
        <ele>1548.750743401</ele>
        <time>2015-12-14T11:42:44Z</time>
      </trkpt>
      <trkpt lat="45.21446" lon="5.53663">
        <ele>1548.750743401</ele>
        <time>2015-12-14T11:42:50Z</time>
      </trkpt>
      <trkpt lat="45.21438" lon="5.53659">
        <ele>1551.81282691</ele>
        <time>2015-12-14T11:43:04Z</time>
      </trkpt>
      <trkpt lat="45.21431" lon="5.53656">
        <ele>1551.81282691</ele>
        <time>2015-12-14T11:43:20Z</time>
      </trkpt>
      <trkpt lat="45.21427" lon="5.5365">
        <ele>1554.517338645</ele>
        <time>2015-12-14T11:43:35Z</time>
      </trkpt>
      <trkpt lat="45.21423" lon="5.53645">
        <ele>1554.517338645</ele>
        <time>2015-12-14T11:43:39Z</time>
      </trkpt>
      <trkpt lat="45.21419" lon="5.53638">
        <ele>1556.165306128</ele>
        <time>2015-12-14T11:43:50Z</time>
      </trkpt>
      <trkpt lat="45.21414" lon="5.53637">
        <ele>1556.165306128</ele>
        <time>2015-12-14T11:43:54Z</time>
      </trkpt>
      <trkpt lat="45.21407" lon="5.53631">
        <ele>1558.129812664</ele>
        <time>2015-12-14T11:44:04Z</time>
      </trkpt>
      <trkpt lat="45.21405" lon="5.53628">
        <ele>1558.129812664</ele>
        <time>2015-12-14T11:44:09Z</time>
      </trkpt>
      <trkpt lat="45.21396" lon="5.53622">
        <ele>1559.088369549</ele>
        <time>2015-12-14T11:44:19Z</time>
      </trkpt>
      <trkpt lat="45.21394" lon="5.53617">
        <ele>1559.088369549</ele>
        <time>2015-12-14T11:44:24Z</time>
      </trkpt>
      <trkpt lat="45.2138" lon="5.53614">
        <ele>1560.844968153</ele>
        <time>2015-12-14T11:44:39Z</time>
      </trkpt>
      <trkpt lat="45.21378" lon="5.53608">
        <ele>1560.844968153</ele>
        <time>2015-12-14T11:44:44Z</time>
      </trkpt>
      <trkpt lat="45.21373" lon="5.53602">
        <ele>1562.186781057</ele>
        <time>2015-12-14T11:44:54Z</time>
      </trkpt>
      <trkpt lat="45.21369" lon="5.53602">
        <ele>1562.186781057</ele>
        <time>2015-12-14T11:44:59Z</time>
      </trkpt>
      <trkpt lat="45.21361" lon="5.53601">
        <ele>1563.86483614</ele>
        <time>2015-12-14T11:45:09Z</time>
      </trkpt>
      <trkpt lat="45.21358" lon="5.53601">
        <ele>1563.86483614</ele>
        <time>2015-12-14T11:45:14Z</time>
      </trkpt>
      <trkpt lat="45.21355" lon="5.53594">
        <ele>1563.86483614</ele>
        <time>2015-12-14T11:45:24Z</time>
      </trkpt>
      <trkpt lat="45.21346" lon="5.53585">
        <ele>1565.565412443</ele>
        <time>2015-12-14T11:45:40Z</time>
      </trkpt>
      <trkpt lat="45.21341" lon="5.53585">
        <ele>1565.565412443</ele>
        <time>2015-12-14T11:45:44Z</time>
      </trkpt>
      <trkpt lat="45.21335" lon="5.53585">
        <ele>1567.14201624</ele>
        <time>2015-12-14T11:45:54Z</time>
      </trkpt>
      <trkpt lat="45.21329" lon="5.53586">
        <ele>1567.14201624</ele>
        <time>2015-12-14T11:45:59Z</time>
      </trkpt>
      <trkpt lat="45.21321" lon="5.53583">
        <ele>1568.891721324</ele>
        <time>2015-12-14T11:46:10Z</time>
      </trkpt>
      <trkpt lat="45.21319" lon="5.53581">
        <ele>1568.891721324</ele>
        <time>2015-12-14T11:46:15Z</time>
      </trkpt>
      <trkpt lat="45.21311" lon="5.53581">
        <ele>1570.657076612</ele>
        <time>2015-12-14T11:46:25Z</time>
      </trkpt>
      <trkpt lat="45.21307" lon="5.53578">
        <ele>1570.657076612</ele>
        <time>2015-12-14T11:46:30Z</time>
      </trkpt>
      <trkpt lat="45.21299" lon="5.53578">
        <ele>1572.00404001</ele>
        <time>2015-12-14T11:46:39Z</time>
      </trkpt>
      <trkpt lat="45.21296" lon="5.53576">
        <ele>1572.00404001</ele>
        <time>2015-12-14T11:46:44Z</time>
      </trkpt>
      <trkpt lat="45.2129" lon="5.53569">
        <ele>1572.387615536</ele>
        <time>2015-12-14T11:46:56Z</time>
      </trkpt>
      <trkpt lat="45.21288" lon="5.53569">
        <ele>1572.387615536</ele>
        <time>2015-12-14T11:46:59Z</time>
      </trkpt>
      <trkpt lat="45.21285" lon="5.53563">
        <ele>1572.387615536</ele>
        <time>2015-12-14T11:47:09Z</time>
      </trkpt>
      <trkpt lat="45.21285" lon="5.53562">
        <ele>1572.387615536</ele>
        <time>2015-12-14T11:47:14Z</time>
      </trkpt>
      <trkpt lat="45.21285" lon="5.53562">
        <ele>1572.387615536</ele>
        <time>2015-12-14T11:47:19Z</time>
      </trkpt>
      <trkpt lat="45.21285" lon="5.5356">
        <ele>1572.746744296</ele>
        <time>2015-12-14T11:47:24Z</time>
      </trkpt>
      <trkpt lat="45.21282" lon="5.53555">
        <ele>1572.746744296</ele>
        <time>2015-12-14T11:47:29Z</time>
      </trkpt>
      <trkpt lat="45.21279" lon="5.53548">
        <ele>1573.519203303</ele>
        <time>2015-12-14T11:47:39Z</time>
      </trkpt>
      <trkpt lat="45.21277" lon="5.5354">
        <ele>1573.519203303</ele>
        <time>2015-12-14T11:47:56Z</time>
      </trkpt>
      <trkpt lat="45.21275" lon="5.53538">
        <ele>1573.519203303</ele>
        <time>2015-12-14T11:47:59Z</time>
      </trkpt>
      <trkpt lat="45.21273" lon="5.53531">
        <ele>1574.388956357</ele>
        <time>2015-12-14T11:48:11Z</time>
      </trkpt>
      <trkpt lat="45.21272" lon="5.53528">
        <ele>1574.388956357</ele>
        <time>2015-12-14T11:48:15Z</time>
      </trkpt>
      <trkpt lat="45.21271" lon="5.53522">
        <ele>1574.388956357</ele>
        <time>2015-12-14T11:48:24Z</time>
      </trkpt>
      <trkpt lat="45.2127" lon="5.53523">
        <ele>1574.388956357</ele>
        <time>2015-12-14T11:48:29Z</time>
      </trkpt>
      <trkpt lat="45.21269" lon="5.53517">
        <ele>1575.495291627</ele>
        <time>2015-12-14T11:48:40Z</time>
      </trkpt>
      <trkpt lat="45.21268" lon="5.53513">
        <ele>1575.495291627</ele>
        <time>2015-12-14T11:48:45Z</time>
      </trkpt>
      <trkpt lat="45.21267" lon="5.53513">
        <ele>1575.495291627</ele>
        <time>2015-12-14T11:48:55Z</time>
      </trkpt>
      <trkpt lat="45.21267" lon="5.53513">
        <ele>1575.495291627</ele>
        <time>2015-12-14T11:49:00Z</time>
      </trkpt>
      <trkpt lat="45.21267" lon="5.53513">
        <ele>1575.495291627</ele>
        <time>2015-12-14T11:49:09Z</time>
      </trkpt>
      <trkpt lat="45.21267" lon="5.53513">
        <ele>1575.495291627</ele>
        <time>2015-12-14T11:49:15Z</time>
      </trkpt>
      <trkpt lat="45.21267" lon="5.53513">
        <ele>1575.495291627</ele>
        <time>2015-12-14T11:49:24Z</time>
      </trkpt>
      <trkpt lat="45.21267" lon="5.53513">
        <ele>1575.495291627</ele>
        <time>2015-12-14T11:49:30Z</time>
      </trkpt>
      <trkpt lat="45.21266" lon="5.53509">
        <ele>1575.495291627</ele>
        <time>2015-12-14T11:49:43Z</time>
      </trkpt>
      <trkpt lat="45.21265" lon="5.53509">
        <ele>1576.390193655</ele>
        <time>2015-12-14T11:49:44Z</time>
      </trkpt>
      <trkpt lat="45.21264" lon="5.53508">
        <ele>1576.390193655</ele>
        <time>2015-12-14T11:50:01Z</time>
      </trkpt>
      <trkpt lat="45.21264" lon="5.53508">
        <ele>1576.390193655</ele>
        <time>2015-12-14T11:50:05Z</time>
      </trkpt>
      <trkpt lat="45.21264" lon="5.53504">
        <ele>1576.390193655</ele>
        <time>2015-12-14T11:50:14Z</time>
      </trkpt>
      <trkpt lat="45.21263" lon="5.53501">
        <ele>1576.390193655</ele>
        <time>2015-12-14T11:50:19Z</time>
      </trkpt>
      <trkpt lat="45.21261" lon="5.53499">
        <ele>1576.390193655</ele>
        <time>2015-12-14T11:50:29Z</time>
      </trkpt>
      <trkpt lat="45.21261" lon="5.53496">
        <ele>1578.10029139</ele>
        <time>2015-12-14T11:50:35Z</time>
      </trkpt>
      <trkpt lat="45.2126" lon="5.5349">
        <ele>1578.10029139</ele>
        <time>2015-12-14T11:50:45Z</time>
      </trkpt>
      <trkpt lat="45.21259" lon="5.53486">
        <ele>1578.10029139</ele>
        <time>2015-12-14T11:50:49Z</time>
      </trkpt>
      <trkpt lat="45.21256" lon="5.5348">
        <ele>1580.565756854</ele>
        <time>2015-12-14T11:51:00Z</time>
      </trkpt>
      <trkpt lat="45.21254" lon="5.53478">
        <ele>1580.565756854</ele>
        <time>2015-12-14T11:51:06Z</time>
      </trkpt>
      <trkpt lat="45.21252" lon="5.53472">
        <ele>1580.565756854</ele>
        <time>2015-12-14T11:51:15Z</time>
      </trkpt>
      <trkpt lat="45.2125" lon="5.53473">
        <ele>1583.152615086</ele>
        <time>2015-12-14T11:51:20Z</time>
      </trkpt>
      <trkpt lat="45.21248" lon="5.53471">
        <ele>1583.152615086</ele>
        <time>2015-12-14T11:51:31Z</time>
      </trkpt>
      <trkpt lat="45.21249" lon="5.53467">
        <ele>1583.152615086</ele>
        <time>2015-12-14T11:51:34Z</time>
      </trkpt>
      <trkpt lat="45.21247" lon="5.53464">
        <ele>1583.152615086</ele>
        <time>2015-12-14T11:51:44Z</time>
      </trkpt>
      <trkpt lat="45.21246" lon="5.53464">
        <ele>1583.152615086</ele>
        <time>2015-12-14T11:51:50Z</time>
      </trkpt>
      <trkpt lat="45.21246" lon="5.53464">
        <ele>1583.152615086</ele>
        <time>2015-12-14T11:51:54Z</time>
      </trkpt>
      <trkpt lat="45.21246" lon="5.53464">
        <ele>1585.849589903</ele>
        <time>2015-12-14T11:51:59Z</time>
      </trkpt>
      <trkpt lat="45.21246" lon="5.53463">
        <ele>1585.849589903</ele>
        <time>2015-12-14T11:52:15Z</time>
      </trkpt>
      <trkpt lat="45.21245" lon="5.53462">
        <ele>1585.849589903</ele>
        <time>2015-12-14T11:52:20Z</time>
      </trkpt>
      <trkpt lat="45.21246" lon="5.5346">
        <ele>1585.849589903</ele>
        <time>2015-12-14T11:52:29Z</time>
      </trkpt>
      <trkpt lat="45.21245" lon="5.5346">
        <ele>1585.849589903</ele>
        <time>2015-12-14T11:52:34Z</time>
      </trkpt>
      <trkpt lat="45.21245" lon="5.5346">
        <ele>1585.849589903</ele>
        <time>2015-12-14T11:52:44Z</time>
      </trkpt>
      <trkpt lat="45.21245" lon="5.5346">
        <ele>1585.849589903</ele>
        <time>2015-12-14T11:52:49Z</time>
      </trkpt>
      <trkpt lat="45.21245" lon="5.5346">
        <ele>1585.849589903</ele>
        <time>2015-12-14T11:52:59Z</time>
      </trkpt>
      <trkpt lat="45.21245" lon="5.5346">
        <ele>1585.849589903</ele>
        <time>2015-12-14T11:53:04Z</time>
      </trkpt>
      <trkpt lat="45.21245" lon="5.53461">
        <ele>1585.849589903</ele>
        <time>2015-12-14T11:53:14Z</time>
      </trkpt>
      <trkpt lat="45.21245" lon="5.53461">
        <ele>1585.849589903</ele>
        <time>2015-12-14T11:53:19Z</time>
      </trkpt>
      <trkpt lat="45.21241" lon="5.53459">
        <ele>1585.849589903</ele>
        <time>2015-12-14T11:53:34Z</time>
      </trkpt>
      <trkpt lat="45.21236" lon="5.53454">
        <ele>1588.50184081</ele>
        <time>2015-12-14T11:53:45Z</time>
      </trkpt>
      <trkpt lat="45.21236" lon="5.53451">
        <ele>1588.50184081</ele>
        <time>2015-12-14T11:53:50Z</time>
      </trkpt>
      <trkpt lat="45.21236" lon="5.53447">
        <ele>1588.50184081</ele>
        <time>2015-12-14T11:54:04Z</time>
      </trkpt>
      <trkpt lat="45.21231" lon="5.53444">
        <ele>1591.110171003</ele>
        <time>2015-12-14T11:54:19Z</time>
      </trkpt>
      <trkpt lat="45.2123" lon="5.53438">
        <ele>1591.110171003</ele>
        <time>2015-12-14T11:54:25Z</time>
      </trkpt>
      <trkpt lat="45.21228" lon="5.53432">
        <ele>1592.810816776</ele>
        <time>2015-12-14T11:54:34Z</time>
      </trkpt>
      <trkpt lat="45.21228" lon="5.53427">
        <ele>1592.810816776</ele>
        <time>2015-12-14T11:54:40Z</time>
      </trkpt>
      <trkpt lat="45.21226" lon="5.53423">
        <ele>1592.810816776</ele>
        <time>2015-12-14T11:54:49Z</time>
      </trkpt>
      <trkpt lat="45.21223" lon="5.53421">
        <ele>1594.535383953</ele>
        <time>2015-12-14T11:54:55Z</time>
      </trkpt>
      <trkpt lat="45.21219" lon="5.53418">
        <ele>1594.535383953</ele>
        <time>2015-12-14T11:55:04Z</time>
      </trkpt>
      <trkpt lat="45.21219" lon="5.53415">
        <ele>1594.535383953</ele>
        <time>2015-12-14T11:55:09Z</time>
      </trkpt>
      <trkpt lat="45.21215" lon="5.53416">
        <ele>1596.138234807</ele>
        <time>2015-12-14T11:55:14Z</time>
      </trkpt>
      <trkpt lat="45.21214" lon="5.53407">
        <ele>1596.138234807</ele>
        <time>2015-12-14T11:55:24Z</time>
      </trkpt>
      <trkpt lat="45.2121" lon="5.53407">
        <ele>1598.061250949</ele>
        <time>2015-12-14T11:55:30Z</time>
      </trkpt>
      <trkpt lat="45.21206" lon="5.53408">
        <ele>1598.061250949</ele>
        <time>2015-12-14T11:55:39Z</time>
      </trkpt>
      <trkpt lat="45.21203" lon="5.53404">
        <ele>1598.061250949</ele>
        <time>2015-12-14T11:55:45Z</time>
      </trkpt>
      <trkpt lat="45.21199" lon="5.53399">
        <ele>1599.992431282</ele>
        <time>2015-12-14T11:55:55Z</time>
      </trkpt>
      <trkpt lat="45.21198" lon="5.53396">
        <ele>1599.992431282</ele>
        <time>2015-12-14T11:55:59Z</time>
      </trkpt>
      <trkpt lat="45.21197" lon="5.53391">
        <ele>1599.992431282</ele>
        <time>2015-12-14T11:56:10Z</time>
      </trkpt>
      <trkpt lat="45.21195" lon="5.53389">
        <ele>1599.992431282</ele>
        <time>2015-12-14T11:56:15Z</time>
      </trkpt>
      <trkpt lat="45.21191" lon="5.53385">
        <ele>1601.642699872</ele>
        <time>2015-12-14T11:56:25Z</time>
      </trkpt>
      <trkpt lat="45.21187" lon="5.53388">
        <ele>1601.642699872</ele>
        <time>2015-12-14T11:56:29Z</time>
      </trkpt>
      <trkpt lat="45.21185" lon="5.53388">
        <ele>1601.642699872</ele>
        <time>2015-12-14T11:56:35Z</time>
      </trkpt>
      <trkpt lat="45.21178" lon="5.53388">
        <ele>1604.186143299</ele>
        <time>2015-12-14T11:56:45Z</time>
      </trkpt>
      <trkpt lat="45.2118" lon="5.53385">
        <ele>1604.186143299</ele>
        <time>2015-12-14T11:56:50Z</time>
      </trkpt>
      <trkpt lat="45.21176" lon="5.53382">
        <ele>1604.186143299</ele>
        <time>2015-12-14T11:57:00Z</time>
      </trkpt>
      <trkpt lat="45.21176" lon="5.53379">
        <ele>1606.114120091</ele>
        <time>2015-12-14T11:57:04Z</time>
      </trkpt>
      <trkpt lat="45.21174" lon="5.53378">
        <ele>1606.114120091</ele>
        <time>2015-12-14T11:57:15Z</time>
      </trkpt>
      <trkpt lat="45.21171" lon="5.53378">
        <ele>1606.114120091</ele>
        <time>2015-12-14T11:57:20Z</time>
      </trkpt>
      <trkpt lat="45.21167" lon="5.53375">
        <ele>1608.336344001</ele>
        <time>2015-12-14T11:57:30Z</time>
      </trkpt>
      <trkpt lat="45.21168" lon="5.53374">
        <ele>1608.336344001</ele>
        <time>2015-12-14T11:57:34Z</time>
      </trkpt>
      <trkpt lat="45.2116" lon="5.53367">
        <ele>1609.677344777</ele>
        <time>2015-12-14T11:57:45Z</time>
      </trkpt>
      <trkpt lat="45.21157" lon="5.53363">
        <ele>1609.677344777</ele>
        <time>2015-12-14T11:57:49Z</time>
      </trkpt>
      <trkpt lat="45.21153" lon="5.53357">
        <ele>1610.779830177</ele>
        <time>2015-12-14T11:58:00Z</time>
      </trkpt>
      <trkpt lat="45.21151" lon="5.53356">
        <ele>1610.779830177</ele>
        <time>2015-12-14T11:58:05Z</time>
      </trkpt>
      <trkpt lat="45.21148" lon="5.53355">
        <ele>1610.779830177</ele>
        <time>2015-12-14T11:58:14Z</time>
      </trkpt>
      <trkpt lat="45.21148" lon="5.53353">
        <ele>1610.779830177</ele>
        <time>2015-12-14T11:58:20Z</time>
      </trkpt>
      <trkpt lat="45.21149" lon="5.5335">
        <ele>1610.779830177</ele>
        <time>2015-12-14T11:58:30Z</time>
      </trkpt>
      <trkpt lat="45.21149" lon="5.53351">
        <ele>1610.779830177</ele>
        <time>2015-12-14T11:58:34Z</time>
      </trkpt>
      <trkpt lat="45.21149" lon="5.53347">
        <ele>1612.672317037</ele>
        <time>2015-12-14T11:58:45Z</time>
      </trkpt>
      <trkpt lat="45.2115" lon="5.53346">
        <ele>1612.672317037</ele>
        <time>2015-12-14T11:58:50Z</time>
      </trkpt>
      <trkpt lat="45.21149" lon="5.53344">
        <ele>1612.672317037</ele>
        <time>2015-12-14T11:59:00Z</time>
      </trkpt>
      <trkpt lat="45.2115" lon="5.53345">
        <ele>1612.672317037</ele>
        <time>2015-12-14T11:59:05Z</time>
      </trkpt>
      <trkpt lat="45.2115" lon="5.53344">
        <ele>1612.672317037</ele>
        <time>2015-12-14T11:59:20Z</time>
      </trkpt>
      <trkpt lat="45.21149" lon="5.53344">
        <ele>1612.672317037</ele>
        <time>2015-12-14T11:59:34Z</time>
      </trkpt>
      <trkpt lat="45.21145" lon="5.53339">
        <ele>1612.672317037</ele>
        <time>2015-12-14T11:59:40Z</time>
      </trkpt>
      <trkpt lat="45.21141" lon="5.53339">
        <ele>1615.00856769</ele>
        <time>2015-12-14T11:59:50Z</time>
      </trkpt>
      <trkpt lat="45.2114" lon="5.5334">
        <ele>1615.00856769</ele>
        <time>2015-12-14T12:00:04Z</time>
      </trkpt>
      <trkpt lat="45.2114" lon="5.5334">
        <ele>1615.00856769</ele>
        <time>2015-12-14T12:00:09Z</time>
      </trkpt>
      <trkpt lat="45.2114" lon="5.5334">
        <ele>1615.00856769</ele>
        <time>2015-12-14T12:00:19Z</time>
      </trkpt>
      <trkpt lat="45.2114" lon="5.5334">
        <ele>1615.00856769</ele>
        <time>2015-12-14T12:00:24Z</time>
      </trkpt>
      <trkpt lat="45.2114" lon="5.5334">
        <ele>1615.00856769</ele>
        <time>2015-12-14T12:00:29Z</time>
      </trkpt>
      <trkpt lat="45.2114" lon="5.5334">
        <ele>1615.00856769</ele>
        <time>2015-12-14T12:00:34Z</time>
      </trkpt>
      <trkpt lat="45.2114" lon="5.5334">
        <ele>1615.00856769</ele>
        <time>2015-12-14T12:00:39Z</time>
      </trkpt>
      <trkpt lat="45.2114" lon="5.5334">
        <ele>1615.00856769</ele>
        <time>2015-12-14T12:00:49Z</time>
      </trkpt>
      <trkpt lat="45.2114" lon="5.5334">
        <ele>1615.00856769</ele>
        <time>2015-12-14T12:00:54Z</time>
      </trkpt>
      <trkpt lat="45.2114" lon="5.5334">
        <ele>1615.00856769</ele>
        <time>2015-12-14T12:01:04Z</time>
      </trkpt>
      <trkpt lat="45.2114" lon="5.5334">
        <ele>1615.00856769</ele>
        <time>2015-12-14T12:01:09Z</time>
      </trkpt>
      <trkpt lat="45.2114" lon="5.5334">
        <ele>1615.00856769</ele>
        <time>2015-12-14T12:01:19Z</time>
      </trkpt>
      <trkpt lat="45.2114" lon="5.5334">
        <ele>1615.00856769</ele>
        <time>2015-12-14T12:01:24Z</time>
      </trkpt>
      <trkpt lat="45.21139" lon="5.53341">
        <ele>1615.00856769</ele>
        <time>2015-12-14T12:01:34Z</time>
      </trkpt>
      <trkpt lat="45.21139" lon="5.53341">
        <ele>1615.00856769</ele>
        <time>2015-12-14T12:01:39Z</time>
      </trkpt>
      <trkpt lat="45.21139" lon="5.5334">
        <ele>1615.00856769</ele>
        <time>2015-12-14T12:01:49Z</time>
      </trkpt>
      <trkpt lat="45.2114" lon="5.5334">
        <ele>1615.00856769</ele>
        <time>2015-12-14T12:01:54Z</time>
      </trkpt>
      <trkpt lat="45.21141" lon="5.53341">
        <ele>1615.00856769</ele>
        <time>2015-12-14T12:02:09Z</time>
      </trkpt>
      <trkpt lat="45.21138" lon="5.5334">
        <ele>1615.00856769</ele>
        <time>2015-12-14T12:02:14Z</time>
      </trkpt>
      <trkpt lat="45.21134" lon="5.53337">
        <ele>1617.322436947</ele>
        <time>2015-12-14T12:02:20Z</time>
      </trkpt>
      <trkpt lat="45.21133" lon="5.53335">
        <ele>1617.322436947</ele>
        <time>2015-12-14T12:02:24Z</time>
      </trkpt>
      <trkpt lat="45.21128" lon="5.53332">
        <ele>1617.322436947</ele>
        <time>2015-12-14T12:02:35Z</time>
      </trkpt>
      <trkpt lat="45.21127" lon="5.53332">
        <ele>1617.322436947</ele>
        <time>2015-12-14T12:02:40Z</time>
      </trkpt>
      <trkpt lat="45.21127" lon="5.53333">
        <ele>1620.190878372</ele>
        <time>2015-12-14T12:02:54Z</time>
      </trkpt>
      <trkpt lat="45.21127" lon="5.53333">
        <ele>1620.190878372</ele>
        <time>2015-12-14T12:02:59Z</time>
      </trkpt>
      <trkpt lat="45.21127" lon="5.53334">
        <ele>1620.190878372</ele>
        <time>2015-12-14T12:03:09Z</time>
      </trkpt>
      <trkpt lat="45.21127" lon="5.53334">
        <ele>1620.190878372</ele>
        <time>2015-12-14T12:03:14Z</time>
      </trkpt>
      <trkpt lat="45.21126" lon="5.53332">
        <ele>1620.190878372</ele>
        <time>2015-12-14T12:03:24Z</time>
      </trkpt>
      <trkpt lat="45.21126" lon="5.53333">
        <ele>1620.190878372</ele>
        <time>2015-12-14T12:03:29Z</time>
      </trkpt>
      <trkpt lat="45.21133" lon="5.53336">
        <ele>1622.56170194</ele>
        <time>2015-12-14T12:03:41Z</time>
      </trkpt>
      <trkpt lat="45.21136" lon="5.5334">
        <ele>1622.56170194</ele>
        <time>2015-12-14T12:03:45Z</time>
      </trkpt>
      <trkpt lat="45.21137" lon="5.53341">
        <ele>1622.56170194</ele>
        <time>2015-12-14T12:03:54Z</time>
      </trkpt>
      <trkpt lat="45.21137" lon="5.5334">
        <ele>1622.56170194</ele>
        <time>2015-12-14T12:03:59Z</time>
      </trkpt>
      <trkpt lat="45.21137" lon="5.53339">
        <ele>1622.56170194</ele>
        <time>2015-12-14T12:04:09Z</time>
      </trkpt>
      <trkpt lat="45.21137" lon="5.53339">
        <ele>1622.56170194</ele>
        <time>2015-12-14T12:04:14Z</time>
      </trkpt>
      <trkpt lat="45.2114" lon="5.5334">
        <ele>1622.56170194</ele>
        <time>2015-12-14T12:04:29Z</time>
      </trkpt>
      <trkpt lat="45.2114" lon="5.53337">
        <ele>1623.749648163</ele>
        <time>2015-12-14T12:04:34Z</time>
      </trkpt>
      <trkpt lat="45.21141" lon="5.53337">
        <ele>1623.749648163</ele>
        <time>2015-12-14T12:04:44Z</time>
      </trkpt>
      <trkpt lat="45.21141" lon="5.53337">
        <ele>1623.749648163</ele>
        <time>2015-12-14T12:04:49Z</time>
      </trkpt>
      <trkpt lat="45.21141" lon="5.53337">
        <ele>1623.749648163</ele>
        <time>2015-12-14T12:04:59Z</time>
      </trkpt>
      <trkpt lat="45.21141" lon="5.53337">
        <ele>1623.749648163</ele>
        <time>2015-12-14T12:05:04Z</time>
      </trkpt>
      <trkpt lat="45.21141" lon="5.53337">
        <ele>1623.749648163</ele>
        <time>2015-12-14T12:05:14Z</time>
      </trkpt>
      <trkpt lat="45.21141" lon="5.53337">
        <ele>1623.749648163</ele>
        <time>2015-12-14T12:05:19Z</time>
      </trkpt>
      <trkpt lat="45.21141" lon="5.53337">
        <ele>1623.749648163</ele>
        <time>2015-12-14T12:05:29Z</time>
      </trkpt>
      <trkpt lat="45.21141" lon="5.53337">
        <ele>1623.749648163</ele>
        <time>2015-12-14T12:05:34Z</time>
      </trkpt>
      <trkpt lat="45.21141" lon="5.53337">
        <ele>1623.749648163</ele>
        <time>2015-12-14T12:05:49Z</time>
      </trkpt>
      <trkpt lat="45.21141" lon="5.53337">
        <ele>1623.749648163</ele>
        <time>2015-12-14T12:05:54Z</time>
      </trkpt>
      <trkpt lat="45.21141" lon="5.53337">
        <ele>1623.749648163</ele>
        <time>2015-12-14T12:06:04Z</time>
      </trkpt>
      <trkpt lat="45.21141" lon="5.53337">
        <ele>1623.749648163</ele>
        <time>2015-12-14T12:06:09Z</time>
      </trkpt>
      <trkpt lat="45.21141" lon="5.53337">
        <ele>1623.749648163</ele>
        <time>2015-12-14T12:06:19Z</time>
      </trkpt>
      <trkpt lat="45.21141" lon="5.53337">
        <ele>1623.749648163</ele>
        <time>2015-12-14T12:06:24Z</time>
      </trkpt>
      <trkpt lat="45.21141" lon="5.53337">
        <ele>1623.749648163</ele>
        <time>2015-12-14T12:06:34Z</time>
      </trkpt>
      <trkpt lat="45.21141" lon="5.53337">
        <ele>1623.749648163</ele>
        <time>2015-12-14T12:06:39Z</time>
      </trkpt>
      <trkpt lat="45.21147" lon="5.53336">
        <ele>1623.749648163</ele>
        <time>2015-12-14T12:06:49Z</time>
      </trkpt>
      <trkpt lat="45.21149" lon="5.53335">
        <ele>1624.852467092</ele>
        <time>2015-12-14T12:06:54Z</time>
      </trkpt>
      <trkpt lat="45.21149" lon="5.53335">
        <ele>1624.852467092</ele>
        <time>2015-12-14T12:07:10Z</time>
      </trkpt>
      <trkpt lat="45.21149" lon="5.53335">
        <ele>1624.852467092</ele>
        <time>2015-12-14T12:07:20Z</time>
      </trkpt>
      <trkpt lat="45.21149" lon="5.53335">
        <ele>1624.852467092</ele>
        <time>2015-12-14T12:07:25Z</time>
      </trkpt>
      <trkpt lat="45.21149" lon="5.53335">
        <ele>1624.852467092</ele>
        <time>2015-12-14T12:07:29Z</time>
      </trkpt>
      <trkpt lat="45.21148" lon="5.53336">
        <ele>1624.852467092</ele>
        <time>2015-12-14T12:07:34Z</time>
      </trkpt>
      <trkpt lat="45.21147" lon="5.53336">
        <ele>1624.852467092</ele>
        <time>2015-12-14T12:07:39Z</time>
      </trkpt>
      <trkpt lat="45.21147" lon="5.53336">
        <ele>1624.852467092</ele>
        <time>2015-12-14T12:07:44Z</time>
      </trkpt>
      <trkpt lat="45.21147" lon="5.53337">
        <ele>1624.852467092</ele>
        <time>2015-12-14T12:07:54Z</time>
      </trkpt>
      <trkpt lat="45.21147" lon="5.53337">
        <ele>1624.852467092</ele>
        <time>2015-12-14T12:07:59Z</time>
      </trkpt>
      <trkpt lat="45.21147" lon="5.53337">
        <ele>1624.852467092</ele>
        <time>2015-12-14T12:08:09Z</time>
      </trkpt>
      <trkpt lat="45.21147" lon="5.53337">
        <ele>1624.852467092</ele>
        <time>2015-12-14T12:08:14Z</time>
      </trkpt>
      <trkpt lat="45.21147" lon="5.53337">
        <ele>1624.852467092</ele>
        <time>2015-12-14T12:08:24Z</time>
      </trkpt>
      <trkpt lat="45.21147" lon="5.53337">
        <ele>1624.852467092</ele>
        <time>2015-12-14T12:08:29Z</time>
      </trkpt>
      <trkpt lat="45.21147" lon="5.53337">
        <ele>1624.852467092</ele>
        <time>2015-12-14T12:08:39Z</time>
      </trkpt>
      <trkpt lat="45.21147" lon="5.53337">
        <ele>1624.852467092</ele>
        <time>2015-12-14T12:08:44Z</time>
      </trkpt>
      <trkpt lat="45.21147" lon="5.53337">
        <ele>1624.852467092</ele>
        <time>2015-12-14T12:08:54Z</time>
      </trkpt>
      <trkpt lat="45.21147" lon="5.53337">
        <ele>1624.852467092</ele>
        <time>2015-12-14T12:08:59Z</time>
      </trkpt>
      <trkpt lat="45.21147" lon="5.53336">
        <ele>1624.852467092</ele>
        <time>2015-12-14T12:09:14Z</time>
      </trkpt>
      <trkpt lat="45.21147" lon="5.53336">
        <ele>1624.852467092</ele>
        <time>2015-12-14T12:09:19Z</time>
      </trkpt>
      <trkpt lat="45.21148" lon="5.53336">
        <ele>1624.852467092</ele>
        <time>2015-12-14T12:09:29Z</time>
      </trkpt>
      <trkpt lat="45.21148" lon="5.53336">
        <ele>1624.852467092</ele>
        <time>2015-12-14T12:09:34Z</time>
      </trkpt>
      <trkpt lat="45.21148" lon="5.53336">
        <ele>1624.852467092</ele>
        <time>2015-12-14T12:09:44Z</time>
      </trkpt>
      <trkpt lat="45.21148" lon="5.53336">
        <ele>1624.852467092</ele>
        <time>2015-12-14T12:09:49Z</time>
      </trkpt>
      <trkpt lat="45.21148" lon="5.53336">
        <ele>1624.852467092</ele>
        <time>2015-12-14T12:09:59Z</time>
      </trkpt>
      <trkpt lat="45.21148" lon="5.53336">
        <ele>1624.852467092</ele>
        <time>2015-12-14T12:10:04Z</time>
      </trkpt>
      <trkpt lat="45.21148" lon="5.53336">
        <ele>1624.852467092</ele>
        <time>2015-12-14T12:10:14Z</time>
      </trkpt>
      <trkpt lat="45.21149" lon="5.53337">
        <ele>1624.852467092</ele>
        <time>2015-12-14T12:10:19Z</time>
      </trkpt>
      <trkpt lat="45.21149" lon="5.53338">
        <ele>1624.852467092</ele>
        <time>2015-12-14T12:10:29Z</time>
      </trkpt>
      <trkpt lat="45.21149" lon="5.53338">
        <ele>1624.852467092</ele>
        <time>2015-12-14T12:10:34Z</time>
      </trkpt>
      <trkpt lat="45.21149" lon="5.53338">
        <ele>1624.852467092</ele>
        <time>2015-12-14T12:10:44Z</time>
      </trkpt>
      <trkpt lat="45.21149" lon="5.53338">
        <ele>1624.852467092</ele>
        <time>2015-12-14T12:10:49Z</time>
      </trkpt>
      <trkpt lat="45.21149" lon="5.53338">
        <ele>1624.852467092</ele>
        <time>2015-12-14T12:11:04Z</time>
      </trkpt>
      <trkpt lat="45.21149" lon="5.53338">
        <ele>1624.852467092</ele>
        <time>2015-12-14T12:11:09Z</time>
      </trkpt>
      <trkpt lat="45.21149" lon="5.53338">
        <ele>1624.852467092</ele>
        <time>2015-12-14T12:11:19Z</time>
      </trkpt>
      <trkpt lat="45.21149" lon="5.53338">
        <ele>1624.852467092</ele>
        <time>2015-12-14T12:11:24Z</time>
      </trkpt>
      <trkpt lat="45.21149" lon="5.53338">
        <ele>1624.852467092</ele>
        <time>2015-12-14T12:11:34Z</time>
      </trkpt>
      <trkpt lat="45.21149" lon="5.53338">
        <ele>1624.852467092</ele>
        <time>2015-12-14T12:11:39Z</time>
      </trkpt>
      <trkpt lat="45.21149" lon="5.53338">
        <ele>1624.852467092</ele>
        <time>2015-12-14T12:11:49Z</time>
      </trkpt>
      <trkpt lat="45.21149" lon="5.53338">
        <ele>1624.852467092</ele>
        <time>2015-12-14T12:11:54Z</time>
      </trkpt>
      <trkpt lat="45.21149" lon="5.53338">
        <ele>1624.852467092</ele>
        <time>2015-12-14T12:12:04Z</time>
      </trkpt>
      <trkpt lat="45.21149" lon="5.53338">
        <ele>1624.852467092</ele>
        <time>2015-12-14T12:12:09Z</time>
      </trkpt>
      <trkpt lat="45.21149" lon="5.53338">
        <ele>1624.852467092</ele>
        <time>2015-12-14T12:12:19Z</time>
      </trkpt>
      <trkpt lat="45.21149" lon="5.53338">
        <ele>1624.852467092</ele>
        <time>2015-12-14T12:12:24Z</time>
      </trkpt>
      <trkpt lat="45.21149" lon="5.53338">
        <ele>1624.852467092</ele>
        <time>2015-12-14T12:12:34Z</time>
      </trkpt>
      <trkpt lat="45.21149" lon="5.53338">
        <ele>1624.852467092</ele>
        <time>2015-12-14T12:12:39Z</time>
      </trkpt>
      <trkpt lat="45.21149" lon="5.53338">
        <ele>1624.852467092</ele>
        <time>2015-12-14T12:12:49Z</time>
      </trkpt>
      <trkpt lat="45.21149" lon="5.53338">
        <ele>1624.852467092</ele>
        <time>2015-12-14T12:12:54Z</time>
      </trkpt>
      <trkpt lat="45.21149" lon="5.53338">
        <ele>1624.852467092</ele>
        <time>2015-12-14T12:13:04Z</time>
      </trkpt>
      <trkpt lat="45.21149" lon="5.53338">
        <ele>1624.852467092</ele>
        <time>2015-12-14T12:13:09Z</time>
      </trkpt>
      <trkpt lat="45.21149" lon="5.53338">
        <ele>1624.852467092</ele>
        <time>2015-12-14T12:13:19Z</time>
      </trkpt>
      <trkpt lat="45.21149" lon="5.53338">
        <ele>1624.852467092</ele>
        <time>2015-12-14T12:13:24Z</time>
      </trkpt>
      <trkpt lat="45.21149" lon="5.53338">
        <ele>1624.852467092</ele>
        <time>2015-12-14T12:13:39Z</time>
      </trkpt>
      <trkpt lat="45.21149" lon="5.53338">
        <ele>1624.852467092</ele>
        <time>2015-12-14T12:13:44Z</time>
      </trkpt>
      <trkpt lat="45.21149" lon="5.53338">
        <ele>1624.852467092</ele>
        <time>2015-12-14T12:13:54Z</time>
      </trkpt>
      <trkpt lat="45.21149" lon="5.53338">
        <ele>1624.852467092</ele>
        <time>2015-12-14T12:13:59Z</time>
      </trkpt>
      <trkpt lat="45.21149" lon="5.53338">
        <ele>1624.852467092</ele>
        <time>2015-12-14T12:14:09Z</time>
      </trkpt>
      <trkpt lat="45.21149" lon="5.53338">
        <ele>1624.852467092</ele>
        <time>2015-12-14T12:14:14Z</time>
      </trkpt>
      <trkpt lat="45.21149" lon="5.53338">
        <ele>1624.852467092</ele>
        <time>2015-12-14T12:14:24Z</time>
      </trkpt>
      <trkpt lat="45.21149" lon="5.53338">
        <ele>1624.852467092</ele>
        <time>2015-12-14T12:14:29Z</time>
      </trkpt>
      <trkpt lat="45.21149" lon="5.53338">
        <ele>1624.852467092</ele>
        <time>2015-12-14T12:14:39Z</time>
      </trkpt>
      <trkpt lat="45.21149" lon="5.53338">
        <ele>1624.852467092</ele>
        <time>2015-12-14T12:14:44Z</time>
      </trkpt>
      <trkpt lat="45.21149" lon="5.53338">
        <ele>1624.852467092</ele>
        <time>2015-12-14T12:14:54Z</time>
      </trkpt>
      <trkpt lat="45.21149" lon="5.53338">
        <ele>1624.852467092</ele>
        <time>2015-12-14T12:15:01Z</time>
      </trkpt>
      <trkpt lat="45.21149" lon="5.53338">
        <ele>1624.852467092</ele>
        <time>2015-12-14T12:15:15Z</time>
      </trkpt>
      <trkpt lat="45.21149" lon="5.53338">
        <ele>1624.852467092</ele>
        <time>2015-12-14T12:15:19Z</time>
      </trkpt>
      <trkpt lat="45.21149" lon="5.53338">
        <ele>1624.852467092</ele>
        <time>2015-12-14T12:15:32Z</time>
      </trkpt>
      <trkpt lat="45.21149" lon="5.53338">
        <ele>1624.852467092</ele>
        <time>2015-12-14T12:15:44Z</time>
      </trkpt>
      <trkpt lat="45.21149" lon="5.53338">
        <ele>1624.852467092</ele>
        <time>2015-12-14T12:15:45Z</time>
      </trkpt>
      <trkpt lat="45.21149" lon="5.53338">
        <ele>1624.852467092</ele>
        <time>2015-12-14T12:16:10Z</time>
      </trkpt>
      <trkpt lat="45.21149" lon="5.53338">
        <ele>1624.852467092</ele>
        <time>2015-12-14T12:16:12Z</time>
      </trkpt>
      <trkpt lat="45.21149" lon="5.53338">
        <ele>1624.852467092</ele>
        <time>2015-12-14T12:16:17Z</time>
      </trkpt>
      <trkpt lat="45.21149" lon="5.53338">
        <ele>1624.852467092</ele>
        <time>2015-12-14T12:16:54Z</time>
      </trkpt>
      <trkpt lat="45.21149" lon="5.53338">
        <ele>1624.852467092</ele>
        <time>2015-12-14T12:17:17Z</time>
      </trkpt>
      <trkpt lat="45.21149" lon="5.53338">
        <ele>1624.852467092</ele>
        <time>2015-12-14T12:17:17Z</time>
      </trkpt>
      <trkpt lat="45.21149" lon="5.53338">
        <ele>1624.852467092</ele>
        <time>2015-12-14T12:17:24Z</time>
      </trkpt>
      <trkpt lat="45.21149" lon="5.53338">
        <ele>1624.852467092</ele>
        <time>2015-12-14T12:17:37Z</time>
      </trkpt>
      <trkpt lat="45.21149" lon="5.53338">
        <ele>1624.852467092</ele>
        <time>2015-12-14T12:17:39Z</time>
      </trkpt>
      <trkpt lat="45.21149" lon="5.53338">
        <ele>1624.852467092</ele>
        <time>2015-12-14T12:17:49Z</time>
      </trkpt>
      <trkpt lat="45.21149" lon="5.53338">
        <ele>1624.852467092</ele>
        <time>2015-12-14T12:17:57Z</time>
      </trkpt>
      <trkpt lat="45.21149" lon="5.53338">
        <ele>1624.852467092</ele>
        <time>2015-12-14T12:18:21Z</time>
      </trkpt>
      <trkpt lat="45.21149" lon="5.53338">
        <ele>1624.852467092</ele>
        <time>2015-12-14T12:18:26Z</time>
      </trkpt>
      <trkpt lat="45.21149" lon="5.53338">
        <ele>1624.852467092</ele>
        <time>2015-12-14T12:18:55Z</time>
      </trkpt>
      <trkpt lat="45.21149" lon="5.53338">
        <ele>1624.852467092</ele>
        <time>2015-12-14T12:19:11Z</time>
      </trkpt>
      <trkpt lat="45.21149" lon="5.53338">
        <ele>1624.852467092</ele>
        <time>2015-12-14T12:19:12Z</time>
      </trkpt>
      <trkpt lat="45.21149" lon="5.53338">
        <ele>1624.852467092</ele>
        <time>2015-12-14T12:19:24Z</time>
      </trkpt>
      <trkpt lat="45.21149" lon="5.53338">
        <ele>1624.852467092</ele>
        <time>2015-12-14T12:19:25Z</time>
      </trkpt>
      <trkpt lat="45.21149" lon="5.53338">
        <ele>1624.852467092</ele>
        <time>2015-12-14T12:19:59Z</time>
      </trkpt>
      <trkpt lat="45.21149" lon="5.53338">
        <ele>1624.852467092</ele>
        <time>2015-12-14T12:20:04Z</time>
      </trkpt>
      <trkpt lat="45.21149" lon="5.53338">
        <ele>1624.852467092</ele>
        <time>2015-12-14T12:20:36Z</time>
      </trkpt>
      <trkpt lat="45.21149" lon="5.53338">
        <ele>1624.852467092</ele>
        <time>2015-12-14T12:20:37Z</time>
      </trkpt>
      <trkpt lat="45.21149" lon="5.53338">
        <ele>1624.852467092</ele>
        <time>2015-12-14T12:21:04Z</time>
      </trkpt>
      <trkpt lat="45.21149" lon="5.53338">
        <ele>1624.852467092</ele>
        <time>2015-12-14T12:21:32Z</time>
      </trkpt>
      <trkpt lat="45.21149" lon="5.53338">
        <ele>1624.852467092</ele>
        <time>2015-12-14T12:21:46Z</time>
      </trkpt>
      <trkpt lat="45.21149" lon="5.53338">
        <ele>1624.852467092</ele>
        <time>2015-12-14T12:22:00Z</time>
      </trkpt>
      <trkpt lat="45.21149" lon="5.53338">
        <ele>1624.852467092</ele>
        <time>2015-12-14T12:22:14Z</time>
      </trkpt>
      <trkpt lat="45.21149" lon="5.53338">
        <ele>1624.852467092</ele>
        <time>2015-12-14T12:22:19Z</time>
      </trkpt>
      <trkpt lat="45.21149" lon="5.53338">
        <ele>1624.852467092</ele>
        <time>2015-12-14T12:22:29Z</time>
      </trkpt>
      <trkpt lat="45.21149" lon="5.53338">
        <ele>1624.852467092</ele>
        <time>2015-12-14T12:22:34Z</time>
      </trkpt>
      <trkpt lat="45.21149" lon="5.53338">
        <ele>1624.852467092</ele>
        <time>2015-12-14T12:22:44Z</time>
      </trkpt>
      <trkpt lat="45.21149" lon="5.53338">
        <ele>1624.852467092</ele>
        <time>2015-12-14T12:22:49Z</time>
      </trkpt>
      <trkpt lat="45.21149" lon="5.53338">
        <ele>1624.852467092</ele>
        <time>2015-12-14T12:23:08Z</time>
      </trkpt>
      <trkpt lat="45.21149" lon="5.53338">
        <ele>1624.852467092</ele>
        <time>2015-12-14T12:23:19Z</time>
      </trkpt>
      <trkpt lat="45.21149" lon="5.53338">
        <ele>1624.852467092</ele>
        <time>2015-12-14T12:23:24Z</time>
      </trkpt>
      <trkpt lat="45.21149" lon="5.53338">
        <ele>1624.852467092</ele>
        <time>2015-12-14T12:23:34Z</time>
      </trkpt>
      <trkpt lat="45.21149" lon="5.53338">
        <ele>1624.852467092</ele>
        <time>2015-12-14T12:23:39Z</time>
      </trkpt>
      <trkpt lat="45.21149" lon="5.53338">
        <ele>1624.852467092</ele>
        <time>2015-12-14T12:23:49Z</time>
      </trkpt>
      <trkpt lat="45.21149" lon="5.53338">
        <ele>1624.852467092</ele>
        <time>2015-12-14T12:23:54Z</time>
      </trkpt>
      <trkpt lat="45.21149" lon="5.53338">
        <ele>1624.852467092</ele>
        <time>2015-12-14T12:24:04Z</time>
      </trkpt>
      <trkpt lat="45.21149" lon="5.53338">
        <ele>1624.852467092</ele>
        <time>2015-12-14T12:24:09Z</time>
      </trkpt>
      <trkpt lat="45.21149" lon="5.53338">
        <ele>1624.852467092</ele>
        <time>2015-12-14T12:24:19Z</time>
      </trkpt>
      <trkpt lat="45.21149" lon="5.53338">
        <ele>1624.852467092</ele>
        <time>2015-12-14T12:24:27Z</time>
      </trkpt>
      <trkpt lat="45.21149" lon="5.53338">
        <ele>1624.852467092</ele>
        <time>2015-12-14T12:25:24Z</time>
      </trkpt>
      <trkpt lat="45.21149" lon="5.53338">
        <ele>1624.852467092</ele>
        <time>2015-12-14T12:25:25Z</time>
      </trkpt>
      <trkpt lat="45.21149" lon="5.53338">
        <ele>1624.852467092</ele>
        <time>2015-12-14T12:25:27Z</time>
      </trkpt>
      <trkpt lat="45.21149" lon="5.53337">
        <ele>1625.302298687</ele>
        <time>2015-12-14T12:26:02Z</time>
      </trkpt>
      <trkpt lat="45.21151" lon="5.53339">
        <ele>1625.302298687</ele>
        <time>2015-12-14T12:26:04Z</time>
      </trkpt>
      <trkpt lat="45.21152" lon="5.53342">
        <ele>1625.302298687</ele>
        <time>2015-12-14T12:26:20Z</time>
      </trkpt>
      <trkpt lat="45.21152" lon="5.53342">
        <ele>1625.302298687</ele>
        <time>2015-12-14T12:26:24Z</time>
      </trkpt>
      <trkpt lat="45.21152" lon="5.53342">
        <ele>1625.302298687</ele>
        <time>2015-12-14T12:26:29Z</time>
      </trkpt>
      <trkpt lat="45.21152" lon="5.53342">
        <ele>1625.302298687</ele>
        <time>2015-12-14T12:26:34Z</time>
      </trkpt>
      <trkpt lat="45.21152" lon="5.53341">
        <ele>1625.302298687</ele>
        <time>2015-12-14T12:26:49Z</time>
      </trkpt>
      <trkpt lat="45.21152" lon="5.53341">
        <ele>1625.302298687</ele>
        <time>2015-12-14T12:26:54Z</time>
      </trkpt>
      <trkpt lat="45.21152" lon="5.53341">
        <ele>1625.302298687</ele>
        <time>2015-12-14T12:27:06Z</time>
      </trkpt>
      <trkpt lat="45.21152" lon="5.53341">
        <ele>1625.302298687</ele>
        <time>2015-12-14T12:27:10Z</time>
      </trkpt>
      <trkpt lat="45.21152" lon="5.53341">
        <ele>1625.302298687</ele>
        <time>2015-12-14T12:27:20Z</time>
      </trkpt>
      <trkpt lat="45.21152" lon="5.53341">
        <ele>1625.302298687</ele>
        <time>2015-12-14T12:27:34Z</time>
      </trkpt>
      <trkpt lat="45.21152" lon="5.5334">
        <ele>1625.302298687</ele>
        <time>2015-12-14T12:27:40Z</time>
      </trkpt>
      <trkpt lat="45.21152" lon="5.53339">
        <ele>1625.302298687</ele>
        <time>2015-12-14T12:27:49Z</time>
      </trkpt>
      <trkpt lat="45.21152" lon="5.53339">
        <ele>1625.302298687</ele>
        <time>2015-12-14T12:27:54Z</time>
      </trkpt>
      <trkpt lat="45.21152" lon="5.53339">
        <ele>1625.302298687</ele>
        <time>2015-12-14T12:28:04Z</time>
      </trkpt>
      <trkpt lat="45.21152" lon="5.53339">
        <ele>1625.302298687</ele>
        <time>2015-12-14T12:28:09Z</time>
      </trkpt>
      <trkpt lat="45.21152" lon="5.53339">
        <ele>1625.302298687</ele>
        <time>2015-12-14T12:28:19Z</time>
      </trkpt>
      <trkpt lat="45.21151" lon="5.53339">
        <ele>1625.302298687</ele>
        <time>2015-12-14T12:28:24Z</time>
      </trkpt>
      <trkpt lat="45.21152" lon="5.53339">
        <ele>1625.302298687</ele>
        <time>2015-12-14T12:28:39Z</time>
      </trkpt>
      <trkpt lat="45.21152" lon="5.53339">
        <ele>1625.302298687</ele>
        <time>2015-12-14T12:28:44Z</time>
      </trkpt>
      <trkpt lat="45.21152" lon="5.53339">
        <ele>1625.302298687</ele>
        <time>2015-12-14T12:28:54Z</time>
      </trkpt>
      <trkpt lat="45.21152" lon="5.53339">
        <ele>1625.302298687</ele>
        <time>2015-12-14T12:28:59Z</time>
      </trkpt>
      <trkpt lat="45.21151" lon="5.5334">
        <ele>1625.439501616</ele>
        <time>2015-12-14T12:29:09Z</time>
      </trkpt>
      <trkpt lat="45.21152" lon="5.5334">
        <ele>1625.439501616</ele>
        <time>2015-12-14T12:29:14Z</time>
      </trkpt>
      <trkpt lat="45.21152" lon="5.5334">
        <ele>1625.439501616</ele>
        <time>2015-12-14T12:29:24Z</time>
      </trkpt>
      <trkpt lat="45.21152" lon="5.5334">
        <ele>1625.439501616</ele>
        <time>2015-12-14T12:29:29Z</time>
      </trkpt>
      <trkpt lat="45.21149" lon="5.53338">
        <ele>1625.439501616</ele>
        <time>2015-12-14T12:29:39Z</time>
      </trkpt>
      <trkpt lat="45.21149" lon="5.53338">
        <ele>1625.439501616</ele>
        <time>2015-12-14T12:29:44Z</time>
      </trkpt>
      <trkpt lat="45.2115" lon="5.53338">
        <ele>1625.439501616</ele>
        <time>2015-12-14T12:29:54Z</time>
      </trkpt>
      <trkpt lat="45.21149" lon="5.53338">
        <ele>1625.439501616</ele>
        <time>2015-12-14T12:29:59Z</time>
      </trkpt>
      <trkpt lat="45.21151" lon="5.53339">
        <ele>1625.439501616</ele>
        <time>2015-12-14T12:30:09Z</time>
      </trkpt>
      <trkpt lat="45.21151" lon="5.53339">
        <ele>1625.439501616</ele>
        <time>2015-12-14T12:30:14Z</time>
      </trkpt>
      <trkpt lat="45.21151" lon="5.53339">
        <ele>1625.439501616</ele>
        <time>2015-12-14T12:30:24Z</time>
      </trkpt>
      <trkpt lat="45.21151" lon="5.53339">
        <ele>1625.439501616</ele>
        <time>2015-12-14T12:30:29Z</time>
      </trkpt>
      <trkpt lat="45.2115" lon="5.53339">
        <ele>1625.439501616</ele>
        <time>2015-12-14T12:30:44Z</time>
      </trkpt>
      <trkpt lat="45.2115" lon="5.53339">
        <ele>1625.439501616</ele>
        <time>2015-12-14T12:30:49Z</time>
      </trkpt>
      <trkpt lat="45.2115" lon="5.53339">
        <ele>1625.439501616</ele>
        <time>2015-12-14T12:30:59Z</time>
      </trkpt>
      <trkpt lat="45.2115" lon="5.53339">
        <ele>1625.439501616</ele>
        <time>2015-12-14T12:31:04Z</time>
      </trkpt>
      <trkpt lat="45.2115" lon="5.53339">
        <ele>1625.439501616</ele>
        <time>2015-12-14T12:31:14Z</time>
      </trkpt>
      <trkpt lat="45.2115" lon="5.53339">
        <ele>1625.439501616</ele>
        <time>2015-12-14T12:31:19Z</time>
      </trkpt>
      <trkpt lat="45.2115" lon="5.53339">
        <ele>1625.439501616</ele>
        <time>2015-12-14T12:31:29Z</time>
      </trkpt>
      <trkpt lat="45.2115" lon="5.53339">
        <ele>1625.439501616</ele>
        <time>2015-12-14T12:31:34Z</time>
      </trkpt>
      <trkpt lat="45.2115" lon="5.53339">
        <ele>1625.439501616</ele>
        <time>2015-12-14T12:31:44Z</time>
      </trkpt>
      <trkpt lat="45.2115" lon="5.53339">
        <ele>1625.439501616</ele>
        <time>2015-12-14T12:31:49Z</time>
      </trkpt>
      <trkpt lat="45.2115" lon="5.53339">
        <ele>1625.439501616</ele>
        <time>2015-12-14T12:31:59Z</time>
      </trkpt>
      <trkpt lat="45.2115" lon="5.53339">
        <ele>1625.439501616</ele>
        <time>2015-12-14T12:32:04Z</time>
      </trkpt>
      <trkpt lat="45.2115" lon="5.53339">
        <ele>1625.439501616</ele>
        <time>2015-12-14T12:32:14Z</time>
      </trkpt>
      <trkpt lat="45.2115" lon="5.53339">
        <ele>1625.439501616</ele>
        <time>2015-12-14T12:32:19Z</time>
      </trkpt>
      <trkpt lat="45.2115" lon="5.53339">
        <ele>1625.439501616</ele>
        <time>2015-12-14T12:32:29Z</time>
      </trkpt>
      <trkpt lat="45.2115" lon="5.53339">
        <ele>1625.439501616</ele>
        <time>2015-12-14T12:32:34Z</time>
      </trkpt>
      <trkpt lat="45.21151" lon="5.53337">
        <ele>1625.439501616</ele>
        <time>2015-12-14T12:32:44Z</time>
      </trkpt>
      <trkpt lat="45.21151" lon="5.53339">
        <ele>1626.589082493</ele>
        <time>2015-12-14T12:32:49Z</time>
      </trkpt>
      <trkpt lat="45.21152" lon="5.53338">
        <ele>1626.589082493</ele>
        <time>2015-12-14T12:32:59Z</time>
      </trkpt>
      <trkpt lat="45.21152" lon="5.53338">
        <ele>1626.589082493</ele>
        <time>2015-12-14T12:33:04Z</time>
      </trkpt>
      <trkpt lat="45.21151" lon="5.53339">
        <ele>1626.589082493</ele>
        <time>2015-12-14T12:33:14Z</time>
      </trkpt>
      <trkpt lat="45.2115" lon="5.53339">
        <ele>1626.589082493</ele>
        <time>2015-12-14T12:33:19Z</time>
      </trkpt>
      <trkpt lat="45.2115" lon="5.53339">
        <ele>1626.589082493</ele>
        <time>2015-12-14T12:33:34Z</time>
      </trkpt>
      <trkpt lat="45.2115" lon="5.53339">
        <ele>1626.589082493</ele>
        <time>2015-12-14T12:33:39Z</time>
      </trkpt>
      <trkpt lat="45.21149" lon="5.53339">
        <ele>1626.589082493</ele>
        <time>2015-12-14T12:33:50Z</time>
      </trkpt>
      <trkpt lat="45.21149" lon="5.53339">
        <ele>1626.589082493</ele>
        <time>2015-12-14T12:33:55Z</time>
      </trkpt>
      <trkpt lat="45.21149" lon="5.53339">
        <ele>1626.589082493</ele>
        <time>2015-12-14T12:34:05Z</time>
      </trkpt>
      <trkpt lat="45.21149" lon="5.53339">
        <ele>1626.589082493</ele>
        <time>2015-12-14T12:34:09Z</time>
      </trkpt>
      <trkpt lat="45.21151" lon="5.53341">
        <ele>1626.589082493</ele>
        <time>2015-12-14T12:34:19Z</time>
      </trkpt>
      <trkpt lat="45.21151" lon="5.53341">
        <ele>1626.589082493</ele>
        <time>2015-12-14T12:34:24Z</time>
      </trkpt>
      <trkpt lat="45.21152" lon="5.53341">
        <ele>1626.589082493</ele>
        <time>2015-12-14T12:34:34Z</time>
      </trkpt>
      <trkpt lat="45.2115" lon="5.53341">
        <ele>1626.589082493</ele>
        <time>2015-12-14T12:34:39Z</time>
      </trkpt>
      <trkpt lat="45.2115" lon="5.5334">
        <ele>1626.589082493</ele>
        <time>2015-12-14T12:34:54Z</time>
      </trkpt>
      <trkpt lat="45.2115" lon="5.5334">
        <ele>1626.589082493</ele>
        <time>2015-12-14T12:34:59Z</time>
      </trkpt>
      <trkpt lat="45.2115" lon="5.5334">
        <ele>1626.589082493</ele>
        <time>2015-12-14T12:35:09Z</time>
      </trkpt>
      <trkpt lat="45.21149" lon="5.5334">
        <ele>1626.589082493</ele>
        <time>2015-12-14T12:35:14Z</time>
      </trkpt>
      <trkpt lat="45.21149" lon="5.5334">
        <ele>1627.093634719</ele>
        <time>2015-12-14T12:35:24Z</time>
      </trkpt>
      <trkpt lat="45.21149" lon="5.5334">
        <ele>1627.093634719</ele>
        <time>2015-12-14T12:35:29Z</time>
      </trkpt>
      <trkpt lat="45.2115" lon="5.5334">
        <ele>1627.093634719</ele>
        <time>2015-12-14T12:35:39Z</time>
      </trkpt>
      <trkpt lat="45.21149" lon="5.53339">
        <ele>1627.093634719</ele>
        <time>2015-12-14T12:35:44Z</time>
      </trkpt>
      <trkpt lat="45.21148" lon="5.53339">
        <ele>1627.093634719</ele>
        <time>2015-12-14T12:35:54Z</time>
      </trkpt>
      <trkpt lat="45.21148" lon="5.53339">
        <ele>1627.093634719</ele>
        <time>2015-12-14T12:35:59Z</time>
      </trkpt>
      <trkpt lat="45.21148" lon="5.53339">
        <ele>1627.093634719</ele>
        <time>2015-12-14T12:36:10Z</time>
      </trkpt>
      <trkpt lat="45.21148" lon="5.53339">
        <ele>1627.093634719</ele>
        <time>2015-12-14T12:36:14Z</time>
      </trkpt>
      <trkpt lat="45.21148" lon="5.53339">
        <ele>1627.093634719</ele>
        <time>2015-12-14T12:36:26Z</time>
      </trkpt>
      <trkpt lat="45.21148" lon="5.53339">
        <ele>1627.093634719</ele>
        <time>2015-12-14T12:36:29Z</time>
      </trkpt>
      <trkpt lat="45.21148" lon="5.53339">
        <ele>1627.093634719</ele>
        <time>2015-12-14T12:36:40Z</time>
      </trkpt>
      <trkpt lat="45.21146" lon="5.53337">
        <ele>1627.093634719</ele>
        <time>2015-12-14T12:36:44Z</time>
      </trkpt>
      <trkpt lat="45.21145" lon="5.53336">
        <ele>1627.093634719</ele>
        <time>2015-12-14T12:36:55Z</time>
      </trkpt>
      <trkpt lat="45.21146" lon="5.53336">
        <ele>1627.093634719</ele>
        <time>2015-12-14T12:37:00Z</time>
      </trkpt>
      <trkpt lat="45.21146" lon="5.53336">
        <ele>1627.093634719</ele>
        <time>2015-12-14T12:37:15Z</time>
      </trkpt>
      <trkpt lat="45.21146" lon="5.53336">
        <ele>1627.093634719</ele>
        <time>2015-12-14T12:37:24Z</time>
      </trkpt>
      <trkpt lat="45.21146" lon="5.53336">
        <ele>1627.093634719</ele>
        <time>2015-12-14T12:37:29Z</time>
      </trkpt>
      <trkpt lat="45.21146" lon="5.53336">
        <ele>1627.093634719</ele>
        <time>2015-12-14T12:37:34Z</time>
      </trkpt>
      <trkpt lat="45.21146" lon="5.53337">
        <ele>1627.093634719</ele>
        <time>2015-12-14T12:37:44Z</time>
      </trkpt>
      <trkpt lat="45.21146" lon="5.53337">
        <ele>1627.093634719</ele>
        <time>2015-12-14T12:37:49Z</time>
      </trkpt>
      <trkpt lat="45.21149" lon="5.53339">
        <ele>1626.860397664</ele>
        <time>2015-12-14T12:37:59Z</time>
      </trkpt>
      <trkpt lat="45.21149" lon="5.53339">
        <ele>1626.860397664</ele>
        <time>2015-12-14T12:38:04Z</time>
      </trkpt>
      <trkpt lat="45.21149" lon="5.5334">
        <ele>1626.860397664</ele>
        <time>2015-12-14T12:38:14Z</time>
      </trkpt>
      <trkpt lat="45.21147" lon="5.53338">
        <ele>1626.860397664</ele>
        <time>2015-12-14T12:38:19Z</time>
      </trkpt>
      <trkpt lat="45.21147" lon="5.53339">
        <ele>1626.860397664</ele>
        <time>2015-12-14T12:38:29Z</time>
      </trkpt>
      <trkpt lat="45.21147" lon="5.53339">
        <ele>1626.860397664</ele>
        <time>2015-12-14T12:38:34Z</time>
      </trkpt>
      <trkpt lat="45.21147" lon="5.53339">
        <ele>1626.860397664</ele>
        <time>2015-12-14T12:38:44Z</time>
      </trkpt>
      <trkpt lat="45.21147" lon="5.5334">
        <ele>1626.860397664</ele>
        <time>2015-12-14T12:38:49Z</time>
      </trkpt>
      <trkpt lat="45.21145" lon="5.5334">
        <ele>1626.860397664</ele>
        <time>2015-12-14T12:39:04Z</time>
      </trkpt>
      <trkpt lat="45.21145" lon="5.5334">
        <ele>1626.860397664</ele>
        <time>2015-12-14T12:39:09Z</time>
      </trkpt>
      <trkpt lat="45.21145" lon="5.5334">
        <ele>1626.860397664</ele>
        <time>2015-12-14T12:39:19Z</time>
      </trkpt>
      <trkpt lat="45.21145" lon="5.5334">
        <ele>1626.860397664</ele>
        <time>2015-12-14T12:39:24Z</time>
      </trkpt>
      <trkpt lat="45.21145" lon="5.5334">
        <ele>1626.860397664</ele>
        <time>2015-12-14T12:39:34Z</time>
      </trkpt>
      <trkpt lat="45.21145" lon="5.5334">
        <ele>1626.860397664</ele>
        <time>2015-12-14T12:39:39Z</time>
      </trkpt>
      <trkpt lat="45.21145" lon="5.5334">
        <ele>1626.860397664</ele>
        <time>2015-12-14T12:39:49Z</time>
      </trkpt>
      <trkpt lat="45.21146" lon="5.5334">
        <ele>1626.860397664</ele>
        <time>2015-12-14T12:39:54Z</time>
      </trkpt>
      <trkpt lat="45.21146" lon="5.5334">
        <ele>1626.860397664</ele>
        <time>2015-12-14T12:40:04Z</time>
      </trkpt>
      <trkpt lat="45.21146" lon="5.5334">
        <ele>1626.860397664</ele>
        <time>2015-12-14T12:40:09Z</time>
      </trkpt>
      <trkpt lat="45.21146" lon="5.5334">
        <ele>1626.860397664</ele>
        <time>2015-12-14T12:40:14Z</time>
      </trkpt>
      <trkpt lat="45.21146" lon="5.5334">
        <ele>1626.860397664</ele>
        <time>2015-12-14T12:40:29Z</time>
      </trkpt>
      <trkpt lat="45.21146" lon="5.5334">
        <ele>1626.860397664</ele>
        <time>2015-12-14T12:40:34Z</time>
      </trkpt>
      <trkpt lat="45.21146" lon="5.5334">
        <ele>1626.860397664</ele>
        <time>2015-12-14T12:40:44Z</time>
      </trkpt>
      <trkpt lat="45.21146" lon="5.5334">
        <ele>1626.860397664</ele>
        <time>2015-12-14T12:40:49Z</time>
      </trkpt>
      <trkpt lat="45.21146" lon="5.5334">
        <ele>1626.860397664</ele>
        <time>2015-12-14T12:40:59Z</time>
      </trkpt>
      <trkpt lat="45.21146" lon="5.5334">
        <ele>1626.860397664</ele>
        <time>2015-12-14T12:41:04Z</time>
      </trkpt>
      <trkpt lat="45.21146" lon="5.5334">
        <ele>1626.860397664</ele>
        <time>2015-12-14T12:41:09Z</time>
      </trkpt>
      <trkpt lat="45.21146" lon="5.5334">
        <ele>1626.860397664</ele>
        <time>2015-12-14T12:41:14Z</time>
      </trkpt>
      <trkpt lat="45.21146" lon="5.5334">
        <ele>1626.860397664</ele>
        <time>2015-12-14T12:41:24Z</time>
      </trkpt>
      <trkpt lat="45.21144" lon="5.53338">
        <ele>1626.860397664</ele>
        <time>2015-12-14T12:41:29Z</time>
      </trkpt>
      <trkpt lat="45.21146" lon="5.53337">
        <ele>1627.102457161</ele>
        <time>2015-12-14T12:41:39Z</time>
      </trkpt>
      <trkpt lat="45.21146" lon="5.53337">
        <ele>1627.102457161</ele>
        <time>2015-12-14T12:41:44Z</time>
      </trkpt>
      <trkpt lat="45.21144" lon="5.53337">
        <ele>1627.102457161</ele>
        <time>2015-12-14T12:41:54Z</time>
      </trkpt>
      <trkpt lat="45.21144" lon="5.53337">
        <ele>1627.102457161</ele>
        <time>2015-12-14T12:41:59Z</time>
      </trkpt>
      <trkpt lat="45.21143" lon="5.53337">
        <ele>1627.102457161</ele>
        <time>2015-12-14T12:42:09Z</time>
      </trkpt>
      <trkpt lat="45.21143" lon="5.53337">
        <ele>1627.102457161</ele>
        <time>2015-12-14T12:42:14Z</time>
      </trkpt>
      <trkpt lat="45.21142" lon="5.53336">
        <ele>1627.102457161</ele>
        <time>2015-12-14T12:42:24Z</time>
      </trkpt>
      <trkpt lat="45.21141" lon="5.53336">
        <ele>1627.102457161</ele>
        <time>2015-12-14T12:42:29Z</time>
      </trkpt>
      <trkpt lat="45.21137" lon="5.53329">
        <ele>1626.636624885</ele>
        <time>2015-12-14T12:42:40Z</time>
      </trkpt>
      <trkpt lat="45.21134" lon="5.53326">
        <ele>1626.636624885</ele>
        <time>2015-12-14T12:42:45Z</time>
      </trkpt>
      <trkpt lat="45.21134" lon="5.53323">
        <ele>1626.636624885</ele>
        <time>2015-12-14T12:42:54Z</time>
      </trkpt>
      <trkpt lat="45.21134" lon="5.53323">
        <ele>1626.636624885</ele>
        <time>2015-12-14T12:42:59Z</time>
      </trkpt>
      <trkpt lat="45.21136" lon="5.53322">
        <ele>1626.636624885</ele>
        <time>2015-12-14T12:43:09Z</time>
      </trkpt>
      <trkpt lat="45.21136" lon="5.53322">
        <ele>1626.636624885</ele>
        <time>2015-12-14T12:43:14Z</time>
      </trkpt>
      <trkpt lat="45.21139" lon="5.53317">
        <ele>1624.800883259</ele>
        <time>2015-12-14T12:43:24Z</time>
      </trkpt>
      <trkpt lat="45.21139" lon="5.53317">
        <ele>1624.800883259</ele>
        <time>2015-12-14T12:43:29Z</time>
      </trkpt>
      <trkpt lat="45.21131" lon="5.53312">
        <ele>1624.800883259</ele>
        <time>2015-12-14T12:43:44Z</time>
      </trkpt>
      <trkpt lat="45.21131" lon="5.53312">
        <ele>1623.291386119</ele>
        <time>2015-12-14T12:43:49Z</time>
      </trkpt>
      <trkpt lat="45.2113" lon="5.53313">
        <ele>1623.291386119</ele>
        <time>2015-12-14T12:43:59Z</time>
      </trkpt>
      <trkpt lat="45.21131" lon="5.53313">
        <ele>1623.291386119</ele>
        <time>2015-12-14T12:44:14Z</time>
      </trkpt>
      <trkpt lat="45.21131" lon="5.53313">
        <ele>1623.291386119</ele>
        <time>2015-12-14T12:44:19Z</time>
      </trkpt>
      <trkpt lat="45.21131" lon="5.53313">
        <ele>1623.291386119</ele>
        <time>2015-12-14T12:44:29Z</time>
      </trkpt>
      <trkpt lat="45.21126" lon="5.5331">
        <ele>1623.291386119</ele>
        <time>2015-12-14T12:44:34Z</time>
      </trkpt>
      <trkpt lat="45.21121" lon="5.53306">
        <ele>1620.364114278</ele>
        <time>2015-12-14T12:44:44Z</time>
      </trkpt>
      <trkpt lat="45.21118" lon="5.53306">
        <ele>1620.364114278</ele>
        <time>2015-12-14T12:44:49Z</time>
      </trkpt>
      <trkpt lat="45.21112" lon="5.53304">
        <ele>1617.433348555</ele>
        <time>2015-12-14T12:44:59Z</time>
      </trkpt>
      <trkpt lat="45.21111" lon="5.53306">
        <ele>1617.433348555</ele>
        <time>2015-12-14T12:45:04Z</time>
      </trkpt>
      <trkpt lat="45.21109" lon="5.53304">
        <ele>1617.433348555</ele>
        <time>2015-12-14T12:45:14Z</time>
      </trkpt>
      <trkpt lat="45.21104" lon="5.533">
        <ele>1614.368223244</ele>
        <time>2015-12-14T12:45:19Z</time>
      </trkpt>
      <trkpt lat="45.21098" lon="5.533">
        <ele>1614.368223244</ele>
        <time>2015-12-14T12:45:29Z</time>
      </trkpt>
      <trkpt lat="45.21092" lon="5.53299">
        <ele>1610.183015341</ele>
        <time>2015-12-14T12:45:34Z</time>
      </trkpt>
      <trkpt lat="45.21082" lon="5.53293">
        <ele>1605.840789866</ele>
        <time>2015-12-14T12:45:49Z</time>
      </trkpt>
      <trkpt lat="45.21077" lon="5.53293">
        <ele>1605.840789866</ele>
        <time>2015-12-14T12:45:54Z</time>
      </trkpt>
      <trkpt lat="45.21067" lon="5.53291">
        <ele>1601.657622491</ele>
        <time>2015-12-14T12:46:04Z</time>
      </trkpt>
      <trkpt lat="45.21063" lon="5.53291">
        <ele>1601.657622491</ele>
        <time>2015-12-14T12:46:09Z</time>
      </trkpt>
      <trkpt lat="45.21053" lon="5.53288">
        <ele>1597.92565714</ele>
        <time>2015-12-14T12:46:19Z</time>
      </trkpt>
      <trkpt lat="45.21049" lon="5.53282">
        <ele>1597.92565714</ele>
        <time>2015-12-14T12:46:24Z</time>
      </trkpt>
      <trkpt lat="45.21042" lon="5.53283">
        <ele>1594.337574221</ele>
        <time>2015-12-14T12:46:34Z</time>
      </trkpt>
      <trkpt lat="45.21041" lon="5.53284">
        <ele>1594.337574221</ele>
        <time>2015-12-14T12:46:39Z</time>
      </trkpt>
      <trkpt lat="45.21041" lon="5.53282">
        <ele>1594.337574221</ele>
        <time>2015-12-14T12:46:50Z</time>
      </trkpt>
      <trkpt lat="45.21041" lon="5.53282">
        <ele>1594.337574221</ele>
        <time>2015-12-14T12:46:54Z</time>
      </trkpt>
      <trkpt lat="45.21041" lon="5.53282">
        <ele>1594.337574221</ele>
        <time>2015-12-14T12:47:04Z</time>
      </trkpt>
      <trkpt lat="45.21041" lon="5.53282">
        <ele>1594.337574221</ele>
        <time>2015-12-14T12:47:10Z</time>
      </trkpt>
      <trkpt lat="45.21034" lon="5.5327">
        <ele>1590.031466239</ele>
        <time>2015-12-14T12:47:21Z</time>
      </trkpt>
      <trkpt lat="45.21028" lon="5.53265">
        <ele>1590.031466239</ele>
        <time>2015-12-14T12:47:24Z</time>
      </trkpt>
      <trkpt lat="45.21032" lon="5.53254">
        <ele>1586.948534742</ele>
        <time>2015-12-14T12:47:35Z</time>
      </trkpt>
      <trkpt lat="45.21033" lon="5.53256">
        <ele>1586.948534742</ele>
        <time>2015-12-14T12:47:39Z</time>
      </trkpt>
      <trkpt lat="45.21036" lon="5.53252">
        <ele>1586.948534742</ele>
        <time>2015-12-14T12:47:50Z</time>
      </trkpt>
      <trkpt lat="45.21038" lon="5.53248">
        <ele>1583.857269179</ele>
        <time>2015-12-14T12:47:55Z</time>
      </trkpt>
      <trkpt lat="45.21045" lon="5.53246">
        <ele>1583.857269179</ele>
        <time>2015-12-14T12:48:11Z</time>
      </trkpt>
      <trkpt lat="45.21048" lon="5.53242">
        <ele>1580.480957512</ele>
        <time>2015-12-14T12:48:14Z</time>
      </trkpt>
      <trkpt lat="45.21047" lon="5.53242">
        <ele>1580.480957512</ele>
        <time>2015-12-14T12:48:24Z</time>
      </trkpt>
      <trkpt lat="45.21047" lon="5.53242">
        <ele>1580.480957512</ele>
        <time>2015-12-14T12:48:29Z</time>
      </trkpt>
      <trkpt lat="45.2106" lon="5.53248">
        <ele>1577.284204481</ele>
        <time>2015-12-14T12:48:39Z</time>
      </trkpt>
      <trkpt lat="45.21062" lon="5.53246">
        <ele>1577.284204481</ele>
        <time>2015-12-14T12:48:44Z</time>
      </trkpt>
      <trkpt lat="45.21065" lon="5.53247">
        <ele>1577.284204481</ele>
        <time>2015-12-14T12:48:54Z</time>
      </trkpt>
      <trkpt lat="45.21069" lon="5.53246">
        <ele>1574.408389072</ele>
        <time>2015-12-14T12:48:59Z</time>
      </trkpt>
      <trkpt lat="45.21073" lon="5.53247">
        <ele>1574.408389072</ele>
        <time>2015-12-14T12:49:09Z</time>
      </trkpt>
      <trkpt lat="45.21078" lon="5.53246">
        <ele>1574.408389072</ele>
        <time>2015-12-14T12:49:14Z</time>
      </trkpt>
      <trkpt lat="45.21082" lon="5.53243">
        <ele>1570.830341009</ele>
        <time>2015-12-14T12:49:24Z</time>
      </trkpt>
      <trkpt lat="45.21086" lon="5.53245">
        <ele>1570.830341009</ele>
        <time>2015-12-14T12:49:29Z</time>
      </trkpt>
      <trkpt lat="45.21089" lon="5.53243">
        <ele>1570.830341009</ele>
        <time>2015-12-14T12:49:39Z</time>
      </trkpt>
      <trkpt lat="45.21093" lon="5.53242">
        <ele>1567.188867448</ele>
        <time>2015-12-14T12:49:44Z</time>
      </trkpt>
      <trkpt lat="45.21099" lon="5.53243">
        <ele>1567.188867448</ele>
        <time>2015-12-14T12:49:54Z</time>
      </trkpt>
      <trkpt lat="45.21102" lon="5.53245">
        <ele>1563.643314733</ele>
        <time>2015-12-14T12:49:59Z</time>
      </trkpt>
      <trkpt lat="45.21107" lon="5.53242">
        <ele>1563.643314733</ele>
        <time>2015-12-14T12:50:14Z</time>
      </trkpt>
      <trkpt lat="45.21113" lon="5.53242">
        <ele>1560.340674557</ele>
        <time>2015-12-14T12:50:25Z</time>
      </trkpt>
      <trkpt lat="45.21114" lon="5.53243">
        <ele>1560.340674557</ele>
        <time>2015-12-14T12:50:29Z</time>
      </trkpt>
      <trkpt lat="45.21115" lon="5.53243">
        <ele>1560.340674557</ele>
        <time>2015-12-14T12:50:34Z</time>
      </trkpt>
      <trkpt lat="45.21117" lon="5.53243">
        <ele>1560.340674557</ele>
        <time>2015-12-14T12:50:44Z</time>
      </trkpt>
      <trkpt lat="45.21117" lon="5.53242">
        <ele>1560.340674557</ele>
        <time>2015-12-14T12:50:49Z</time>
      </trkpt>
      <trkpt lat="45.21117" lon="5.53242">
        <ele>1560.340674557</ele>
        <time>2015-12-14T12:50:59Z</time>
      </trkpt>
      <trkpt lat="45.21117" lon="5.53241">
        <ele>1560.340674557</ele>
        <time>2015-12-14T12:51:04Z</time>
      </trkpt>
      <trkpt lat="45.21124" lon="5.53237">
        <ele>1556.983745034</ele>
        <time>2015-12-14T12:51:14Z</time>
      </trkpt>
      <trkpt lat="45.21128" lon="5.53239">
        <ele>1556.983745034</ele>
        <time>2015-12-14T12:51:19Z</time>
      </trkpt>
      <trkpt lat="45.2113" lon="5.53236">
        <ele>1556.983745034</ele>
        <time>2015-12-14T12:51:29Z</time>
      </trkpt>
      <trkpt lat="45.2113" lon="5.53234">
        <ele>1556.983745034</ele>
        <time>2015-12-14T12:51:34Z</time>
      </trkpt>
      <trkpt lat="45.21134" lon="5.53232">
        <ele>1553.152817242</ele>
        <time>2015-12-14T12:51:44Z</time>
      </trkpt>
      <trkpt lat="45.21135" lon="5.53235">
        <ele>1553.152817242</ele>
        <time>2015-12-14T12:51:49Z</time>
      </trkpt>
      <trkpt lat="45.21137" lon="5.53239">
        <ele>1553.152817242</ele>
        <time>2015-12-14T12:51:59Z</time>
      </trkpt>
      <trkpt lat="45.21137" lon="5.53239">
        <ele>1553.152817242</ele>
        <time>2015-12-14T12:52:04Z</time>
      </trkpt>
      <trkpt lat="45.21139" lon="5.53239">
        <ele>1553.152817242</ele>
        <time>2015-12-14T12:52:14Z</time>
      </trkpt>
      <trkpt lat="45.21142" lon="5.53239">
        <ele>1548.748185687</ele>
        <time>2015-12-14T12:52:19Z</time>
      </trkpt>
      <trkpt lat="45.21146" lon="5.53236">
        <ele>1548.748185687</ele>
        <time>2015-12-14T12:52:29Z</time>
      </trkpt>
      <trkpt lat="45.21146" lon="5.53236">
        <ele>1548.748185687</ele>
        <time>2015-12-14T12:52:34Z</time>
      </trkpt>
      <trkpt lat="45.21153" lon="5.53231">
        <ele>1544.831588473</ele>
        <time>2015-12-14T12:52:49Z</time>
      </trkpt>
      <trkpt lat="45.21156" lon="5.5323">
        <ele>1544.831588473</ele>
        <time>2015-12-14T12:52:54Z</time>
      </trkpt>
      <trkpt lat="45.21163" lon="5.53227">
        <ele>1540.943909173</ele>
        <time>2015-12-14T12:53:04Z</time>
      </trkpt>
      <trkpt lat="45.21164" lon="5.53228">
        <ele>1540.943909173</ele>
        <time>2015-12-14T12:53:09Z</time>
      </trkpt>
      <trkpt lat="45.2117" lon="5.53227">
        <ele>1540.943909173</ele>
        <time>2015-12-14T12:53:19Z</time>
      </trkpt>
      <trkpt lat="45.21174" lon="5.53227">
        <ele>1537.235743212</ele>
        <time>2015-12-14T12:53:24Z</time>
      </trkpt>
      <trkpt lat="45.21181" lon="5.53225">
        <ele>1537.235743212</ele>
        <time>2015-12-14T12:53:34Z</time>
      </trkpt>
      <trkpt lat="45.21183" lon="5.53222">
        <ele>1533.557521954</ele>
        <time>2015-12-14T12:53:39Z</time>
      </trkpt>
      <trkpt lat="45.21188" lon="5.53222">
        <ele>1533.557521954</ele>
        <time>2015-12-14T12:53:49Z</time>
      </trkpt>
      <trkpt lat="45.21191" lon="5.5322">
        <ele>1533.557521954</ele>
        <time>2015-12-14T12:53:54Z</time>
      </trkpt>
      <trkpt lat="45.21197" lon="5.53213">
        <ele>1529.337874747</ele>
        <time>2015-12-14T12:54:04Z</time>
      </trkpt>
      <trkpt lat="45.21202" lon="5.53212">
        <ele>1529.337874747</ele>
        <time>2015-12-14T12:54:09Z</time>
      </trkpt>
      <trkpt lat="45.21208" lon="5.53211">
        <ele>1525.633778667</ele>
        <time>2015-12-14T12:54:19Z</time>
      </trkpt>
      <trkpt lat="45.21208" lon="5.53213">
        <ele>1525.633778667</ele>
        <time>2015-12-14T12:54:24Z</time>
      </trkpt>
      <trkpt lat="45.2121" lon="5.53214">
        <ele>1525.633778667</ele>
        <time>2015-12-14T12:54:34Z</time>
      </trkpt>
      <trkpt lat="45.21211" lon="5.53212">
        <ele>1525.633778667</ele>
        <time>2015-12-14T12:54:39Z</time>
      </trkpt>
      <trkpt lat="45.21211" lon="5.53213">
        <ele>1525.633778667</ele>
        <time>2015-12-14T12:54:54Z</time>
      </trkpt>
      <trkpt lat="45.21214" lon="5.53213">
        <ele>1525.633778667</ele>
        <time>2015-12-14T12:54:59Z</time>
      </trkpt>
      <trkpt lat="45.21218" lon="5.53215">
        <ele>1520.828755984</ele>
        <time>2015-12-14T12:55:09Z</time>
      </trkpt>
      <trkpt lat="45.21217" lon="5.53213">
        <ele>1520.828755984</ele>
        <time>2015-12-14T12:55:14Z</time>
      </trkpt>
      <trkpt lat="45.21217" lon="5.53213">
        <ele>1520.828755984</ele>
        <time>2015-12-14T12:55:24Z</time>
      </trkpt>
      <trkpt lat="45.21219" lon="5.53214">
        <ele>1520.828755984</ele>
        <time>2015-12-14T12:55:29Z</time>
      </trkpt>
      <trkpt lat="45.21232" lon="5.53211">
        <ele>1516.310027345</ele>
        <time>2015-12-14T12:55:40Z</time>
      </trkpt>
      <trkpt lat="45.21236" lon="5.53207">
        <ele>1516.310027345</ele>
        <time>2015-12-14T12:55:44Z</time>
      </trkpt>
      <trkpt lat="45.21244" lon="5.53195">
        <ele>1511.48830423</ele>
        <time>2015-12-14T12:55:55Z</time>
      </trkpt>
      <trkpt lat="45.21248" lon="5.53189">
        <ele>1511.48830423</ele>
        <time>2015-12-14T12:55:59Z</time>
      </trkpt>
      <trkpt lat="45.21252" lon="5.53188">
        <ele>1506.970972308</ele>
        <time>2015-12-14T12:56:09Z</time>
      </trkpt>
      <trkpt lat="45.21253" lon="5.53188">
        <ele>1506.970972308</ele>
        <time>2015-12-14T12:56:15Z</time>
      </trkpt>
      <trkpt lat="45.21259" lon="5.53186">
        <ele>1506.970972308</ele>
        <time>2015-12-14T12:56:25Z</time>
      </trkpt>
      <trkpt lat="45.21263" lon="5.53187">
        <ele>1502.599037926</ele>
        <time>2015-12-14T12:56:29Z</time>
      </trkpt>
      <trkpt lat="45.21267" lon="5.53186">
        <ele>1502.599037926</ele>
        <time>2015-12-14T12:56:34Z</time>
      </trkpt>
      <trkpt lat="45.21275" lon="5.53179">
        <ele>1497.792097487</ele>
        <time>2015-12-14T12:56:44Z</time>
      </trkpt>
      <trkpt lat="45.21279" lon="5.53177">
        <ele>1497.792097487</ele>
        <time>2015-12-14T12:56:49Z</time>
      </trkpt>
      <trkpt lat="45.21286" lon="5.53178">
        <ele>1493.454372127</ele>
        <time>2015-12-14T12:56:59Z</time>
      </trkpt>
      <trkpt lat="45.21286" lon="5.53178">
        <ele>1493.454372127</ele>
        <time>2015-12-14T12:57:04Z</time>
      </trkpt>
      <trkpt lat="45.2129" lon="5.53176">
        <ele>1493.454372127</ele>
        <time>2015-12-14T12:57:09Z</time>
      </trkpt>
      <trkpt lat="45.21292" lon="5.53176">
        <ele>1493.454372127</ele>
        <time>2015-12-14T12:57:14Z</time>
      </trkpt>
      <trkpt lat="45.21306" lon="5.53169">
        <ele>1488.836782355</ele>
        <time>2015-12-14T12:57:30Z</time>
      </trkpt>
      <trkpt lat="45.2131" lon="5.53171">
        <ele>1488.836782355</ele>
        <time>2015-12-14T12:57:34Z</time>
      </trkpt>
      <trkpt lat="45.21318" lon="5.53173">
        <ele>1483.101615594</ele>
        <time>2015-12-14T12:57:45Z</time>
      </trkpt>
      <trkpt lat="45.21324" lon="5.53172">
        <ele>1483.101615594</ele>
        <time>2015-12-14T12:57:50Z</time>
      </trkpt>
      <trkpt lat="45.21332" lon="5.53171">
        <ele>1477.781280667</ele>
        <time>2015-12-14T12:57:59Z</time>
      </trkpt>
      <trkpt lat="45.21334" lon="5.53168">
        <ele>1477.781280667</ele>
        <time>2015-12-14T12:58:04Z</time>
      </trkpt>
      <trkpt lat="45.21338" lon="5.53164">
        <ele>1477.781280667</ele>
        <time>2015-12-14T12:58:14Z</time>
      </trkpt>
      <trkpt lat="45.21341" lon="5.53155">
        <ele>1472.997125731</ele>
        <time>2015-12-14T12:58:20Z</time>
      </trkpt>
      <trkpt lat="45.21344" lon="5.53152">
        <ele>1472.997125731</ele>
        <time>2015-12-14T12:58:30Z</time>
      </trkpt>
      <trkpt lat="45.21344" lon="5.53152">
        <ele>1472.997125731</ele>
        <time>2015-12-14T12:58:34Z</time>
      </trkpt>
      <trkpt lat="45.21344" lon="5.53148">
        <ele>1472.997125731</ele>
        <time>2015-12-14T12:58:44Z</time>
      </trkpt>
      <trkpt lat="45.21345" lon="5.53146">
        <ele>1472.997125731</ele>
        <time>2015-12-14T12:58:49Z</time>
      </trkpt>
      <trkpt lat="45.21345" lon="5.53145">
        <ele>1472.997125731</ele>
        <time>2015-12-14T12:59:04Z</time>
      </trkpt>
      <trkpt lat="45.21345" lon="5.53145">
        <ele>1472.997125731</ele>
        <time>2015-12-14T12:59:09Z</time>
      </trkpt>
      <trkpt lat="45.21345" lon="5.53145">
        <ele>1472.997125731</ele>
        <time>2015-12-14T12:59:19Z</time>
      </trkpt>
      <trkpt lat="45.21345" lon="5.53145">
        <ele>1472.997125731</ele>
        <time>2015-12-14T12:59:24Z</time>
      </trkpt>
      <trkpt lat="45.21345" lon="5.53144">
        <ele>1475.056549451</ele>
        <time>2015-12-14T12:59:34Z</time>
      </trkpt>
      <trkpt lat="45.21345" lon="5.5314">
        <ele>1475.056549451</ele>
        <time>2015-12-14T12:59:39Z</time>
      </trkpt>
      <trkpt lat="45.21345" lon="5.5314">
        <ele>1475.056549451</ele>
        <time>2015-12-14T12:59:49Z</time>
      </trkpt>
      <trkpt lat="45.21345" lon="5.5314">
        <ele>1475.056549451</ele>
        <time>2015-12-14T12:59:54Z</time>
      </trkpt>
      <trkpt lat="45.21344" lon="5.53142">
        <ele>1475.056549451</ele>
        <time>2015-12-14T12:59:59Z</time>
      </trkpt>
      <trkpt lat="45.21344" lon="5.53143">
        <ele>1475.056549451</ele>
        <time>2015-12-14T13:00:04Z</time>
      </trkpt>
      <trkpt lat="45.21344" lon="5.53145">
        <ele>1475.056549451</ele>
        <time>2015-12-14T13:00:09Z</time>
      </trkpt>
      <trkpt lat="45.21343" lon="5.53139">
        <ele>1470.761442687</ele>
        <time>2015-12-14T13:00:14Z</time>
      </trkpt>
      <trkpt lat="45.21344" lon="5.53135">
        <ele>1470.761442687</ele>
        <time>2015-12-14T13:00:24Z</time>
      </trkpt>
      <trkpt lat="45.21344" lon="5.53135">
        <ele>1470.761442687</ele>
        <time>2015-12-14T13:00:29Z</time>
      </trkpt>
      <trkpt lat="45.21349" lon="5.53135">
        <ele>1470.761442687</ele>
        <time>2015-12-14T13:00:44Z</time>
      </trkpt>
      <trkpt lat="45.21354" lon="5.53136">
        <ele>1467.644002686</ele>
        <time>2015-12-14T13:00:49Z</time>
      </trkpt>
      <trkpt lat="45.21361" lon="5.53144">
        <ele>1465.618116507</ele>
        <time>2015-12-14T13:00:59Z</time>
      </trkpt>
      <trkpt lat="45.21363" lon="5.5315">
        <ele>1465.618116507</ele>
        <time>2015-12-14T13:01:04Z</time>
      </trkpt>
      <trkpt lat="45.21362" lon="5.53152">
        <ele>1465.618116507</ele>
        <time>2015-12-14T13:01:14Z</time>
      </trkpt>
      <trkpt lat="45.21363" lon="5.53152">
        <ele>1465.618116507</ele>
        <time>2015-12-14T13:01:20Z</time>
      </trkpt>
      <trkpt lat="45.21362" lon="5.53153">
        <ele>1465.618116507</ele>
        <time>2015-12-14T13:01:29Z</time>
      </trkpt>
      <trkpt lat="45.21362" lon="5.53153">
        <ele>1465.618116507</ele>
        <time>2015-12-14T13:01:34Z</time>
      </trkpt>
      <trkpt lat="45.21363" lon="5.53153">
        <ele>1465.618116507</ele>
        <time>2015-12-14T13:01:44Z</time>
      </trkpt>
      <trkpt lat="45.21363" lon="5.53153">
        <ele>1465.618116507</ele>
        <time>2015-12-14T13:01:49Z</time>
      </trkpt>
      <trkpt lat="45.21363" lon="5.53153">
        <ele>1464.600713888</ele>
        <time>2015-12-14T13:01:59Z</time>
      </trkpt>
      <trkpt lat="45.21363" lon="5.53153">
        <ele>1464.600713888</ele>
        <time>2015-12-14T13:02:04Z</time>
      </trkpt>
      <trkpt lat="45.21366" lon="5.53152">
        <ele>1464.600713888</ele>
        <time>2015-12-14T13:02:14Z</time>
      </trkpt>
      <trkpt lat="45.21365" lon="5.53151">
        <ele>1464.600713888</ele>
        <time>2015-12-14T13:02:20Z</time>
      </trkpt>
      <trkpt lat="45.21364" lon="5.53152">
        <ele>1464.600713888</ele>
        <time>2015-12-14T13:02:30Z</time>
      </trkpt>
      <trkpt lat="45.21364" lon="5.53152">
        <ele>1464.600713888</ele>
        <time>2015-12-14T13:02:35Z</time>
      </trkpt>
      <trkpt lat="45.21364" lon="5.53151">
        <ele>1464.600713888</ele>
        <time>2015-12-14T13:02:45Z</time>
      </trkpt>
      <trkpt lat="45.21367" lon="5.53155">
        <ele>1462.061907726</ele>
        <time>2015-12-14T13:02:49Z</time>
      </trkpt>
      <trkpt lat="45.21367" lon="5.53153">
        <ele>1462.061907726</ele>
        <time>2015-12-14T13:02:54Z</time>
      </trkpt>
      <trkpt lat="45.21364" lon="5.53154">
        <ele>1462.061907726</ele>
        <time>2015-12-14T13:03:04Z</time>
      </trkpt>
      <trkpt lat="45.21361" lon="5.53155">
        <ele>1462.061907726</ele>
        <time>2015-12-14T13:03:09Z</time>
      </trkpt>
      <trkpt lat="45.21363" lon="5.53146">
        <ele>1459.840970711</ele>
        <time>2015-12-14T13:03:19Z</time>
      </trkpt>
      <trkpt lat="45.21363" lon="5.53146">
        <ele>1459.840970711</ele>
        <time>2015-12-14T13:03:24Z</time>
      </trkpt>
      <trkpt lat="45.21365" lon="5.53146">
        <ele>1459.840970711</ele>
        <time>2015-12-14T13:03:34Z</time>
      </trkpt>
      <trkpt lat="45.21364" lon="5.53148">
        <ele>1459.840970711</ele>
        <time>2015-12-14T13:03:39Z</time>
      </trkpt>
      <trkpt lat="45.21366" lon="5.53146">
        <ele>1459.840970711</ele>
        <time>2015-12-14T13:03:49Z</time>
      </trkpt>
      <trkpt lat="45.21368" lon="5.53146">
        <ele>1459.840970711</ele>
        <time>2015-12-14T13:03:54Z</time>
      </trkpt>
      <trkpt lat="45.21376" lon="5.5314">
        <ele>1457.767574624</ele>
        <time>2015-12-14T13:04:04Z</time>
      </trkpt>
      <trkpt lat="45.2138" lon="5.53138">
        <ele>1457.767574624</ele>
        <time>2015-12-14T13:04:09Z</time>
      </trkpt>
      <trkpt lat="45.21386" lon="5.53129">
        <ele>1456.548027641</ele>
        <time>2015-12-14T13:04:19Z</time>
      </trkpt>
      <trkpt lat="45.21387" lon="5.53128">
        <ele>1456.548027641</ele>
        <time>2015-12-14T13:04:25Z</time>
      </trkpt>
      <trkpt lat="45.21386" lon="5.53124">
        <ele>1456.548027641</ele>
        <time>2015-12-14T13:04:35Z</time>
      </trkpt>
      <trkpt lat="45.21386" lon="5.53124">
        <ele>1456.548027641</ele>
        <time>2015-12-14T13:04:40Z</time>
      </trkpt>
      <trkpt lat="45.21395" lon="5.53127">
        <ele>1455.393139037</ele>
        <time>2015-12-14T13:04:49Z</time>
      </trkpt>
      <trkpt lat="45.21398" lon="5.5313">
        <ele>1455.393139037</ele>
        <time>2015-12-14T13:04:54Z</time>
      </trkpt>
      <trkpt lat="45.21407" lon="5.53125">
        <ele>1453.427313834</ele>
        <time>2015-12-14T13:05:05Z</time>
      </trkpt>
      <trkpt lat="45.2141" lon="5.53124">
        <ele>1453.427313834</ele>
        <time>2015-12-14T13:05:09Z</time>
      </trkpt>
      <trkpt lat="45.21418" lon="5.5312">
        <ele>1451.282600155</ele>
        <time>2015-12-14T13:05:20Z</time>
      </trkpt>
      <trkpt lat="45.2142" lon="5.53121">
        <ele>1451.282600155</ele>
        <time>2015-12-14T13:05:24Z</time>
      </trkpt>
      <trkpt lat="45.21428" lon="5.53115">
        <ele>1448.824516496</ele>
        <time>2015-12-14T13:05:35Z</time>
      </trkpt>
      <trkpt lat="45.21432" lon="5.53112">
        <ele>1448.824516496</ele>
        <time>2015-12-14T13:05:40Z</time>
      </trkpt>
      <trkpt lat="45.21442" lon="5.5311">
        <ele>1445.785196314</ele>
        <time>2015-12-14T13:05:50Z</time>
      </trkpt>
      <trkpt lat="45.21447" lon="5.53109">
        <ele>1445.785196314</ele>
        <time>2015-12-14T13:05:54Z</time>
      </trkpt>
      <trkpt lat="45.21456" lon="5.53104">
        <ele>1442.926837497</ele>
        <time>2015-12-14T13:06:05Z</time>
      </trkpt>
      <trkpt lat="45.21459" lon="5.53102">
        <ele>1442.926837497</ele>
        <time>2015-12-14T13:06:09Z</time>
      </trkpt>
      <trkpt lat="45.21465" lon="5.53098">
        <ele>1440.522793146</ele>
        <time>2015-12-14T13:06:19Z</time>
      </trkpt>
      <trkpt lat="45.21467" lon="5.53095">
        <ele>1440.522793146</ele>
        <time>2015-12-14T13:06:25Z</time>
      </trkpt>
      <trkpt lat="45.21473" lon="5.53088">
        <ele>1438.248611394</ele>
        <time>2015-12-14T13:06:35Z</time>
      </trkpt>
      <trkpt lat="45.21475" lon="5.53084">
        <ele>1438.248611394</ele>
        <time>2015-12-14T13:06:39Z</time>
      </trkpt>
      <trkpt lat="45.21478" lon="5.53086">
        <ele>1438.248611394</ele>
        <time>2015-12-14T13:06:49Z</time>
      </trkpt>
      <trkpt lat="45.21477" lon="5.53086">
        <ele>1438.248611394</ele>
        <time>2015-12-14T13:06:54Z</time>
      </trkpt>
      <trkpt lat="45.21478" lon="5.53086">
        <ele>1438.248611394</ele>
        <time>2015-12-14T13:07:04Z</time>
      </trkpt>
      <trkpt lat="45.21478" lon="5.53086">
        <ele>1438.248611394</ele>
        <time>2015-12-14T13:07:10Z</time>
      </trkpt>
      <trkpt lat="45.21478" lon="5.53086">
        <ele>1438.248611394</ele>
        <time>2015-12-14T13:07:24Z</time>
      </trkpt>
      <trkpt lat="45.21478" lon="5.53086">
        <ele>1438.248611394</ele>
        <time>2015-12-14T13:07:29Z</time>
      </trkpt>
      <trkpt lat="45.21488" lon="5.53084">
        <ele>1435.803312046</ele>
        <time>2015-12-14T13:07:39Z</time>
      </trkpt>
      <trkpt lat="45.2149" lon="5.53084">
        <ele>1435.803312046</ele>
        <time>2015-12-14T13:07:44Z</time>
      </trkpt>
      <trkpt lat="45.21496" lon="5.53073">
        <ele>1434.061405274</ele>
        <time>2015-12-14T13:07:54Z</time>
      </trkpt>
      <trkpt lat="45.21501" lon="5.5307">
        <ele>1434.061405274</ele>
        <time>2015-12-14T13:07:59Z</time>
      </trkpt>
      <trkpt lat="45.21509" lon="5.53062">
        <ele>1432.53420803</ele>
        <time>2015-12-14T13:08:09Z</time>
      </trkpt>
      <trkpt lat="45.21511" lon="5.53058">
        <ele>1432.53420803</ele>
        <time>2015-12-14T13:08:14Z</time>
      </trkpt>
      <trkpt lat="45.21518" lon="5.5305">
        <ele>1430.62425404</ele>
        <time>2015-12-14T13:08:25Z</time>
      </trkpt>
      <trkpt lat="45.21522" lon="5.53047">
        <ele>1430.62425404</ele>
        <time>2015-12-14T13:08:29Z</time>
      </trkpt>
      <trkpt lat="45.21527" lon="5.53034">
        <ele>1428.499638254</ele>
        <time>2015-12-14T13:08:40Z</time>
      </trkpt>
      <trkpt lat="45.21529" lon="5.5303">
        <ele>1428.499638254</ele>
        <time>2015-12-14T13:08:44Z</time>
      </trkpt>
      <trkpt lat="45.21536" lon="5.53019">
        <ele>1426.460872717</ele>
        <time>2015-12-14T13:08:54Z</time>
      </trkpt>
      <trkpt lat="45.21539" lon="5.53018">
        <ele>1426.460872717</ele>
        <time>2015-12-14T13:08:59Z</time>
      </trkpt>
      <trkpt lat="45.21542" lon="5.53012">
        <ele>1426.460872717</ele>
        <time>2015-12-14T13:09:14Z</time>
      </trkpt>
      <trkpt lat="45.21542" lon="5.53011">
        <ele>1426.460872717</ele>
        <time>2015-12-14T13:09:25Z</time>
      </trkpt>
      <trkpt lat="45.21542" lon="5.53009">
        <ele>1424.353879554</ele>
        <time>2015-12-14T13:09:29Z</time>
      </trkpt>
      <trkpt lat="45.21543" lon="5.53012">
        <ele>1424.353879554</ele>
        <time>2015-12-14T13:09:45Z</time>
      </trkpt>
      <trkpt lat="45.21544" lon="5.53013">
        <ele>1424.353879554</ele>
        <time>2015-12-14T13:09:49Z</time>
      </trkpt>
      <trkpt lat="45.21554" lon="5.53014">
        <ele>1422.468490806</ele>
        <time>2015-12-14T13:10:00Z</time>
      </trkpt>
      <trkpt lat="45.21559" lon="5.5301">
        <ele>1422.468490806</ele>
        <time>2015-12-14T13:10:04Z</time>
      </trkpt>
      <trkpt lat="45.21563" lon="5.53013">
        <ele>1420.640365115</ele>
        <time>2015-12-14T13:10:14Z</time>
      </trkpt>
      <trkpt lat="45.21567" lon="5.53015">
        <ele>1420.640365115</ele>
        <time>2015-12-14T13:10:19Z</time>
      </trkpt>
      <trkpt lat="45.2157" lon="5.5302">
        <ele>1420.640365115</ele>
        <time>2015-12-14T13:10:29Z</time>
      </trkpt>
      <trkpt lat="45.21572" lon="5.53023">
        <ele>1418.428928511</ele>
        <time>2015-12-14T13:10:34Z</time>
      </trkpt>
      <trkpt lat="45.21581" lon="5.53026">
        <ele>1416.724130532</ele>
        <time>2015-12-14T13:10:44Z</time>
      </trkpt>
      <trkpt lat="45.21584" lon="5.53025">
        <ele>1416.724130532</ele>
        <time>2015-12-14T13:10:50Z</time>
      </trkpt>
      <trkpt lat="45.21594" lon="5.53025">
        <ele>1415.196323772</ele>
        <time>2015-12-14T13:10:59Z</time>
      </trkpt>
      <trkpt lat="45.21599" lon="5.53025">
        <ele>1415.196323772</ele>
        <time>2015-12-14T13:11:04Z</time>
      </trkpt>
      <trkpt lat="45.216" lon="5.5302">
        <ele>1415.196323772</ele>
        <time>2015-12-14T13:11:14Z</time>
      </trkpt>
      <trkpt lat="45.21605" lon="5.5302">
        <ele>1413.395562528</ele>
        <time>2015-12-14T13:11:19Z</time>
      </trkpt>
      <trkpt lat="45.21614" lon="5.53012">
        <ele>1411.914596646</ele>
        <time>2015-12-14T13:11:35Z</time>
      </trkpt>
      <trkpt lat="45.21618" lon="5.53019">
        <ele>1411.914596646</ele>
        <time>2015-12-14T13:11:45Z</time>
      </trkpt>
      <trkpt lat="45.21618" lon="5.53019">
        <ele>1411.914596646</ele>
        <time>2015-12-14T13:11:49Z</time>
      </trkpt>
      <trkpt lat="45.21618" lon="5.53019">
        <ele>1411.914596646</ele>
        <time>2015-12-14T13:11:54Z</time>
      </trkpt>
      <trkpt lat="45.21618" lon="5.5302">
        <ele>1411.914596646</ele>
        <time>2015-12-14T13:11:59Z</time>
      </trkpt>
      <trkpt lat="45.21618" lon="5.5302">
        <ele>1411.914596646</ele>
        <time>2015-12-14T13:12:04Z</time>
      </trkpt>
      <trkpt lat="45.21618" lon="5.5302">
        <ele>1411.914596646</ele>
        <time>2015-12-14T13:12:09Z</time>
      </trkpt>
      <trkpt lat="45.21621" lon="5.53022">
        <ele>1409.860727512</ele>
        <time>2015-12-14T13:12:14Z</time>
      </trkpt>
      <trkpt lat="45.21621" lon="5.53023">
        <ele>1409.860727512</ele>
        <time>2015-12-14T13:12:25Z</time>
      </trkpt>
      <trkpt lat="45.2162" lon="5.53023">
        <ele>1409.860727512</ele>
        <time>2015-12-14T13:12:29Z</time>
      </trkpt>
      <trkpt lat="45.21621" lon="5.53012">
        <ele>1409.860727512</ele>
        <time>2015-12-14T13:12:39Z</time>
      </trkpt>
      <trkpt lat="45.21623" lon="5.53005">
        <ele>1408.281993545</ele>
        <time>2015-12-14T13:12:44Z</time>
      </trkpt>
      <trkpt lat="45.21623" lon="5.52994">
        <ele>1408.281993545</ele>
        <time>2015-12-14T13:12:54Z</time>
      </trkpt>
      <trkpt lat="45.21626" lon="5.52986">
        <ele>1406.418888378</ele>
        <time>2015-12-14T13:12:59Z</time>
      </trkpt>
      <trkpt lat="45.21629" lon="5.5297">
        <ele>1405.297944099</ele>
        <time>2015-12-14T13:13:10Z</time>
      </trkpt>
      <trkpt lat="45.21628" lon="5.52963">
        <ele>1405.297944099</ele>
        <time>2015-12-14T13:13:14Z</time>
      </trkpt>
      <trkpt lat="45.21628" lon="5.52942">
        <ele>1404.283096953</ele>
        <time>2015-12-14T13:13:30Z</time>
      </trkpt>
      <trkpt lat="45.21624" lon="5.5292">
        <ele>1403.217165949</ele>
        <time>2015-12-14T13:13:44Z</time>
      </trkpt>
      <trkpt lat="45.21623" lon="5.52916">
        <ele>1403.217165949</ele>
        <time>2015-12-14T13:13:49Z</time>
      </trkpt>
      <trkpt lat="45.2162" lon="5.5291">
        <ele>1403.217165949</ele>
        <time>2015-12-14T13:13:59Z</time>
      </trkpt>
      <trkpt lat="45.21616" lon="5.52906">
        <ele>1402.675343735</ele>
        <time>2015-12-14T13:14:04Z</time>
      </trkpt>
      <trkpt lat="45.21607" lon="5.52898">
        <ele>1402.468679219</ele>
        <time>2015-12-14T13:14:14Z</time>
      </trkpt>
      <trkpt lat="45.216" lon="5.52896">
        <ele>1402.468679219</ele>
        <time>2015-12-14T13:14:19Z</time>
      </trkpt>
      <trkpt lat="45.21591" lon="5.52891">
        <ele>1402.277194052</ele>
        <time>2015-12-14T13:14:29Z</time>
      </trkpt>
      <trkpt lat="45.21587" lon="5.52891">
        <ele>1402.277194052</ele>
        <time>2015-12-14T13:14:34Z</time>
      </trkpt>
      <trkpt lat="45.21578" lon="5.52885">
        <ele>1401.516302125</ele>
        <time>2015-12-14T13:14:44Z</time>
      </trkpt>
      <trkpt lat="45.2157" lon="5.5288">
        <ele>1401.516302125</ele>
        <time>2015-12-14T13:14:49Z</time>
      </trkpt>
      <trkpt lat="45.21564" lon="5.5287">
        <ele>1400.943118026</ele>
        <time>2015-12-14T13:15:00Z</time>
      </trkpt>
      <trkpt lat="45.2156" lon="5.52865">
        <ele>1400.943118026</ele>
        <time>2015-12-14T13:15:05Z</time>
      </trkpt>
      <trkpt lat="45.2155" lon="5.52866">
        <ele>1400.682334196</ele>
        <time>2015-12-14T13:15:19Z</time>
      </trkpt>
      <trkpt lat="45.21549" lon="5.52866">
        <ele>1400.682334196</ele>
        <time>2015-12-14T13:15:24Z</time>
      </trkpt>
      <trkpt lat="45.21539" lon="5.52862">
        <ele>1399.839999443</ele>
        <time>2015-12-14T13:15:34Z</time>
      </trkpt>
      <trkpt lat="45.21536" lon="5.52859">
        <ele>1399.839999443</ele>
        <time>2015-12-14T13:15:39Z</time>
      </trkpt>
      <trkpt lat="45.21531" lon="5.52849">
        <ele>1398.742525812</ele>
        <time>2015-12-14T13:15:49Z</time>
      </trkpt>
      <trkpt lat="45.21526" lon="5.52845">
        <ele>1398.742525812</ele>
        <time>2015-12-14T13:15:54Z</time>
      </trkpt>
      <trkpt lat="45.2152" lon="5.52836">
        <ele>1397.693237719</ele>
        <time>2015-12-14T13:16:05Z</time>
      </trkpt>
      <trkpt lat="45.21516" lon="5.52831">
        <ele>1397.693237719</ele>
        <time>2015-12-14T13:16:09Z</time>
      </trkpt>
      <trkpt lat="45.21516" lon="5.52824">
        <ele>1396.396771439</ele>
        <time>2015-12-14T13:16:14Z</time>
      </trkpt>
      <trkpt lat="45.21511" lon="5.5281">
        <ele>1395.444992303</ele>
        <time>2015-12-14T13:16:25Z</time>
      </trkpt>
      <trkpt lat="45.21508" lon="5.52804">
        <ele>1395.444992303</ele>
        <time>2015-12-14T13:16:29Z</time>
      </trkpt>
      <trkpt lat="45.21504" lon="5.52794">
        <ele>1394.376710687</ele>
        <time>2015-12-14T13:16:36Z</time>
      </trkpt>
      <trkpt lat="45.21502" lon="5.52789">
        <ele>1394.376710687</ele>
        <time>2015-12-14T13:16:39Z</time>
      </trkpt>
      <trkpt lat="45.215" lon="5.52782">
        <ele>1393.629775</ele>
        <time>2015-12-14T13:16:44Z</time>
      </trkpt>
      <trkpt lat="45.21493" lon="5.52763">
        <ele>1393.176798097</ele>
        <time>2015-12-14T13:16:57Z</time>
      </trkpt>
      <trkpt lat="45.21492" lon="5.5276">
        <ele>1393.176798097</ele>
        <time>2015-12-14T13:16:59Z</time>
      </trkpt>
      <trkpt lat="45.21484" lon="5.52741">
        <ele>1392.415297301</ele>
        <time>2015-12-14T13:17:14Z</time>
      </trkpt>
      <trkpt lat="45.21473" lon="5.52723">
        <ele>1391.508629694</ele>
        <time>2015-12-14T13:17:30Z</time>
      </trkpt>
      <trkpt lat="45.2147" lon="5.52717">
        <ele>1391.508629694</ele>
        <time>2015-12-14T13:17:34Z</time>
      </trkpt>
      <trkpt lat="45.21469" lon="5.52715">
        <ele>1391.508629694</ele>
        <time>2015-12-14T13:17:44Z</time>
      </trkpt>
      <trkpt lat="45.21467" lon="5.52712">
        <ele>1390.752829613</ele>
        <time>2015-12-14T13:17:49Z</time>
      </trkpt>
      <trkpt lat="45.21466" lon="5.52707">
        <ele>1390.752829613</ele>
        <time>2015-12-14T13:17:54Z</time>
      </trkpt>
      <trkpt lat="45.21464" lon="5.52706">
        <ele>1390.752829613</ele>
        <time>2015-12-14T13:17:59Z</time>
      </trkpt>
      <trkpt lat="45.21465" lon="5.52705">
        <ele>1390.752829613</ele>
        <time>2015-12-14T13:18:10Z</time>
      </trkpt>
      <trkpt lat="45.21464" lon="5.52705">
        <ele>1390.752829613</ele>
        <time>2015-12-14T13:18:15Z</time>
      </trkpt>
      <trkpt lat="45.21463" lon="5.52706">
        <ele>1390.752829613</ele>
        <time>2015-12-14T13:18:25Z</time>
      </trkpt>
      <trkpt lat="45.21462" lon="5.52705">
        <ele>1390.566030661</ele>
        <time>2015-12-14T13:18:30Z</time>
      </trkpt>
      <trkpt lat="45.21462" lon="5.52705">
        <ele>1390.566030661</ele>
        <time>2015-12-14T13:18:40Z</time>
      </trkpt>
      <trkpt lat="45.21463" lon="5.52703">
        <ele>1390.566030661</ele>
        <time>2015-12-14T13:18:44Z</time>
      </trkpt>
      <trkpt lat="45.21455" lon="5.52696">
        <ele>1389.893098544</ele>
        <time>2015-12-14T13:18:54Z</time>
      </trkpt>
      <trkpt lat="45.21451" lon="5.52693">
        <ele>1389.893098544</ele>
        <time>2015-12-14T13:19:00Z</time>
      </trkpt>
      <trkpt lat="45.21435" lon="5.52686">
        <ele>1389.19903802</ele>
        <time>2015-12-14T13:19:14Z</time>
      </trkpt>
      <trkpt lat="45.21418" lon="5.52677">
        <ele>1388.33846152</ele>
        <time>2015-12-14T13:19:29Z</time>
      </trkpt>
      <trkpt lat="45.21412" lon="5.52679">
        <ele>1388.33846152</ele>
        <time>2015-12-14T13:19:34Z</time>
      </trkpt>
      <trkpt lat="45.21402" lon="5.52678">
        <ele>1387.321388815</ele>
        <time>2015-12-14T13:19:44Z</time>
      </trkpt>
      <trkpt lat="45.21396" lon="5.52676">
        <ele>1387.321388815</ele>
        <time>2015-12-14T13:19:49Z</time>
      </trkpt>
      <trkpt lat="45.21388" lon="5.52677">
        <ele>1386.157686789</ele>
        <time>2015-12-14T13:19:59Z</time>
      </trkpt>
      <trkpt lat="45.21382" lon="5.5268">
        <ele>1386.157686789</ele>
        <time>2015-12-14T13:20:05Z</time>
      </trkpt>
      <trkpt lat="45.21372" lon="5.52677">
        <ele>1384.857046992</ele>
        <time>2015-12-14T13:20:15Z</time>
      </trkpt>
      <trkpt lat="45.21367" lon="5.52674">
        <ele>1384.857046992</ele>
        <time>2015-12-14T13:20:20Z</time>
      </trkpt>
      <trkpt lat="45.21362" lon="5.52668">
        <ele>1383.140741296</ele>
        <time>2015-12-14T13:20:30Z</time>
      </trkpt>
      <trkpt lat="45.21355" lon="5.52668">
        <ele>1383.140741296</ele>
        <time>2015-12-14T13:20:35Z</time>
      </trkpt>
      <trkpt lat="45.21348" lon="5.52666">
        <ele>1381.472360334</ele>
        <time>2015-12-14T13:20:45Z</time>
      </trkpt>
      <trkpt lat="45.21343" lon="5.52666">
        <ele>1381.472360334</ele>
        <time>2015-12-14T13:20:50Z</time>
      </trkpt>
      <trkpt lat="45.21336" lon="5.52655">
        <ele>1378.984415205</ele>
        <time>2015-12-14T13:21:00Z</time>
      </trkpt>
      <trkpt lat="45.21329" lon="5.52654">
        <ele>1378.984415205</ele>
        <time>2015-12-14T13:21:05Z</time>
      </trkpt>
      <trkpt lat="45.21318" lon="5.52649">
        <ele>1377.325430463</ele>
        <time>2015-12-14T13:21:14Z</time>
      </trkpt>
      <trkpt lat="45.21316" lon="5.52649">
        <ele>1377.325430463</ele>
        <time>2015-12-14T13:21:19Z</time>
      </trkpt>
      <trkpt lat="45.21302" lon="5.5265">
        <ele>1374.850146028</ele>
        <time>2015-12-14T13:21:35Z</time>
      </trkpt>
      <trkpt lat="45.21294" lon="5.52643">
        <ele>1372.630525872</ele>
        <time>2015-12-14T13:21:46Z</time>
      </trkpt>
      <trkpt lat="45.21292" lon="5.52638">
        <ele>1372.630525872</ele>
        <time>2015-12-14T13:21:49Z</time>
      </trkpt>
      <trkpt lat="45.21285" lon="5.5264">
        <ele>1370.794464897</ele>
        <time>2015-12-14T13:21:55Z</time>
      </trkpt>
      <trkpt lat="45.21281" lon="5.52634">
        <ele>1370.794464897</ele>
        <time>2015-12-14T13:22:05Z</time>
      </trkpt>
      <trkpt lat="45.21278" lon="5.52633">
        <ele>1368.306546463</ele>
        <time>2015-12-14T13:22:10Z</time>
      </trkpt>
      <trkpt lat="45.2127" lon="5.52633">
        <ele>1368.306546463</ele>
        <time>2015-12-14T13:22:20Z</time>
      </trkpt>
      <trkpt lat="45.21268" lon="5.52634">
        <ele>1365.794503328</ele>
        <time>2015-12-14T13:22:24Z</time>
      </trkpt>
      <trkpt lat="45.21257" lon="5.52639">
        <ele>1363.69593789</ele>
        <time>2015-12-14T13:22:35Z</time>
      </trkpt>
      <trkpt lat="45.21251" lon="5.52643">
        <ele>1363.69593789</ele>
        <time>2015-12-14T13:22:40Z</time>
      </trkpt>
      <trkpt lat="45.21242" lon="5.52649">
        <ele>1361.262272383</ele>
        <time>2015-12-14T13:22:50Z</time>
      </trkpt>
      <trkpt lat="45.21238" lon="5.52651">
        <ele>1361.262272383</ele>
        <time>2015-12-14T13:22:55Z</time>
      </trkpt>
      <trkpt lat="45.2123" lon="5.52645">
        <ele>1358.665530346</ele>
        <time>2015-12-14T13:23:05Z</time>
      </trkpt>
      <trkpt lat="45.21226" lon="5.52643">
        <ele>1358.665530346</ele>
        <time>2015-12-14T13:23:10Z</time>
      </trkpt>
      <trkpt lat="45.21214" lon="5.52637">
        <ele>1355.921438557</ele>
        <time>2015-12-14T13:23:20Z</time>
      </trkpt>
      <trkpt lat="45.21211" lon="5.52634">
        <ele>1355.921438557</ele>
        <time>2015-12-14T13:23:24Z</time>
      </trkpt>
      <trkpt lat="45.21205" lon="5.52625">
        <ele>1352.468519348</ele>
        <time>2015-12-14T13:23:35Z</time>
      </trkpt>
      <trkpt lat="45.21202" lon="5.52622">
        <ele>1352.468519348</ele>
        <time>2015-12-14T13:23:40Z</time>
      </trkpt>
      <trkpt lat="45.21189" lon="5.52611">
        <ele>1348.6531652</ele>
        <time>2015-12-14T13:23:55Z</time>
      </trkpt>
      <trkpt lat="45.21184" lon="5.52608">
        <ele>1348.6531652</ele>
        <time>2015-12-14T13:24:00Z</time>
      </trkpt>
      <trkpt lat="45.21176" lon="5.52603">
        <ele>1344.220848043</ele>
        <time>2015-12-14T13:24:10Z</time>
      </trkpt>
      <trkpt lat="45.21175" lon="5.52602">
        <ele>1344.220848043</ele>
        <time>2015-12-14T13:24:15Z</time>
      </trkpt>
      <trkpt lat="45.21163" lon="5.52596">
        <ele>1340.666739196</ele>
        <time>2015-12-14T13:24:25Z</time>
      </trkpt>
      <trkpt lat="45.21159" lon="5.52592">
        <ele>1340.666739196</ele>
        <time>2015-12-14T13:24:30Z</time>
      </trkpt>
      <trkpt lat="45.21147" lon="5.52586">
        <ele>1336.923742541</ele>
        <time>2015-12-14T13:24:40Z</time>
      </trkpt>
      <trkpt lat="45.21143" lon="5.52582">
        <ele>1336.923742541</ele>
        <time>2015-12-14T13:24:45Z</time>
      </trkpt>
      <trkpt lat="45.21137" lon="5.52578">
        <ele>1333.444697287</ele>
        <time>2015-12-14T13:24:54Z</time>
      </trkpt>
      <trkpt lat="45.21132" lon="5.52574">
        <ele>1333.444697287</ele>
        <time>2015-12-14T13:25:00Z</time>
      </trkpt>
      <trkpt lat="45.21131" lon="5.52571">
        <ele>1333.444697287</ele>
        <time>2015-12-14T13:25:09Z</time>
      </trkpt>
      <trkpt lat="45.21129" lon="5.52566">
        <ele>1329.207216817</ele>
        <time>2015-12-14T13:25:15Z</time>
      </trkpt>
      <trkpt lat="45.21127" lon="5.52564">
        <ele>1329.207216817</ele>
        <time>2015-12-14T13:25:19Z</time>
      </trkpt>
      <trkpt lat="45.2112" lon="5.52568">
        <ele>1326.29236227</ele>
        <time>2015-12-14T13:25:24Z</time>
      </trkpt>
      <trkpt lat="45.21116" lon="5.52565">
        <ele>1326.29236227</ele>
        <time>2015-12-14T13:25:29Z</time>
      </trkpt>
      <trkpt lat="45.21109" lon="5.52563">
        <ele>1324.030484446</ele>
        <time>2015-12-14T13:25:34Z</time>
      </trkpt>
      <trkpt lat="45.21098" lon="5.52562">
        <ele>1321.943276612</ele>
        <time>2015-12-14T13:25:45Z</time>
      </trkpt>
      <trkpt lat="45.21093" lon="5.52564">
        <ele>1321.943276612</ele>
        <time>2015-12-14T13:25:50Z</time>
      </trkpt>
      <trkpt lat="45.21083" lon="5.52568">
        <ele>1320.451617603</ele>
        <time>2015-12-14T13:25:59Z</time>
      </trkpt>
      <trkpt lat="45.21078" lon="5.52569">
        <ele>1320.451617603</ele>
        <time>2015-12-14T13:26:05Z</time>
      </trkpt>
      <trkpt lat="45.21068" lon="5.52566">
        <ele>1318.934898208</ele>
        <time>2015-12-14T13:26:15Z</time>
      </trkpt>
      <trkpt lat="45.21062" lon="5.52566">
        <ele>1318.934898208</ele>
        <time>2015-12-14T13:26:20Z</time>
      </trkpt>
      <trkpt lat="45.21053" lon="5.52567">
        <ele>1317.25038886</ele>
        <time>2015-12-14T13:26:30Z</time>
      </trkpt>
      <trkpt lat="45.21047" lon="5.52568">
        <ele>1317.25038886</ele>
        <time>2015-12-14T13:26:35Z</time>
      </trkpt>
      <trkpt lat="45.21036" lon="5.52572">
        <ele>1315.986767164</ele>
        <time>2015-12-14T13:26:45Z</time>
      </trkpt>
      <trkpt lat="45.21032" lon="5.52566">
        <ele>1315.986767164</ele>
        <time>2015-12-14T13:26:50Z</time>
      </trkpt>
      <trkpt lat="45.21014" lon="5.52566">
        <ele>1315.111748036</ele>
        <time>2015-12-14T13:27:05Z</time>
      </trkpt>
      <trkpt lat="45.21" lon="5.52564">
        <ele>1314.01780072</ele>
        <time>2015-12-14T13:27:20Z</time>
      </trkpt>
      <trkpt lat="45.20996" lon="5.52558">
        <ele>1314.01780072</ele>
        <time>2015-12-14T13:27:25Z</time>
      </trkpt>
      <trkpt lat="45.20987" lon="5.52558">
        <ele>1312.286676451</ele>
        <time>2015-12-14T13:27:35Z</time>
      </trkpt>
      <trkpt lat="45.2098" lon="5.52561">
        <ele>1312.286676451</ele>
        <time>2015-12-14T13:27:40Z</time>
      </trkpt>
      <trkpt lat="45.20969" lon="5.52563">
        <ele>1310.973688243</ele>
        <time>2015-12-14T13:27:50Z</time>
      </trkpt>
      <trkpt lat="45.20969" lon="5.52559">
        <ele>1310.973688243</ele>
        <time>2015-12-14T13:27:55Z</time>
      </trkpt>
      <trkpt lat="45.20969" lon="5.52556">
        <ele>1310.973688243</ele>
        <time>2015-12-14T13:28:05Z</time>
      </trkpt>
      <trkpt lat="45.20967" lon="5.52556">
        <ele>1310.973688243</ele>
        <time>2015-12-14T13:28:10Z</time>
      </trkpt>
      <trkpt lat="45.20959" lon="5.52558">
        <ele>1309.470177857</ele>
        <time>2015-12-14T13:28:20Z</time>
      </trkpt>
      <trkpt lat="45.20955" lon="5.52558">
        <ele>1309.470177857</ele>
        <time>2015-12-14T13:28:25Z</time>
      </trkpt>
      <trkpt lat="45.2095" lon="5.52558">
        <ele>1308.077355075</ele>
        <time>2015-12-14T13:28:35Z</time>
      </trkpt>
      <trkpt lat="45.20941" lon="5.52561">
        <ele>1308.077355075</ele>
        <time>2015-12-14T13:28:40Z</time>
      </trkpt>
      <trkpt lat="45.20929" lon="5.52559">
        <ele>1306.641620676</ele>
        <time>2015-12-14T13:28:50Z</time>
      </trkpt>
      <trkpt lat="45.20922" lon="5.52558">
        <ele>1306.641620676</ele>
        <time>2015-12-14T13:28:55Z</time>
      </trkpt>
      <trkpt lat="45.2091" lon="5.52559">
        <ele>1305.885415793</ele>
        <time>2015-12-14T13:29:05Z</time>
      </trkpt>
      <trkpt lat="45.20907" lon="5.52558">
        <ele>1305.885415793</ele>
        <time>2015-12-14T13:29:09Z</time>
      </trkpt>
      <trkpt lat="45.20897" lon="5.52557">
        <ele>1304.170402746</ele>
        <time>2015-12-14T13:29:20Z</time>
      </trkpt>
      <trkpt lat="45.20894" lon="5.52553">
        <ele>1304.170402746</ele>
        <time>2015-12-14T13:29:25Z</time>
      </trkpt>
      <trkpt lat="45.20881" lon="5.5255">
        <ele>1302.863491503</ele>
        <time>2015-12-14T13:29:35Z</time>
      </trkpt>
      <trkpt lat="45.20875" lon="5.52548">
        <ele>1302.863491503</ele>
        <time>2015-12-14T13:29:40Z</time>
      </trkpt>
      <trkpt lat="45.20866" lon="5.52547">
        <ele>1301.212467523</ele>
        <time>2015-12-14T13:29:50Z</time>
      </trkpt>
      <trkpt lat="45.20865" lon="5.52546">
        <ele>1301.212467523</ele>
        <time>2015-12-14T13:29:55Z</time>
      </trkpt>
      <trkpt lat="45.20861" lon="5.52545">
        <ele>1301.212467523</ele>
        <time>2015-12-14T13:29:59Z</time>
      </trkpt>
      <trkpt lat="45.20856" lon="5.52541">
        <ele>1298.953665142</ele>
        <time>2015-12-14T13:30:10Z</time>
      </trkpt>
      <trkpt lat="45.20855" lon="5.52543">
        <ele>1298.953665142</ele>
        <time>2015-12-14T13:30:15Z</time>
      </trkpt>
      <trkpt lat="45.20856" lon="5.5254">
        <ele>1298.953665142</ele>
        <time>2015-12-14T13:30:19Z</time>
      </trkpt>
      <trkpt lat="45.20855" lon="5.52541">
        <ele>1298.953665142</ele>
        <time>2015-12-14T13:30:24Z</time>
      </trkpt>
      <trkpt lat="45.20852" lon="5.52542">
        <ele>1298.953665142</ele>
        <time>2015-12-14T13:30:29Z</time>
      </trkpt>
      <trkpt lat="45.20849" lon="5.52543">
        <ele>1297.573822209</ele>
        <time>2015-12-14T13:30:34Z</time>
      </trkpt>
      <trkpt lat="45.20849" lon="5.52543">
        <ele>1297.573822209</ele>
        <time>2015-12-14T13:30:40Z</time>
      </trkpt>
      <trkpt lat="45.20833" lon="5.52554">
        <ele>1296.574549801</ele>
        <time>2015-12-14T13:30:51Z</time>
      </trkpt>
      <trkpt lat="45.20828" lon="5.52554">
        <ele>1296.574549801</ele>
        <time>2015-12-14T13:30:55Z</time>
      </trkpt>
      <trkpt lat="45.2081" lon="5.52555">
        <ele>1296.790008002</ele>
        <time>2015-12-14T13:31:10Z</time>
      </trkpt>
      <trkpt lat="45.20799" lon="5.52558">
        <ele>1296.972129309</ele>
        <time>2015-12-14T13:31:15Z</time>
      </trkpt>
      <trkpt lat="45.20793" lon="5.52551">
        <ele>1296.972129309</ele>
        <time>2015-12-14T13:31:25Z</time>
      </trkpt>
      <trkpt lat="45.20788" lon="5.52547">
        <ele>1297.117536927</ele>
        <time>2015-12-14T13:31:29Z</time>
      </trkpt>
      <trkpt lat="45.20783" lon="5.52538">
        <ele>1297.117536927</ele>
        <time>2015-12-14T13:31:40Z</time>
      </trkpt>
      <trkpt lat="45.20781" lon="5.52538">
        <ele>1297.367356039</ele>
        <time>2015-12-14T13:31:44Z</time>
      </trkpt>
      <trkpt lat="45.20777" lon="5.52537">
        <ele>1297.367356039</ele>
        <time>2015-12-14T13:31:55Z</time>
      </trkpt>
      <trkpt lat="45.20776" lon="5.52537">
        <ele>1297.367356039</ele>
        <time>2015-12-14T13:31:59Z</time>
      </trkpt>
      <trkpt lat="45.20776" lon="5.52537">
        <ele>1297.367356039</ele>
        <time>2015-12-14T13:32:10Z</time>
      </trkpt>
      <trkpt lat="45.20776" lon="5.52537">
        <ele>1297.367356039</ele>
        <time>2015-12-14T13:32:14Z</time>
      </trkpt>
      <trkpt lat="45.20776" lon="5.52537">
        <ele>1297.367356039</ele>
        <time>2015-12-14T13:32:19Z</time>
      </trkpt>
      <trkpt lat="45.20776" lon="5.52537">
        <ele>1297.367356039</ele>
        <time>2015-12-14T13:32:24Z</time>
      </trkpt>
      <trkpt lat="45.20776" lon="5.52537">
        <ele>1297.367356039</ele>
        <time>2015-12-14T13:32:29Z</time>
      </trkpt>
      <trkpt lat="45.20776" lon="5.52537">
        <ele>1297.367356039</ele>
        <time>2015-12-14T13:32:34Z</time>
      </trkpt>
      <trkpt lat="45.20776" lon="5.52537">
        <ele>1297.367356039</ele>
        <time>2015-12-14T13:32:39Z</time>
      </trkpt>
      <trkpt lat="45.20776" lon="5.52537">
        <ele>1297.367356039</ele>
        <time>2015-12-14T13:32:44Z</time>
      </trkpt>
      <trkpt lat="45.20776" lon="5.52537">
        <ele>1297.367356039</ele>
        <time>2015-12-14T13:32:49Z</time>
      </trkpt>
      <trkpt lat="45.20776" lon="5.52537">
        <ele>1297.367356039</ele>
        <time>2015-12-14T13:32:54Z</time>
      </trkpt>
      <trkpt lat="45.20776" lon="5.52537">
        <ele>1297.367356039</ele>
        <time>2015-12-14T13:32:59Z</time>
      </trkpt>
      <trkpt lat="45.20776" lon="5.52537">
        <ele>1297.367356039</ele>
        <time>2015-12-14T13:33:04Z</time>
      </trkpt>
      <trkpt lat="45.20772" lon="5.5253">
        <ele>1297.707995358</ele>
        <time>2015-12-14T13:33:15Z</time>
      </trkpt>
      <trkpt lat="45.20772" lon="5.52527">
        <ele>1297.707995358</ele>
        <time>2015-12-14T13:33:20Z</time>
      </trkpt>
      <trkpt lat="45.20774" lon="5.52518">
        <ele>1297.707995358</ele>
        <time>2015-12-14T13:33:34Z</time>
      </trkpt>
      <trkpt lat="45.20772" lon="5.52519">
        <ele>1297.694341425</ele>
        <time>2015-12-14T13:33:40Z</time>
      </trkpt>
      <trkpt lat="45.20766" lon="5.52521">
        <ele>1297.694341425</ele>
        <time>2015-12-14T13:33:50Z</time>
      </trkpt>
      <trkpt lat="45.20765" lon="5.5252">
        <ele>1297.694341425</ele>
        <time>2015-12-14T13:33:55Z</time>
      </trkpt>
      <trkpt lat="45.20762" lon="5.5252">
        <ele>1296.194493517</ele>
        <time>2015-12-14T13:34:05Z</time>
      </trkpt>
      <trkpt lat="45.20762" lon="5.5252">
        <ele>1296.194493517</ele>
        <time>2015-12-14T13:34:10Z</time>
      </trkpt>
      <trkpt lat="45.2076" lon="5.52519">
        <ele>1296.194493517</ele>
        <time>2015-12-14T13:34:22Z</time>
      </trkpt>
      <trkpt lat="45.20758" lon="5.52514">
        <ele>1296.194493517</ele>
        <time>2015-12-14T13:34:24Z</time>
      </trkpt>
      <trkpt lat="45.20756" lon="5.52512">
        <ele>1296.194493517</ele>
        <time>2015-12-14T13:34:35Z</time>
      </trkpt>
      <trkpt lat="45.20757" lon="5.52511">
        <ele>1294.902064172</ele>
        <time>2015-12-14T13:34:40Z</time>
      </trkpt>
      <trkpt lat="45.20742" lon="5.52513">
        <ele>1293.656423627</ele>
        <time>2015-12-14T13:34:50Z</time>
      </trkpt>
      <trkpt lat="45.20741" lon="5.52507">
        <ele>1293.656423627</ele>
        <time>2015-12-14T13:34:54Z</time>
      </trkpt>
      <trkpt lat="45.20735" lon="5.52505">
        <ele>1291.588137549</ele>
        <time>2015-12-14T13:35:10Z</time>
      </trkpt>
      <trkpt lat="45.20734" lon="5.52505">
        <ele>1291.588137549</ele>
        <time>2015-12-14T13:35:15Z</time>
      </trkpt>
      <trkpt lat="45.20727" lon="5.52503">
        <ele>1291.588137549</ele>
        <time>2015-12-14T13:35:25Z</time>
      </trkpt>
      <trkpt lat="45.20712" lon="5.52505">
        <ele>1289.335136347</ele>
        <time>2015-12-14T13:35:30Z</time>
      </trkpt>
      <trkpt lat="45.2071" lon="5.52507">
        <ele>1289.335136347</ele>
        <time>2015-12-14T13:35:40Z</time>
      </trkpt>
      <trkpt lat="45.20709" lon="5.52508">
        <ele>1289.335136347</ele>
        <time>2015-12-14T13:35:45Z</time>
      </trkpt>
      <trkpt lat="45.20709" lon="5.52508">
        <ele>1289.335136347</ele>
        <time>2015-12-14T13:35:55Z</time>
      </trkpt>
      <trkpt lat="45.20703" lon="5.52509">
        <ele>1287.34496613</ele>
        <time>2015-12-14T13:36:00Z</time>
      </trkpt>
      <trkpt lat="45.20674" lon="5.52511">
        <ele>1285.88751184</ele>
        <time>2015-12-14T13:36:15Z</time>
      </trkpt>
      <trkpt lat="45.20658" lon="5.52506">
        <ele>1284.77906251</ele>
        <time>2015-12-14T13:36:25Z</time>
      </trkpt>
      <trkpt lat="45.20651" lon="5.52507">
        <ele>1284.77906251</ele>
        <time>2015-12-14T13:36:30Z</time>
      </trkpt>
      <trkpt lat="45.20651" lon="5.52503">
        <ele>1284.77906251</ele>
        <time>2015-12-14T13:36:35Z</time>
      </trkpt>
      <trkpt lat="45.20639" lon="5.52511">
        <ele>1283.9925887</ele>
        <time>2015-12-14T13:36:45Z</time>
      </trkpt>
      <trkpt lat="45.20631" lon="5.52511">
        <ele>1283.9925887</ele>
        <time>2015-12-14T13:36:50Z</time>
      </trkpt>
      <trkpt lat="45.20622" lon="5.5251">
        <ele>1283.069862867</ele>
        <time>2015-12-14T13:37:00Z</time>
      </trkpt>
      <trkpt lat="45.2062" lon="5.52511">
        <ele>1283.069862867</ele>
        <time>2015-12-14T13:37:05Z</time>
      </trkpt>
      <trkpt lat="45.20618" lon="5.52509">
        <ele>1283.069862867</ele>
        <time>2015-12-14T13:37:15Z</time>
      </trkpt>
      <trkpt lat="45.20618" lon="5.52509">
        <ele>1283.069862867</ele>
        <time>2015-12-14T13:37:20Z</time>
      </trkpt>
      <trkpt lat="45.20618" lon="5.52509">
        <ele>1283.069862867</ele>
        <time>2015-12-14T13:37:29Z</time>
      </trkpt>
      <trkpt lat="45.2061" lon="5.52505">
        <ele>1284.757204852</ele>
        <time>2015-12-14T13:37:34Z</time>
      </trkpt>
      <trkpt lat="45.20604" lon="5.52502">
        <ele>1284.757204852</ele>
        <time>2015-12-14T13:37:44Z</time>
      </trkpt>
      <trkpt lat="45.206" lon="5.52503">
        <ele>1282.801149383</ele>
        <time>2015-12-14T13:37:49Z</time>
      </trkpt>
      <trkpt lat="45.20585" lon="5.52496">
        <ele>1280.929229085</ele>
        <time>2015-12-14T13:38:00Z</time>
      </trkpt>
      <trkpt lat="45.20585" lon="5.52495">
        <ele>1280.929229085</ele>
        <time>2015-12-14T13:38:05Z</time>
      </trkpt>
      <trkpt lat="45.20582" lon="5.52494">
        <ele>1280.929229085</ele>
        <time>2015-12-14T13:38:19Z</time>
      </trkpt>
      <trkpt lat="45.20582" lon="5.52494">
        <ele>1280.929229085</ele>
        <time>2015-12-14T13:38:24Z</time>
      </trkpt>
      <trkpt lat="45.20582" lon="5.52494">
        <ele>1280.929229085</ele>
        <time>2015-12-14T13:38:34Z</time>
      </trkpt>
      <trkpt lat="45.20582" lon="5.52494">
        <ele>1280.929229085</ele>
        <time>2015-12-14T13:38:39Z</time>
      </trkpt>
      <trkpt lat="45.20582" lon="5.52492">
        <ele>1280.929229085</ele>
        <time>2015-12-14T13:38:49Z</time>
      </trkpt>
      <trkpt lat="45.20581" lon="5.52485">
        <ele>1279.136314891</ele>
        <time>2015-12-14T13:38:54Z</time>
      </trkpt>
      <trkpt lat="45.2058" lon="5.52484">
        <ele>1279.136314891</ele>
        <time>2015-12-14T13:38:59Z</time>
      </trkpt>
      <trkpt lat="45.20579" lon="5.52484">
        <ele>1279.136314891</ele>
        <time>2015-12-14T13:39:04Z</time>
      </trkpt>
      <trkpt lat="45.20578" lon="5.52484">
        <ele>1279.136314891</ele>
        <time>2015-12-14T13:39:09Z</time>
      </trkpt>
      <trkpt lat="45.20578" lon="5.52484">
        <ele>1279.136314891</ele>
        <time>2015-12-14T13:39:14Z</time>
      </trkpt>
      <trkpt lat="45.20578" lon="5.52484">
        <ele>1279.136314891</ele>
        <time>2015-12-14T13:39:19Z</time>
      </trkpt>
      <trkpt lat="45.20578" lon="5.52484">
        <ele>1279.136314891</ele>
        <time>2015-12-14T13:39:24Z</time>
      </trkpt>
      <trkpt lat="45.20578" lon="5.52485">
        <ele>1279.136314891</ele>
        <time>2015-12-14T13:39:34Z</time>
      </trkpt>
      <trkpt lat="45.20578" lon="5.52485">
        <ele>1279.136314891</ele>
        <time>2015-12-14T13:39:39Z</time>
      </trkpt>
      <trkpt lat="45.20572" lon="5.52477">
        <ele>1279.435054327</ele>
        <time>2015-12-14T13:39:49Z</time>
      </trkpt>
      <trkpt lat="45.20572" lon="5.52477">
        <ele>1279.435054327</ele>
        <time>2015-12-14T13:39:54Z</time>
      </trkpt>
      <trkpt lat="45.20559" lon="5.52478">
        <ele>1277.919993004</ele>
        <time>2015-12-14T13:40:09Z</time>
      </trkpt>
      <trkpt lat="45.2056" lon="5.52476">
        <ele>1277.919993004</ele>
        <time>2015-12-14T13:40:14Z</time>
      </trkpt>
      <trkpt lat="45.2056" lon="5.52473">
        <ele>1277.919993004</ele>
        <time>2015-12-14T13:40:24Z</time>
      </trkpt>
      <trkpt lat="45.20557" lon="5.52467">
        <ele>1278.615610743</ele>
        <time>2015-12-14T13:40:29Z</time>
      </trkpt>
      <trkpt lat="45.20556" lon="5.52459">
        <ele>1278.615610743</ele>
        <time>2015-12-14T13:40:39Z</time>
      </trkpt>
      <trkpt lat="45.20553" lon="5.5246">
        <ele>1275.733273002</ele>
        <time>2015-12-14T13:40:44Z</time>
      </trkpt>
      <trkpt lat="45.20551" lon="5.52462">
        <ele>1275.733273002</ele>
        <time>2015-12-14T13:40:54Z</time>
      </trkpt>
      <trkpt lat="45.20544" lon="5.52462">
        <ele>1272.278116281</ele>
        <time>2015-12-14T13:40:59Z</time>
      </trkpt>
      <trkpt lat="45.20544" lon="5.52454">
        <ele>1272.278116281</ele>
        <time>2015-12-14T13:41:12Z</time>
      </trkpt>
      <trkpt lat="45.20544" lon="5.52452">
        <ele>1272.278116281</ele>
        <time>2015-12-14T13:41:14Z</time>
      </trkpt>
      <trkpt lat="45.20544" lon="5.52452">
        <ele>1272.278116281</ele>
        <time>2015-12-14T13:41:25Z</time>
      </trkpt>
      <trkpt lat="45.20539" lon="5.52448">
        <ele>1268.15395066</ele>
        <time>2015-12-14T13:41:29Z</time>
      </trkpt>
      <trkpt lat="45.20537" lon="5.52437">
        <ele>1268.15395066</ele>
        <time>2015-12-14T13:41:39Z</time>
      </trkpt>
      <trkpt lat="45.20537" lon="5.52437">
        <ele>1268.15395066</ele>
        <time>2015-12-14T13:41:44Z</time>
      </trkpt>
      <trkpt lat="45.2053" lon="5.52433">
        <ele>1263.994113931</ele>
        <time>2015-12-14T13:41:54Z</time>
      </trkpt>
      <trkpt lat="45.20528" lon="5.5243">
        <ele>1263.994113931</ele>
        <time>2015-12-14T13:41:59Z</time>
      </trkpt>
      <trkpt lat="45.20526" lon="5.52429">
        <ele>1263.994113931</ele>
        <time>2015-12-14T13:42:10Z</time>
      </trkpt>
      <trkpt lat="45.20525" lon="5.52428">
        <ele>1263.994113931</ele>
        <time>2015-12-14T13:42:15Z</time>
      </trkpt>
      <trkpt lat="45.20525" lon="5.52428">
        <ele>1263.994113931</ele>
        <time>2015-12-14T13:42:25Z</time>
      </trkpt>
      <trkpt lat="45.20524" lon="5.52429">
        <ele>1263.994113931</ele>
        <time>2015-12-14T13:42:30Z</time>
      </trkpt>
      <trkpt lat="45.20523" lon="5.52429">
        <ele>1263.994113931</ele>
        <time>2015-12-14T13:42:34Z</time>
      </trkpt>
      <trkpt lat="45.20523" lon="5.52425">
        <ele>1259.088523831</ele>
        <time>2015-12-14T13:42:45Z</time>
      </trkpt>
      <trkpt lat="45.20523" lon="5.52424">
        <ele>1259.088523831</ele>
        <time>2015-12-14T13:42:50Z</time>
      </trkpt>
      <trkpt lat="45.20523" lon="5.52426">
        <ele>1259.088523831</ele>
        <time>2015-12-14T13:42:59Z</time>
      </trkpt>
      <trkpt lat="45.20524" lon="5.52424">
        <ele>1259.088523831</ele>
        <time>2015-12-14T13:43:04Z</time>
      </trkpt>
      <trkpt lat="45.20527" lon="5.52418">
        <ele>1254.078332291</ele>
        <time>2015-12-14T13:43:14Z</time>
      </trkpt>
      <trkpt lat="45.20526" lon="5.52413">
        <ele>1254.078332291</ele>
        <time>2015-12-14T13:43:19Z</time>
      </trkpt>
      <trkpt lat="45.2052" lon="5.52408">
        <ele>1249.990174305</ele>
        <time>2015-12-14T13:43:29Z</time>
      </trkpt>
      <trkpt lat="45.20517" lon="5.5241">
        <ele>1249.990174305</ele>
        <time>2015-12-14T13:43:34Z</time>
      </trkpt>
      <trkpt lat="45.20512" lon="5.52406">
        <ele>1262.039647469</ele>
        <time>2015-12-14T13:43:49Z</time>
      </trkpt>
      <trkpt lat="45.20507" lon="5.52393">
        <ele>1262.487077945</ele>
        <time>2015-12-14T13:44:00Z</time>
      </trkpt>
      <trkpt lat="45.20504" lon="5.52393">
        <ele>1262.487077945</ele>
        <time>2015-12-14T13:44:05Z</time>
      </trkpt>
      <trkpt lat="45.20503" lon="5.52395">
        <ele>1262.487077945</ele>
        <time>2015-12-14T13:44:15Z</time>
      </trkpt>
      <trkpt lat="45.20502" lon="5.52395">
        <ele>1262.487077945</ele>
        <time>2015-12-14T13:44:19Z</time>
      </trkpt>
      <trkpt lat="45.20502" lon="5.52395">
        <ele>1262.487077945</ele>
        <time>2015-12-14T13:44:34Z</time>
      </trkpt>
      <trkpt lat="45.20496" lon="5.52393">
        <ele>1263.708420745</ele>
        <time>2015-12-14T13:44:51Z</time>
      </trkpt>
      <trkpt lat="45.20494" lon="5.52393">
        <ele>1263.708420745</ele>
        <time>2015-12-14T13:44:54Z</time>
      </trkpt>
      <trkpt lat="45.20494" lon="5.52391">
        <ele>1263.708420745</ele>
        <time>2015-12-14T13:45:11Z</time>
      </trkpt>
      <trkpt lat="45.20494" lon="5.52391">
        <ele>1263.708420745</ele>
        <time>2015-12-14T13:45:15Z</time>
      </trkpt>
      <trkpt lat="45.20494" lon="5.52391">
        <ele>1263.708420745</ele>
        <time>2015-12-14T13:45:25Z</time>
      </trkpt>
      <trkpt lat="45.20493" lon="5.52385">
        <ele>1263.708420745</ele>
        <time>2015-12-14T13:45:29Z</time>
      </trkpt>
      <trkpt lat="45.2048" lon="5.5239">
        <ele>1255.984001648</ele>
        <time>2015-12-14T13:45:40Z</time>
      </trkpt>
      <trkpt lat="45.20484" lon="5.52388">
        <ele>1255.984001648</ele>
        <time>2015-12-14T13:45:44Z</time>
      </trkpt>
      <trkpt lat="45.20484" lon="5.52384">
        <ele>1255.984001648</ele>
        <time>2015-12-14T13:45:55Z</time>
      </trkpt>
      <trkpt lat="45.20483" lon="5.52383">
        <ele>1255.984001648</ele>
        <time>2015-12-14T13:46:00Z</time>
      </trkpt>
      <trkpt lat="45.20482" lon="5.52382">
        <ele>1255.984001648</ele>
        <time>2015-12-14T13:46:14Z</time>
      </trkpt>
      <trkpt lat="45.20482" lon="5.52382">
        <ele>1255.984001648</ele>
        <time>2015-12-14T13:46:20Z</time>
      </trkpt>
      <trkpt lat="45.20475" lon="5.52363">
        <ele>1248.34716002</ele>
        <time>2015-12-14T13:46:31Z</time>
      </trkpt>
      <trkpt lat="45.20471" lon="5.52361">
        <ele>1248.34716002</ele>
        <time>2015-12-14T13:46:35Z</time>
      </trkpt>
      <trkpt lat="45.20467" lon="5.52358">
        <ele>1240.520730077</ele>
        <time>2015-12-14T13:46:45Z</time>
      </trkpt>
      <trkpt lat="45.20466" lon="5.52359">
        <ele>1240.520730077</ele>
        <time>2015-12-14T13:46:49Z</time>
      </trkpt>
      <trkpt lat="45.20462" lon="5.52353">
        <ele>1240.520730077</ele>
        <time>2015-12-14T13:47:00Z</time>
      </trkpt>
      <trkpt lat="45.2046" lon="5.52348">
        <ele>1233.689504816</ele>
        <time>2015-12-14T13:47:04Z</time>
      </trkpt>
      <trkpt lat="45.20458" lon="5.52344">
        <ele>1233.689504816</ele>
        <time>2015-12-14T13:47:15Z</time>
      </trkpt>
      <trkpt lat="45.20457" lon="5.52343">
        <ele>1233.689504816</ele>
        <time>2015-12-14T13:47:20Z</time>
      </trkpt>
      <trkpt lat="45.20451" lon="5.52339">
        <ele>1227.363136699</ele>
        <time>2015-12-14T13:47:35Z</time>
      </trkpt>
      <trkpt lat="45.20449" lon="5.5233">
        <ele>1227.363136699</ele>
        <time>2015-12-14T13:47:40Z</time>
      </trkpt>
      <trkpt lat="45.20442" lon="5.5232">
        <ele>1221.662196436</ele>
        <time>2015-12-14T13:47:49Z</time>
      </trkpt>
      <trkpt lat="45.20438" lon="5.52321">
        <ele>1221.662196436</ele>
        <time>2015-12-14T13:47:55Z</time>
      </trkpt>
      <trkpt lat="45.20435" lon="5.52317">
        <ele>1221.662196436</ele>
        <time>2015-12-14T13:48:04Z</time>
      </trkpt>
      <trkpt lat="45.20433" lon="5.52318">
        <ele>1215.975924443</ele>
        <time>2015-12-14T13:48:09Z</time>
      </trkpt>
      <trkpt lat="45.20434" lon="5.52318">
        <ele>1215.975924443</ele>
        <time>2015-12-14T13:48:14Z</time>
      </trkpt>
      <trkpt lat="45.20434" lon="5.52318">
        <ele>1215.975924443</ele>
        <time>2015-12-14T13:48:19Z</time>
      </trkpt>
      <trkpt lat="45.20434" lon="5.52318">
        <ele>1215.975924443</ele>
        <time>2015-12-14T13:48:24Z</time>
      </trkpt>
      <trkpt lat="45.20434" lon="5.52318">
        <ele>1215.975924443</ele>
        <time>2015-12-14T13:48:34Z</time>
      </trkpt>
      <trkpt lat="45.20434" lon="5.52318">
        <ele>1215.975924443</ele>
        <time>2015-12-14T13:48:39Z</time>
      </trkpt>
      <trkpt lat="45.20434" lon="5.52318">
        <ele>1215.975924443</ele>
        <time>2015-12-14T13:48:55Z</time>
      </trkpt>
      <trkpt lat="45.20434" lon="5.52318">
        <ele>1215.975924443</ele>
        <time>2015-12-14T13:49:00Z</time>
      </trkpt>
      <trkpt lat="45.20433" lon="5.52316">
        <ele>1215.975924443</ele>
        <time>2015-12-14T13:49:09Z</time>
      </trkpt>
      <trkpt lat="45.20428" lon="5.52321">
        <ele>1215.975924443</ele>
        <time>2015-12-14T13:49:15Z</time>
      </trkpt>
      <trkpt lat="45.20421" lon="5.52316">
        <ele>1210.458753751</ele>
        <time>2015-12-14T13:49:25Z</time>
      </trkpt>
      <trkpt lat="45.20418" lon="5.5231">
        <ele>1210.458753751</ele>
        <time>2015-12-14T13:49:29Z</time>
      </trkpt>
      <trkpt lat="45.20416" lon="5.52299">
        <ele>1204.388421851</ele>
        <time>2015-12-14T13:49:40Z</time>
      </trkpt>
      <trkpt lat="45.20415" lon="5.52291">
        <ele>1204.388421851</ele>
        <time>2015-12-14T13:49:44Z</time>
      </trkpt>
      <trkpt lat="45.20419" lon="5.52289">
        <ele>1204.388421851</ele>
        <time>2015-12-14T13:49:49Z</time>
      </trkpt>
      <trkpt lat="45.20419" lon="5.52289">
        <ele>1198.24993587</ele>
        <time>2015-12-14T13:49:59Z</time>
      </trkpt>
      <trkpt lat="45.20419" lon="5.52289">
        <ele>1198.24993587</ele>
        <time>2015-12-14T13:50:05Z</time>
      </trkpt>
      <trkpt lat="45.20419" lon="5.52289">
        <ele>1198.24993587</ele>
        <time>2015-12-14T13:50:16Z</time>
      </trkpt>
      <trkpt lat="45.20419" lon="5.52289">
        <ele>1198.24993587</ele>
        <time>2015-12-14T13:50:19Z</time>
      </trkpt>
      <trkpt lat="45.20405" lon="5.52275">
        <ele>1192.924954652</ele>
        <time>2015-12-14T13:50:30Z</time>
      </trkpt>
      <trkpt lat="45.20398" lon="5.52272">
        <ele>1192.924954652</ele>
        <time>2015-12-14T13:50:34Z</time>
      </trkpt>
      <trkpt lat="45.20381" lon="5.52271">
        <ele>1187.354384423</ele>
        <time>2015-12-14T13:50:45Z</time>
      </trkpt>
      <trkpt lat="45.20378" lon="5.52271">
        <ele>1187.354384423</ele>
        <time>2015-12-14T13:50:50Z</time>
      </trkpt>
      <trkpt lat="45.20373" lon="5.5226">
        <ele>1180.845570066</ele>
        <time>2015-12-14T13:51:00Z</time>
      </trkpt>
      <trkpt lat="45.20369" lon="5.52255">
        <ele>1180.845570066</ele>
        <time>2015-12-14T13:51:05Z</time>
      </trkpt>
      <trkpt lat="45.20368" lon="5.52253">
        <ele>1180.845570066</ele>
        <time>2015-12-14T13:51:14Z</time>
      </trkpt>
      <trkpt lat="45.20367" lon="5.52252">
        <ele>1180.845570066</ele>
        <time>2015-12-14T13:51:20Z</time>
      </trkpt>
      <trkpt lat="45.20359" lon="5.52241">
        <ele>1176.505979434</ele>
        <time>2015-12-14T13:51:35Z</time>
      </trkpt>
      <trkpt lat="45.20359" lon="5.52241">
        <ele>1176.505979434</ele>
        <time>2015-12-14T13:51:39Z</time>
      </trkpt>
      <trkpt lat="45.20359" lon="5.52241">
        <ele>1176.505979434</ele>
        <time>2015-12-14T13:51:44Z</time>
      </trkpt>
      <trkpt lat="45.20358" lon="5.52241">
        <ele>1176.505979434</ele>
        <time>2015-12-14T13:51:49Z</time>
      </trkpt>
      <trkpt lat="45.20359" lon="5.52241">
        <ele>1176.505979434</ele>
        <time>2015-12-14T13:51:54Z</time>
      </trkpt>
      <trkpt lat="45.20359" lon="5.52241">
        <ele>1176.505979434</ele>
        <time>2015-12-14T13:51:59Z</time>
      </trkpt>
      <trkpt lat="45.20359" lon="5.52241">
        <ele>1176.505979434</ele>
        <time>2015-12-14T13:52:04Z</time>
      </trkpt>
      <trkpt lat="45.20359" lon="5.52241">
        <ele>1176.505979434</ele>
        <time>2015-12-14T13:52:09Z</time>
      </trkpt>
      <trkpt lat="45.20359" lon="5.52241">
        <ele>1176.505979434</ele>
        <time>2015-12-14T13:52:14Z</time>
      </trkpt>
      <trkpt lat="45.20359" lon="5.52241">
        <ele>1176.505979434</ele>
        <time>2015-12-14T13:52:19Z</time>
      </trkpt>
      <trkpt lat="45.20359" lon="5.52241">
        <ele>1176.505979434</ele>
        <time>2015-12-14T13:52:24Z</time>
      </trkpt>
      <trkpt lat="45.20359" lon="5.52241">
        <ele>1176.505979434</ele>
        <time>2015-12-14T13:52:29Z</time>
      </trkpt>
      <trkpt lat="45.20359" lon="5.52241">
        <ele>1176.505979434</ele>
        <time>2015-12-14T13:52:34Z</time>
      </trkpt>
      <trkpt lat="45.20359" lon="5.52241">
        <ele>1176.505979434</ele>
        <time>2015-12-14T13:52:39Z</time>
      </trkpt>
      <trkpt lat="45.20359" lon="5.52241">
        <ele>1176.505979434</ele>
        <time>2015-12-14T13:52:44Z</time>
      </trkpt>
      <trkpt lat="45.20358" lon="5.52241">
        <ele>1176.505979434</ele>
        <time>2015-12-14T13:52:54Z</time>
      </trkpt>
      <trkpt lat="45.20358" lon="5.52241">
        <ele>1176.505979434</ele>
        <time>2015-12-14T13:52:59Z</time>
      </trkpt>
      <trkpt lat="45.20358" lon="5.52241">
        <ele>1176.505979434</ele>
        <time>2015-12-14T13:53:09Z</time>
      </trkpt>
      <trkpt lat="45.20358" lon="5.52241">
        <ele>1176.505979434</ele>
        <time>2015-12-14T13:53:14Z</time>
      </trkpt>
      <trkpt lat="45.20348" lon="5.52239">
        <ele>1168.705870686</ele>
        <time>2015-12-14T13:53:24Z</time>
      </trkpt>
      <trkpt lat="45.20341" lon="5.5224">
        <ele>1168.705870686</ele>
        <time>2015-12-14T13:53:29Z</time>
      </trkpt>
      <trkpt lat="45.20339" lon="5.5224">
        <ele>1168.705870686</ele>
        <time>2015-12-14T13:53:34Z</time>
      </trkpt>
      <trkpt lat="45.20338" lon="5.52239">
        <ele>1161.60568955</ele>
        <time>2015-12-14T13:53:39Z</time>
      </trkpt>
      <trkpt lat="45.20338" lon="5.52239">
        <ele>1161.60568955</ele>
        <time>2015-12-14T13:53:44Z</time>
      </trkpt>
      <trkpt lat="45.20338" lon="5.52239">
        <ele>1161.60568955</ele>
        <time>2015-12-14T13:53:49Z</time>
      </trkpt>
      <trkpt lat="45.20338" lon="5.52239">
        <ele>1161.60568955</ele>
        <time>2015-12-14T13:53:54Z</time>
      </trkpt>
      <trkpt lat="45.20337" lon="5.52239">
        <ele>1161.60568955</ele>
        <time>2015-12-14T13:54:04Z</time>
      </trkpt>
      <trkpt lat="45.20327" lon="5.52242">
        <ele>1155.743423962</ele>
        <time>2015-12-14T13:54:09Z</time>
      </trkpt>
      <trkpt lat="45.20319" lon="5.52252">
        <ele>1149.452077925</ele>
        <time>2015-12-14T13:54:19Z</time>
      </trkpt>
      <trkpt lat="45.20319" lon="5.52257">
        <ele>1149.452077925</ele>
        <time>2015-12-14T13:54:24Z</time>
      </trkpt>
      <trkpt lat="45.20311" lon="5.52258">
        <ele>1143.06142774</ele>
        <time>2015-12-14T13:54:34Z</time>
      </trkpt>
      <trkpt lat="45.20303" lon="5.52261">
        <ele>1143.06142774</ele>
        <time>2015-12-14T13:54:39Z</time>
      </trkpt>
      <trkpt lat="45.20296" lon="5.52269">
        <ele>1138.029856194</ele>
        <time>2015-12-14T13:54:50Z</time>
      </trkpt>
      <trkpt lat="45.20294" lon="5.52267">
        <ele>1138.029856194</ele>
        <time>2015-12-14T13:54:54Z</time>
      </trkpt>
      <trkpt lat="45.20292" lon="5.52266">
        <ele>1138.029856194</ele>
        <time>2015-12-14T13:55:04Z</time>
      </trkpt>
      <trkpt lat="45.20292" lon="5.52266">
        <ele>1138.029856194</ele>
        <time>2015-12-14T13:55:09Z</time>
      </trkpt>
      <trkpt lat="45.20292" lon="5.52266">
        <ele>1138.029856194</ele>
        <time>2015-12-14T13:55:14Z</time>
      </trkpt>
      <trkpt lat="45.20292" lon="5.52266">
        <ele>1138.029856194</ele>
        <time>2015-12-14T13:55:19Z</time>
      </trkpt>
      <trkpt lat="45.20292" lon="5.52266">
        <ele>1138.029856194</ele>
        <time>2015-12-14T13:55:24Z</time>
      </trkpt>
      <trkpt lat="45.20292" lon="5.52266">
        <ele>1138.029856194</ele>
        <time>2015-12-14T13:55:29Z</time>
      </trkpt>
      <trkpt lat="45.20292" lon="5.52266">
        <ele>1138.029856194</ele>
        <time>2015-12-14T13:55:34Z</time>
      </trkpt>
      <trkpt lat="45.20292" lon="5.52266">
        <ele>1138.029856194</ele>
        <time>2015-12-14T13:55:44Z</time>
      </trkpt>
      <trkpt lat="45.20292" lon="5.52266">
        <ele>1138.029856194</ele>
        <time>2015-12-14T13:55:50Z</time>
      </trkpt>
      <trkpt lat="45.20283" lon="5.52257">
        <ele>1133.398687843</ele>
        <time>2015-12-14T13:55:59Z</time>
      </trkpt>
      <trkpt lat="45.20279" lon="5.52253">
        <ele>1133.398687843</ele>
        <time>2015-12-14T13:56:05Z</time>
      </trkpt>
      <trkpt lat="45.20276" lon="5.5224">
        <ele>1128.854662258</ele>
        <time>2015-12-14T13:56:15Z</time>
      </trkpt>
      <trkpt lat="45.20273" lon="5.5224">
        <ele>1128.854662258</ele>
        <time>2015-12-14T13:56:20Z</time>
      </trkpt>
      <trkpt lat="45.20266" lon="5.52231">
        <ele>1124.395187837</ele>
        <time>2015-12-14T13:56:35Z</time>
      </trkpt>
      <trkpt lat="45.20267" lon="5.5223">
        <ele>1124.395187837</ele>
        <time>2015-12-14T13:56:40Z</time>
      </trkpt>
      <trkpt lat="45.20267" lon="5.52231">
        <ele>1124.395187837</ele>
        <time>2015-12-14T13:56:50Z</time>
      </trkpt>
      <trkpt lat="45.20266" lon="5.52231">
        <ele>1124.395187837</ele>
        <time>2015-12-14T13:56:55Z</time>
      </trkpt>
      <trkpt lat="45.20266" lon="5.52231">
        <ele>1124.395187837</ele>
        <time>2015-12-14T13:57:05Z</time>
      </trkpt>
      <trkpt lat="45.20266" lon="5.52231">
        <ele>1124.395187837</ele>
        <time>2015-12-14T13:57:10Z</time>
      </trkpt>
      <trkpt lat="45.20266" lon="5.52231">
        <ele>1124.395187837</ele>
        <time>2015-12-14T13:57:20Z</time>
      </trkpt>
      <trkpt lat="45.20265" lon="5.5223">
        <ele>1124.395187837</ele>
        <time>2015-12-14T13:57:25Z</time>
      </trkpt>
      <trkpt lat="45.20263" lon="5.52226">
        <ele>1124.395187837</ele>
        <time>2015-12-14T13:57:34Z</time>
      </trkpt>
      <trkpt lat="45.20265" lon="5.52223">
        <ele>1120.305540536</ele>
        <time>2015-12-14T13:57:39Z</time>
      </trkpt>
      <trkpt lat="45.20265" lon="5.52222">
        <ele>1120.305540536</ele>
        <time>2015-12-14T13:57:51Z</time>
      </trkpt>
      <trkpt lat="45.20266" lon="5.52222">
        <ele>1120.305540536</ele>
        <time>2015-12-14T13:57:55Z</time>
      </trkpt>
      <trkpt lat="45.20263" lon="5.52219">
        <ele>1120.305540536</ele>
        <time>2015-12-14T13:58:04Z</time>
      </trkpt>
      <trkpt lat="45.20264" lon="5.52207">
        <ele>1114.687038857</ele>
        <time>2015-12-14T13:58:10Z</time>
      </trkpt>
      <trkpt lat="45.20267" lon="5.52199">
        <ele>1114.687038857</ele>
        <time>2015-12-14T13:58:20Z</time>
      </trkpt>
      <trkpt lat="45.20268" lon="5.52196">
        <ele>1114.687038857</ele>
        <time>2015-12-14T13:58:25Z</time>
      </trkpt>
      <trkpt lat="45.20274" lon="5.52164">
        <ele>1110.39604026</ele>
        <time>2015-12-14T13:58:35Z</time>
      </trkpt>
      <trkpt lat="45.20277" lon="5.52154">
        <ele>1110.39604026</ele>
        <time>2015-12-14T13:58:40Z</time>
      </trkpt>
      <trkpt lat="45.20286" lon="5.52142">
        <ele>1106.184079533</ele>
        <time>2015-12-14T13:58:50Z</time>
      </trkpt>
      <trkpt lat="45.2029" lon="5.52134">
        <ele>1106.184079533</ele>
        <time>2015-12-14T13:58:55Z</time>
      </trkpt>
      <trkpt lat="45.20294" lon="5.52132">
        <ele>1101.902701148</ele>
        <time>2015-12-14T13:58:59Z</time>
      </trkpt>
      <trkpt lat="45.20302" lon="5.52112">
        <ele>1097.846638375</ele>
        <time>2015-12-14T13:59:10Z</time>
      </trkpt>
      <trkpt lat="45.20307" lon="5.52104">
        <ele>1097.846638375</ele>
        <time>2015-12-14T13:59:15Z</time>
      </trkpt>
      <trkpt lat="45.20312" lon="5.52099">
        <ele>1093.855778414</ele>
        <time>2015-12-14T13:59:24Z</time>
      </trkpt>
      <trkpt lat="45.20317" lon="5.5209">
        <ele>1093.855778414</ele>
        <time>2015-12-14T13:59:30Z</time>
      </trkpt>
      <trkpt lat="45.20327" lon="5.52088">
        <ele>1090.79015294</ele>
        <time>2015-12-14T13:59:40Z</time>
      </trkpt>
      <trkpt lat="45.20332" lon="5.52085">
        <ele>1090.79015294</ele>
        <time>2015-12-14T13:59:45Z</time>
      </trkpt>
      <trkpt lat="45.20339" lon="5.5208">
        <ele>1088.435049216</ele>
        <time>2015-12-14T13:59:55Z</time>
      </trkpt>
      <trkpt lat="45.20338" lon="5.5208">
        <ele>1088.435049216</ele>
        <time>2015-12-14T13:59:59Z</time>
      </trkpt>
      <trkpt lat="45.20339" lon="5.52085">
        <ele>1088.435049216</ele>
        <time>2015-12-14T14:00:10Z</time>
      </trkpt>
      <trkpt lat="45.2034" lon="5.52085">
        <ele>1088.435049216</ele>
        <time>2015-12-14T14:00:14Z</time>
      </trkpt>
      <trkpt lat="45.2034" lon="5.52086">
        <ele>1088.435049216</ele>
        <time>2015-12-14T14:00:24Z</time>
      </trkpt>
      <trkpt lat="45.20341" lon="5.52086">
        <ele>1088.435049216</ele>
        <time>2015-12-14T14:00:29Z</time>
      </trkpt>
      <trkpt lat="45.20341" lon="5.52084">
        <ele>1088.435049216</ele>
        <time>2015-12-14T14:00:40Z</time>
      </trkpt>
      <trkpt lat="45.20341" lon="5.52085">
        <ele>1088.435049216</ele>
        <time>2015-12-14T14:00:45Z</time>
      </trkpt>
      <trkpt lat="45.20341" lon="5.52082">
        <ele>1086.589363281</ele>
        <time>2015-12-14T14:01:00Z</time>
      </trkpt>
      <trkpt lat="45.20346" lon="5.52085">
        <ele>1086.589363281</ele>
        <time>2015-12-14T14:01:10Z</time>
      </trkpt>
      <trkpt lat="45.20352" lon="5.52083">
        <ele>1085.35341327</ele>
        <time>2015-12-14T14:01:14Z</time>
      </trkpt>
      <trkpt lat="45.20356" lon="5.52081">
        <ele>1085.35341327</ele>
        <time>2015-12-14T14:01:19Z</time>
      </trkpt>
      <trkpt lat="45.20365" lon="5.52087">
        <ele>1084.530101231</ele>
        <time>2015-12-14T14:01:29Z</time>
      </trkpt>
      <trkpt lat="45.20372" lon="5.52087">
        <ele>1084.530101231</ele>
        <time>2015-12-14T14:01:34Z</time>
      </trkpt>
      <trkpt lat="45.20382" lon="5.5209">
        <ele>1083.647345982</ele>
        <time>2015-12-14T14:01:44Z</time>
      </trkpt>
      <trkpt lat="45.20388" lon="5.52088">
        <ele>1083.647345982</ele>
        <time>2015-12-14T14:01:49Z</time>
      </trkpt>
      <trkpt lat="45.20399" lon="5.52087">
        <ele>1083.132529927</ele>
        <time>2015-12-14T14:01:59Z</time>
      </trkpt>
      <trkpt lat="45.20404" lon="5.52086">
        <ele>1083.132529927</ele>
        <time>2015-12-14T14:02:04Z</time>
      </trkpt>
      <trkpt lat="45.20415" lon="5.52083">
        <ele>1083.092370252</ele>
        <time>2015-12-14T14:02:14Z</time>
      </trkpt>
      <trkpt lat="45.2042" lon="5.52083">
        <ele>1083.092370252</ele>
        <time>2015-12-14T14:02:19Z</time>
      </trkpt>
      <trkpt lat="45.20432" lon="5.52081">
        <ele>1082.903874532</ele>
        <time>2015-12-14T14:02:29Z</time>
      </trkpt>
      <trkpt lat="45.20438" lon="5.52079">
        <ele>1082.903874532</ele>
        <time>2015-12-14T14:02:34Z</time>
      </trkpt>
      <trkpt lat="45.20449" lon="5.52079">
        <ele>1082.854947007</ele>
        <time>2015-12-14T14:02:44Z</time>
      </trkpt>
      <trkpt lat="45.20454" lon="5.52079">
        <ele>1082.854947007</ele>
        <time>2015-12-14T14:02:49Z</time>
      </trkpt>
      <trkpt lat="45.2046" lon="5.52083">
        <ele>1083.067919777</ele>
        <time>2015-12-14T14:02:54Z</time>
      </trkpt>
      <trkpt lat="45.20461" lon="5.52084">
        <ele>1083.067919777</ele>
        <time>2015-12-14T14:02:59Z</time>
      </trkpt>
      <trkpt lat="45.2046" lon="5.52084">
        <ele>1083.067919777</ele>
        <time>2015-12-14T14:03:04Z</time>
      </trkpt>
      <trkpt lat="45.20458" lon="5.52086">
        <ele>1083.067919777</ele>
        <time>2015-12-14T14:03:09Z</time>
      </trkpt>
      <trkpt lat="45.20457" lon="5.52086">
        <ele>1083.067919777</ele>
        <time>2015-12-14T14:03:19Z</time>
      </trkpt>
      <trkpt lat="45.20459" lon="5.52085">
        <ele>1083.067919777</ele>
        <time>2015-12-14T14:03:24Z</time>
      </trkpt>
      <trkpt lat="45.20469" lon="5.52079">
        <ele>1083.367290775</ele>
        <time>2015-12-14T14:03:29Z</time>
      </trkpt>
      <trkpt lat="45.2048" lon="5.52074">
        <ele>1083.446233241</ele>
        <time>2015-12-14T14:03:39Z</time>
      </trkpt>
      <trkpt lat="45.20483" lon="5.52072">
        <ele>1083.446233241</ele>
        <time>2015-12-14T14:03:44Z</time>
      </trkpt>
      <trkpt lat="45.20488" lon="5.52071">
        <ele>1083.446233241</ele>
        <time>2015-12-14T14:03:55Z</time>
      </trkpt>
      <trkpt lat="45.20489" lon="5.5207">
        <ele>1083.597684816</ele>
        <time>2015-12-14T14:03:59Z</time>
      </trkpt>
      <trkpt lat="45.20491" lon="5.52068">
        <ele>1083.597684816</ele>
        <time>2015-12-14T14:04:04Z</time>
      </trkpt>
      <trkpt lat="45.20494" lon="5.52054">
        <ele>1083.804823739</ele>
        <time>2015-12-14T14:04:14Z</time>
      </trkpt>
      <trkpt lat="45.20495" lon="5.52055">
        <ele>1083.804823739</ele>
        <time>2015-12-14T14:04:19Z</time>
      </trkpt>
      <trkpt lat="45.20497" lon="5.52045">
        <ele>1083.804823739</ele>
        <time>2015-12-14T14:04:29Z</time>
      </trkpt>
      <trkpt lat="45.20495" lon="5.52037">
        <ele>1084.340336899</ele>
        <time>2015-12-14T14:04:34Z</time>
      </trkpt>
      <trkpt lat="45.20493" lon="5.52012">
        <ele>1084.303294659</ele>
        <time>2015-12-14T14:04:49Z</time>
      </trkpt>
      <trkpt lat="45.20486" lon="5.52007">
        <ele>1084.303294659</ele>
        <time>2015-12-14T14:04:54Z</time>
      </trkpt>
      <trkpt lat="45.20483" lon="5.51991">
        <ele>1084.734243336</ele>
        <time>2015-12-14T14:05:04Z</time>
      </trkpt>
      <trkpt lat="45.20481" lon="5.51984">
        <ele>1084.734243336</ele>
        <time>2015-12-14T14:05:09Z</time>
      </trkpt>
      <trkpt lat="45.20476" lon="5.51974">
        <ele>1085.299236583</ele>
        <time>2015-12-14T14:05:15Z</time>
      </trkpt>
      <trkpt lat="45.20475" lon="5.51969">
        <ele>1085.299236583</ele>
        <time>2015-12-14T14:05:19Z</time>
      </trkpt>
      <trkpt lat="45.20474" lon="5.51964">
        <ele>1085.299236583</ele>
        <time>2015-12-14T14:05:24Z</time>
      </trkpt>
      <trkpt lat="45.2047" lon="5.51944">
        <ele>1085.688756067</ele>
        <time>2015-12-14T14:05:35Z</time>
      </trkpt>
      <trkpt lat="45.2047" lon="5.51935">
        <ele>1085.688756067</ele>
        <time>2015-12-14T14:05:39Z</time>
      </trkpt>
      <trkpt lat="45.20472" lon="5.5192">
        <ele>1086.049130973</ele>
        <time>2015-12-14T14:05:50Z</time>
      </trkpt>
      <trkpt lat="45.20472" lon="5.51913">
        <ele>1086.049130973</ele>
        <time>2015-12-14T14:05:55Z</time>
      </trkpt>
      <trkpt lat="45.20472" lon="5.51897">
        <ele>1086.660430227</ele>
        <time>2015-12-14T14:06:05Z</time>
      </trkpt>
      <trkpt lat="45.20471" lon="5.51895">
        <ele>1086.660430227</ele>
        <time>2015-12-14T14:06:09Z</time>
      </trkpt>
      <trkpt lat="45.20473" lon="5.51894">
        <ele>1086.660430227</ele>
        <time>2015-12-14T14:06:19Z</time>
      </trkpt>
      <trkpt lat="45.20471" lon="5.51892">
        <ele>1086.660430227</ele>
        <time>2015-12-14T14:06:24Z</time>
      </trkpt>
      <trkpt lat="45.2047" lon="5.51876">
        <ele>1086.917083276</ele>
        <time>2015-12-14T14:06:34Z</time>
      </trkpt>
      <trkpt lat="45.20466" lon="5.51874">
        <ele>1086.917083276</ele>
        <time>2015-12-14T14:06:39Z</time>
      </trkpt>
      <trkpt lat="45.20464" lon="5.51875">
        <ele>1086.917083276</ele>
        <time>2015-12-14T14:06:54Z</time>
      </trkpt>
      <trkpt lat="45.20463" lon="5.51877">
        <ele>1086.917083276</ele>
        <time>2015-12-14T14:06:59Z</time>
      </trkpt>
      <trkpt lat="45.20462" lon="5.51876">
        <ele>1087.268089974</ele>
        <time>2015-12-14T14:07:09Z</time>
      </trkpt>
      <trkpt lat="45.2046" lon="5.51878">
        <ele>1087.268089974</ele>
        <time>2015-12-14T14:07:14Z</time>
      </trkpt>
      <trkpt lat="45.2046" lon="5.51881">
        <ele>1087.268089974</ele>
        <time>2015-12-14T14:07:25Z</time>
      </trkpt>
      <trkpt lat="45.2046" lon="5.51882">
        <ele>1087.268089974</ele>
        <time>2015-12-14T14:07:30Z</time>
      </trkpt>
      <trkpt lat="45.20458" lon="5.51883">
        <ele>1087.268089974</ele>
        <time>2015-12-14T14:07:41Z</time>
      </trkpt>
      <trkpt lat="45.20458" lon="5.51883">
        <ele>1087.268089974</ele>
        <time>2015-12-14T14:07:45Z</time>
      </trkpt>
      <trkpt lat="45.20464" lon="5.51872">
        <ele>1087.841298486</ele>
        <time>2015-12-14T14:07:55Z</time>
      </trkpt>
      <trkpt lat="45.20466" lon="5.5187">
        <ele>1087.841298486</ele>
        <time>2015-12-14T14:08:00Z</time>
      </trkpt>
      <trkpt lat="45.20467" lon="5.51861">
        <ele>1088.322531717</ele>
        <time>2015-12-14T14:08:10Z</time>
      </trkpt>
      <trkpt lat="45.20468" lon="5.5186">
        <ele>1088.322531717</ele>
        <time>2015-12-14T14:08:15Z</time>
      </trkpt>
      <trkpt lat="45.20469" lon="5.51859">
        <ele>1088.322531717</ele>
        <time>2015-12-14T14:08:27Z</time>
      </trkpt>
      <trkpt lat="45.20469" lon="5.51859">
        <ele>1088.322531717</ele>
        <time>2015-12-14T14:08:29Z</time>
      </trkpt>
      <trkpt lat="45.20469" lon="5.51858">
        <ele>1088.322531717</ele>
        <time>2015-12-14T14:08:39Z</time>
      </trkpt>
      <trkpt lat="45.20469" lon="5.51858">
        <ele>1088.322531717</ele>
        <time>2015-12-14T14:08:44Z</time>
      </trkpt>
      <trkpt lat="45.20469" lon="5.51858">
        <ele>1088.322531717</ele>
        <time>2015-12-14T14:08:54Z</time>
      </trkpt>
      <trkpt lat="45.20469" lon="5.51858">
        <ele>1088.322531717</ele>
        <time>2015-12-14T14:08:59Z</time>
      </trkpt>
      <trkpt lat="45.20472" lon="5.51856">
        <ele>1088.322531717</ele>
        <time>2015-12-14T14:09:09Z</time>
      </trkpt>
      <trkpt lat="45.20473" lon="5.51856">
        <ele>1088.322531717</ele>
        <time>2015-12-14T14:09:14Z</time>
      </trkpt>
      <trkpt lat="45.20469" lon="5.51853">
        <ele>1088.853610017</ele>
        <time>2015-12-14T14:09:24Z</time>
      </trkpt>
      <trkpt lat="45.20468" lon="5.5185">
        <ele>1088.853610017</ele>
        <time>2015-12-14T14:09:29Z</time>
      </trkpt>
      <trkpt lat="45.20469" lon="5.51857">
        <ele>1088.853610017</ele>
        <time>2015-12-14T14:09:44Z</time>
      </trkpt>
      <trkpt lat="45.20469" lon="5.51859">
        <ele>1088.701456973</ele>
        <time>2015-12-14T14:09:49Z</time>
      </trkpt>
      <trkpt lat="45.20468" lon="5.51859">
        <ele>1088.701456973</ele>
        <time>2015-12-14T14:09:59Z</time>
      </trkpt>
      <trkpt lat="45.20476" lon="5.5185">
        <ele>1089.35076084</ele>
        <time>2015-12-14T14:10:15Z</time>
      </trkpt>
      <trkpt lat="45.20478" lon="5.51844">
        <ele>1089.35076084</ele>
        <time>2015-12-14T14:10:19Z</time>
      </trkpt>
      <trkpt lat="45.20482" lon="5.51833">
        <ele>1090.590004163</ele>
        <time>2015-12-14T14:10:29Z</time>
      </trkpt>
      <trkpt lat="45.20483" lon="5.51836">
        <ele>1090.590004163</ele>
        <time>2015-12-14T14:10:34Z</time>
      </trkpt>
      <trkpt lat="45.20484" lon="5.51836">
        <ele>1090.590004163</ele>
        <time>2015-12-14T14:10:45Z</time>
      </trkpt>
      <trkpt lat="45.20484" lon="5.51836">
        <ele>1090.590004163</ele>
        <time>2015-12-14T14:10:50Z</time>
      </trkpt>
      <trkpt lat="45.20484" lon="5.51836">
        <ele>1090.590004163</ele>
        <time>2015-12-14T14:11:01Z</time>
      </trkpt>
      <trkpt lat="45.20484" lon="5.51836">
        <ele>1090.590004163</ele>
        <time>2015-12-14T14:11:04Z</time>
      </trkpt>
      <trkpt lat="45.20488" lon="5.5184">
        <ele>1090.590004163</ele>
        <time>2015-12-14T14:11:19Z</time>
      </trkpt>
      <trkpt lat="45.20488" lon="5.51838">
        <ele>1091.501326584</ele>
        <time>2015-12-14T14:11:24Z</time>
      </trkpt>
      <trkpt lat="45.20486" lon="5.51839">
        <ele>1091.501326584</ele>
        <time>2015-12-14T14:11:35Z</time>
      </trkpt>
      <trkpt lat="45.20485" lon="5.51832">
        <ele>1091.501326584</ele>
        <time>2015-12-14T14:11:39Z</time>
      </trkpt>
      <trkpt lat="45.20486" lon="5.51815">
        <ele>1092.676655792</ele>
        <time>2015-12-14T14:11:49Z</time>
      </trkpt>
      <trkpt lat="45.20486" lon="5.51808">
        <ele>1092.676655792</ele>
        <time>2015-12-14T14:11:54Z</time>
      </trkpt>
      <trkpt lat="45.2048" lon="5.51795">
        <ele>1094.231696262</ele>
        <time>2015-12-14T14:12:05Z</time>
      </trkpt>
      <trkpt lat="45.20479" lon="5.51793">
        <ele>1094.231696262</ele>
        <time>2015-12-14T14:12:11Z</time>
      </trkpt>
      <trkpt lat="45.20471" lon="5.51776">
        <ele>1096.705258913</ele>
        <time>2015-12-14T14:12:20Z</time>
      </trkpt>
      <trkpt lat="45.20472" lon="5.5177">
        <ele>1096.705258913</ele>
        <time>2015-12-14T14:12:24Z</time>
      </trkpt>
      <trkpt lat="45.20468" lon="5.5176">
        <ele>1098.865005308</ele>
        <time>2015-12-14T14:12:35Z</time>
      </trkpt>
      <trkpt lat="45.20463" lon="5.51758">
        <ele>1098.865005308</ele>
        <time>2015-12-14T14:12:40Z</time>
      </trkpt>
      <trkpt lat="45.2046" lon="5.51749">
        <ele>1101.15557497</ele>
        <time>2015-12-14T14:12:50Z</time>
      </trkpt>
      <trkpt lat="45.20461" lon="5.51748">
        <ele>1101.15557497</ele>
        <time>2015-12-14T14:12:54Z</time>
      </trkpt>
      <trkpt lat="45.20458" lon="5.51744">
        <ele>1101.15557497</ele>
        <time>2015-12-14T14:12:59Z</time>
      </trkpt>
      <trkpt lat="45.20457" lon="5.51731">
        <ele>1102.98015261</ele>
        <time>2015-12-14T14:13:09Z</time>
      </trkpt>
      <trkpt lat="45.2046" lon="5.51727">
        <ele>1102.98015261</ele>
        <time>2015-12-14T14:13:14Z</time>
      </trkpt>
      <trkpt lat="45.20458" lon="5.51723">
        <ele>1102.98015261</ele>
        <time>2015-12-14T14:13:24Z</time>
      </trkpt>
      <trkpt lat="45.20458" lon="5.51722">
        <ele>1102.98015261</ele>
        <time>2015-12-14T14:13:29Z</time>
      </trkpt>
      <trkpt lat="45.20458" lon="5.51721">
        <ele>1104.363873268</ele>
        <time>2015-12-14T14:13:39Z</time>
      </trkpt>
      <trkpt lat="45.20459" lon="5.51726">
        <ele>1104.363873268</ele>
        <time>2015-12-14T14:13:44Z</time>
      </trkpt>
      <trkpt lat="45.20453" lon="5.51729">
        <ele>1104.466950159</ele>
        <time>2015-12-14T14:13:54Z</time>
      </trkpt>
      <trkpt lat="45.20453" lon="5.51728">
        <ele>1104.466950159</ele>
        <time>2015-12-14T14:13:59Z</time>
      </trkpt>
      <trkpt lat="45.20454" lon="5.51726">
        <ele>1104.466950159</ele>
        <time>2015-12-14T14:14:09Z</time>
      </trkpt>
      <trkpt lat="45.20454" lon="5.51726">
        <ele>1104.466950159</ele>
        <time>2015-12-14T14:14:14Z</time>
      </trkpt>
      <trkpt lat="45.20454" lon="5.51726">
        <ele>1104.466950159</ele>
        <time>2015-12-14T14:14:24Z</time>
      </trkpt>
      <trkpt lat="45.20454" lon="5.51726">
        <ele>1104.466950159</ele>
        <time>2015-12-14T14:14:29Z</time>
      </trkpt>
      <trkpt lat="45.20454" lon="5.51725">
        <ele>1104.466950159</ele>
        <time>2015-12-14T14:14:46Z</time>
      </trkpt>
      <trkpt lat="45.20449" lon="5.51725">
        <ele>1104.466950159</ele>
        <time>2015-12-14T14:14:55Z</time>
      </trkpt>
      <trkpt lat="45.20451" lon="5.51723">
        <ele>1105.541564173</ele>
        <time>2015-12-14T14:14:59Z</time>
      </trkpt>
      <trkpt lat="45.20452" lon="5.51718">
        <ele>1105.541564173</ele>
        <time>2015-12-14T14:15:14Z</time>
      </trkpt>
      <trkpt lat="45.20451" lon="5.51717">
        <ele>1105.541564173</ele>
        <time>2015-12-14T14:15:20Z</time>
      </trkpt>
      <trkpt lat="45.20451" lon="5.51711">
        <ele>1105.541564173</ele>
        <time>2015-12-14T14:15:29Z</time>
      </trkpt>
      <trkpt lat="45.20454" lon="5.51705">
        <ele>1106.933957555</ele>
        <time>2015-12-14T14:15:36Z</time>
      </trkpt>
      <trkpt lat="45.20455" lon="5.51699">
        <ele>1106.933957555</ele>
        <time>2015-12-14T14:15:46Z</time>
      </trkpt>
      <trkpt lat="45.20455" lon="5.51698">
        <ele>1106.933957555</ele>
        <time>2015-12-14T14:15:49Z</time>
      </trkpt>
      <trkpt lat="45.20455" lon="5.51699">
        <ele>1106.933957555</ele>
        <time>2015-12-14T14:16:04Z</time>
      </trkpt>
      <trkpt lat="45.20455" lon="5.51698">
        <ele>1106.933957555</ele>
        <time>2015-12-14T14:16:20Z</time>
      </trkpt>
      <trkpt lat="45.20455" lon="5.51698">
        <ele>1106.933957555</ele>
        <time>2015-12-14T14:16:24Z</time>
      </trkpt>
      <trkpt lat="45.20455" lon="5.51697">
        <ele>1106.933957555</ele>
        <time>2015-12-14T14:16:34Z</time>
      </trkpt>
      <trkpt lat="45.20455" lon="5.51697">
        <ele>1106.933957555</ele>
        <time>2015-12-14T14:16:39Z</time>
      </trkpt>
      <trkpt lat="45.20455" lon="5.51697">
        <ele>1106.933957555</ele>
        <time>2015-12-14T14:16:49Z</time>
      </trkpt>
      <trkpt lat="45.20455" lon="5.51697">
        <ele>1106.933957555</ele>
        <time>2015-12-14T14:16:54Z</time>
      </trkpt>
      <trkpt lat="45.20455" lon="5.51697">
        <ele>1106.933957555</ele>
        <time>2015-12-14T14:17:04Z</time>
      </trkpt>
      <trkpt lat="45.20455" lon="5.51697">
        <ele>1106.933957555</ele>
        <time>2015-12-14T14:17:09Z</time>
      </trkpt>
      <trkpt lat="45.20455" lon="5.51697">
        <ele>1106.933957555</ele>
        <time>2015-12-14T14:17:14Z</time>
      </trkpt>
      <trkpt lat="45.20454" lon="5.51696">
        <ele>1106.933957555</ele>
        <time>2015-12-14T14:17:19Z</time>
      </trkpt>
      <trkpt lat="45.20453" lon="5.51695">
        <ele>1106.933957555</ele>
        <time>2015-12-14T14:17:34Z</time>
      </trkpt>
      <trkpt lat="45.20453" lon="5.51694">
        <ele>1108.614285072</ele>
        <time>2015-12-14T14:17:39Z</time>
      </trkpt>
      <trkpt lat="45.20453" lon="5.51694">
        <ele>1108.614285072</ele>
        <time>2015-12-14T14:17:49Z</time>
      </trkpt>
      <trkpt lat="45.20453" lon="5.51694">
        <ele>1108.614285072</ele>
        <time>2015-12-14T14:17:54Z</time>
      </trkpt>
      <trkpt lat="45.20453" lon="5.51694">
        <ele>1108.614285072</ele>
        <time>2015-12-14T14:18:04Z</time>
      </trkpt>
      <trkpt lat="45.20453" lon="5.51694">
        <ele>1108.614285072</ele>
        <time>2015-12-14T14:18:09Z</time>
      </trkpt>
      <trkpt lat="45.20453" lon="5.51694">
        <ele>1108.614285072</ele>
        <time>2015-12-14T14:18:19Z</time>
      </trkpt>
      <trkpt lat="45.20453" lon="5.51694">
        <ele>1108.614285072</ele>
        <time>2015-12-14T14:18:24Z</time>
      </trkpt>
      <trkpt lat="45.20453" lon="5.51694">
        <ele>1108.614285072</ele>
        <time>2015-12-14T14:18:35Z</time>
      </trkpt>
      <trkpt lat="45.20453" lon="5.51694">
        <ele>1108.614285072</ele>
        <time>2015-12-14T14:18:39Z</time>
      </trkpt>
      <trkpt lat="45.20453" lon="5.51693">
        <ele>1108.614285072</ele>
        <time>2015-12-14T14:18:49Z</time>
      </trkpt>
      <trkpt lat="45.20453" lon="5.51693">
        <ele>1108.614285072</ele>
        <time>2015-12-14T14:18:54Z</time>
      </trkpt>
      <trkpt lat="45.20454" lon="5.51693">
        <ele>1108.614285072</ele>
        <time>2015-12-14T14:19:04Z</time>
      </trkpt>
      <trkpt lat="45.20453" lon="5.51693">
        <ele>1108.614285072</ele>
        <time>2015-12-14T14:19:09Z</time>
      </trkpt>
      <trkpt lat="45.20453" lon="5.51701">
        <ele>1108.614285072</ele>
        <time>2015-12-14T14:19:19Z</time>
      </trkpt>
      <trkpt lat="45.20454" lon="5.51702">
        <ele>1109.977968267</ele>
        <time>2015-12-14T14:19:24Z</time>
      </trkpt>
      <trkpt lat="45.20457" lon="5.51707">
        <ele>1109.977968267</ele>
        <time>2015-12-14T14:19:36Z</time>
      </trkpt>
      <trkpt lat="45.20459" lon="5.51711">
        <ele>1109.977968267</ele>
        <time>2015-12-14T14:19:39Z</time>
      </trkpt>
      <trkpt lat="45.20468" lon="5.51733">
        <ele>1111.474827944</ele>
        <time>2015-12-14T14:19:55Z</time>
      </trkpt>
      <trkpt lat="45.2047" lon="5.51739">
        <ele>1111.474827944</ele>
        <time>2015-12-14T14:20:00Z</time>
      </trkpt>
      <trkpt lat="45.20476" lon="5.51749">
        <ele>1112.368692281</ele>
        <time>2015-12-14T14:20:09Z</time>
      </trkpt>
      <trkpt lat="45.20478" lon="5.51755">
        <ele>1112.368692281</ele>
        <time>2015-12-14T14:20:14Z</time>
      </trkpt>
      <trkpt lat="45.20484" lon="5.51768">
        <ele>1112.988243194</ele>
        <time>2015-12-14T14:20:24Z</time>
      </trkpt>
      <trkpt lat="45.20484" lon="5.51771">
        <ele>1112.988243194</ele>
        <time>2015-12-14T14:20:30Z</time>
      </trkpt>
      <trkpt lat="45.20487" lon="5.51782">
        <ele>1113.062636308</ele>
        <time>2015-12-14T14:20:40Z</time>
      </trkpt>
      <trkpt lat="45.2049" lon="5.51789">
        <ele>1113.062636308</ele>
        <time>2015-12-14T14:20:44Z</time>
      </trkpt>
      <trkpt lat="45.20492" lon="5.5181">
        <ele>1113.351510864</ele>
        <time>2015-12-14T14:20:54Z</time>
      </trkpt>
      <trkpt lat="45.20493" lon="5.51818">
        <ele>1113.351510864</ele>
        <time>2015-12-14T14:21:00Z</time>
      </trkpt>
      <trkpt lat="45.20495" lon="5.51833">
        <ele>1113.261365092</ele>
        <time>2015-12-14T14:21:10Z</time>
      </trkpt>
      <trkpt lat="45.20495" lon="5.51837">
        <ele>1113.261365092</ele>
        <time>2015-12-14T14:21:15Z</time>
      </trkpt>
      <trkpt lat="45.20492" lon="5.51836">
        <ele>1113.261365092</ele>
        <time>2015-12-14T14:21:24Z</time>
      </trkpt>
      <trkpt lat="45.20492" lon="5.51836">
        <ele>1113.261365092</ele>
        <time>2015-12-14T14:21:29Z</time>
      </trkpt>
      <trkpt lat="45.20491" lon="5.5184">
        <ele>1112.387715072</ele>
        <time>2015-12-14T14:21:34Z</time>
      </trkpt>
      <trkpt lat="45.2049" lon="5.51841">
        <ele>1112.387715072</ele>
        <time>2015-12-14T14:21:39Z</time>
      </trkpt>
      <trkpt lat="45.2049" lon="5.51842">
        <ele>1112.387715072</ele>
        <time>2015-12-14T14:21:44Z</time>
      </trkpt>
      <trkpt lat="45.2049" lon="5.51842">
        <ele>1112.387715072</ele>
        <time>2015-12-14T14:21:55Z</time>
      </trkpt>
      <trkpt lat="45.2049" lon="5.51842">
        <ele>1112.387715072</ele>
        <time>2015-12-14T14:21:59Z</time>
      </trkpt>
      <trkpt lat="45.2049" lon="5.51842">
        <ele>1112.387715072</ele>
        <time>2015-12-14T14:22:04Z</time>
      </trkpt>
      <trkpt lat="45.20486" lon="5.51848">
        <ele>1112.387715072</ele>
        <time>2015-12-14T14:22:14Z</time>
      </trkpt>
      <trkpt lat="45.20478" lon="5.51861">
        <ele>1110.790545225</ele>
        <time>2015-12-14T14:22:30Z</time>
      </trkpt>
      <trkpt lat="45.20471" lon="5.51859">
        <ele>1110.790545225</ele>
        <time>2015-12-14T14:22:34Z</time>
      </trkpt>
      <trkpt lat="45.20459" lon="5.5185">
        <ele>1108.527662309</ele>
        <time>2015-12-14T14:22:44Z</time>
      </trkpt>
      <trkpt lat="45.20455" lon="5.51846">
        <ele>1108.527662309</ele>
        <time>2015-12-14T14:22:49Z</time>
      </trkpt>
      <trkpt lat="45.20446" lon="5.51843">
        <ele>1106.375221413</ele>
        <time>2015-12-14T14:22:59Z</time>
      </trkpt>
      <trkpt lat="45.20442" lon="5.51838">
        <ele>1106.375221413</ele>
        <time>2015-12-14T14:23:04Z</time>
      </trkpt>
      <trkpt lat="45.20433" lon="5.51835">
        <ele>1104.187526495</ele>
        <time>2015-12-14T14:23:14Z</time>
      </trkpt>
      <trkpt lat="45.20424" lon="5.51828">
        <ele>1102.262128569</ele>
        <time>2015-12-14T14:23:20Z</time>
      </trkpt>
      <trkpt lat="45.20412" lon="5.5182">
        <ele>1100.441735355</ele>
        <time>2015-12-14T14:23:30Z</time>
      </trkpt>
      <trkpt lat="45.20408" lon="5.51819">
        <ele>1100.441735355</ele>
        <time>2015-12-14T14:23:34Z</time>
      </trkpt>
      <trkpt lat="45.20402" lon="5.51813">
        <ele>1098.724484563</ele>
        <time>2015-12-14T14:23:39Z</time>
      </trkpt>
      <trkpt lat="45.20386" lon="5.51808">
        <ele>1097.82895484</ele>
        <time>2015-12-14T14:23:51Z</time>
      </trkpt>
      <trkpt lat="45.20383" lon="5.51806">
        <ele>1097.82895484</ele>
        <time>2015-12-14T14:23:55Z</time>
      </trkpt>
      <trkpt lat="45.20377" lon="5.51803">
        <ele>1096.401095908</ele>
        <time>2015-12-14T14:23:59Z</time>
      </trkpt>
      <trkpt lat="45.20368" lon="5.51801">
        <ele>1095.493601079</ele>
        <time>2015-12-14T14:24:10Z</time>
      </trkpt>
      <trkpt lat="45.20359" lon="5.51797">
        <ele>1095.493601079</ele>
        <time>2015-12-14T14:24:16Z</time>
      </trkpt>
      <trkpt lat="45.20352" lon="5.5179">
        <ele>1094.062807679</ele>
        <time>2015-12-14T14:24:24Z</time>
      </trkpt>
      <trkpt lat="45.20347" lon="5.51784">
        <ele>1094.062807679</ele>
        <time>2015-12-14T14:24:29Z</time>
      </trkpt>
      <trkpt lat="45.20335" lon="5.51781">
        <ele>1093.160723486</ele>
        <time>2015-12-14T14:24:39Z</time>
      </trkpt>
      <trkpt lat="45.20331" lon="5.51771">
        <ele>1093.160723486</ele>
        <time>2015-12-14T14:24:44Z</time>
      </trkpt>
      <trkpt lat="45.20322" lon="5.51765">
        <ele>1091.887116441</ele>
        <time>2015-12-14T14:24:54Z</time>
      </trkpt>
      <trkpt lat="45.20321" lon="5.51754">
        <ele>1091.887116441</ele>
        <time>2015-12-14T14:24:59Z</time>
      </trkpt>
      <trkpt lat="45.20305" lon="5.51745">
        <ele>1089.408883821</ele>
        <time>2015-12-14T14:25:14Z</time>
      </trkpt>
      <trkpt lat="45.20301" lon="5.51742">
        <ele>1089.408883821</ele>
        <time>2015-12-14T14:25:19Z</time>
      </trkpt>
      <trkpt lat="45.20292" lon="5.51735">
        <ele>1086.975001669</ele>
        <time>2015-12-14T14:25:29Z</time>
      </trkpt>
      <trkpt lat="45.20287" lon="5.51732">
        <ele>1086.975001669</ele>
        <time>2015-12-14T14:25:34Z</time>
      </trkpt>
      <trkpt lat="45.20274" lon="5.51729">
        <ele>1084.73372457</ele>
        <time>2015-12-14T14:25:44Z</time>
      </trkpt>
      <trkpt lat="45.20267" lon="5.51724">
        <ele>1084.73372457</ele>
        <time>2015-12-14T14:25:49Z</time>
      </trkpt>
      <trkpt lat="45.20255" lon="5.51716">
        <ele>1081.813011935</ele>
        <time>2015-12-14T14:25:59Z</time>
      </trkpt>
      <trkpt lat="45.20251" lon="5.51715">
        <ele>1081.813011935</ele>
        <time>2015-12-14T14:26:04Z</time>
      </trkpt>
      <trkpt lat="45.20242" lon="5.51706">
        <ele>1079.424243295</ele>
        <time>2015-12-14T14:26:14Z</time>
      </trkpt>
      <trkpt lat="45.20235" lon="5.517">
        <ele>1079.424243295</ele>
        <time>2015-12-14T14:26:19Z</time>
      </trkpt>
      <trkpt lat="45.20223" lon="5.51695">
        <ele>1078.111759532</ele>
        <time>2015-12-14T14:26:29Z</time>
      </trkpt>
      <trkpt lat="45.20215" lon="5.51692">
        <ele>1078.111759532</ele>
        <time>2015-12-14T14:26:35Z</time>
      </trkpt>
      <trkpt lat="45.20211" lon="5.51688">
        <ele>1076.647436602</ele>
        <time>2015-12-14T14:26:45Z</time>
      </trkpt>
      <trkpt lat="45.20212" lon="5.51684">
        <ele>1076.647436602</ele>
        <time>2015-12-14T14:26:49Z</time>
      </trkpt>
      <trkpt lat="45.20212" lon="5.51681">
        <ele>1076.647436602</ele>
        <time>2015-12-14T14:26:59Z</time>
      </trkpt>
      <trkpt lat="45.20211" lon="5.51681">
        <ele>1076.647436602</ele>
        <time>2015-12-14T14:27:05Z</time>
      </trkpt>
      <trkpt lat="45.20211" lon="5.51681">
        <ele>1076.647436602</ele>
        <time>2015-12-14T14:27:15Z</time>
      </trkpt>
      <trkpt lat="45.20211" lon="5.51681">
        <ele>1076.647436602</ele>
        <time>2015-12-14T14:27:19Z</time>
      </trkpt>
      <trkpt lat="45.20211" lon="5.51681">
        <ele>1076.647436602</ele>
        <time>2015-12-14T14:27:29Z</time>
      </trkpt>
      <trkpt lat="45.20197" lon="5.51679">
        <ele>1075.334774069</ele>
        <time>2015-12-14T14:27:34Z</time>
      </trkpt>
      <trkpt lat="45.2018" lon="5.51673">
        <ele>1074.454417657</ele>
        <time>2015-12-14T14:27:45Z</time>
      </trkpt>
      <trkpt lat="45.20186" lon="5.51657">
        <ele>1072.679826827</ele>
        <time>2015-12-14T14:27:50Z</time>
      </trkpt>
      <trkpt lat="45.20189" lon="5.5165">
        <ele>1072.679826827</ele>
        <time>2015-12-14T14:27:55Z</time>
      </trkpt>
      <trkpt lat="45.20189" lon="5.51643">
        <ele>1070.369502948</ele>
        <time>2015-12-14T14:28:05Z</time>
      </trkpt>
      <trkpt lat="45.20189" lon="5.51642">
        <ele>1070.369502948</ele>
        <time>2015-12-14T14:28:09Z</time>
      </trkpt>
      <trkpt lat="45.20189" lon="5.51642">
        <ele>1070.369502948</ele>
        <time>2015-12-14T14:28:20Z</time>
      </trkpt>
      <trkpt lat="45.20189" lon="5.51642">
        <ele>1070.369502948</ele>
        <time>2015-12-14T14:28:25Z</time>
      </trkpt>
      <trkpt lat="45.20192" lon="5.51648">
        <ele>1070.369502948</ele>
        <time>2015-12-14T14:28:35Z</time>
      </trkpt>
      <trkpt lat="45.2019" lon="5.51651">
        <ele>1070.369502948</ele>
        <time>2015-12-14T14:28:39Z</time>
      </trkpt>
      <trkpt lat="45.20185" lon="5.51649">
        <ele>1068.433421166</ele>
        <time>2015-12-14T14:28:50Z</time>
      </trkpt>
      <trkpt lat="45.20175" lon="5.51649">
        <ele>1067.137075205</ele>
        <time>2015-12-14T14:28:54Z</time>
      </trkpt>
      <trkpt lat="45.2016" lon="5.51644">
        <ele>1065.715739839</ele>
        <time>2015-12-14T14:29:04Z</time>
      </trkpt>
      <trkpt lat="45.20155" lon="5.51641">
        <ele>1065.715739839</ele>
        <time>2015-12-14T14:29:11Z</time>
      </trkpt>
      <trkpt lat="45.20142" lon="5.5163">
        <ele>1065.33451992</ele>
        <time>2015-12-14T14:29:19Z</time>
      </trkpt>
      <trkpt lat="45.20138" lon="5.51625">
        <ele>1065.33451992</ele>
        <time>2015-12-14T14:29:24Z</time>
      </trkpt>
      <trkpt lat="45.2013" lon="5.51621">
        <ele>1065.484655058</ele>
        <time>2015-12-14T14:29:29Z</time>
      </trkpt>
      <trkpt lat="45.20124" lon="5.51617">
        <ele>1065.484655058</ele>
        <time>2015-12-14T14:29:34Z</time>
      </trkpt>
      <trkpt lat="45.20124" lon="5.51609">
        <ele>1066.269585403</ele>
        <time>2015-12-14T14:29:39Z</time>
      </trkpt>
      <trkpt lat="45.20115" lon="5.5161">
        <ele>1066.269585403</ele>
        <time>2015-12-14T14:29:44Z</time>
      </trkpt>
      <trkpt lat="45.20106" lon="5.51601">
        <ele>1066.630368227</ele>
        <time>2015-12-14T14:29:55Z</time>
      </trkpt>
      <trkpt lat="45.20101" lon="5.516">
        <ele>1066.630368227</ele>
        <time>2015-12-14T14:29:59Z</time>
      </trkpt>
      <trkpt lat="45.20092" lon="5.51593">
        <ele>1066.739829991</ele>
        <time>2015-12-14T14:30:09Z</time>
      </trkpt>
      <trkpt lat="45.20082" lon="5.51593">
        <ele>1066.758721739</ele>
        <time>2015-12-14T14:30:16Z</time>
      </trkpt>
      <trkpt lat="45.20075" lon="5.51586">
        <ele>1066.758721739</ele>
        <time>2015-12-14T14:30:25Z</time>
      </trkpt>
      <trkpt lat="45.20071" lon="5.51579">
        <ele>1067.556725497</ele>
        <time>2015-12-14T14:30:31Z</time>
      </trkpt>
      <trkpt lat="45.20074" lon="5.51571">
        <ele>1067.556725497</ele>
        <time>2015-12-14T14:30:40Z</time>
      </trkpt>
      <trkpt lat="45.20074" lon="5.5157">
        <ele>1067.556725497</ele>
        <time>2015-12-14T14:30:44Z</time>
      </trkpt>
      <trkpt lat="45.20074" lon="5.5157">
        <ele>1067.556725497</ele>
        <time>2015-12-14T14:30:55Z</time>
      </trkpt>
      <trkpt lat="45.20074" lon="5.5157">
        <ele>1067.556725497</ele>
        <time>2015-12-14T14:31:00Z</time>
      </trkpt>
      <trkpt lat="45.20074" lon="5.51569">
        <ele>1067.556725497</ele>
        <time>2015-12-14T14:31:10Z</time>
      </trkpt>
      <trkpt lat="45.20074" lon="5.51569">
        <ele>1067.556725497</ele>
        <time>2015-12-14T14:31:14Z</time>
      </trkpt>
      <trkpt lat="45.20074" lon="5.51569">
        <ele>1067.556725497</ele>
        <time>2015-12-14T14:31:19Z</time>
      </trkpt>
      <trkpt lat="45.20074" lon="5.51569">
        <ele>1067.556725497</ele>
        <time>2015-12-14T14:31:29Z</time>
      </trkpt>
      <trkpt lat="45.20074" lon="5.51569">
        <ele>1067.556725497</ele>
        <time>2015-12-14T14:31:34Z</time>
      </trkpt>
      <trkpt lat="45.20074" lon="5.51569">
        <ele>1067.556725497</ele>
        <time>2015-12-14T14:31:39Z</time>
      </trkpt>
      <trkpt lat="45.20074" lon="5.51569">
        <ele>1067.556725497</ele>
        <time>2015-12-14T14:31:44Z</time>
      </trkpt>
      <trkpt lat="45.20074" lon="5.51569">
        <ele>1067.556725497</ele>
        <time>2015-12-14T14:31:49Z</time>
      </trkpt>
      <trkpt lat="45.20074" lon="5.51569">
        <ele>1067.556725497</ele>
        <time>2015-12-14T14:31:54Z</time>
      </trkpt>
      <trkpt lat="45.20074" lon="5.51568">
        <ele>1067.556725497</ele>
        <time>2015-12-14T14:31:59Z</time>
      </trkpt>
      <trkpt lat="45.20078" lon="5.51568">
        <ele>1067.48750309</ele>
        <time>2015-12-14T14:32:04Z</time>
      </trkpt>
      <trkpt lat="45.20074" lon="5.51571">
        <ele>1067.48750309</ele>
        <time>2015-12-14T14:32:09Z</time>
      </trkpt>
      <trkpt lat="45.20066" lon="5.51571">
        <ele>1072.089496129</ele>
        <time>2015-12-14T14:32:19Z</time>
      </trkpt>
      <trkpt lat="45.20059" lon="5.51568">
        <ele>1072.089496129</ele>
        <time>2015-12-14T14:32:25Z</time>
      </trkpt>
      <trkpt lat="45.20045" lon="5.51562">
        <ele>1073.367053988</ele>
        <time>2015-12-14T14:32:34Z</time>
      </trkpt>
      <trkpt lat="45.20041" lon="5.5156">
        <ele>1073.367053988</ele>
        <time>2015-12-14T14:32:40Z</time>
      </trkpt>
      <trkpt lat="45.2003" lon="5.51554">
        <ele>1074.008988253</ele>
        <time>2015-12-14T14:32:50Z</time>
      </trkpt>
      <trkpt lat="45.20026" lon="5.51551">
        <ele>1074.008988253</ele>
        <time>2015-12-14T14:32:55Z</time>
      </trkpt>
      <trkpt lat="45.20009" lon="5.5154">
        <ele>1074.202613347</ele>
        <time>2015-12-14T14:33:10Z</time>
      </trkpt>
      <trkpt lat="45.19998" lon="5.51532">
        <ele>1074.843329372</ele>
        <time>2015-12-14T14:33:25Z</time>
      </trkpt>
      <trkpt lat="45.19991" lon="5.51527">
        <ele>1074.843329372</ele>
        <time>2015-12-14T14:33:29Z</time>
      </trkpt>
      <trkpt lat="45.19982" lon="5.51522">
        <ele>1075.750769102</ele>
        <time>2015-12-14T14:33:37Z</time>
      </trkpt>
      <trkpt lat="45.19981" lon="5.51518">
        <ele>1075.750769102</ele>
        <time>2015-12-14T14:33:40Z</time>
      </trkpt>
      <trkpt lat="45.19976" lon="5.51516">
        <ele>1075.750769102</ele>
        <time>2015-12-14T14:33:45Z</time>
      </trkpt>
      <trkpt lat="45.19967" lon="5.51515">
        <ele>1076.036557616</ele>
        <time>2015-12-14T14:33:55Z</time>
      </trkpt>
      <trkpt lat="45.19963" lon="5.51516">
        <ele>1076.036557616</ele>
        <time>2015-12-14T14:34:00Z</time>
      </trkpt>
      <trkpt lat="45.1995" lon="5.51515">
        <ele>1076.608710082</ele>
        <time>2015-12-14T14:34:10Z</time>
      </trkpt>
      <trkpt lat="45.19942" lon="5.51514">
        <ele>1076.608710082</ele>
        <time>2015-12-14T14:34:14Z</time>
      </trkpt>
      <trkpt lat="45.19937" lon="5.51512">
        <ele>1077.154904974</ele>
        <time>2015-12-14T14:34:24Z</time>
      </trkpt>
      <trkpt lat="45.19931" lon="5.51513">
        <ele>1077.154904974</ele>
        <time>2015-12-14T14:34:29Z</time>
      </trkpt>
      <trkpt lat="45.19917" lon="5.51512">
        <ele>1077.962344527</ele>
        <time>2015-12-14T14:34:39Z</time>
      </trkpt>
      <trkpt lat="45.19914" lon="5.5151">
        <ele>1077.962344527</ele>
        <time>2015-12-14T14:34:45Z</time>
      </trkpt>
      <trkpt lat="45.19901" lon="5.51512">
        <ele>1078.864134915</ele>
        <time>2015-12-14T14:34:54Z</time>
      </trkpt>
      <trkpt lat="45.19893" lon="5.51513">
        <ele>1078.864134915</ele>
        <time>2015-12-14T14:34:59Z</time>
      </trkpt>
      <trkpt lat="45.19879" lon="5.51506">
        <ele>1080.281896271</ele>
        <time>2015-12-14T14:35:10Z</time>
      </trkpt>
      <trkpt lat="45.19878" lon="5.51504">
        <ele>1080.281896271</ele>
        <time>2015-12-14T14:35:14Z</time>
      </trkpt>
      <trkpt lat="45.1987" lon="5.51501">
        <ele>1080.73146322</ele>
        <time>2015-12-14T14:35:25Z</time>
      </trkpt>
      <trkpt lat="45.19868" lon="5.51503">
        <ele>1080.73146322</ele>
        <time>2015-12-14T14:35:30Z</time>
      </trkpt>
      <trkpt lat="45.19845" lon="5.51496">
        <ele>1080.858051949</ele>
        <time>2015-12-14T14:35:45Z</time>
      </trkpt>
      <trkpt lat="45.19838" lon="5.51494">
        <ele>1080.858051949</ele>
        <time>2015-12-14T14:35:50Z</time>
      </trkpt>
      <trkpt lat="45.19828" lon="5.51492">
        <ele>1081.83691919</ele>
        <time>2015-12-14T14:36:00Z</time>
      </trkpt>
      <trkpt lat="45.19823" lon="5.51488">
        <ele>1081.83691919</ele>
        <time>2015-12-14T14:36:05Z</time>
      </trkpt>
      <trkpt lat="45.19818" lon="5.51475">
        <ele>1083.601798687</ele>
        <time>2015-12-14T14:36:14Z</time>
      </trkpt>
      <trkpt lat="45.19816" lon="5.51463">
        <ele>1083.601798687</ele>
        <time>2015-12-14T14:36:20Z</time>
      </trkpt>
      <trkpt lat="45.19823" lon="5.51442">
        <ele>1084.359846359</ele>
        <time>2015-12-14T14:36:30Z</time>
      </trkpt>
      <trkpt lat="45.19826" lon="5.51437">
        <ele>1084.359846359</ele>
        <time>2015-12-14T14:36:35Z</time>
      </trkpt>
      <trkpt lat="45.19829" lon="5.51423">
        <ele>1084.038061559</ele>
        <time>2015-12-14T14:36:45Z</time>
      </trkpt>
      <trkpt lat="45.19827" lon="5.51416">
        <ele>1084.038061559</ele>
        <time>2015-12-14T14:36:50Z</time>
      </trkpt>
      <trkpt lat="45.19823" lon="5.51402">
        <ele>1084.157154317</ele>
        <time>2015-12-14T14:37:05Z</time>
      </trkpt>
      <trkpt lat="45.19821" lon="5.51398">
        <ele>1084.157154317</ele>
        <time>2015-12-14T14:37:09Z</time>
      </trkpt>
      <trkpt lat="45.19813" lon="5.51388">
        <ele>1084.107424981</ele>
        <time>2015-12-14T14:37:20Z</time>
      </trkpt>
      <trkpt lat="45.19809" lon="5.51381">
        <ele>1084.107424981</ele>
        <time>2015-12-14T14:37:25Z</time>
      </trkpt>
      <trkpt lat="45.19802" lon="5.51377">
        <ele>1084.333303163</ele>
        <time>2015-12-14T14:37:36Z</time>
      </trkpt>
      <trkpt lat="45.19798" lon="5.51373">
        <ele>1084.333303163</ele>
        <time>2015-12-14T14:37:40Z</time>
      </trkpt>
      <trkpt lat="45.19787" lon="5.51363">
        <ele>1084.669437558</ele>
        <time>2015-12-14T14:37:50Z</time>
      </trkpt>
      <trkpt lat="45.19785" lon="5.51357">
        <ele>1084.669437558</ele>
        <time>2015-12-14T14:37:54Z</time>
      </trkpt>
      <trkpt lat="45.19778" lon="5.51352">
        <ele>1084.241837665</ele>
        <time>2015-12-14T14:38:05Z</time>
      </trkpt>
      <trkpt lat="45.19772" lon="5.51345">
        <ele>1084.241837665</ele>
        <time>2015-12-14T14:38:09Z</time>
      </trkpt>
      <trkpt lat="45.19762" lon="5.51339">
        <ele>1083.972266478</ele>
        <time>2015-12-14T14:38:20Z</time>
      </trkpt>
      <trkpt lat="45.19757" lon="5.51335">
        <ele>1083.972266478</ele>
        <time>2015-12-14T14:38:25Z</time>
      </trkpt>
      <trkpt lat="45.19745" lon="5.51325">
        <ele>1084.137955996</ele>
        <time>2015-12-14T14:38:35Z</time>
      </trkpt>
      <trkpt lat="45.19741" lon="5.51323">
        <ele>1084.137955996</ele>
        <time>2015-12-14T14:38:40Z</time>
      </trkpt>
      <trkpt lat="45.19734" lon="5.51314">
        <ele>1084.129948449</ele>
        <time>2015-12-14T14:38:49Z</time>
      </trkpt>
      <trkpt lat="45.19728" lon="5.51308">
        <ele>1084.129948449</ele>
        <time>2015-12-14T14:38:55Z</time>
      </trkpt>
      <trkpt lat="45.19717" lon="5.51299">
        <ele>1084.105120958</ele>
        <time>2015-12-14T14:39:06Z</time>
      </trkpt>
      <trkpt lat="45.19713" lon="5.51296">
        <ele>1084.105120958</ele>
        <time>2015-12-14T14:39:09Z</time>
      </trkpt>
      <trkpt lat="45.19709" lon="5.51291">
        <ele>1083.920704714</ele>
        <time>2015-12-14T14:39:14Z</time>
      </trkpt>
      <trkpt lat="45.197" lon="5.51282">
        <ele>1084.165471625</ele>
        <time>2015-12-14T14:39:25Z</time>
      </trkpt>
      <trkpt lat="45.19687" lon="5.51264">
        <ele>1083.654449221</ele>
        <time>2015-12-14T14:39:40Z</time>
      </trkpt>
      <trkpt lat="45.19686" lon="5.51256">
        <ele>1083.654449221</ele>
        <time>2015-12-14T14:39:45Z</time>
      </trkpt>
      <trkpt lat="45.19676" lon="5.51247">
        <ele>1082.588871345</ele>
        <time>2015-12-14T14:39:55Z</time>
      </trkpt>
      <trkpt lat="45.19671" lon="5.51243">
        <ele>1082.588871345</ele>
        <time>2015-12-14T14:39:59Z</time>
      </trkpt>
      <trkpt lat="45.1966" lon="5.51239">
        <ele>1081.444997905</ele>
        <time>2015-12-14T14:40:07Z</time>
      </trkpt>
      <trkpt lat="45.19653" lon="5.5124">
        <ele>1081.444997905</ele>
        <time>2015-12-14T14:40:09Z</time>
      </trkpt>
      <trkpt lat="45.19636" lon="5.51225">
        <ele>1080.520233121</ele>
        <time>2015-12-14T14:40:25Z</time>
      </trkpt>
      <trkpt lat="45.1963" lon="5.51218">
        <ele>1080.520233121</ele>
        <time>2015-12-14T14:40:30Z</time>
      </trkpt>
      <trkpt lat="45.19618" lon="5.51206">
        <ele>1079.224863032</ele>
        <time>2015-12-14T14:40:40Z</time>
      </trkpt>
      <trkpt lat="45.19612" lon="5.51199">
        <ele>1079.224863032</ele>
        <time>2015-12-14T14:40:45Z</time>
      </trkpt>
      <trkpt lat="45.19603" lon="5.51189">
        <ele>1077.445865527</ele>
        <time>2015-12-14T14:40:55Z</time>
      </trkpt>
      <trkpt lat="45.196" lon="5.51181">
        <ele>1077.445865527</ele>
        <time>2015-12-14T14:41:00Z</time>
      </trkpt>
      <trkpt lat="45.19587" lon="5.51173">
        <ele>1106.928486416</ele>
        <time>2015-12-14T14:41:10Z</time>
      </trkpt>
      <trkpt lat="45.19583" lon="5.51172">
        <ele>1106.928486416</ele>
        <time>2015-12-14T14:41:15Z</time>
      </trkpt>
      <trkpt lat="45.19573" lon="5.51159">
        <ele>1106.928876268</ele>
        <time>2015-12-14T14:41:25Z</time>
      </trkpt>
      <trkpt lat="45.19566" lon="5.51157">
        <ele>1106.928876268</ele>
        <time>2015-12-14T14:41:30Z</time>
      </trkpt>
      <trkpt lat="45.19554" lon="5.51151">
        <ele>1105.697358958</ele>
        <time>2015-12-14T14:41:39Z</time>
      </trkpt>
      <trkpt lat="45.1955" lon="5.51148">
        <ele>1105.697358958</ele>
        <time>2015-12-14T14:41:45Z</time>
      </trkpt>
      <trkpt lat="45.1954" lon="5.51137">
        <ele>1103.472608579</ele>
        <time>2015-12-14T14:41:55Z</time>
      </trkpt>
      <trkpt lat="45.19535" lon="5.51135">
        <ele>1103.472608579</ele>
        <time>2015-12-14T14:42:00Z</time>
      </trkpt>
      <trkpt lat="45.19528" lon="5.51128">
        <ele>1101.343393237</ele>
        <time>2015-12-14T14:42:09Z</time>
      </trkpt>
      <trkpt lat="45.19527" lon="5.51129">
        <ele>1101.343393237</ele>
        <time>2015-12-14T14:42:14Z</time>
      </trkpt>
      <trkpt lat="45.19511" lon="5.51125">
        <ele>1099.597821952</ele>
        <time>2015-12-14T14:42:24Z</time>
      </trkpt>
      <trkpt lat="45.19506" lon="5.51117">
        <ele>1099.597821952</ele>
        <time>2015-12-14T14:42:30Z</time>
      </trkpt>
      <trkpt lat="45.19492" lon="5.511">
        <ele>1096.051985508</ele>
        <time>2015-12-14T14:42:45Z</time>
      </trkpt>
      <trkpt lat="45.19474" lon="5.51093">
        <ele>1092.290311095</ele>
        <time>2015-12-14T14:43:00Z</time>
      </trkpt>
      <trkpt lat="45.19469" lon="5.51085">
        <ele>1092.290311095</ele>
        <time>2015-12-14T14:43:04Z</time>
      </trkpt>
      <trkpt lat="45.19461" lon="5.51069">
        <ele>1087.187480634</ele>
        <time>2015-12-14T14:43:15Z</time>
      </trkpt>
      <trkpt lat="45.19455" lon="5.51062">
        <ele>1087.187480634</ele>
        <time>2015-12-14T14:43:19Z</time>
      </trkpt>
      <trkpt lat="45.19448" lon="5.51052">
        <ele>1081.578049638</ele>
        <time>2015-12-14T14:43:29Z</time>
      </trkpt>
      <trkpt lat="45.19447" lon="5.51051">
        <ele>1081.578049638</ele>
        <time>2015-12-14T14:43:34Z</time>
      </trkpt>
      <trkpt lat="45.19435" lon="5.5104">
        <ele>1076.524869325</ele>
        <time>2015-12-14T14:43:48Z</time>
      </trkpt>
      <trkpt lat="45.19429" lon="5.51036">
        <ele>1076.524869325</ele>
        <time>2015-12-14T14:43:49Z</time>
      </trkpt>
      <trkpt lat="45.19418" lon="5.51026">
        <ele>1071.569958122</ele>
        <time>2015-12-14T14:44:00Z</time>
      </trkpt>
      <trkpt lat="45.19408" lon="5.51025">
        <ele>1066.865022192</ele>
        <time>2015-12-14T14:44:05Z</time>
      </trkpt>
      <trkpt lat="45.19402" lon="5.51016">
        <ele>1061.973317235</ele>
        <time>2015-12-14T14:44:15Z</time>
      </trkpt>
      <trkpt lat="45.19396" lon="5.5101">
        <ele>1061.973317235</ele>
        <time>2015-12-14T14:44:19Z</time>
      </trkpt>
      <trkpt lat="45.19391" lon="5.5101">
        <ele>1058.075738587</ele>
        <time>2015-12-14T14:44:24Z</time>
      </trkpt>
      <trkpt lat="45.19386" lon="5.51008">
        <ele>1058.075738587</ele>
        <time>2015-12-14T14:44:29Z</time>
      </trkpt>
      <trkpt lat="45.19381" lon="5.51">
        <ele>1054.534096008</ele>
        <time>2015-12-14T14:44:34Z</time>
      </trkpt>
      <trkpt lat="45.19377" lon="5.50996">
        <ele>1054.534096008</ele>
        <time>2015-12-14T14:44:39Z</time>
      </trkpt>
      <trkpt lat="45.1936" lon="5.50981">
        <ele>1050.755846797</ele>
        <time>2015-12-14T14:44:54Z</time>
      </trkpt>
      <trkpt lat="45.19354" lon="5.5098">
        <ele>1050.755846797</ele>
        <time>2015-12-14T14:44:59Z</time>
      </trkpt>
      <trkpt lat="45.19343" lon="5.50978">
        <ele>1047.633501856</ele>
        <time>2015-12-14T14:45:09Z</time>
      </trkpt>
      <trkpt lat="45.19336" lon="5.50975">
        <ele>1047.633501856</ele>
        <time>2015-12-14T14:45:14Z</time>
      </trkpt>
      <trkpt lat="45.19326" lon="5.50965">
        <ele>1044.262574376</ele>
        <time>2015-12-14T14:45:24Z</time>
      </trkpt>
      <trkpt lat="45.19319" lon="5.50963">
        <ele>1044.262574376</ele>
        <time>2015-12-14T14:45:29Z</time>
      </trkpt>
      <trkpt lat="45.19305" lon="5.50958">
        <ele>1042.111230272</ele>
        <time>2015-12-14T14:45:41Z</time>
      </trkpt>
      <trkpt lat="45.19301" lon="5.50953">
        <ele>1042.111230272</ele>
        <time>2015-12-14T14:45:44Z</time>
      </trkpt>
      <trkpt lat="45.19287" lon="5.50952">
        <ele>1040.374427831</ele>
        <time>2015-12-14T14:45:54Z</time>
      </trkpt>
      <trkpt lat="45.19281" lon="5.50947">
        <ele>1040.374427831</ele>
        <time>2015-12-14T14:45:59Z</time>
      </trkpt>
      <trkpt lat="45.19273" lon="5.50943">
        <ele>1038.30483404</ele>
        <time>2015-12-14T14:46:09Z</time>
      </trkpt>
      <trkpt lat="45.19268" lon="5.50936">
        <ele>1038.30483404</ele>
        <time>2015-12-14T14:46:14Z</time>
      </trkpt>
      <trkpt lat="45.19257" lon="5.50928">
        <ele>1035.210685159</ele>
        <time>2015-12-14T14:46:24Z</time>
      </trkpt>
      <trkpt lat="45.19253" lon="5.5092">
        <ele>1035.210685159</ele>
        <time>2015-12-14T14:46:29Z</time>
      </trkpt>
      <trkpt lat="45.19237" lon="5.5091">
        <ele>1031.030092313</ele>
        <time>2015-12-14T14:46:40Z</time>
      </trkpt>
      <trkpt lat="45.1923" lon="5.50906">
        <ele>1031.030092313</ele>
        <time>2015-12-14T14:46:45Z</time>
      </trkpt>
      <trkpt lat="45.19221" lon="5.50899">
        <ele>1027.149611737</ele>
        <time>2015-12-14T14:46:55Z</time>
      </trkpt>
      <trkpt lat="45.19216" lon="5.50896">
        <ele>1027.149611737</ele>
        <time>2015-12-14T14:47:00Z</time>
      </trkpt>
      <trkpt lat="45.19202" lon="5.50891">
        <ele>1026.438066166</ele>
        <time>2015-12-14T14:47:10Z</time>
      </trkpt>
      <trkpt lat="45.19197" lon="5.50888">
        <ele>1026.438066166</ele>
        <time>2015-12-14T14:47:15Z</time>
      </trkpt>
      <trkpt lat="45.19181" lon="5.50875">
        <ele>1024.050607922</ele>
        <time>2015-12-14T14:47:30Z</time>
      </trkpt>
      <trkpt lat="45.19176" lon="5.50869">
        <ele>1024.050607922</ele>
        <time>2015-12-14T14:47:35Z</time>
      </trkpt>
      <trkpt lat="45.19167" lon="5.50864">
        <ele>1021.843629123</ele>
        <time>2015-12-14T14:47:44Z</time>
      </trkpt>
      <trkpt lat="45.19162" lon="5.50856">
        <ele>1021.843629123</ele>
        <time>2015-12-14T14:47:49Z</time>
      </trkpt>
      <trkpt lat="45.19151" lon="5.5085">
        <ele>1019.374734733</ele>
        <time>2015-12-14T14:48:00Z</time>
      </trkpt>
      <trkpt lat="45.19146" lon="5.50847">
        <ele>1019.374734733</ele>
        <time>2015-12-14T14:48:05Z</time>
      </trkpt>
      <trkpt lat="45.19137" lon="5.50837">
        <ele>1017.675641452</ele>
        <time>2015-12-14T14:48:15Z</time>
      </trkpt>
      <trkpt lat="45.19134" lon="5.50831">
        <ele>1017.675641452</ele>
        <time>2015-12-14T14:48:19Z</time>
      </trkpt>
      <trkpt lat="45.19122" lon="5.50822">
        <ele>1016.258782787</ele>
        <time>2015-12-14T14:48:30Z</time>
      </trkpt>
      <trkpt lat="45.19115" lon="5.50819">
        <ele>1016.258782787</ele>
        <time>2015-12-14T14:48:35Z</time>
      </trkpt>
      <trkpt lat="45.19106" lon="5.50812">
        <ele>1015.103739733</ele>
        <time>2015-12-14T14:48:46Z</time>
      </trkpt>
      <trkpt lat="45.19102" lon="5.50808">
        <ele>1015.103739733</ele>
        <time>2015-12-14T14:48:49Z</time>
      </trkpt>
      <trkpt lat="45.19096" lon="5.50802">
        <ele>1015.055331025</ele>
        <time>2015-12-14T14:48:54Z</time>
      </trkpt>
      <trkpt lat="45.19082" lon="5.508">
        <ele>1015.307812868</ele>
        <time>2015-12-14T14:49:05Z</time>
      </trkpt>
      <trkpt lat="45.19079" lon="5.50794">
        <ele>1015.307812868</ele>
        <time>2015-12-14T14:49:10Z</time>
      </trkpt>
      <trkpt lat="45.19074" lon="5.50788">
        <ele>1014.825409884</ele>
        <time>2015-12-14T14:49:21Z</time>
      </trkpt>
      <trkpt lat="45.19064" lon="5.50785">
        <ele>1015.100254057</ele>
        <time>2015-12-14T14:49:24Z</time>
      </trkpt>
      <trkpt lat="45.19051" lon="5.5078">
        <ele>1014.630409204</ele>
        <time>2015-12-14T14:49:35Z</time>
      </trkpt>
      <trkpt lat="45.19046" lon="5.5077">
        <ele>1014.630409204</ele>
        <time>2015-12-14T14:49:40Z</time>
      </trkpt>
      <trkpt lat="45.19034" lon="5.50762">
        <ele>1013.611492277</ele>
        <time>2015-12-14T14:49:50Z</time>
      </trkpt>
      <trkpt lat="45.19031" lon="5.50759">
        <ele>1013.611492277</ele>
        <time>2015-12-14T14:49:55Z</time>
      </trkpt>
      <trkpt lat="45.19023" lon="5.50748">
        <ele>1011.649770536</ele>
        <time>2015-12-14T14:50:05Z</time>
      </trkpt>
      <trkpt lat="45.1902" lon="5.50743">
        <ele>1011.649770536</ele>
        <time>2015-12-14T14:50:10Z</time>
      </trkpt>
      <trkpt lat="45.19011" lon="5.50728">
        <ele>1008.959458382</ele>
        <time>2015-12-14T14:50:20Z</time>
      </trkpt>
      <trkpt lat="45.19006" lon="5.50722">
        <ele>1008.959458382</ele>
        <time>2015-12-14T14:50:25Z</time>
      </trkpt>
      <trkpt lat="45.18993" lon="5.50718">
        <ele>1006.173349762</ele>
        <time>2015-12-14T14:50:35Z</time>
      </trkpt>
      <trkpt lat="45.18985" lon="5.50716">
        <ele>1006.173349762</ele>
        <time>2015-12-14T14:50:40Z</time>
      </trkpt>
      <trkpt lat="45.18974" lon="5.50707">
        <ele>1004.454406996</ele>
        <time>2015-12-14T14:50:49Z</time>
      </trkpt>
      <trkpt lat="45.18968" lon="5.50701">
        <ele>1004.454406996</ele>
        <time>2015-12-14T14:50:55Z</time>
      </trkpt>
      <trkpt lat="45.1896" lon="5.50694">
        <ele>1002.715440283</ele>
        <time>2015-12-14T14:51:05Z</time>
      </trkpt>
      <trkpt lat="45.18955" lon="5.50688">
        <ele>1002.715440283</ele>
        <time>2015-12-14T14:51:10Z</time>
      </trkpt>
      <trkpt lat="45.18938" lon="5.50681">
        <ele>1000.813787806</ele>
        <time>2015-12-14T14:51:25Z</time>
      </trkpt>
      <trkpt lat="45.18933" lon="5.50675">
        <ele>1000.813787806</ele>
        <time>2015-12-14T14:51:30Z</time>
      </trkpt>
      <trkpt lat="45.1893" lon="5.50671">
        <ele>999.05000093</ele>
        <time>2015-12-14T14:51:34Z</time>
      </trkpt>
      <trkpt lat="45.18925" lon="5.50666">
        <ele>999.05000093</ele>
        <time>2015-12-14T14:51:39Z</time>
      </trkpt>
      <trkpt lat="45.1892" lon="5.50662">
        <ele>997.990337106</ele>
        <time>2015-12-14T14:51:44Z</time>
      </trkpt>
      <trkpt lat="45.18913" lon="5.50663">
        <ele>997.990337106</ele>
        <time>2015-12-14T14:51:49Z</time>
      </trkpt>
      <trkpt lat="45.18911" lon="5.50656">
        <ele>995.995767299</ele>
        <time>2015-12-14T14:52:00Z</time>
      </trkpt>
      <trkpt lat="45.18912" lon="5.50657">
        <ele>995.995767299</ele>
        <time>2015-12-14T14:52:04Z</time>
      </trkpt>
      <trkpt lat="45.18912" lon="5.50655">
        <ele>995.995767299</ele>
        <time>2015-12-14T14:52:14Z</time>
      </trkpt>
      <trkpt lat="45.18912" lon="5.50655">
        <ele>995.995767299</ele>
        <time>2015-12-14T14:52:19Z</time>
      </trkpt>
      <trkpt lat="45.18912" lon="5.50655">
        <ele>995.995767299</ele>
        <time>2015-12-14T14:52:24Z</time>
      </trkpt>
      <trkpt lat="45.18912" lon="5.50655">
        <ele>995.995767299</ele>
        <time>2015-12-14T14:52:29Z</time>
      </trkpt>
      <trkpt lat="45.18912" lon="5.50656">
        <ele>995.995767299</ele>
        <time>2015-12-14T14:52:34Z</time>
      </trkpt>
      <trkpt lat="45.18912" lon="5.50656">
        <ele>995.995767299</ele>
        <time>2015-12-14T14:52:40Z</time>
      </trkpt>
      <trkpt lat="45.18901" lon="5.50651">
        <ele>994.144246176</ele>
        <time>2015-12-14T14:52:51Z</time>
      </trkpt>
      <trkpt lat="45.18899" lon="5.50647">
        <ele>994.144246176</ele>
        <time>2015-12-14T14:52:55Z</time>
      </trkpt>
      <trkpt lat="45.18892" lon="5.50637">
        <ele>993.289993988</ele>
        <time>2015-12-14T14:52:59Z</time>
      </trkpt>
      <trkpt lat="45.18881" lon="5.50631">
        <ele>992.636430736</ele>
        <time>2015-12-14T14:53:10Z</time>
      </trkpt>
      <trkpt lat="45.18877" lon="5.50621">
        <ele>992.636430736</ele>
        <time>2015-12-14T14:53:15Z</time>
      </trkpt>
      <trkpt lat="45.1887" lon="5.50612">
        <ele>992.45368713</ele>
        <time>2015-12-14T14:53:24Z</time>
      </trkpt>
      <trkpt lat="45.18866" lon="5.50607">
        <ele>992.45368713</ele>
        <time>2015-12-14T14:53:29Z</time>
      </trkpt>
      <trkpt lat="45.18853" lon="5.50602">
        <ele>992.558386823</ele>
        <time>2015-12-14T14:53:40Z</time>
      </trkpt>
      <trkpt lat="45.18848" lon="5.506">
        <ele>992.558386823</ele>
        <time>2015-12-14T14:53:45Z</time>
      </trkpt>
      <trkpt lat="45.18841" lon="5.50599">
        <ele>992.059265707</ele>
        <time>2015-12-14T14:53:54Z</time>
      </trkpt>
      <trkpt lat="45.18842" lon="5.50597">
        <ele>992.059265707</ele>
        <time>2015-12-14T14:53:59Z</time>
      </trkpt>
      <trkpt lat="45.18841" lon="5.50596">
        <ele>992.059265707</ele>
        <time>2015-12-14T14:54:04Z</time>
      </trkpt>
      <trkpt lat="45.18841" lon="5.50597">
        <ele>992.059265707</ele>
        <time>2015-12-14T14:54:09Z</time>
      </trkpt>
      <trkpt lat="45.18841" lon="5.50597">
        <ele>992.059265707</ele>
        <time>2015-12-14T14:54:19Z</time>
      </trkpt>
      <trkpt lat="45.18838" lon="5.50593">
        <ele>992.059265707</ele>
        <time>2015-12-14T14:54:24Z</time>
      </trkpt>
      <trkpt lat="45.18826" lon="5.50582">
        <ele>991.285130718</ele>
        <time>2015-12-14T14:54:34Z</time>
      </trkpt>
      <trkpt lat="45.18816" lon="5.50581">
        <ele>990.829656265</ele>
        <time>2015-12-14T14:54:40Z</time>
      </trkpt>
      <trkpt lat="45.18805" lon="5.50568">
        <ele>990.665604908</ele>
        <time>2015-12-14T14:54:50Z</time>
      </trkpt>
      <trkpt lat="45.188" lon="5.50561">
        <ele>990.665604908</ele>
        <time>2015-12-14T14:54:55Z</time>
      </trkpt>
      <trkpt lat="45.18795" lon="5.50545">
        <ele>990.911081049</ele>
        <time>2015-12-14T14:55:04Z</time>
      </trkpt>
      <trkpt lat="45.18785" lon="5.50541">
        <ele>991.242088522</ele>
        <time>2015-12-14T14:55:10Z</time>
      </trkpt>
      <trkpt lat="45.18773" lon="5.50529">
        <ele>991.646483228</ele>
        <time>2015-12-14T14:55:20Z</time>
      </trkpt>
      <trkpt lat="45.18768" lon="5.50527">
        <ele>991.646483228</ele>
        <time>2015-12-14T14:55:24Z</time>
      </trkpt>
      <trkpt lat="45.18763" lon="5.50516">
        <ele>992.112888361</ele>
        <time>2015-12-14T14:55:34Z</time>
      </trkpt>
      <trkpt lat="45.1876" lon="5.50506">
        <ele>992.112888361</ele>
        <time>2015-12-14T14:55:40Z</time>
      </trkpt>
      <trkpt lat="45.1875" lon="5.50496">
        <ele>992.774793217</ele>
        <time>2015-12-14T14:55:50Z</time>
      </trkpt>
      <trkpt lat="45.18745" lon="5.50493">
        <ele>992.774793217</ele>
        <time>2015-12-14T14:55:55Z</time>
      </trkpt>
      <trkpt lat="45.18736" lon="5.50486">
        <ele>993.755437886</ele>
        <time>2015-12-14T14:56:05Z</time>
      </trkpt>
      <trkpt lat="45.18731" lon="5.50479">
        <ele>993.755437886</ele>
        <time>2015-12-14T14:56:10Z</time>
      </trkpt>
      <trkpt lat="45.1872" lon="5.50471">
        <ele>995.168233086</ele>
        <time>2015-12-14T14:56:20Z</time>
      </trkpt>
      <trkpt lat="45.18714" lon="5.50467">
        <ele>995.168233086</ele>
        <time>2015-12-14T14:56:25Z</time>
      </trkpt>
      <trkpt lat="45.18703" lon="5.50451">
        <ele>995.964286727</ele>
        <time>2015-12-14T14:56:40Z</time>
      </trkpt>
      <trkpt lat="45.18698" lon="5.50443">
        <ele>995.964286727</ele>
        <time>2015-12-14T14:56:44Z</time>
      </trkpt>
      <trkpt lat="45.18687" lon="5.50431">
        <ele>996.902963654</ele>
        <time>2015-12-14T14:56:55Z</time>
      </trkpt>
      <trkpt lat="45.18682" lon="5.50426">
        <ele>996.902963654</ele>
        <time>2015-12-14T14:56:59Z</time>
      </trkpt>
      <trkpt lat="45.18675" lon="5.5041">
        <ele>996.38181748</ele>
        <time>2015-12-14T14:57:10Z</time>
      </trkpt>
      <trkpt lat="45.18674" lon="5.50407">
        <ele>996.38181748</ele>
        <time>2015-12-14T14:57:16Z</time>
      </trkpt>
      <trkpt lat="45.1866" lon="5.50395">
        <ele>995.802589922</ele>
        <time>2015-12-14T14:57:24Z</time>
      </trkpt>
      <trkpt lat="45.18658" lon="5.50385">
        <ele>995.802589922</ele>
        <time>2015-12-14T14:57:30Z</time>
      </trkpt>
      <trkpt lat="45.18648" lon="5.50372">
        <ele>994.446811865</ele>
        <time>2015-12-14T14:57:41Z</time>
      </trkpt>
      <trkpt lat="45.18643" lon="5.50365">
        <ele>994.446811865</ele>
        <time>2015-12-14T14:57:45Z</time>
      </trkpt>
      <trkpt lat="45.18632" lon="5.50357">
        <ele>993.380453822</ele>
        <time>2015-12-14T14:57:55Z</time>
      </trkpt>
      <trkpt lat="45.18625" lon="5.50352">
        <ele>993.380453822</ele>
        <time>2015-12-14T14:57:59Z</time>
      </trkpt>
      <trkpt lat="45.18616" lon="5.50339">
        <ele>991.428840427</ele>
        <time>2015-12-14T14:58:10Z</time>
      </trkpt>
      <trkpt lat="45.18613" lon="5.50334">
        <ele>991.428840427</ele>
        <time>2015-12-14T14:58:15Z</time>
      </trkpt>
      <trkpt lat="45.18602" lon="5.50329">
        <ele>989.091420273</ele>
        <time>2015-12-14T14:58:25Z</time>
      </trkpt>
      <trkpt lat="45.18596" lon="5.50328">
        <ele>989.091420273</ele>
        <time>2015-12-14T14:58:30Z</time>
      </trkpt>
      <trkpt lat="45.18587" lon="5.50311">
        <ele>987.1203702</ele>
        <time>2015-12-14T14:58:40Z</time>
      </trkpt>
      <trkpt lat="45.18583" lon="5.50306">
        <ele>987.1203702</ele>
        <time>2015-12-14T14:58:44Z</time>
      </trkpt>
      <trkpt lat="45.18573" lon="5.50291">
        <ele>984.914681804</ele>
        <time>2015-12-14T14:58:55Z</time>
      </trkpt>
      <trkpt lat="45.18569" lon="5.50284">
        <ele>984.914681804</ele>
        <time>2015-12-14T14:59:00Z</time>
      </trkpt>
      <trkpt lat="45.18565" lon="5.50278">
        <ele>983.215237543</ele>
        <time>2015-12-14T14:59:04Z</time>
      </trkpt>
      <trkpt lat="45.18557" lon="5.50264">
        <ele>981.84247711</ele>
        <time>2015-12-14T14:59:15Z</time>
      </trkpt>
      <trkpt lat="45.18552" lon="5.50257">
        <ele>981.84247711</ele>
        <time>2015-12-14T14:59:20Z</time>
      </trkpt>
      <trkpt lat="45.18543" lon="5.50249">
        <ele>981.493841208</ele>
        <time>2015-12-14T14:59:30Z</time>
      </trkpt>
      <trkpt lat="45.18538" lon="5.50243">
        <ele>981.493841208</ele>
        <time>2015-12-14T14:59:35Z</time>
      </trkpt>
      <trkpt lat="45.18527" lon="5.50234">
        <ele>980.795161222</ele>
        <time>2015-12-14T14:59:45Z</time>
      </trkpt>
      <trkpt lat="45.18522" lon="5.50231">
        <ele>980.795161222</ele>
        <time>2015-12-14T14:59:50Z</time>
      </trkpt>
      <trkpt lat="45.18511" lon="5.50224">
        <ele>980.347692126</ele>
        <time>2015-12-14T14:59:59Z</time>
      </trkpt>
      <trkpt lat="45.18505" lon="5.50223">
        <ele>980.347692126</ele>
        <time>2015-12-14T15:00:04Z</time>
      </trkpt>
      <trkpt lat="45.18494" lon="5.50213">
        <ele>980.131422316</ele>
        <time>2015-12-14T15:00:14Z</time>
      </trkpt>
      <trkpt lat="45.18489" lon="5.50211">
        <ele>980.131422316</ele>
        <time>2015-12-14T15:00:19Z</time>
      </trkpt>
      <trkpt lat="45.18478" lon="5.50203">
        <ele>979.550768191</ele>
        <time>2015-12-14T15:00:30Z</time>
      </trkpt>
      <trkpt lat="45.18473" lon="5.50197">
        <ele>979.550768191</ele>
        <time>2015-12-14T15:00:35Z</time>
      </trkpt>
      <trkpt lat="45.18473" lon="5.50185">
        <ele>977.910858152</ele>
        <time>2015-12-14T15:00:45Z</time>
      </trkpt>
      <trkpt lat="45.1847" lon="5.50183">
        <ele>977.910858152</ele>
        <time>2015-12-14T15:00:50Z</time>
      </trkpt>
      <trkpt lat="45.18461" lon="5.5018">
        <ele>976.156106498</ele>
        <time>2015-12-14T15:01:00Z</time>
      </trkpt>
      <trkpt lat="45.18455" lon="5.5018">
        <ele>976.156106498</ele>
        <time>2015-12-14T15:01:04Z</time>
      </trkpt>
      <trkpt lat="45.18442" lon="5.50171">
        <ele>974.441358758</ele>
        <time>2015-12-14T15:01:15Z</time>
      </trkpt>
      <trkpt lat="45.18439" lon="5.50163">
        <ele>974.441358758</ele>
        <time>2015-12-14T15:01:20Z</time>
      </trkpt>
      <trkpt lat="45.1843" lon="5.50154">
        <ele>972.765895167</ele>
        <time>2015-12-14T15:01:30Z</time>
      </trkpt>
      <trkpt lat="45.18425" lon="5.50149">
        <ele>972.765895167</ele>
        <time>2015-12-14T15:01:35Z</time>
      </trkpt>
      <trkpt lat="45.18411" lon="5.50145">
        <ele>972.137742485</ele>
        <time>2015-12-14T15:01:45Z</time>
      </trkpt>
      <trkpt lat="45.18403" lon="5.50145">
        <ele>972.137742485</ele>
        <time>2015-12-14T15:01:50Z</time>
      </trkpt>
      <trkpt lat="45.18392" lon="5.50138">
        <ele>971.90273857</ele>
        <time>2015-12-14T15:02:00Z</time>
      </trkpt>
      <trkpt lat="45.18388" lon="5.50137">
        <ele>971.90273857</ele>
        <time>2015-12-14T15:02:05Z</time>
      </trkpt>
      <trkpt lat="45.18374" lon="5.50127">
        <ele>970.589023282</ele>
        <time>2015-12-14T15:02:19Z</time>
      </trkpt>
      <trkpt lat="45.18369" lon="5.50125">
        <ele>970.589023282</ele>
        <time>2015-12-14T15:02:24Z</time>
      </trkpt>
      <trkpt lat="45.18356" lon="5.50124">
        <ele>970.582792956</ele>
        <time>2015-12-14T15:02:35Z</time>
      </trkpt>
      <trkpt lat="45.1835" lon="5.50123">
        <ele>970.582792956</ele>
        <time>2015-12-14T15:02:40Z</time>
      </trkpt>
      <trkpt lat="45.18339" lon="5.50122">
        <ele>971.353196888</ele>
        <time>2015-12-14T15:02:50Z</time>
      </trkpt>
      <trkpt lat="45.18336" lon="5.50122">
        <ele>971.353196888</ele>
        <time>2015-12-14T15:02:55Z</time>
      </trkpt>
      <trkpt lat="45.18335" lon="5.50124">
        <ele>971.353196888</ele>
        <time>2015-12-14T15:03:04Z</time>
      </trkpt>
      <trkpt lat="45.18334" lon="5.50123">
        <ele>971.353196888</ele>
        <time>2015-12-14T15:03:09Z</time>
      </trkpt>
      <trkpt lat="45.18333" lon="5.50122">
        <ele>971.353196888</ele>
        <time>2015-12-14T15:03:14Z</time>
      </trkpt>
      <trkpt lat="45.18329" lon="5.50119">
        <ele>974.567900302</ele>
        <time>2015-12-14T15:03:19Z</time>
      </trkpt>
      <trkpt lat="45.18313" lon="5.50105">
        <ele>975.856690445</ele>
        <time>2015-12-14T15:03:35Z</time>
      </trkpt>
      <trkpt lat="45.18307" lon="5.50103">
        <ele>975.856690445</ele>
        <time>2015-12-14T15:03:40Z</time>
      </trkpt>
      <trkpt lat="45.18301" lon="5.50094">
        <ele>976.507961343</ele>
        <time>2015-12-14T15:03:49Z</time>
      </trkpt>
      <trkpt lat="45.183" lon="5.50093">
        <ele>976.507961343</ele>
        <time>2015-12-14T15:03:55Z</time>
      </trkpt>
      <trkpt lat="45.183" lon="5.50093">
        <ele>976.507961343</ele>
        <time>2015-12-14T15:04:04Z</time>
      </trkpt>
      <trkpt lat="45.18304" lon="5.50094">
        <ele>976.507961343</ele>
        <time>2015-12-14T15:04:09Z</time>
      </trkpt>
      <trkpt lat="45.1831" lon="5.50105">
        <ele>976.852655706</ele>
        <time>2015-12-14T15:04:24Z</time>
      </trkpt>
      <trkpt lat="45.18311" lon="5.50105">
        <ele>976.852655706</ele>
        <time>2015-12-14T15:04:29Z</time>
      </trkpt>
      <trkpt lat="45.18311" lon="5.50105">
        <ele>976.852655706</ele>
        <time>2015-12-14T15:04:39Z</time>
      </trkpt>
      <trkpt lat="45.18311" lon="5.50105">
        <ele>976.852655706</ele>
        <time>2015-12-14T15:04:44Z</time>
      </trkpt>
      <trkpt lat="45.18311" lon="5.50105">
        <ele>976.852655706</ele>
        <time>2015-12-14T15:04:54Z</time>
      </trkpt>
      <trkpt lat="45.18311" lon="5.50105">
        <ele>976.852655706</ele>
        <time>2015-12-14T15:04:59Z</time>
      </trkpt>
      <trkpt lat="45.18311" lon="5.50113">
        <ele>976.852655706</ele>
        <time>2015-12-14T15:05:09Z</time>
      </trkpt>
      <trkpt lat="45.18312" lon="5.5012">
        <ele>977.19834811</ele>
        <time>2015-12-14T15:05:14Z</time>
      </trkpt>
      <trkpt lat="45.18312" lon="5.50136">
        <ele>976.677213117</ele>
        <time>2015-12-14T15:05:24Z</time>
      </trkpt>
      <trkpt lat="45.18308" lon="5.50141">
        <ele>976.677213117</ele>
        <time>2015-12-14T15:05:29Z</time>
      </trkpt>
      <trkpt lat="45.18301" lon="5.5014">
        <ele>975.640582228</ele>
        <time>2015-12-14T15:05:39Z</time>
      </trkpt>
      <trkpt lat="45.18298" lon="5.50139">
        <ele>975.640582228</ele>
        <time>2015-12-14T15:05:45Z</time>
      </trkpt>
      <trkpt lat="45.1829" lon="5.50134">
        <ele>973.839060903</ele>
        <time>2015-12-14T15:05:55Z</time>
      </trkpt>
      <trkpt lat="45.18287" lon="5.50134">
        <ele>973.839060903</ele>
        <time>2015-12-14T15:06:00Z</time>
      </trkpt>
      <trkpt lat="45.18287" lon="5.50134">
        <ele>973.839060903</ele>
        <time>2015-12-14T15:06:10Z</time>
      </trkpt>
      <trkpt lat="45.18286" lon="5.50135">
        <ele>973.839060903</ele>
        <time>2015-12-14T15:06:15Z</time>
      </trkpt>
      <trkpt lat="45.18285" lon="5.50139">
        <ele>973.839060903</ele>
        <time>2015-12-14T15:06:25Z</time>
      </trkpt>
      <trkpt lat="45.18283" lon="5.50138">
        <ele>972.48490573</ele>
        <time>2015-12-14T15:06:29Z</time>
      </trkpt>
      <trkpt lat="45.18283" lon="5.50143">
        <ele>972.48490573</ele>
        <time>2015-12-14T15:06:45Z</time>
      </trkpt>
      <trkpt lat="45.18283" lon="5.50147">
        <ele>972.48490573</ele>
        <time>2015-12-14T15:06:50Z</time>
      </trkpt>
      <trkpt lat="45.18277" lon="5.50153">
        <ele>971.403129397</ele>
        <time>2015-12-14T15:07:00Z</time>
      </trkpt>
      <trkpt lat="45.18276" lon="5.50152">
        <ele>971.403129397</ele>
        <time>2015-12-14T15:07:05Z</time>
      </trkpt>
      <trkpt lat="45.18275" lon="5.50151">
        <ele>971.403129397</ele>
        <time>2015-12-14T15:07:15Z</time>
      </trkpt>
      <trkpt lat="45.18275" lon="5.5015">
        <ele>971.403129397</ele>
        <time>2015-12-14T15:07:20Z</time>
      </trkpt>
      <trkpt lat="45.18275" lon="5.5015">
        <ele>971.403129397</ele>
        <time>2015-12-14T15:07:29Z</time>
      </trkpt>
      <trkpt lat="45.18275" lon="5.5015">
        <ele>971.403129397</ele>
        <time>2015-12-14T15:07:35Z</time>
      </trkpt>
      <trkpt lat="45.18274" lon="5.50146">
        <ele>971.403129397</ele>
        <time>2015-12-14T15:07:44Z</time>
      </trkpt>
      <trkpt lat="45.18273" lon="5.50138">
        <ele>968.557439513</ele>
        <time>2015-12-14T15:07:49Z</time>
      </trkpt>
      <trkpt lat="45.18271" lon="5.50131">
        <ele>968.557439513</ele>
        <time>2015-12-14T15:08:00Z</time>
      </trkpt>
      <trkpt lat="45.18271" lon="5.50131">
        <ele>968.557439513</ele>
        <time>2015-12-14T15:08:05Z</time>
      </trkpt>
      <trkpt lat="45.18272" lon="5.50126">
        <ele>966.24533671</ele>
        <time>2015-12-14T15:08:15Z</time>
      </trkpt>
      <trkpt lat="45.18272" lon="5.50124">
        <ele>966.24533671</ele>
        <time>2015-12-14T15:08:20Z</time>
      </trkpt>
      <trkpt lat="45.18272" lon="5.50123">
        <ele>966.24533671</ele>
        <time>2015-12-14T15:08:30Z</time>
      </trkpt>
      <trkpt lat="45.18272" lon="5.50123">
        <ele>966.24533671</ele>
        <time>2015-12-14T15:08:35Z</time>
      </trkpt>
      <trkpt lat="45.18273" lon="5.50123">
        <ele>966.24533671</ele>
        <time>2015-12-14T15:08:45Z</time>
      </trkpt>
      <trkpt lat="45.18273" lon="5.50123">
        <ele>966.24533671</ele>
        <time>2015-12-14T15:08:50Z</time>
      </trkpt>
      <trkpt lat="45.18274" lon="5.50125">
        <ele>966.24533671</ele>
        <time>2015-12-14T15:09:00Z</time>
      </trkpt>
      <trkpt lat="45.18274" lon="5.50129">
        <ele>966.24533671</ele>
        <time>2015-12-14T15:09:05Z</time>
      </trkpt>
      <trkpt lat="45.18268" lon="5.50142">
        <ele>964.432406632</ele>
        <time>2015-12-14T15:09:15Z</time>
      </trkpt>
      <trkpt lat="45.18262" lon="5.50145">
        <ele>964.432406632</ele>
        <time>2015-12-14T15:09:20Z</time>
      </trkpt>
      <trkpt lat="45.18251" lon="5.5016">
        <ele>962.6530376</ele>
        <time>2015-12-14T15:09:35Z</time>
      </trkpt>
      <trkpt lat="45.1825" lon="5.50159">
        <ele>962.6530376</ele>
        <time>2015-12-14T15:09:40Z</time>
      </trkpt>
      <trkpt lat="45.18247" lon="5.50162">
        <ele>962.6530376</ele>
        <time>2015-12-14T15:09:50Z</time>
      </trkpt>
      <trkpt lat="45.18243" lon="5.50164">
        <ele>960.187499063</ele>
        <time>2015-12-14T15:09:55Z</time>
      </trkpt>
      <trkpt lat="45.18232" lon="5.50163">
        <ele>957.956061245</ele>
        <time>2015-12-14T15:10:05Z</time>
      </trkpt>
      <trkpt lat="45.18231" lon="5.50162">
        <ele>957.956061245</ele>
        <time>2015-12-14T15:10:10Z</time>
      </trkpt>
      <trkpt lat="45.18223" lon="5.50158">
        <ele>954.793147852</ele>
        <time>2015-12-14T15:10:20Z</time>
      </trkpt>
      <trkpt lat="45.18222" lon="5.50158">
        <ele>954.793147852</ele>
        <time>2015-12-14T15:10:25Z</time>
      </trkpt>
      <trkpt lat="45.18221" lon="5.50157">
        <ele>954.793147852</ele>
        <time>2015-12-14T15:10:35Z</time>
      </trkpt>
      <trkpt lat="45.18221" lon="5.50157">
        <ele>954.793147852</ele>
        <time>2015-12-14T15:10:40Z</time>
      </trkpt>
      <trkpt lat="45.18216" lon="5.50143">
        <ele>950.630149668</ele>
        <time>2015-12-14T15:10:50Z</time>
      </trkpt>
      <trkpt lat="45.18213" lon="5.50141">
        <ele>950.630149668</ele>
        <time>2015-12-14T15:10:55Z</time>
      </trkpt>
      <trkpt lat="45.18206" lon="5.50141">
        <ele>946.126793409</ele>
        <time>2015-12-14T15:11:05Z</time>
      </trkpt>
      <trkpt lat="45.18201" lon="5.50138">
        <ele>946.126793409</ele>
        <time>2015-12-14T15:11:09Z</time>
      </trkpt>
      <trkpt lat="45.18193" lon="5.50139">
        <ele>942.183434196</ele>
        <time>2015-12-14T15:11:20Z</time>
      </trkpt>
      <trkpt lat="45.18188" lon="5.50138">
        <ele>942.183434196</ele>
        <time>2015-12-14T15:11:25Z</time>
      </trkpt>
      <trkpt lat="45.18173" lon="5.50146">
        <ele>938.767943369</ele>
        <time>2015-12-14T15:11:40Z</time>
      </trkpt>
      <trkpt lat="45.18174" lon="5.50142">
        <ele>938.767943369</ele>
        <time>2015-12-14T15:11:45Z</time>
      </trkpt>
      <trkpt lat="45.18167" lon="5.50144">
        <ele>935.416612994</ele>
        <time>2015-12-14T15:11:55Z</time>
      </trkpt>
      <trkpt lat="45.18162" lon="5.50144">
        <ele>935.416612994</ele>
        <time>2015-12-14T15:12:00Z</time>
      </trkpt>
      <trkpt lat="45.18151" lon="5.50146">
        <ele>931.987700764</ele>
        <time>2015-12-14T15:12:10Z</time>
      </trkpt>
      <trkpt lat="45.18145" lon="5.50145">
        <ele>931.987700764</ele>
        <time>2015-12-14T15:12:14Z</time>
      </trkpt>
      <trkpt lat="45.18136" lon="5.50143">
        <ele>929.935167217</ele>
        <time>2015-12-14T15:12:25Z</time>
      </trkpt>
      <trkpt lat="45.18134" lon="5.50137">
        <ele>929.935167217</ele>
        <time>2015-12-14T15:12:30Z</time>
      </trkpt>
      <trkpt lat="45.18125" lon="5.50135">
        <ele>926.711145403</ele>
        <time>2015-12-14T15:12:40Z</time>
      </trkpt>
      <trkpt lat="45.1812" lon="5.50132">
        <ele>926.711145403</ele>
        <time>2015-12-14T15:12:45Z</time>
      </trkpt>
      <trkpt lat="45.18111" lon="5.50128">
        <ele>924.137281188</ele>
        <time>2015-12-14T15:13:00Z</time>
      </trkpt>
      <trkpt lat="45.18111" lon="5.50124">
        <ele>924.137281188</ele>
        <time>2015-12-14T15:13:04Z</time>
      </trkpt>
      <trkpt lat="45.18112" lon="5.50124">
        <ele>924.137281188</ele>
        <time>2015-12-14T15:13:09Z</time>
      </trkpt>
      <trkpt lat="45.18109" lon="5.50125">
        <ele>924.137281188</ele>
        <time>2015-12-14T15:13:15Z</time>
      </trkpt>
      <trkpt lat="45.18096" lon="5.50122">
        <ele>922.746527556</ele>
        <time>2015-12-14T15:13:25Z</time>
      </trkpt>
      <trkpt lat="45.18097" lon="5.50119">
        <ele>922.746527556</ele>
        <time>2015-12-14T15:13:30Z</time>
      </trkpt>
      <trkpt lat="45.18094" lon="5.50116">
        <ele>922.746527556</ele>
        <time>2015-12-14T15:13:44Z</time>
      </trkpt>
      <trkpt lat="45.18094" lon="5.50116">
        <ele>922.746527556</ele>
        <time>2015-12-14T15:13:49Z</time>
      </trkpt>
      <trkpt lat="45.18095" lon="5.50115">
        <ele>922.746527556</ele>
        <time>2015-12-14T15:13:54Z</time>
      </trkpt>
      <trkpt lat="45.18099" lon="5.50104">
        <ele>920.579316825</ele>
        <time>2015-12-14T15:13:59Z</time>
      </trkpt>
      <trkpt lat="45.18106" lon="5.50098">
        <ele>920.579316825</ele>
        <time>2015-12-14T15:14:05Z</time>
      </trkpt>
      <trkpt lat="45.18112" lon="5.50097">
        <ele>918.271939026</ele>
        <time>2015-12-14T15:14:10Z</time>
      </trkpt>
      <trkpt lat="45.18127" lon="5.50082">
        <ele>917.134738964</ele>
        <time>2015-12-14T15:14:25Z</time>
      </trkpt>
      <trkpt lat="45.1813" lon="5.50078">
        <ele>917.134738964</ele>
        <time>2015-12-14T15:14:30Z</time>
      </trkpt>
      <trkpt lat="45.18131" lon="5.50065">
        <ele>916.360820673</ele>
        <time>2015-12-14T15:14:40Z</time>
      </trkpt>
      <trkpt lat="45.18128" lon="5.50064">
        <ele>916.360820673</ele>
        <time>2015-12-14T15:14:45Z</time>
      </trkpt>
      <trkpt lat="45.18122" lon="5.50062">
        <ele>916.360820673</ele>
        <time>2015-12-14T15:14:55Z</time>
      </trkpt>
      <trkpt lat="45.18116" lon="5.50066">
        <ele>915.777853149</ele>
        <time>2015-12-14T15:15:00Z</time>
      </trkpt>
      <trkpt lat="45.18107" lon="5.50058">
        <ele>915.513729934</ele>
        <time>2015-12-14T15:15:10Z</time>
      </trkpt>
      <trkpt lat="45.18101" lon="5.50056">
        <ele>915.513729934</ele>
        <time>2015-12-14T15:15:15Z</time>
      </trkpt>
      <trkpt lat="45.18089" lon="5.50063">
        <ele>915.541838768</ele>
        <time>2015-12-14T15:15:25Z</time>
      </trkpt>
      <trkpt lat="45.18083" lon="5.50058">
        <ele>915.541838768</ele>
        <time>2015-12-14T15:15:29Z</time>
      </trkpt>
      <trkpt lat="45.18074" lon="5.50056">
        <ele>915.548392187</ele>
        <time>2015-12-14T15:15:40Z</time>
      </trkpt>
      <trkpt lat="45.18068" lon="5.50056">
        <ele>915.548392187</ele>
        <time>2015-12-14T15:15:45Z</time>
      </trkpt>
      <trkpt lat="45.18064" lon="5.50051">
        <ele>915.674977191</ele>
        <time>2015-12-14T15:15:49Z</time>
      </trkpt>
      <trkpt lat="45.18052" lon="5.50042">
        <ele>915.475945599</ele>
        <time>2015-12-14T15:16:00Z</time>
      </trkpt>
      <trkpt lat="45.1805" lon="5.50031">
        <ele>915.475945599</ele>
        <time>2015-12-14T15:16:05Z</time>
      </trkpt>
      <trkpt lat="45.18043" lon="5.50017">
        <ele>914.827484661</ele>
        <time>2015-12-14T15:16:15Z</time>
      </trkpt>
      <trkpt lat="45.18037" lon="5.5001">
        <ele>914.827484661</ele>
        <time>2015-12-14T15:16:20Z</time>
      </trkpt>
      <trkpt lat="45.18029" lon="5.50002">
        <ele>914.336669674</ele>
        <time>2015-12-14T15:16:31Z</time>
      </trkpt>
      <trkpt lat="45.18025" lon="5.49997">
        <ele>914.336669674</ele>
        <time>2015-12-14T15:16:34Z</time>
      </trkpt>
      <trkpt lat="45.18015" lon="5.49983">
        <ele>912.980301647</ele>
        <time>2015-12-14T15:16:45Z</time>
      </trkpt>
      <trkpt lat="45.18012" lon="5.49977">
        <ele>912.980301647</ele>
        <time>2015-12-14T15:16:49Z</time>
      </trkpt>
      <trkpt lat="45.17997" lon="5.49974">
        <ele>910.965654748</ele>
        <time>2015-12-14T15:17:05Z</time>
      </trkpt>
      <trkpt lat="45.17989" lon="5.49974">
        <ele>910.965654748</ele>
        <time>2015-12-14T15:17:09Z</time>
      </trkpt>
      <trkpt lat="45.17981" lon="5.49959">
        <ele>908.630728816</ele>
        <time>2015-12-14T15:17:20Z</time>
      </trkpt>
      <trkpt lat="45.17975" lon="5.49958">
        <ele>908.630728816</ele>
        <time>2015-12-14T15:17:25Z</time>
      </trkpt>
      <trkpt lat="45.17957" lon="5.49955">
        <ele>907.010142595</ele>
        <time>2015-12-14T15:17:40Z</time>
      </trkpt>
      <trkpt lat="45.17939" lon="5.49951">
        <ele>905.47527723</ele>
        <time>2015-12-14T15:17:55Z</time>
      </trkpt>
      <trkpt lat="45.17937" lon="5.49946">
        <ele>905.47527723</ele>
        <time>2015-12-14T15:18:00Z</time>
      </trkpt>
      <trkpt lat="45.17928" lon="5.49936">
        <ele>903.587551603</ele>
        <time>2015-12-14T15:18:10Z</time>
      </trkpt>
      <trkpt lat="45.17923" lon="5.49934">
        <ele>903.587551603</ele>
        <time>2015-12-14T15:18:14Z</time>
      </trkpt>
      <trkpt lat="45.17914" lon="5.4993">
        <ele>901.518024139</ele>
        <time>2015-12-14T15:18:25Z</time>
      </trkpt>
      <trkpt lat="45.17909" lon="5.49932">
        <ele>901.518024139</ele>
        <time>2015-12-14T15:18:30Z</time>
      </trkpt>
      <trkpt lat="45.17899" lon="5.49935">
        <ele>900.86679703</ele>
        <time>2015-12-14T15:18:40Z</time>
      </trkpt>
      <trkpt lat="45.17895" lon="5.49928">
        <ele>900.86679703</ele>
        <time>2015-12-14T15:18:45Z</time>
      </trkpt>
      <trkpt lat="45.17883" lon="5.49934">
        <ele>900.950774636</ele>
        <time>2015-12-14T15:18:54Z</time>
      </trkpt>
      <trkpt lat="45.17877" lon="5.49928">
        <ele>900.950774636</ele>
        <time>2015-12-14T15:19:00Z</time>
      </trkpt>
      <trkpt lat="45.17867" lon="5.49929">
        <ele>901.8555328</ele>
        <time>2015-12-14T15:19:10Z</time>
      </trkpt>
      <trkpt lat="45.17865" lon="5.49926">
        <ele>901.8555328</ele>
        <time>2015-12-14T15:19:15Z</time>
      </trkpt>
      <trkpt lat="45.17862" lon="5.4992">
        <ele>901.8555328</ele>
        <time>2015-12-14T15:19:26Z</time>
      </trkpt>
      <trkpt lat="45.17851" lon="5.49911">
        <ele>901.784621903</ele>
        <time>2015-12-14T15:19:30Z</time>
      </trkpt>
      <trkpt lat="45.17834" lon="5.49895">
        <ele>899.94098123</ele>
        <time>2015-12-14T15:19:45Z</time>
      </trkpt>
      <trkpt lat="45.17827" lon="5.49898">
        <ele>899.94098123</ele>
        <time>2015-12-14T15:19:50Z</time>
      </trkpt>
      <trkpt lat="45.17816" lon="5.49891">
        <ele>898.761547832</ele>
        <time>2015-12-14T15:20:00Z</time>
      </trkpt>
      <trkpt lat="45.17812" lon="5.49886">
        <ele>898.761547832</ele>
        <time>2015-12-14T15:20:05Z</time>
      </trkpt>
      <trkpt lat="45.17804" lon="5.49885">
        <ele>896.611408165</ele>
        <time>2015-12-14T15:20:15Z</time>
      </trkpt>
      <trkpt lat="45.17799" lon="5.49882">
        <ele>896.611408165</ele>
        <time>2015-12-14T15:20:20Z</time>
      </trkpt>
      <trkpt lat="45.17787" lon="5.49873">
        <ele>894.428389138</ele>
        <time>2015-12-14T15:20:30Z</time>
      </trkpt>
      <trkpt lat="45.17784" lon="5.49876">
        <ele>894.428389138</ele>
        <time>2015-12-14T15:20:35Z</time>
      </trkpt>
      <trkpt lat="45.17778" lon="5.49863">
        <ele>891.063981543</ele>
        <time>2015-12-14T15:20:45Z</time>
      </trkpt>
      <trkpt lat="45.17775" lon="5.49861">
        <ele>891.063981543</ele>
        <time>2015-12-14T15:20:50Z</time>
      </trkpt>
      <trkpt lat="45.17759" lon="5.49857">
        <ele>887.7631484</ele>
        <time>2015-12-14T15:21:05Z</time>
      </trkpt>
      <trkpt lat="45.17752" lon="5.49852">
        <ele>887.7631484</ele>
        <time>2015-12-14T15:21:10Z</time>
      </trkpt>
      <trkpt lat="45.17743" lon="5.49849">
        <ele>885.390997404</ele>
        <time>2015-12-14T15:21:20Z</time>
      </trkpt>
      <trkpt lat="45.1774" lon="5.49846">
        <ele>885.390997404</ele>
        <time>2015-12-14T15:21:25Z</time>
      </trkpt>
      <trkpt lat="45.17735" lon="5.49847">
        <ele>885.390997404</ele>
        <time>2015-12-14T15:21:35Z</time>
      </trkpt>
      <trkpt lat="45.17731" lon="5.49848">
        <ele>884.314137895</ele>
        <time>2015-12-14T15:21:40Z</time>
      </trkpt>
      <trkpt lat="45.17722" lon="5.49848">
        <ele>884.314137895</ele>
        <time>2015-12-14T15:21:50Z</time>
      </trkpt>
      <trkpt lat="45.1772" lon="5.49851">
        <ele>882.562819418</ele>
        <time>2015-12-14T15:21:54Z</time>
      </trkpt>
      <trkpt lat="45.17718" lon="5.49851">
        <ele>882.562819418</ele>
        <time>2015-12-14T15:22:04Z</time>
      </trkpt>
      <trkpt lat="45.17717" lon="5.49852">
        <ele>882.562819418</ele>
        <time>2015-12-14T15:22:09Z</time>
      </trkpt>
      <trkpt lat="45.17715" lon="5.49853">
        <ele>882.562819418</ele>
        <time>2015-12-14T15:22:19Z</time>
      </trkpt>
      <trkpt lat="45.17715" lon="5.49853">
        <ele>882.562819418</ele>
        <time>2015-12-14T15:22:24Z</time>
      </trkpt>
      <trkpt lat="45.17715" lon="5.49854">
        <ele>882.562819418</ele>
        <time>2015-12-14T15:22:35Z</time>
      </trkpt>
      <trkpt lat="45.17715" lon="5.49854">
        <ele>882.562819418</ele>
        <time>2015-12-14T15:22:39Z</time>
      </trkpt>
      <trkpt lat="45.17715" lon="5.49855">
        <ele>882.562819418</ele>
        <time>2015-12-14T15:22:44Z</time>
      </trkpt>
      <trkpt lat="45.17716" lon="5.49856">
        <ele>882.562819418</ele>
        <time>2015-12-14T15:22:54Z</time>
      </trkpt>
      <trkpt lat="45.17716" lon="5.49856">
        <ele>882.562819418</ele>
        <time>2015-12-14T15:22:59Z</time>
      </trkpt>
      <trkpt lat="45.17716" lon="5.49856">
        <ele>882.562819418</ele>
        <time>2015-12-14T15:23:09Z</time>
      </trkpt>
      <trkpt lat="45.17716" lon="5.49856">
        <ele>882.562819418</ele>
        <time>2015-12-14T15:23:14Z</time>
      </trkpt>
      <trkpt lat="45.17717" lon="5.49856">
        <ele>880.331416302</ele>
        <time>2015-12-14T15:23:24Z</time>
      </trkpt>
      <trkpt lat="45.17716" lon="5.49856">
        <ele>880.331416302</ele>
        <time>2015-12-14T15:23:29Z</time>
      </trkpt>
      <trkpt lat="45.17717" lon="5.49856">
        <ele>880.331416302</ele>
        <time>2015-12-14T15:23:39Z</time>
      </trkpt>
      <trkpt lat="45.17717" lon="5.49856">
        <ele>880.331416302</ele>
        <time>2015-12-14T15:23:44Z</time>
      </trkpt>
      <trkpt lat="45.17717" lon="5.49856">
        <ele>880.331416302</ele>
        <time>2015-12-14T15:23:49Z</time>
      </trkpt>
      <trkpt lat="45.17717" lon="5.49856">
        <ele>880.331416302</ele>
        <time>2015-12-14T15:23:54Z</time>
      </trkpt>
    </trkseg>
  </trk>
</gpx>